<?xml version="1.0" encoding="UTF-8" standalone="no" ?>
<gpx xmlns="http://www.topografix.com/GPX/1/1" xmlns:xsi="http://www.w3.org/2001/XMLSchema-instance" xsi:schemaLocation="http://www.topografix.com/GPX/1/1 http://www.topografix.com/GPX/1/1/gpx.xsd" version="1.1" creator="VisuGPX - https://www.visugpx.com">
  <metadata>
    <name>Sortie hivernale 10ième (marcheurs-complet)</name>
    <desc><![CDATA[Sortie hivernale 10ième (marcheurs-complet)]]></desc>
  </metadata>
  <trk>
    <name><![CDATA[Sortie des z'amis 10e Edition]]></name>
    <trkseg>
      <trkpt lat="50.38785" lon="4.32736">
        <ele>152.60000610352</ele>
        <time>2014-12-29T07:48:59.000Z</time>
      </trkpt>
      <trkpt lat="50.38783" lon="4.32738">
        <ele>152.39999389648</ele>
        <time>2014-12-29T07:49:01.000Z</time>
      </trkpt>
      <trkpt lat="50.3878" lon="4.32742">
        <ele>152.19999694824</ele>
        <time>2014-12-29T07:49:05.000Z</time>
      </trkpt>
      <trkpt lat="50.38772" lon="4.32744">
        <ele>151.60000610352</ele>
        <time>2014-12-29T07:49:13.000Z</time>
      </trkpt>
      <trkpt lat="50.38761" lon="4.3275">
        <ele>150.80000305176</ele>
        <time>2014-12-29T07:49:22.000Z</time>
      </trkpt>
      <trkpt lat="50.38751" lon="4.32754">
        <ele>150.19999694824</ele>
        <time>2014-12-29T07:49:31.000Z</time>
      </trkpt>
      <trkpt lat="50.38747" lon="4.32758">
        <ele>150</ele>
        <time>2014-12-29T07:49:36.000Z</time>
      </trkpt>
      <trkpt lat="50.38739" lon="4.32765">
        <ele>149.39999389648</ele>
        <time>2014-12-29T07:49:45.000Z</time>
      </trkpt>
      <trkpt lat="50.38732" lon="4.32766">
        <ele>149</ele>
        <time>2014-12-29T07:49:51.000Z</time>
      </trkpt>
      <trkpt lat="50.38725" lon="4.32752">
        <ele>148.60000610352</ele>
        <time>2014-12-29T07:50:03.000Z</time>
      </trkpt>
      <trkpt lat="50.38721" lon="4.32732">
        <ele>148.39999389648</ele>
        <time>2014-12-29T07:50:15.000Z</time>
      </trkpt>
      <trkpt lat="50.38718" lon="4.32717">
        <ele>148.19999694824</ele>
        <time>2014-12-29T07:50:24.000Z</time>
      </trkpt>
      <trkpt lat="50.38714" lon="4.32704">
        <ele>148</ele>
        <time>2014-12-29T07:50:32.000Z</time>
      </trkpt>
      <trkpt lat="50.38711" lon="4.32687">
        <ele>148.19999694824</ele>
        <time>2014-12-29T07:50:41.000Z</time>
      </trkpt>
      <trkpt lat="50.38708" lon="4.32675">
        <ele>148.39999389648</ele>
        <time>2014-12-29T07:50:48.000Z</time>
      </trkpt>
      <trkpt lat="50.38705" lon="4.32662">
        <ele>148.80000305176</ele>
        <time>2014-12-29T07:50:56.000Z</time>
      </trkpt>
      <trkpt lat="50.38701" lon="4.32642">
        <ele>149.39999389648</ele>
        <time>2014-12-29T07:51:08.000Z</time>
      </trkpt>
      <trkpt lat="50.38699" lon="4.32633">
        <ele>149.60000610352</ele>
        <time>2014-12-29T07:51:14.000Z</time>
      </trkpt>
      <trkpt lat="50.38695" lon="4.32621">
        <ele>149.80000305176</ele>
        <time>2014-12-29T07:51:22.000Z</time>
      </trkpt>
      <trkpt lat="50.38691" lon="4.32609">
        <ele>150</ele>
        <time>2014-12-29T07:51:30.000Z</time>
      </trkpt>
      <trkpt lat="50.38686" lon="4.32597">
        <ele>150</ele>
        <time>2014-12-29T07:51:38.000Z</time>
      </trkpt>
      <trkpt lat="50.3868" lon="4.32583">
        <ele>150</ele>
        <time>2014-12-29T07:51:47.000Z</time>
      </trkpt>
      <trkpt lat="50.38674" lon="4.32568">
        <ele>150.19999694824</ele>
        <time>2014-12-29T07:51:57.000Z</time>
      </trkpt>
      <trkpt lat="50.38667" lon="4.32551">
        <ele>150.19999694824</ele>
        <time>2014-12-29T07:52:08.000Z</time>
      </trkpt>
      <trkpt lat="50.38659" lon="4.32535">
        <ele>150.19999694824</ele>
        <time>2014-12-29T07:52:19.000Z</time>
      </trkpt>
      <trkpt lat="50.3865" lon="4.32522">
        <ele>150</ele>
        <time>2014-12-29T07:52:30.000Z</time>
      </trkpt>
      <trkpt lat="50.3864" lon="4.32514">
        <ele>149.80000305176</ele>
        <time>2014-12-29T07:52:40.000Z</time>
      </trkpt>
      <trkpt lat="50.38628" lon="4.3251">
        <ele>149.39999389648</ele>
        <time>2014-12-29T07:52:50.000Z</time>
      </trkpt>
      <trkpt lat="50.38616" lon="4.32506">
        <ele>149.60000610352</ele>
        <time>2014-12-29T07:53:01.000Z</time>
      </trkpt>
      <trkpt lat="50.38608" lon="4.32503">
        <ele>149.60000610352</ele>
        <time>2014-12-29T07:53:08.000Z</time>
      </trkpt>
      <trkpt lat="50.38599" lon="4.325">
        <ele>149.80000305176</ele>
        <time>2014-12-29T07:53:17.000Z</time>
      </trkpt>
      <trkpt lat="50.38588" lon="4.32495">
        <ele>150</ele>
        <time>2014-12-29T07:53:27.000Z</time>
      </trkpt>
      <trkpt lat="50.38581" lon="4.32493">
        <ele>150</ele>
        <time>2014-12-29T07:53:34.000Z</time>
      </trkpt>
      <trkpt lat="50.38574" lon="4.3249">
        <ele>150.19999694824</ele>
        <time>2014-12-29T07:53:40.000Z</time>
      </trkpt>
      <trkpt lat="50.38564" lon="4.32486">
        <ele>150.39999389648</ele>
        <time>2014-12-29T07:53:50.000Z</time>
      </trkpt>
      <trkpt lat="50.38553" lon="4.32481">
        <ele>150.60000610352</ele>
        <time>2014-12-29T07:54:00.000Z</time>
      </trkpt>
      <trkpt lat="50.38546" lon="4.32477">
        <ele>150.80000305176</ele>
        <time>2014-12-29T07:54:08.000Z</time>
      </trkpt>
      <trkpt lat="50.38536" lon="4.32471">
        <ele>151.80000305176</ele>
        <time>2014-12-29T07:54:18.000Z</time>
      </trkpt>
      <trkpt lat="50.38528" lon="4.32467">
        <ele>152.60000610352</ele>
        <time>2014-12-29T07:54:27.000Z</time>
      </trkpt>
      <trkpt lat="50.38519" lon="4.32461">
        <ele>153.19999694824</ele>
        <time>2014-12-29T07:54:36.000Z</time>
      </trkpt>
      <trkpt lat="50.38512" lon="4.32457">
        <ele>153.80000305176</ele>
        <time>2014-12-29T07:54:43.000Z</time>
      </trkpt>
      <trkpt lat="50.38503" lon="4.32452">
        <ele>154.80000305176</ele>
        <time>2014-12-29T07:54:53.000Z</time>
      </trkpt>
      <trkpt lat="50.38495" lon="4.32448">
        <ele>155.39999389648</ele>
        <time>2014-12-29T07:55:01.000Z</time>
      </trkpt>
      <trkpt lat="50.38487" lon="4.32443">
        <ele>156.19999694824</ele>
        <time>2014-12-29T07:55:10.000Z</time>
      </trkpt>
      <trkpt lat="50.38479" lon="4.32438">
        <ele>156.80000305176</ele>
        <time>2014-12-29T07:55:18.000Z</time>
      </trkpt>
      <trkpt lat="50.38471" lon="4.32433">
        <ele>157.60000610352</ele>
        <time>2014-12-29T07:55:27.000Z</time>
      </trkpt>
      <trkpt lat="50.38463" lon="4.32427">
        <ele>158.19999694824</ele>
        <time>2014-12-29T07:55:35.000Z</time>
      </trkpt>
      <trkpt lat="50.38457" lon="4.32422">
        <ele>158.60000610352</ele>
        <time>2014-12-29T07:55:42.000Z</time>
      </trkpt>
      <trkpt lat="50.38445" lon="4.32415">
        <ele>159.60000610352</ele>
        <time>2014-12-29T07:55:56.000Z</time>
      </trkpt>
      <trkpt lat="50.38436" lon="4.32408">
        <ele>160.39999389648</ele>
        <time>2014-12-29T07:56:06.000Z</time>
      </trkpt>
      <trkpt lat="50.38427" lon="4.32403">
        <ele>161.19999694824</ele>
        <time>2014-12-29T07:56:15.000Z</time>
      </trkpt>
      <trkpt lat="50.38417" lon="4.32397">
        <ele>162</ele>
        <time>2014-12-29T07:56:26.000Z</time>
      </trkpt>
      <trkpt lat="50.38414" lon="4.32395">
        <ele>162.19999694824</ele>
        <time>2014-12-29T07:56:29.000Z</time>
      </trkpt>
      <trkpt lat="50.38411" lon="4.32392">
        <ele>162.60000610352</ele>
        <time>2014-12-29T07:56:33.000Z</time>
      </trkpt>
      <trkpt lat="50.38403" lon="4.32386">
        <ele>163.19999694824</ele>
        <time>2014-12-29T07:56:43.000Z</time>
      </trkpt>
      <trkpt lat="50.38396" lon="4.32382">
        <ele>163.80000305176</ele>
        <time>2014-12-29T07:56:51.000Z</time>
      </trkpt>
      <trkpt lat="50.38387" lon="4.32376">
        <ele>164.39999389648</ele>
        <time>2014-12-29T07:57:02.000Z</time>
      </trkpt>
      <trkpt lat="50.38379" lon="4.32372">
        <ele>165</ele>
        <time>2014-12-29T07:57:11.000Z</time>
      </trkpt>
      <trkpt lat="50.38373" lon="4.32365">
        <ele>165.60000610352</ele>
        <time>2014-12-29T07:57:18.000Z</time>
      </trkpt>
      <trkpt lat="50.38364" lon="4.32359">
        <ele>166.19999694824</ele>
        <time>2014-12-29T07:57:27.000Z</time>
      </trkpt>
      <trkpt lat="50.38356" lon="4.32353">
        <ele>166.80000305176</ele>
        <time>2014-12-29T07:57:36.000Z</time>
      </trkpt>
      <trkpt lat="50.38347" lon="4.32347">
        <ele>167.39999389648</ele>
        <time>2014-12-29T07:57:46.000Z</time>
      </trkpt>
      <trkpt lat="50.38338" lon="4.32341">
        <ele>168.19999694824</ele>
        <time>2014-12-29T07:57:55.000Z</time>
      </trkpt>
      <trkpt lat="50.3833" lon="4.32335">
        <ele>168.80000305176</ele>
        <time>2014-12-29T07:58:04.000Z</time>
      </trkpt>
      <trkpt lat="50.38322" lon="4.3233">
        <ele>169.19999694824</ele>
        <time>2014-12-29T07:58:12.000Z</time>
      </trkpt>
      <trkpt lat="50.38315" lon="4.32326">
        <ele>169.80000305176</ele>
        <time>2014-12-29T07:58:20.000Z</time>
      </trkpt>
      <trkpt lat="50.38309" lon="4.32321">
        <ele>170.19999694824</ele>
        <time>2014-12-29T07:58:27.000Z</time>
      </trkpt>
      <trkpt lat="50.38299" lon="4.32315">
        <ele>171</ele>
        <time>2014-12-29T07:58:35.000Z</time>
      </trkpt>
      <trkpt lat="50.38291" lon="4.32309">
        <ele>171.39999389648</ele>
        <time>2014-12-29T07:58:43.000Z</time>
      </trkpt>
      <trkpt lat="50.38282" lon="4.32302">
        <ele>172.19999694824</ele>
        <time>2014-12-29T07:58:53.000Z</time>
      </trkpt>
      <trkpt lat="50.38269" lon="4.32294">
        <ele>173.19999694824</ele>
        <time>2014-12-29T07:59:05.000Z</time>
      </trkpt>
      <trkpt lat="50.38261" lon="4.32289">
        <ele>173.60000610352</ele>
        <time>2014-12-29T07:59:13.000Z</time>
      </trkpt>
      <trkpt lat="50.38251" lon="4.32283">
        <ele>174.39999389648</ele>
        <time>2014-12-29T07:59:23.000Z</time>
      </trkpt>
      <trkpt lat="50.38243" lon="4.32279">
        <ele>175</ele>
        <time>2014-12-29T07:59:31.000Z</time>
      </trkpt>
      <trkpt lat="50.38232" lon="4.32272">
        <ele>175.60000610352</ele>
        <time>2014-12-29T07:59:41.000Z</time>
      </trkpt>
      <trkpt lat="50.38224" lon="4.32267">
        <ele>176.19999694824</ele>
        <time>2014-12-29T07:59:49.000Z</time>
      </trkpt>
      <trkpt lat="50.38217" lon="4.32265">
        <ele>176.60000610352</ele>
        <time>2014-12-29T07:59:56.000Z</time>
      </trkpt>
      <trkpt lat="50.3821" lon="4.32261">
        <ele>177.19999694824</ele>
        <time>2014-12-29T08:00:03.000Z</time>
      </trkpt>
      <trkpt lat="50.38203" lon="4.32256">
        <ele>177.60000610352</ele>
        <time>2014-12-29T08:00:10.000Z</time>
      </trkpt>
      <trkpt lat="50.38194" lon="4.32251">
        <ele>178.19999694824</ele>
        <time>2014-12-29T08:00:19.000Z</time>
      </trkpt>
      <trkpt lat="50.38185" lon="4.32245">
        <ele>178.80000305176</ele>
        <time>2014-12-29T08:00:28.000Z</time>
      </trkpt>
      <trkpt lat="50.38177" lon="4.32237">
        <ele>179.19999694824</ele>
        <time>2014-12-29T08:00:37.000Z</time>
      </trkpt>
      <trkpt lat="50.38168" lon="4.3223">
        <ele>179.80000305176</ele>
        <time>2014-12-29T08:00:46.000Z</time>
      </trkpt>
      <trkpt lat="50.38161" lon="4.32222">
        <ele>180.19999694824</ele>
        <time>2014-12-29T08:00:54.000Z</time>
      </trkpt>
      <trkpt lat="50.38149" lon="4.32209">
        <ele>180.80000305176</ele>
        <time>2014-12-29T08:01:06.000Z</time>
      </trkpt>
      <trkpt lat="50.38145" lon="4.32205">
        <ele>181</ele>
        <time>2014-12-29T08:01:10.000Z</time>
      </trkpt>
      <trkpt lat="50.3814" lon="4.32199">
        <ele>181.39999389648</ele>
        <time>2014-12-29T08:01:17.000Z</time>
      </trkpt>
      <trkpt lat="50.38133" lon="4.32189">
        <ele>181.80000305176</ele>
        <time>2014-12-29T08:01:25.000Z</time>
      </trkpt>
      <trkpt lat="50.38124" lon="4.32177">
        <ele>182.19999694824</ele>
        <time>2014-12-29T08:01:35.000Z</time>
      </trkpt>
      <trkpt lat="50.38111" lon="4.32161">
        <ele>182.80000305176</ele>
        <time>2014-12-29T08:01:48.000Z</time>
      </trkpt>
      <trkpt lat="50.38102" lon="4.32152">
        <ele>183.19999694824</ele>
        <time>2014-12-29T08:01:57.000Z</time>
      </trkpt>
      <trkpt lat="50.38095" lon="4.32142">
        <ele>183.60000610352</ele>
        <time>2014-12-29T08:02:05.000Z</time>
      </trkpt>
      <trkpt lat="50.38086" lon="4.3213">
        <ele>184</ele>
        <time>2014-12-29T08:02:15.000Z</time>
      </trkpt>
      <trkpt lat="50.38078" lon="4.32119">
        <ele>184.19999694824</ele>
        <time>2014-12-29T08:02:24.000Z</time>
      </trkpt>
      <trkpt lat="50.3807" lon="4.32109">
        <ele>184.60000610352</ele>
        <time>2014-12-29T08:02:33.000Z</time>
      </trkpt>
      <trkpt lat="50.38066" lon="4.32103">
        <ele>185</ele>
        <time>2014-12-29T08:02:40.000Z</time>
      </trkpt>
      <trkpt lat="50.38064" lon="4.321">
        <ele>185</ele>
        <time>2014-12-29T08:02:45.000Z</time>
      </trkpt>
      <trkpt lat="50.38062" lon="4.32105">
        <ele>185.19999694824</ele>
        <time>2014-12-29T08:02:50.000Z</time>
      </trkpt>
      <trkpt lat="50.3806" lon="4.32117">
        <ele>185.39999389648</ele>
        <time>2014-12-29T08:02:58.000Z</time>
      </trkpt>
      <trkpt lat="50.38059" lon="4.3212">
        <ele>185.39999389648</ele>
        <time>2014-12-29T08:03:00.000Z</time>
      </trkpt>
      <trkpt lat="50.38057" lon="4.32134">
        <ele>185.60000610352</ele>
        <time>2014-12-29T08:03:09.000Z</time>
      </trkpt>
      <trkpt lat="50.38055" lon="4.32149">
        <ele>186</ele>
        <time>2014-12-29T08:03:19.000Z</time>
      </trkpt>
      <trkpt lat="50.38053" lon="4.32165">
        <ele>186.39999389648</ele>
        <time>2014-12-29T08:03:29.000Z</time>
      </trkpt>
      <trkpt lat="50.38051" lon="4.3218">
        <ele>186.60000610352</ele>
        <time>2014-12-29T08:03:38.000Z</time>
      </trkpt>
      <trkpt lat="50.38048" lon="4.32195">
        <ele>187</ele>
        <time>2014-12-29T08:03:47.000Z</time>
      </trkpt>
      <trkpt lat="50.38046" lon="4.32209">
        <ele>187</ele>
        <time>2014-12-29T08:03:56.000Z</time>
      </trkpt>
      <trkpt lat="50.38043" lon="4.32225">
        <ele>186.80000305176</ele>
        <time>2014-12-29T08:04:06.000Z</time>
      </trkpt>
      <trkpt lat="50.38038" lon="4.32242">
        <ele>186.80000305176</ele>
        <time>2014-12-29T08:04:16.000Z</time>
      </trkpt>
      <trkpt lat="50.38033" lon="4.32257">
        <ele>186.80000305176</ele>
        <time>2014-12-29T08:04:25.000Z</time>
      </trkpt>
      <trkpt lat="50.38028" lon="4.32272">
        <ele>186.60000610352</ele>
        <time>2014-12-29T08:04:34.000Z</time>
      </trkpt>
      <trkpt lat="50.38025" lon="4.32284">
        <ele>186.60000610352</ele>
        <time>2014-12-29T08:04:42.000Z</time>
      </trkpt>
      <trkpt lat="50.38012" lon="4.32317">
        <ele>186.39999389648</ele>
        <time>2014-12-29T08:05:03.000Z</time>
      </trkpt>
      <trkpt lat="50.3801" lon="4.32322">
        <ele>186.39999389648</ele>
        <time>2014-12-29T08:05:06.000Z</time>
      </trkpt>
      <trkpt lat="50.38001" lon="4.32322">
        <ele>186.39999389648</ele>
        <time>2014-12-29T08:05:14.000Z</time>
      </trkpt>
      <trkpt lat="50.38001" lon="4.32322">
        <ele>186.60000610352</ele>
        <time>2014-12-29T08:05:15.000Z</time>
      </trkpt>
      <trkpt lat="50.37993" lon="4.32316">
        <ele>186.80000305176</ele>
        <time>2014-12-29T08:05:22.000Z</time>
      </trkpt>
      <trkpt lat="50.37985" lon="4.32308">
        <ele>187</ele>
        <time>2014-12-29T08:05:31.000Z</time>
      </trkpt>
      <trkpt lat="50.37973" lon="4.32296">
        <ele>187.39999389648</ele>
        <time>2014-12-29T08:05:43.000Z</time>
      </trkpt>
      <trkpt lat="50.37948" lon="4.32271">
        <ele>188</ele>
        <time>2014-12-29T08:06:07.000Z</time>
      </trkpt>
      <trkpt lat="50.37935" lon="4.32259">
        <ele>188</ele>
        <time>2014-12-29T08:06:19.000Z</time>
      </trkpt>
      <trkpt lat="50.37924" lon="4.32248">
        <ele>188</ele>
        <time>2014-12-29T08:06:30.000Z</time>
      </trkpt>
      <trkpt lat="50.37912" lon="4.32236">
        <ele>188</ele>
        <time>2014-12-29T08:06:42.000Z</time>
      </trkpt>
      <trkpt lat="50.37903" lon="4.32227">
        <ele>188</ele>
        <time>2014-12-29T08:06:51.000Z</time>
      </trkpt>
      <trkpt lat="50.37892" lon="4.32216">
        <ele>188</ele>
        <time>2014-12-29T08:07:02.000Z</time>
      </trkpt>
      <trkpt lat="50.3788" lon="4.32205">
        <ele>188</ele>
        <time>2014-12-29T08:07:13.000Z</time>
      </trkpt>
      <trkpt lat="50.37867" lon="4.32192">
        <ele>187</ele>
        <time>2014-12-29T08:07:26.000Z</time>
      </trkpt>
      <trkpt lat="50.37853" lon="4.3218">
        <ele>186.39999389648</ele>
        <time>2014-12-29T08:07:39.000Z</time>
      </trkpt>
      <trkpt lat="50.3783" lon="4.32158">
        <ele>185.19999694824</ele>
        <time>2014-12-29T08:08:01.000Z</time>
      </trkpt>
      <trkpt lat="50.37819" lon="4.32147">
        <ele>184.80000305176</ele>
        <time>2014-12-29T08:08:12.000Z</time>
      </trkpt>
      <trkpt lat="50.3781" lon="4.32139">
        <ele>184.19999694824</ele>
        <time>2014-12-29T08:08:21.000Z</time>
      </trkpt>
      <trkpt lat="50.37799" lon="4.32129">
        <ele>183.80000305176</ele>
        <time>2014-12-29T08:08:32.000Z</time>
      </trkpt>
      <trkpt lat="50.37787" lon="4.32117">
        <ele>183.60000610352</ele>
        <time>2014-12-29T08:08:44.000Z</time>
      </trkpt>
      <trkpt lat="50.37773" lon="4.32103">
        <ele>183.39999389648</ele>
        <time>2014-12-29T08:08:58.000Z</time>
      </trkpt>
      <trkpt lat="50.37763" lon="4.32094">
        <ele>183.19999694824</ele>
        <time>2014-12-29T08:09:08.000Z</time>
      </trkpt>
      <trkpt lat="50.37758" lon="4.32092">
        <ele>183</ele>
        <time>2014-12-29T08:09:15.000Z</time>
      </trkpt>
      <trkpt lat="50.37754" lon="4.32089">
        <ele>183</ele>
        <time>2014-12-29T08:09:24.000Z</time>
      </trkpt>
      <trkpt lat="50.37748" lon="4.32085">
        <ele>182.80000305176</ele>
        <time>2014-12-29T08:09:31.000Z</time>
      </trkpt>
      <trkpt lat="50.37741" lon="4.32081">
        <ele>182.80000305176</ele>
        <time>2014-12-29T08:09:39.000Z</time>
      </trkpt>
      <trkpt lat="50.37723" lon="4.32072">
        <ele>182.39999389648</ele>
        <time>2014-12-29T08:09:58.000Z</time>
      </trkpt>
      <trkpt lat="50.37716" lon="4.32068">
        <ele>182.19999694824</ele>
        <time>2014-12-29T08:10:05.000Z</time>
      </trkpt>
      <trkpt lat="50.37712" lon="4.32066">
        <ele>182</ele>
        <time>2014-12-29T08:10:09.000Z</time>
      </trkpt>
      <trkpt lat="50.37704" lon="4.32061">
        <ele>182</ele>
        <time>2014-12-29T08:10:17.000Z</time>
      </trkpt>
      <trkpt lat="50.377" lon="4.32053">
        <ele>182.19999694824</ele>
        <time>2014-12-29T08:10:24.000Z</time>
      </trkpt>
      <trkpt lat="50.37698" lon="4.32044">
        <ele>182.19999694824</ele>
        <time>2014-12-29T08:10:32.000Z</time>
      </trkpt>
      <trkpt lat="50.37697" lon="4.32035">
        <ele>182.39999389648</ele>
        <time>2014-12-29T08:10:39.000Z</time>
      </trkpt>
      <trkpt lat="50.37695" lon="4.32031">
        <ele>182.60000610352</ele>
        <time>2014-12-29T08:10:42.000Z</time>
      </trkpt>
      <trkpt lat="50.37693" lon="4.32024">
        <ele>182.60000610352</ele>
        <time>2014-12-29T08:10:47.000Z</time>
      </trkpt>
      <trkpt lat="50.3769" lon="4.32015">
        <ele>182.60000610352</ele>
        <time>2014-12-29T08:10:53.000Z</time>
      </trkpt>
      <trkpt lat="50.37687" lon="4.32002">
        <ele>182.60000610352</ele>
        <time>2014-12-29T08:11:02.000Z</time>
      </trkpt>
      <trkpt lat="50.37687" lon="4.32">
        <ele>182.60000610352</ele>
        <time>2014-12-29T08:11:03.000Z</time>
      </trkpt>
      <trkpt lat="50.37683" lon="4.31989">
        <ele>182.80000305176</ele>
        <time>2014-12-29T08:11:11.000Z</time>
      </trkpt>
      <trkpt lat="50.3768" lon="4.3198">
        <ele>182.80000305176</ele>
        <time>2014-12-29T08:11:17.000Z</time>
      </trkpt>
      <trkpt lat="50.37676" lon="4.31965">
        <ele>182.80000305176</ele>
        <time>2014-12-29T08:11:26.000Z</time>
      </trkpt>
      <trkpt lat="50.37675" lon="4.31962">
        <ele>182.80000305176</ele>
        <time>2014-12-29T08:11:28.000Z</time>
      </trkpt>
      <trkpt lat="50.37672" lon="4.31954">
        <ele>182.80000305176</ele>
        <time>2014-12-29T08:11:34.000Z</time>
      </trkpt>
      <trkpt lat="50.37669" lon="4.31945">
        <ele>182.80000305176</ele>
        <time>2014-12-29T08:11:38.000Z</time>
      </trkpt>
      <trkpt lat="50.37667" lon="4.31937">
        <ele>182.80000305176</ele>
        <time>2014-12-29T08:11:41.000Z</time>
      </trkpt>
      <trkpt lat="50.37665" lon="4.31928">
        <ele>182.80000305176</ele>
        <time>2014-12-29T08:11:47.000Z</time>
      </trkpt>
      <trkpt lat="50.3766" lon="4.31912">
        <ele>182.60000610352</ele>
        <time>2014-12-29T08:11:58.000Z</time>
      </trkpt>
      <trkpt lat="50.37656" lon="4.31899">
        <ele>182.60000610352</ele>
        <time>2014-12-29T08:12:06.000Z</time>
      </trkpt>
      <trkpt lat="50.37654" lon="4.31888">
        <ele>182.60000610352</ele>
        <time>2014-12-29T08:12:13.000Z</time>
      </trkpt>
      <trkpt lat="50.37653" lon="4.31884">
        <ele>182.60000610352</ele>
        <time>2014-12-29T08:12:16.000Z</time>
      </trkpt>
      <trkpt lat="50.3765" lon="4.31872">
        <ele>182.60000610352</ele>
        <time>2014-12-29T08:12:23.000Z</time>
      </trkpt>
      <trkpt lat="50.37647" lon="4.3186">
        <ele>182.60000610352</ele>
        <time>2014-12-29T08:12:30.000Z</time>
      </trkpt>
      <trkpt lat="50.37647" lon="4.31858">
        <ele>182.60000610352</ele>
        <time>2014-12-29T08:12:31.000Z</time>
      </trkpt>
      <trkpt lat="50.37644" lon="4.3185">
        <ele>182.80000305176</ele>
        <time>2014-12-29T08:12:35.000Z</time>
      </trkpt>
      <trkpt lat="50.37641" lon="4.31839">
        <ele>183</ele>
        <time>2014-12-29T08:12:42.000Z</time>
      </trkpt>
      <trkpt lat="50.37637" lon="4.31826">
        <ele>183.19999694824</ele>
        <time>2014-12-29T08:12:50.000Z</time>
      </trkpt>
      <trkpt lat="50.37635" lon="4.31812">
        <ele>183.39999389648</ele>
        <time>2014-12-29T08:12:58.000Z</time>
      </trkpt>
      <trkpt lat="50.37632" lon="4.31797">
        <ele>183.60000610352</ele>
        <time>2014-12-29T08:13:06.000Z</time>
      </trkpt>
      <trkpt lat="50.37627" lon="4.31776">
        <ele>183.80000305176</ele>
        <time>2014-12-29T08:13:16.000Z</time>
      </trkpt>
      <trkpt lat="50.37623" lon="4.31761">
        <ele>183.80000305176</ele>
        <time>2014-12-29T08:13:25.000Z</time>
      </trkpt>
      <trkpt lat="50.37622" lon="4.31759">
        <ele>183.80000305176</ele>
        <time>2014-12-29T08:13:32.000Z</time>
      </trkpt>
      <trkpt lat="50.37617" lon="4.31749">
        <ele>183.60000610352</ele>
        <time>2014-12-29T08:13:37.000Z</time>
      </trkpt>
      <trkpt lat="50.37611" lon="4.31727">
        <ele>183.60000610352</ele>
        <time>2014-12-29T08:13:47.000Z</time>
      </trkpt>
      <trkpt lat="50.37607" lon="4.31713">
        <ele>183.60000610352</ele>
        <time>2014-12-29T08:13:55.000Z</time>
      </trkpt>
      <trkpt lat="50.37604" lon="4.31697">
        <ele>183.60000610352</ele>
        <time>2014-12-29T08:14:05.000Z</time>
      </trkpt>
      <trkpt lat="50.37603" lon="4.31694">
        <ele>183.80000305176</ele>
        <time>2014-12-29T08:14:07.000Z</time>
      </trkpt>
      <trkpt lat="50.37602" lon="4.31688">
        <ele>183.80000305176</ele>
        <time>2014-12-29T08:14:11.000Z</time>
      </trkpt>
      <trkpt lat="50.37598" lon="4.31675">
        <ele>184</ele>
        <time>2014-12-29T08:14:19.000Z</time>
      </trkpt>
      <trkpt lat="50.37593" lon="4.3166">
        <ele>184</ele>
        <time>2014-12-29T08:14:27.000Z</time>
      </trkpt>
      <trkpt lat="50.37588" lon="4.31648">
        <ele>184</ele>
        <time>2014-12-29T08:14:34.000Z</time>
      </trkpt>
      <trkpt lat="50.37585" lon="4.31636">
        <ele>183.80000305176</ele>
        <time>2014-12-29T08:14:41.000Z</time>
      </trkpt>
      <trkpt lat="50.37583" lon="4.31625">
        <ele>183.80000305176</ele>
        <time>2014-12-29T08:14:48.000Z</time>
      </trkpt>
      <trkpt lat="50.37583" lon="4.31623">
        <ele>183.80000305176</ele>
        <time>2014-12-29T08:14:49.000Z</time>
      </trkpt>
      <trkpt lat="50.37582" lon="4.31617">
        <ele>183.80000305176</ele>
        <time>2014-12-29T08:14:52.000Z</time>
      </trkpt>
      <trkpt lat="50.37582" lon="4.31609">
        <ele>184</ele>
        <time>2014-12-29T08:14:56.000Z</time>
      </trkpt>
      <trkpt lat="50.37581" lon="4.31597">
        <ele>184.19999694824</ele>
        <time>2014-12-29T08:15:03.000Z</time>
      </trkpt>
      <trkpt lat="50.37581" lon="4.3158">
        <ele>184.60000610352</ele>
        <time>2014-12-29T08:15:12.000Z</time>
      </trkpt>
      <trkpt lat="50.37581" lon="4.31568">
        <ele>184.80000305176</ele>
        <time>2014-12-29T08:15:18.000Z</time>
      </trkpt>
      <trkpt lat="50.37581" lon="4.31566">
        <ele>185</ele>
        <time>2014-12-29T08:15:19.000Z</time>
      </trkpt>
      <trkpt lat="50.37581" lon="4.31554">
        <ele>185</ele>
        <time>2014-12-29T08:15:26.000Z</time>
      </trkpt>
      <trkpt lat="50.37579" lon="4.31544">
        <ele>185</ele>
        <time>2014-12-29T08:15:31.000Z</time>
      </trkpt>
      <trkpt lat="50.37578" lon="4.31532">
        <ele>185</ele>
        <time>2014-12-29T08:15:38.000Z</time>
      </trkpt>
      <trkpt lat="50.37575" lon="4.31519">
        <ele>184.80000305176</ele>
        <time>2014-12-29T08:15:45.000Z</time>
      </trkpt>
      <trkpt lat="50.37574" lon="4.31514">
        <ele>184.80000305176</ele>
        <time>2014-12-29T08:15:48.000Z</time>
      </trkpt>
      <trkpt lat="50.37572" lon="4.315">
        <ele>184.60000610352</ele>
        <time>2014-12-29T08:15:55.000Z</time>
      </trkpt>
      <trkpt lat="50.37571" lon="4.31484">
        <ele>184.39999389648</ele>
        <time>2014-12-29T08:16:04.000Z</time>
      </trkpt>
      <trkpt lat="50.37571" lon="4.31473">
        <ele>184.39999389648</ele>
        <time>2014-12-29T08:16:10.000Z</time>
      </trkpt>
      <trkpt lat="50.37571" lon="4.31471">
        <ele>184.19999694824</ele>
        <time>2014-12-29T08:16:11.000Z</time>
      </trkpt>
      <trkpt lat="50.3757" lon="4.31457">
        <ele>184.39999389648</ele>
        <time>2014-12-29T08:16:18.000Z</time>
      </trkpt>
      <trkpt lat="50.37571" lon="4.31441">
        <ele>184.60000610352</ele>
        <time>2014-12-29T08:16:27.000Z</time>
      </trkpt>
      <trkpt lat="50.37571" lon="4.31435">
        <ele>184.60000610352</ele>
        <time>2014-12-29T08:16:30.000Z</time>
      </trkpt>
      <trkpt lat="50.37572" lon="4.31428">
        <ele>184.60000610352</ele>
        <time>2014-12-29T08:16:34.000Z</time>
      </trkpt>
      <trkpt lat="50.37572" lon="4.31414">
        <ele>184.60000610352</ele>
        <time>2014-12-29T08:16:41.000Z</time>
      </trkpt>
      <trkpt lat="50.37571" lon="4.31393">
        <ele>184.60000610352</ele>
        <time>2014-12-29T08:16:51.000Z</time>
      </trkpt>
      <trkpt lat="50.37571" lon="4.31377">
        <ele>184.60000610352</ele>
        <time>2014-12-29T08:16:59.000Z</time>
      </trkpt>
      <trkpt lat="50.3757" lon="4.31362">
        <ele>184.60000610352</ele>
        <time>2014-12-29T08:17:06.000Z</time>
      </trkpt>
      <trkpt lat="50.3757" lon="4.31347">
        <ele>184.80000305176</ele>
        <time>2014-12-29T08:17:14.000Z</time>
      </trkpt>
      <trkpt lat="50.3757" lon="4.31342">
        <ele>184.80000305176</ele>
        <time>2014-12-29T08:17:16.000Z</time>
      </trkpt>
      <trkpt lat="50.37568" lon="4.31321">
        <ele>185</ele>
        <time>2014-12-29T08:17:26.000Z</time>
      </trkpt>
      <trkpt lat="50.37568" lon="4.31308">
        <ele>185.19999694824</ele>
        <time>2014-12-29T08:17:33.000Z</time>
      </trkpt>
      <trkpt lat="50.37568" lon="4.31291">
        <ele>185.39999389648</ele>
        <time>2014-12-29T08:17:41.000Z</time>
      </trkpt>
      <trkpt lat="50.37567" lon="4.31275">
        <ele>185.80000305176</ele>
        <time>2014-12-29T08:17:49.000Z</time>
      </trkpt>
      <trkpt lat="50.37567" lon="4.31262">
        <ele>186</ele>
        <time>2014-12-29T08:17:56.000Z</time>
      </trkpt>
      <trkpt lat="50.37569" lon="4.31242">
        <ele>186.19999694824</ele>
        <time>2014-12-29T08:18:07.000Z</time>
      </trkpt>
      <trkpt lat="50.3757" lon="4.31231">
        <ele>186.39999389648</ele>
        <time>2014-12-29T08:18:13.000Z</time>
      </trkpt>
      <trkpt lat="50.37571" lon="4.3122">
        <ele>186.60000610352</ele>
        <time>2014-12-29T08:18:20.000Z</time>
      </trkpt>
      <trkpt lat="50.37572" lon="4.31208">
        <ele>186.80000305176</ele>
        <time>2014-12-29T08:18:27.000Z</time>
      </trkpt>
      <trkpt lat="50.37572" lon="4.31207">
        <ele>186.80000305176</ele>
        <time>2014-12-29T08:18:28.000Z</time>
      </trkpt>
      <trkpt lat="50.37572" lon="4.31191">
        <ele>187</ele>
        <time>2014-12-29T08:18:37.000Z</time>
      </trkpt>
      <trkpt lat="50.37573" lon="4.31177">
        <ele>187.39999389648</ele>
        <time>2014-12-29T08:18:45.000Z</time>
      </trkpt>
      <trkpt lat="50.37573" lon="4.31175">
        <ele>187.39999389648</ele>
        <time>2014-12-29T08:18:46.000Z</time>
      </trkpt>
      <trkpt lat="50.37573" lon="4.31168">
        <ele>187.60000610352</ele>
        <time>2014-12-29T08:18:50.000Z</time>
      </trkpt>
      <trkpt lat="50.37573" lon="4.31164">
        <ele>187.60000610352</ele>
        <time>2014-12-29T08:18:52.000Z</time>
      </trkpt>
      <trkpt lat="50.3757" lon="4.3115">
        <ele>188</ele>
        <time>2014-12-29T08:18:59.000Z</time>
      </trkpt>
      <trkpt lat="50.37569" lon="4.31148">
        <ele>188</ele>
        <time>2014-12-29T08:19:01.000Z</time>
      </trkpt>
      <trkpt lat="50.3756" lon="4.31142">
        <ele>187.80000305176</ele>
        <time>2014-12-29T08:19:09.000Z</time>
      </trkpt>
      <trkpt lat="50.37551" lon="4.3114">
        <ele>187.39999389648</ele>
        <time>2014-12-29T08:19:17.000Z</time>
      </trkpt>
      <trkpt lat="50.37543" lon="4.31139">
        <ele>187.19999694824</ele>
        <time>2014-12-29T08:19:25.000Z</time>
      </trkpt>
      <trkpt lat="50.37535" lon="4.31139">
        <ele>187</ele>
        <time>2014-12-29T08:19:33.000Z</time>
      </trkpt>
      <trkpt lat="50.37528" lon="4.31139">
        <ele>187</ele>
        <time>2014-12-29T08:19:39.000Z</time>
      </trkpt>
      <trkpt lat="50.37515" lon="4.31138">
        <ele>186.60000610352</ele>
        <time>2014-12-29T08:19:50.000Z</time>
      </trkpt>
      <trkpt lat="50.37505" lon="4.31138">
        <ele>186.39999389648</ele>
        <time>2014-12-29T08:19:59.000Z</time>
      </trkpt>
      <trkpt lat="50.37497" lon="4.31137">
        <ele>186.19999694824</ele>
        <time>2014-12-29T08:20:06.000Z</time>
      </trkpt>
      <trkpt lat="50.3749" lon="4.31135">
        <ele>186</ele>
        <time>2014-12-29T08:20:13.000Z</time>
      </trkpt>
      <trkpt lat="50.3748" lon="4.31134">
        <ele>186</ele>
        <time>2014-12-29T08:20:21.000Z</time>
      </trkpt>
      <trkpt lat="50.37472" lon="4.31133">
        <ele>185.80000305176</ele>
        <time>2014-12-29T08:20:27.000Z</time>
      </trkpt>
      <trkpt lat="50.37463" lon="4.31132">
        <ele>185.80000305176</ele>
        <time>2014-12-29T08:20:35.000Z</time>
      </trkpt>
      <trkpt lat="50.37453" lon="4.31132">
        <ele>186</ele>
        <time>2014-12-29T08:20:43.000Z</time>
      </trkpt>
      <trkpt lat="50.37445" lon="4.3113">
        <ele>186</ele>
        <time>2014-12-29T08:20:50.000Z</time>
      </trkpt>
      <trkpt lat="50.37442" lon="4.3113">
        <ele>186</ele>
        <time>2014-12-29T08:20:55.000Z</time>
      </trkpt>
      <trkpt lat="50.37434" lon="4.31128">
        <ele>186.19999694824</ele>
        <time>2014-12-29T08:21:03.000Z</time>
      </trkpt>
      <trkpt lat="50.37426" lon="4.31128">
        <ele>186.19999694824</ele>
        <time>2014-12-29T08:21:10.000Z</time>
      </trkpt>
      <trkpt lat="50.37416" lon="4.31127">
        <ele>186.39999389648</ele>
        <time>2014-12-29T08:21:19.000Z</time>
      </trkpt>
      <trkpt lat="50.37408" lon="4.31128">
        <ele>186.60000610352</ele>
        <time>2014-12-29T08:21:26.000Z</time>
      </trkpt>
      <trkpt lat="50.37402" lon="4.31127">
        <ele>186.60000610352</ele>
        <time>2014-12-29T08:21:32.000Z</time>
      </trkpt>
      <trkpt lat="50.37393" lon="4.31126">
        <ele>186.80000305176</ele>
        <time>2014-12-29T08:21:40.000Z</time>
      </trkpt>
      <trkpt lat="50.37387" lon="4.31121">
        <ele>186.80000305176</ele>
        <time>2014-12-29T08:21:46.000Z</time>
      </trkpt>
      <trkpt lat="50.37382" lon="4.31116">
        <ele>187</ele>
        <time>2014-12-29T08:21:52.000Z</time>
      </trkpt>
      <trkpt lat="50.37379" lon="4.31106">
        <ele>187</ele>
        <time>2014-12-29T08:22:00.000Z</time>
      </trkpt>
      <trkpt lat="50.37377" lon="4.31099">
        <ele>187</ele>
        <time>2014-12-29T08:22:04.000Z</time>
      </trkpt>
      <trkpt lat="50.37376" lon="4.31091">
        <ele>187</ele>
        <time>2014-12-29T08:22:09.000Z</time>
      </trkpt>
      <trkpt lat="50.37375" lon="4.31089">
        <ele>187</ele>
        <time>2014-12-29T08:22:10.000Z</time>
      </trkpt>
      <trkpt lat="50.37372" lon="4.31073">
        <ele>187.19999694824</ele>
        <time>2014-12-29T08:22:19.000Z</time>
      </trkpt>
      <trkpt lat="50.37371" lon="4.31058">
        <ele>187.39999389648</ele>
        <time>2014-12-29T08:22:27.000Z</time>
      </trkpt>
      <trkpt lat="50.37369" lon="4.31043">
        <ele>187.60000610352</ele>
        <time>2014-12-29T08:22:35.000Z</time>
      </trkpt>
      <trkpt lat="50.37367" lon="4.31029">
        <ele>187.80000305176</ele>
        <time>2014-12-29T08:22:42.000Z</time>
      </trkpt>
      <trkpt lat="50.37365" lon="4.31013">
        <ele>188</ele>
        <time>2014-12-29T08:22:51.000Z</time>
      </trkpt>
      <trkpt lat="50.37365" lon="4.31011">
        <ele>188</ele>
        <time>2014-12-29T08:22:52.000Z</time>
      </trkpt>
      <trkpt lat="50.37364" lon="4.31004">
        <ele>188</ele>
        <time>2014-12-29T08:22:56.000Z</time>
      </trkpt>
      <trkpt lat="50.3736" lon="4.30977">
        <ele>188</ele>
        <time>2014-12-29T08:23:10.000Z</time>
      </trkpt>
      <trkpt lat="50.3736" lon="4.30975">
        <ele>188.19999694824</ele>
        <time>2014-12-29T08:23:11.000Z</time>
      </trkpt>
      <trkpt lat="50.37359" lon="4.30963">
        <ele>188.19999694824</ele>
        <time>2014-12-29T08:23:18.000Z</time>
      </trkpt>
      <trkpt lat="50.37359" lon="4.30962">
        <ele>188.19999694824</ele>
        <time>2014-12-29T08:23:19.000Z</time>
      </trkpt>
      <trkpt lat="50.37358" lon="4.30949">
        <ele>188.39999389648</ele>
        <time>2014-12-29T08:23:27.000Z</time>
      </trkpt>
      <trkpt lat="50.37357" lon="4.30932">
        <ele>188.60000610352</ele>
        <time>2014-12-29T08:23:36.000Z</time>
      </trkpt>
      <trkpt lat="50.37355" lon="4.30922">
        <ele>188.80000305176</ele>
        <time>2014-12-29T08:23:42.000Z</time>
      </trkpt>
      <trkpt lat="50.37355" lon="4.30909">
        <ele>188.80000305176</ele>
        <time>2014-12-29T08:23:48.000Z</time>
      </trkpt>
      <trkpt lat="50.37352" lon="4.309">
        <ele>188.80000305176</ele>
        <time>2014-12-29T08:23:55.000Z</time>
      </trkpt>
      <trkpt lat="50.3735" lon="4.3089">
        <ele>188.80000305176</ele>
        <time>2014-12-29T08:24:01.000Z</time>
      </trkpt>
      <trkpt lat="50.3735" lon="4.30888">
        <ele>188.80000305176</ele>
        <time>2014-12-29T08:24:02.000Z</time>
      </trkpt>
      <trkpt lat="50.37348" lon="4.30879">
        <ele>188.80000305176</ele>
        <time>2014-12-29T08:24:07.000Z</time>
      </trkpt>
      <trkpt lat="50.37347" lon="4.30869">
        <ele>188.80000305176</ele>
        <time>2014-12-29T08:24:14.000Z</time>
      </trkpt>
      <trkpt lat="50.37345" lon="4.30863">
        <ele>188.80000305176</ele>
        <time>2014-12-29T08:24:21.000Z</time>
      </trkpt>
      <trkpt lat="50.37343" lon="4.30856">
        <ele>188.80000305176</ele>
        <time>2014-12-29T08:24:27.000Z</time>
      </trkpt>
      <trkpt lat="50.37339" lon="4.30846">
        <ele>188.60000610352</ele>
        <time>2014-12-29T08:24:35.000Z</time>
      </trkpt>
      <trkpt lat="50.37338" lon="4.30841">
        <ele>188.60000610352</ele>
        <time>2014-12-29T08:24:39.000Z</time>
      </trkpt>
      <trkpt lat="50.37336" lon="4.30835">
        <ele>188.60000610352</ele>
        <time>2014-12-29T08:24:43.000Z</time>
      </trkpt>
      <trkpt lat="50.37337" lon="4.30831">
        <ele>188.80000305176</ele>
        <time>2014-12-29T08:24:47.000Z</time>
      </trkpt>
      <trkpt lat="50.37337" lon="4.30828">
        <ele>188.80000305176</ele>
        <time>2014-12-29T08:24:49.000Z</time>
      </trkpt>
      <trkpt lat="50.37336" lon="4.30817">
        <ele>188.80000305176</ele>
        <time>2014-12-29T08:24:57.000Z</time>
      </trkpt>
      <trkpt lat="50.37335" lon="4.30805">
        <ele>189</ele>
        <time>2014-12-29T08:25:05.000Z</time>
      </trkpt>
      <trkpt lat="50.37335" lon="4.30803">
        <ele>189</ele>
        <time>2014-12-29T08:25:06.000Z</time>
      </trkpt>
      <trkpt lat="50.37334" lon="4.30791">
        <ele>189</ele>
        <time>2014-12-29T08:25:14.000Z</time>
      </trkpt>
      <trkpt lat="50.37334" lon="4.30785">
        <ele>189</ele>
        <time>2014-12-29T08:25:18.000Z</time>
      </trkpt>
      <trkpt lat="50.37333" lon="4.3078">
        <ele>189.19999694824</ele>
        <time>2014-12-29T08:25:21.000Z</time>
      </trkpt>
      <trkpt lat="50.37333" lon="4.30767">
        <ele>189.19999694824</ele>
        <time>2014-12-29T08:25:29.000Z</time>
      </trkpt>
      <trkpt lat="50.37334" lon="4.30757">
        <ele>189.19999694824</ele>
        <time>2014-12-29T08:25:36.000Z</time>
      </trkpt>
      <trkpt lat="50.37335" lon="4.30752">
        <ele>189.19999694824</ele>
        <time>2014-12-29T08:25:40.000Z</time>
      </trkpt>
      <trkpt lat="50.37334" lon="4.3074">
        <ele>189.19999694824</ele>
        <time>2014-12-29T08:25:48.000Z</time>
      </trkpt>
      <trkpt lat="50.37334" lon="4.30738">
        <ele>189.19999694824</ele>
        <time>2014-12-29T08:25:49.000Z</time>
      </trkpt>
      <trkpt lat="50.37333" lon="4.30733">
        <ele>189.19999694824</ele>
        <time>2014-12-29T08:25:56.000Z</time>
      </trkpt>
      <trkpt lat="50.37334" lon="4.30725">
        <ele>189.19999694824</ele>
        <time>2014-12-29T08:26:03.000Z</time>
      </trkpt>
      <trkpt lat="50.37335" lon="4.30711">
        <ele>189.39999389648</ele>
        <time>2014-12-29T08:26:11.000Z</time>
      </trkpt>
      <trkpt lat="50.37336" lon="4.30698">
        <ele>189.60000610352</ele>
        <time>2014-12-29T08:26:18.000Z</time>
      </trkpt>
      <trkpt lat="50.37337" lon="4.30686">
        <ele>190</ele>
        <time>2014-12-29T08:26:25.000Z</time>
      </trkpt>
      <trkpt lat="50.37338" lon="4.30674">
        <ele>190.39999389648</ele>
        <time>2014-12-29T08:26:32.000Z</time>
      </trkpt>
      <trkpt lat="50.3734" lon="4.30661">
        <ele>190.80000305176</ele>
        <time>2014-12-29T08:26:40.000Z</time>
      </trkpt>
      <trkpt lat="50.37342" lon="4.30645">
        <ele>191.39999389648</ele>
        <time>2014-12-29T08:26:48.000Z</time>
      </trkpt>
      <trkpt lat="50.37345" lon="4.30632">
        <ele>192</ele>
        <time>2014-12-29T08:26:56.000Z</time>
      </trkpt>
      <trkpt lat="50.37345" lon="4.30623">
        <ele>192.19999694824</ele>
        <time>2014-12-29T08:27:01.000Z</time>
      </trkpt>
      <trkpt lat="50.37346" lon="4.30612">
        <ele>192.60000610352</ele>
        <time>2014-12-29T08:27:08.000Z</time>
      </trkpt>
      <trkpt lat="50.37347" lon="4.30597">
        <ele>192.80000305176</ele>
        <time>2014-12-29T08:27:16.000Z</time>
      </trkpt>
      <trkpt lat="50.37347" lon="4.30591">
        <ele>192.80000305176</ele>
        <time>2014-12-29T08:27:19.000Z</time>
      </trkpt>
      <trkpt lat="50.37347" lon="4.30577">
        <ele>193</ele>
        <time>2014-12-29T08:27:26.000Z</time>
      </trkpt>
      <trkpt lat="50.37345" lon="4.3056">
        <ele>193.19999694824</ele>
        <time>2014-12-29T08:27:35.000Z</time>
      </trkpt>
      <trkpt lat="50.37345" lon="4.30548">
        <ele>193.60000610352</ele>
        <time>2014-12-29T08:27:42.000Z</time>
      </trkpt>
      <trkpt lat="50.37342" lon="4.30535">
        <ele>193.60000610352</ele>
        <time>2014-12-29T08:27:49.000Z</time>
      </trkpt>
      <trkpt lat="50.3734" lon="4.30529">
        <ele>193.60000610352</ele>
        <time>2014-12-29T08:27:52.000Z</time>
      </trkpt>
      <trkpt lat="50.3734" lon="4.30526">
        <ele>193.60000610352</ele>
        <time>2014-12-29T08:27:54.000Z</time>
      </trkpt>
      <trkpt lat="50.3734" lon="4.30522">
        <ele>193.80000305176</ele>
        <time>2014-12-29T08:27:58.000Z</time>
      </trkpt>
      <trkpt lat="50.37337" lon="4.30505">
        <ele>193.80000305176</ele>
        <time>2014-12-29T08:28:07.000Z</time>
      </trkpt>
      <trkpt lat="50.37336" lon="4.30492">
        <ele>194.19999694824</ele>
        <time>2014-12-29T08:28:15.000Z</time>
      </trkpt>
      <trkpt lat="50.37336" lon="4.3049">
        <ele>194.19999694824</ele>
        <time>2014-12-29T08:28:16.000Z</time>
      </trkpt>
      <trkpt lat="50.37335" lon="4.30479">
        <ele>194.39999389648</ele>
        <time>2014-12-29T08:28:22.000Z</time>
      </trkpt>
      <trkpt lat="50.37333" lon="4.30467">
        <ele>194.39999389648</ele>
        <time>2014-12-29T08:28:30.000Z</time>
      </trkpt>
      <trkpt lat="50.3733" lon="4.30454">
        <ele>194.39999389648</ele>
        <time>2014-12-29T08:28:37.000Z</time>
      </trkpt>
      <trkpt lat="50.37324" lon="4.30439">
        <ele>194.39999389648</ele>
        <time>2014-12-29T08:28:46.000Z</time>
      </trkpt>
      <trkpt lat="50.37321" lon="4.30435">
        <ele>194.19999694824</ele>
        <time>2014-12-29T08:28:49.000Z</time>
      </trkpt>
      <trkpt lat="50.37315" lon="4.3042">
        <ele>194</ele>
        <time>2014-12-29T08:28:58.000Z</time>
      </trkpt>
      <trkpt lat="50.3731" lon="4.30408">
        <ele>193.80000305176</ele>
        <time>2014-12-29T08:29:06.000Z</time>
      </trkpt>
      <trkpt lat="50.37304" lon="4.30398">
        <ele>193.60000610352</ele>
        <time>2014-12-29T08:29:13.000Z</time>
      </trkpt>
      <trkpt lat="50.373" lon="4.3039">
        <ele>193.60000610352</ele>
        <time>2014-12-29T08:29:19.000Z</time>
      </trkpt>
      <trkpt lat="50.37296" lon="4.30381">
        <ele>193.19999694824</ele>
        <time>2014-12-29T08:29:25.000Z</time>
      </trkpt>
      <trkpt lat="50.37292" lon="4.30375">
        <ele>193</ele>
        <time>2014-12-29T08:29:29.000Z</time>
      </trkpt>
      <trkpt lat="50.3729" lon="4.30371">
        <ele>192.60000610352</ele>
        <time>2014-12-29T08:29:32.000Z</time>
      </trkpt>
      <trkpt lat="50.37284" lon="4.30357">
        <ele>192.39999389648</ele>
        <time>2014-12-29T08:29:41.000Z</time>
      </trkpt>
      <trkpt lat="50.37271" lon="4.30333">
        <ele>192.39999389648</ele>
        <time>2014-12-29T08:29:56.000Z</time>
      </trkpt>
      <trkpt lat="50.37267" lon="4.30316">
        <ele>192.39999389648</ele>
        <time>2014-12-29T08:30:05.000Z</time>
      </trkpt>
      <trkpt lat="50.37264" lon="4.30305">
        <ele>192.19999694824</ele>
        <time>2014-12-29T08:30:11.000Z</time>
      </trkpt>
      <trkpt lat="50.37259" lon="4.30292">
        <ele>192</ele>
        <time>2014-12-29T08:30:18.000Z</time>
      </trkpt>
      <trkpt lat="50.37257" lon="4.30283">
        <ele>192</ele>
        <time>2014-12-29T08:30:23.000Z</time>
      </trkpt>
      <trkpt lat="50.37253" lon="4.30274">
        <ele>192.19999694824</ele>
        <time>2014-12-29T08:30:30.000Z</time>
      </trkpt>
      <trkpt lat="50.37248" lon="4.30262">
        <ele>193</ele>
        <time>2014-12-29T08:30:38.000Z</time>
      </trkpt>
      <trkpt lat="50.37242" lon="4.30247">
        <ele>193.80000305176</ele>
        <time>2014-12-29T08:30:46.000Z</time>
      </trkpt>
      <trkpt lat="50.37242" lon="4.30246">
        <ele>193.80000305176</ele>
        <time>2014-12-29T08:30:47.000Z</time>
      </trkpt>
      <trkpt lat="50.3724" lon="4.30241">
        <ele>194</ele>
        <time>2014-12-29T08:30:50.000Z</time>
      </trkpt>
      <trkpt lat="50.37223" lon="4.30228">
        <ele>194</ele>
        <time>2014-12-29T08:31:05.000Z</time>
      </trkpt>
      <trkpt lat="50.37216" lon="4.30222">
        <ele>194</ele>
        <time>2014-12-29T08:31:13.000Z</time>
      </trkpt>
      <trkpt lat="50.37211" lon="4.30216">
        <ele>194</ele>
        <time>2014-12-29T08:31:19.000Z</time>
      </trkpt>
      <trkpt lat="50.37205" lon="4.30209">
        <ele>193.80000305176</ele>
        <time>2014-12-29T08:31:26.000Z</time>
      </trkpt>
      <trkpt lat="50.37198" lon="4.30201">
        <ele>193.60000610352</ele>
        <time>2014-12-29T08:31:34.000Z</time>
      </trkpt>
      <trkpt lat="50.37195" lon="4.30197">
        <ele>193.60000610352</ele>
        <time>2014-12-29T08:31:39.000Z</time>
      </trkpt>
      <trkpt lat="50.37192" lon="4.3019">
        <ele>193.80000305176</ele>
        <time>2014-12-29T08:31:45.000Z</time>
      </trkpt>
      <trkpt lat="50.3719" lon="4.3018">
        <ele>194.19999694824</ele>
        <time>2014-12-29T08:31:52.000Z</time>
      </trkpt>
      <trkpt lat="50.3719" lon="4.30178">
        <ele>194.39999389648</ele>
        <time>2014-12-29T08:31:53.000Z</time>
      </trkpt>
      <trkpt lat="50.37187" lon="4.30169">
        <ele>194.60000610352</ele>
        <time>2014-12-29T08:31:59.000Z</time>
      </trkpt>
      <trkpt lat="50.3718" lon="4.30155">
        <ele>194.19999694824</ele>
        <time>2014-12-29T08:32:08.000Z</time>
      </trkpt>
      <trkpt lat="50.37177" lon="4.30151">
        <ele>194.19999694824</ele>
        <time>2014-12-29T08:32:12.000Z</time>
      </trkpt>
      <trkpt lat="50.37176" lon="4.30147">
        <ele>194</ele>
        <time>2014-12-29T08:32:15.000Z</time>
      </trkpt>
      <trkpt lat="50.37171" lon="4.30139">
        <ele>193.80000305176</ele>
        <time>2014-12-29T08:32:21.000Z</time>
      </trkpt>
      <trkpt lat="50.37165" lon="4.30132">
        <ele>193.39999389648</ele>
        <time>2014-12-29T08:32:28.000Z</time>
      </trkpt>
      <trkpt lat="50.37165" lon="4.30131">
        <ele>193.39999389648</ele>
        <time>2014-12-29T08:32:29.000Z</time>
      </trkpt>
      <trkpt lat="50.3716" lon="4.30124">
        <ele>193.19999694824</ele>
        <time>2014-12-29T08:32:34.000Z</time>
      </trkpt>
      <trkpt lat="50.37155" lon="4.30114">
        <ele>192.80000305176</ele>
        <time>2014-12-29T08:32:42.000Z</time>
      </trkpt>
      <trkpt lat="50.37155" lon="4.30113">
        <ele>192.80000305176</ele>
        <time>2014-12-29T08:32:43.000Z</time>
      </trkpt>
      <trkpt lat="50.37149" lon="4.30104">
        <ele>193.19999694824</ele>
        <time>2014-12-29T08:32:51.000Z</time>
      </trkpt>
      <trkpt lat="50.37144" lon="4.30094">
        <ele>193.60000610352</ele>
        <time>2014-12-29T08:32:58.000Z</time>
      </trkpt>
      <trkpt lat="50.37138" lon="4.30084">
        <ele>194</ele>
        <time>2014-12-29T08:33:05.000Z</time>
      </trkpt>
      <trkpt lat="50.37132" lon="4.30075">
        <ele>194.39999389648</ele>
        <time>2014-12-29T08:33:11.000Z</time>
      </trkpt>
      <trkpt lat="50.37126" lon="4.30064">
        <ele>194.60000610352</ele>
        <time>2014-12-29T08:33:19.000Z</time>
      </trkpt>
      <trkpt lat="50.37121" lon="4.30056">
        <ele>194.80000305176</ele>
        <time>2014-12-29T08:33:25.000Z</time>
      </trkpt>
      <trkpt lat="50.37115" lon="4.30047">
        <ele>194.80000305176</ele>
        <time>2014-12-29T08:33:32.000Z</time>
      </trkpt>
      <trkpt lat="50.37115" lon="4.30046">
        <ele>194.80000305176</ele>
        <time>2014-12-29T08:33:33.000Z</time>
      </trkpt>
      <trkpt lat="50.37113" lon="4.30042">
        <ele>195</ele>
        <time>2014-12-29T08:33:37.000Z</time>
      </trkpt>
      <trkpt lat="50.37107" lon="4.30035">
        <ele>195</ele>
        <time>2014-12-29T08:33:43.000Z</time>
      </trkpt>
      <trkpt lat="50.37103" lon="4.30028">
        <ele>195</ele>
        <time>2014-12-29T08:33:48.000Z</time>
      </trkpt>
      <trkpt lat="50.37095" lon="4.30015">
        <ele>194.60000610352</ele>
        <time>2014-12-29T08:33:57.000Z</time>
      </trkpt>
      <trkpt lat="50.37088" lon="4.30005">
        <ele>194.19999694824</ele>
        <time>2014-12-29T08:34:05.000Z</time>
      </trkpt>
      <trkpt lat="50.37085" lon="4.30001">
        <ele>194</ele>
        <time>2014-12-29T08:34:09.000Z</time>
      </trkpt>
      <trkpt lat="50.37084" lon="4.2999">
        <ele>194</ele>
        <time>2014-12-29T08:34:15.000Z</time>
      </trkpt>
      <trkpt lat="50.37084" lon="4.29989">
        <ele>194</ele>
        <time>2014-12-29T08:34:16.000Z</time>
      </trkpt>
      <trkpt lat="50.3708" lon="4.2998">
        <ele>193.80000305176</ele>
        <time>2014-12-29T08:34:23.000Z</time>
      </trkpt>
      <trkpt lat="50.37076" lon="4.29972">
        <ele>193.60000610352</ele>
        <time>2014-12-29T08:34:30.000Z</time>
      </trkpt>
      <trkpt lat="50.3707" lon="4.29965">
        <ele>193.19999694824</ele>
        <time>2014-12-29T08:34:37.000Z</time>
      </trkpt>
      <trkpt lat="50.37063" lon="4.29961">
        <ele>192.80000305176</ele>
        <time>2014-12-29T08:34:43.000Z</time>
      </trkpt>
      <trkpt lat="50.37061" lon="4.29961">
        <ele>192.80000305176</ele>
        <time>2014-12-29T08:34:45.000Z</time>
      </trkpt>
      <trkpt lat="50.37058" lon="4.29957">
        <ele>192.60000610352</ele>
        <time>2014-12-29T08:34:50.000Z</time>
      </trkpt>
      <trkpt lat="50.37047" lon="4.29937">
        <ele>192</ele>
        <time>2014-12-29T08:35:05.000Z</time>
      </trkpt>
      <trkpt lat="50.37047" lon="4.29936">
        <ele>192</ele>
        <time>2014-12-29T08:35:07.000Z</time>
      </trkpt>
      <trkpt lat="50.37041" lon="4.29927">
        <ele>191.80000305176</ele>
        <time>2014-12-29T08:35:16.000Z</time>
      </trkpt>
      <trkpt lat="50.37037" lon="4.29922">
        <ele>191.80000305176</ele>
        <time>2014-12-29T08:35:21.000Z</time>
      </trkpt>
      <trkpt lat="50.37032" lon="4.29915">
        <ele>191.60000610352</ele>
        <time>2014-12-29T08:35:29.000Z</time>
      </trkpt>
      <trkpt lat="50.37026" lon="4.29909">
        <ele>191.39999389648</ele>
        <time>2014-12-29T08:35:35.000Z</time>
      </trkpt>
      <trkpt lat="50.37021" lon="4.29898">
        <ele>191.39999389648</ele>
        <time>2014-12-29T08:35:42.000Z</time>
      </trkpt>
      <trkpt lat="50.3702" lon="4.29897">
        <ele>191.39999389648</ele>
        <time>2014-12-29T08:35:43.000Z</time>
      </trkpt>
      <trkpt lat="50.37016" lon="4.29889">
        <ele>191.19999694824</ele>
        <time>2014-12-29T08:35:50.000Z</time>
      </trkpt>
      <trkpt lat="50.37015" lon="4.29887">
        <ele>191.19999694824</ele>
        <time>2014-12-29T08:35:52.000Z</time>
      </trkpt>
      <trkpt lat="50.3701" lon="4.29877">
        <ele>191</ele>
        <time>2014-12-29T08:36:00.000Z</time>
      </trkpt>
      <trkpt lat="50.37009" lon="4.29875">
        <ele>191</ele>
        <time>2014-12-29T08:36:02.000Z</time>
      </trkpt>
      <trkpt lat="50.37003" lon="4.29874">
        <ele>191</ele>
        <time>2014-12-29T08:36:08.000Z</time>
      </trkpt>
      <trkpt lat="50.36996" lon="4.29877">
        <ele>190.80000305176</ele>
        <time>2014-12-29T08:36:17.000Z</time>
      </trkpt>
      <trkpt lat="50.36993" lon="4.29878">
        <ele>190.60000610352</ele>
        <time>2014-12-29T08:36:24.000Z</time>
      </trkpt>
      <trkpt lat="50.36993" lon="4.29877">
        <ele>190.60000610352</ele>
        <time>2014-12-29T08:36:36.000Z</time>
      </trkpt>
      <trkpt lat="50.36994" lon="4.2987">
        <ele>190.80000305176</ele>
        <time>2014-12-29T08:37:22.000Z</time>
      </trkpt>
      <trkpt lat="50.36986" lon="4.29874">
        <ele>190.60000610352</ele>
        <time>2014-12-29T08:37:28.000Z</time>
      </trkpt>
      <trkpt lat="50.36984" lon="4.29877">
        <ele>190.39999389648</ele>
        <time>2014-12-29T08:37:30.000Z</time>
      </trkpt>
      <trkpt lat="50.3697" lon="4.29894">
        <ele>189</ele>
        <time>2014-12-29T08:37:40.000Z</time>
      </trkpt>
      <trkpt lat="50.36964" lon="4.29912">
        <ele>187.60000610352</ele>
        <time>2014-12-29T08:37:49.000Z</time>
      </trkpt>
      <trkpt lat="50.36963" lon="4.29914">
        <ele>187.39999389648</ele>
        <time>2014-12-29T08:37:50.000Z</time>
      </trkpt>
      <trkpt lat="50.36963" lon="4.29917">
        <ele>187.19999694824</ele>
        <time>2014-12-29T08:37:56.000Z</time>
      </trkpt>
      <trkpt lat="50.36962" lon="4.29919">
        <ele>186.80000305176</ele>
        <time>2014-12-29T08:38:08.000Z</time>
      </trkpt>
      <trkpt lat="50.36961" lon="4.2992">
        <ele>186.60000610352</ele>
        <time>2014-12-29T08:38:13.000Z</time>
      </trkpt>
      <trkpt lat="50.36959" lon="4.29927">
        <ele>186</ele>
        <time>2014-12-29T08:38:19.000Z</time>
      </trkpt>
      <trkpt lat="50.36958" lon="4.29931">
        <ele>185.60000610352</ele>
        <time>2014-12-29T08:38:27.000Z</time>
      </trkpt>
      <trkpt lat="50.36956" lon="4.2994">
        <ele>185</ele>
        <time>2014-12-29T08:38:33.000Z</time>
      </trkpt>
      <trkpt lat="50.36956" lon="4.29943">
        <ele>184.39999389648</ele>
        <time>2014-12-29T08:38:39.000Z</time>
      </trkpt>
      <trkpt lat="50.36955" lon="4.29949">
        <ele>183.60000610352</ele>
        <time>2014-12-29T08:38:45.000Z</time>
      </trkpt>
      <trkpt lat="50.36954" lon="4.29955">
        <ele>183</ele>
        <time>2014-12-29T08:38:52.000Z</time>
      </trkpt>
      <trkpt lat="50.36953" lon="4.29966">
        <ele>182.19999694824</ele>
        <time>2014-12-29T08:39:00.000Z</time>
      </trkpt>
      <trkpt lat="50.36952" lon="4.29974">
        <ele>181.60000610352</ele>
        <time>2014-12-29T08:39:05.000Z</time>
      </trkpt>
      <trkpt lat="50.36952" lon="4.29977">
        <ele>181.60000610352</ele>
        <time>2014-12-29T08:39:08.000Z</time>
      </trkpt>
      <trkpt lat="50.36951" lon="4.29989">
        <ele>180.60000610352</ele>
        <time>2014-12-29T08:39:16.000Z</time>
      </trkpt>
      <trkpt lat="50.3695" lon="4.29989">
        <ele>180.60000610352</ele>
        <time>2014-12-29T08:39:17.000Z</time>
      </trkpt>
      <trkpt lat="50.36949" lon="4.29996">
        <ele>180</ele>
        <time>2014-12-29T08:39:22.000Z</time>
      </trkpt>
      <trkpt lat="50.36949" lon="4.3">
        <ele>179.80000305176</ele>
        <time>2014-12-29T08:39:28.000Z</time>
      </trkpt>
      <trkpt lat="50.36948" lon="4.30011">
        <ele>178.80000305176</ele>
        <time>2014-12-29T08:39:36.000Z</time>
      </trkpt>
      <trkpt lat="50.36947" lon="4.30013">
        <ele>178.60000610352</ele>
        <time>2014-12-29T08:39:38.000Z</time>
      </trkpt>
      <trkpt lat="50.36946" lon="4.30022">
        <ele>177</ele>
        <time>2014-12-29T08:39:46.000Z</time>
      </trkpt>
      <trkpt lat="50.36945" lon="4.30026">
        <ele>176.19999694824</ele>
        <time>2014-12-29T08:39:49.000Z</time>
      </trkpt>
      <trkpt lat="50.36944" lon="4.3003">
        <ele>175.39999389648</ele>
        <time>2014-12-29T08:39:52.000Z</time>
      </trkpt>
      <trkpt lat="50.36943" lon="4.30036">
        <ele>174.19999694824</ele>
        <time>2014-12-29T08:39:58.000Z</time>
      </trkpt>
      <trkpt lat="50.36942" lon="4.30049">
        <ele>171.60000610352</ele>
        <time>2014-12-29T08:40:07.000Z</time>
      </trkpt>
      <trkpt lat="50.36941" lon="4.3006">
        <ele>169.60000610352</ele>
        <time>2014-12-29T08:40:14.000Z</time>
      </trkpt>
      <trkpt lat="50.36939" lon="4.30072">
        <ele>167.39999389648</ele>
        <time>2014-12-29T08:40:22.000Z</time>
      </trkpt>
      <trkpt lat="50.36939" lon="4.30074">
        <ele>166.60000610352</ele>
        <time>2014-12-29T08:40:24.000Z</time>
      </trkpt>
      <trkpt lat="50.36937" lon="4.30087">
        <ele>164.19999694824</ele>
        <time>2014-12-29T08:40:32.000Z</time>
      </trkpt>
      <trkpt lat="50.36937" lon="4.30094">
        <ele>163.19999694824</ele>
        <time>2014-12-29T08:40:37.000Z</time>
      </trkpt>
      <trkpt lat="50.36936" lon="4.30097">
        <ele>162.80000305176</ele>
        <time>2014-12-29T08:40:39.000Z</time>
      </trkpt>
      <trkpt lat="50.36936" lon="4.30101">
        <ele>162.19999694824</ele>
        <time>2014-12-29T08:40:45.000Z</time>
      </trkpt>
      <trkpt lat="50.36936" lon="4.30112">
        <ele>161</ele>
        <time>2014-12-29T08:40:53.000Z</time>
      </trkpt>
      <trkpt lat="50.36937" lon="4.30126">
        <ele>159</ele>
        <time>2014-12-29T08:41:03.000Z</time>
      </trkpt>
      <trkpt lat="50.36937" lon="4.30128">
        <ele>158.80000305176</ele>
        <time>2014-12-29T08:41:05.000Z</time>
      </trkpt>
      <trkpt lat="50.36939" lon="4.30136">
        <ele>157.80000305176</ele>
        <time>2014-12-29T08:41:12.000Z</time>
      </trkpt>
      <trkpt lat="50.36941" lon="4.30144">
        <ele>157</ele>
        <time>2014-12-29T08:41:19.000Z</time>
      </trkpt>
      <trkpt lat="50.36944" lon="4.30154">
        <ele>156.19999694824</ele>
        <time>2014-12-29T08:41:27.000Z</time>
      </trkpt>
      <trkpt lat="50.36945" lon="4.30157">
        <ele>156</ele>
        <time>2014-12-29T08:41:29.000Z</time>
      </trkpt>
      <trkpt lat="50.36948" lon="4.30163">
        <ele>155.80000305176</ele>
        <time>2014-12-29T08:41:35.000Z</time>
      </trkpt>
      <trkpt lat="50.36954" lon="4.30171">
        <ele>156.39999389648</ele>
        <time>2014-12-29T08:41:44.000Z</time>
      </trkpt>
      <trkpt lat="50.3696" lon="4.30177">
        <ele>157</ele>
        <time>2014-12-29T08:41:53.000Z</time>
      </trkpt>
      <trkpt lat="50.36966" lon="4.30181">
        <ele>157.80000305176</ele>
        <time>2014-12-29T08:42:02.000Z</time>
      </trkpt>
      <trkpt lat="50.36975" lon="4.30186">
        <ele>158.60000610352</ele>
        <time>2014-12-29T08:42:11.000Z</time>
      </trkpt>
      <trkpt lat="50.36984" lon="4.30192">
        <ele>159.19999694824</ele>
        <time>2014-12-29T08:42:21.000Z</time>
      </trkpt>
      <trkpt lat="50.3699" lon="4.30197">
        <ele>159.39999389648</ele>
        <time>2014-12-29T08:42:28.000Z</time>
      </trkpt>
      <trkpt lat="50.36996" lon="4.30207">
        <ele>158.60000610352</ele>
        <time>2014-12-29T08:42:37.000Z</time>
      </trkpt>
      <trkpt lat="50.36997" lon="4.30208">
        <ele>158.39999389648</ele>
        <time>2014-12-29T08:42:38.000Z</time>
      </trkpt>
      <trkpt lat="50.36997" lon="4.30215">
        <ele>157</ele>
        <time>2014-12-29T08:42:46.000Z</time>
      </trkpt>
      <trkpt lat="50.36997" lon="4.30219">
        <ele>156</ele>
        <time>2014-12-29T08:42:51.000Z</time>
      </trkpt>
      <trkpt lat="50.36995" lon="4.30227">
        <ele>153.80000305176</ele>
        <time>2014-12-29T08:43:00.000Z</time>
      </trkpt>
      <trkpt lat="50.36994" lon="4.30231">
        <ele>153</ele>
        <time>2014-12-29T08:43:05.000Z</time>
      </trkpt>
      <trkpt lat="50.36991" lon="4.30236">
        <ele>151.60000610352</ele>
        <time>2014-12-29T08:43:11.000Z</time>
      </trkpt>
      <trkpt lat="50.36989" lon="4.30239">
        <ele>151</ele>
        <time>2014-12-29T08:43:16.000Z</time>
      </trkpt>
      <trkpt lat="50.36987" lon="4.30243">
        <ele>149.80000305176</ele>
        <time>2014-12-29T08:43:23.000Z</time>
      </trkpt>
      <trkpt lat="50.36985" lon="4.3025">
        <ele>148.39999389648</ele>
        <time>2014-12-29T08:43:31.000Z</time>
      </trkpt>
      <trkpt lat="50.36984" lon="4.30257">
        <ele>147</ele>
        <time>2014-12-29T08:43:37.000Z</time>
      </trkpt>
      <trkpt lat="50.36983" lon="4.30269">
        <ele>144.60000610352</ele>
        <time>2014-12-29T08:43:47.000Z</time>
      </trkpt>
      <trkpt lat="50.36983" lon="4.30279">
        <ele>142.80000305176</ele>
        <time>2014-12-29T08:43:54.000Z</time>
      </trkpt>
      <trkpt lat="50.3698" lon="4.30292">
        <ele>139.39999389648</ele>
        <time>2014-12-29T08:44:02.000Z</time>
      </trkpt>
      <trkpt lat="50.3698" lon="4.30294">
        <ele>139</ele>
        <time>2014-12-29T08:44:03.000Z</time>
      </trkpt>
      <trkpt lat="50.36978" lon="4.30296">
        <ele>138.39999389648</ele>
        <time>2014-12-29T08:44:05.000Z</time>
      </trkpt>
      <trkpt lat="50.36974" lon="4.30299">
        <ele>137.60000610352</ele>
        <time>2014-12-29T08:44:10.000Z</time>
      </trkpt>
      <trkpt lat="50.36973" lon="4.30293">
        <ele>138.39999389648</ele>
        <time>2014-12-29T08:44:17.000Z</time>
      </trkpt>
      <trkpt lat="50.3697" lon="4.30291">
        <ele>138.60000610352</ele>
        <time>2014-12-29T08:44:23.000Z</time>
      </trkpt>
      <trkpt lat="50.36968" lon="4.30289">
        <ele>138.80000305176</ele>
        <time>2014-12-29T08:44:28.000Z</time>
      </trkpt>
      <trkpt lat="50.36963" lon="4.30279">
        <ele>139.80000305176</ele>
        <time>2014-12-29T08:44:38.000Z</time>
      </trkpt>
      <trkpt lat="50.36959" lon="4.3027">
        <ele>140.39999389648</ele>
        <time>2014-12-29T08:44:46.000Z</time>
      </trkpt>
      <trkpt lat="50.36955" lon="4.30261">
        <ele>141.19999694824</ele>
        <time>2014-12-29T08:44:55.000Z</time>
      </trkpt>
      <trkpt lat="50.36955" lon="4.3026">
        <ele>141.19999694824</ele>
        <time>2014-12-29T08:44:56.000Z</time>
      </trkpt>
      <trkpt lat="50.36946" lon="4.30249">
        <ele>141.39999389648</ele>
        <time>2014-12-29T08:45:07.000Z</time>
      </trkpt>
      <trkpt lat="50.36939" lon="4.30239">
        <ele>141.39999389648</ele>
        <time>2014-12-29T08:45:16.000Z</time>
      </trkpt>
      <trkpt lat="50.36933" lon="4.30231">
        <ele>141.39999389648</ele>
        <time>2014-12-29T08:45:24.000Z</time>
      </trkpt>
      <trkpt lat="50.36927" lon="4.30227">
        <ele>140.60000610352</ele>
        <time>2014-12-29T08:45:31.000Z</time>
      </trkpt>
      <trkpt lat="50.36923" lon="4.30221">
        <ele>140.60000610352</ele>
        <time>2014-12-29T08:45:35.000Z</time>
      </trkpt>
      <trkpt lat="50.36916" lon="4.30216">
        <ele>140</ele>
        <time>2014-12-29T08:45:43.000Z</time>
      </trkpt>
      <trkpt lat="50.36905" lon="4.30215">
        <ele>137.39999389648</ele>
        <time>2014-12-29T08:45:52.000Z</time>
      </trkpt>
      <trkpt lat="50.36896" lon="4.30215">
        <ele>135.60000610352</ele>
        <time>2014-12-29T08:45:59.000Z</time>
      </trkpt>
      <trkpt lat="50.36895" lon="4.30215">
        <ele>135.39999389648</ele>
        <time>2014-12-29T08:46:00.000Z</time>
      </trkpt>
      <trkpt lat="50.36888" lon="4.30217">
        <ele>134.19999694824</ele>
        <time>2014-12-29T08:46:06.000Z</time>
      </trkpt>
      <trkpt lat="50.36886" lon="4.30218">
        <ele>133.60000610352</ele>
        <time>2014-12-29T08:46:16.000Z</time>
      </trkpt>
      <trkpt lat="50.36878" lon="4.3022">
        <ele>132.39999389648</ele>
        <time>2014-12-29T08:46:22.000Z</time>
      </trkpt>
      <trkpt lat="50.3687" lon="4.30222">
        <ele>131</ele>
        <time>2014-12-29T08:46:28.000Z</time>
      </trkpt>
      <trkpt lat="50.3686" lon="4.30224">
        <ele>129.39999389648</ele>
        <time>2014-12-29T08:46:35.000Z</time>
      </trkpt>
      <trkpt lat="50.3685" lon="4.30225">
        <ele>127.80000305176</ele>
        <time>2014-12-29T08:46:43.000Z</time>
      </trkpt>
      <trkpt lat="50.36839" lon="4.30224">
        <ele>126.40000152588</ele>
        <time>2014-12-29T08:46:52.000Z</time>
      </trkpt>
      <trkpt lat="50.36831" lon="4.30218">
        <ele>125.80000305176</ele>
        <time>2014-12-29T08:47:00.000Z</time>
      </trkpt>
      <trkpt lat="50.36824" lon="4.30208">
        <ele>125.80000305176</ele>
        <time>2014-12-29T08:47:09.000Z</time>
      </trkpt>
      <trkpt lat="50.36823" lon="4.30204">
        <ele>126</ele>
        <time>2014-12-29T08:47:12.000Z</time>
      </trkpt>
      <trkpt lat="50.36825" lon="4.30202">
        <ele>126.40000152588</ele>
        <time>2014-12-29T08:47:23.000Z</time>
      </trkpt>
      <trkpt lat="50.36821" lon="4.30194">
        <ele>126.40000152588</ele>
        <time>2014-12-29T08:47:38.000Z</time>
      </trkpt>
      <trkpt lat="50.36815" lon="4.30176">
        <ele>126</ele>
        <time>2014-12-29T08:47:47.000Z</time>
      </trkpt>
      <trkpt lat="50.36811" lon="4.30156">
        <ele>125.80000305176</ele>
        <time>2014-12-29T08:47:56.000Z</time>
      </trkpt>
      <trkpt lat="50.36808" lon="4.30141">
        <ele>125.80000305176</ele>
        <time>2014-12-29T08:48:03.000Z</time>
      </trkpt>
      <trkpt lat="50.36803" lon="4.30127">
        <ele>125.40000152588</ele>
        <time>2014-12-29T08:48:12.000Z</time>
      </trkpt>
      <trkpt lat="50.36796" lon="4.30119">
        <ele>125.19999694824</ele>
        <time>2014-12-29T08:48:19.000Z</time>
      </trkpt>
      <trkpt lat="50.36788" lon="4.30128">
        <ele>125.80000305176</ele>
        <time>2014-12-29T08:48:27.000Z</time>
      </trkpt>
      <trkpt lat="50.36781" lon="4.3014">
        <ele>126.59999847412</ele>
        <time>2014-12-29T08:48:37.000Z</time>
      </trkpt>
      <trkpt lat="50.36774" lon="4.30154">
        <ele>127.19999694824</ele>
        <time>2014-12-29T08:48:47.000Z</time>
      </trkpt>
      <trkpt lat="50.36768" lon="4.30166">
        <ele>127.59999847412</ele>
        <time>2014-12-29T08:48:54.000Z</time>
      </trkpt>
      <trkpt lat="50.3676" lon="4.3018">
        <ele>128.19999694824</ele>
        <time>2014-12-29T08:49:06.000Z</time>
      </trkpt>
      <trkpt lat="50.36752" lon="4.30192">
        <ele>128.60000610352</ele>
        <time>2014-12-29T08:49:14.000Z</time>
      </trkpt>
      <trkpt lat="50.36746" lon="4.302">
        <ele>129.19999694824</ele>
        <time>2014-12-29T08:49:21.000Z</time>
      </trkpt>
      <trkpt lat="50.36736" lon="4.3021">
        <ele>130</ele>
        <time>2014-12-29T08:49:31.000Z</time>
      </trkpt>
      <trkpt lat="50.36727" lon="4.30219">
        <ele>130.39999389648</ele>
        <time>2014-12-29T08:49:39.000Z</time>
      </trkpt>
      <trkpt lat="50.36718" lon="4.30227">
        <ele>130.19999694824</ele>
        <time>2014-12-29T08:49:49.000Z</time>
      </trkpt>
      <trkpt lat="50.3671" lon="4.30235">
        <ele>130.80000305176</ele>
        <time>2014-12-29T08:49:57.000Z</time>
      </trkpt>
      <trkpt lat="50.367" lon="4.30244">
        <ele>132.19999694824</ele>
        <time>2014-12-29T08:50:07.000Z</time>
      </trkpt>
      <trkpt lat="50.36692" lon="4.30252">
        <ele>133.39999389648</ele>
        <time>2014-12-29T08:50:14.000Z</time>
      </trkpt>
      <trkpt lat="50.36684" lon="4.3026">
        <ele>134.19999694824</ele>
        <time>2014-12-29T08:50:23.000Z</time>
      </trkpt>
      <trkpt lat="50.36676" lon="4.30269">
        <ele>134.39999389648</ele>
        <time>2014-12-29T08:50:31.000Z</time>
      </trkpt>
      <trkpt lat="50.36667" lon="4.30278">
        <ele>134.80000305176</ele>
        <time>2014-12-29T08:50:39.000Z</time>
      </trkpt>
      <trkpt lat="50.36661" lon="4.30283">
        <ele>135.39999389648</ele>
        <time>2014-12-29T08:50:45.000Z</time>
      </trkpt>
      <trkpt lat="50.36652" lon="4.30292">
        <ele>136.19999694824</ele>
        <time>2014-12-29T08:50:54.000Z</time>
      </trkpt>
      <trkpt lat="50.36643" lon="4.30302">
        <ele>136.39999389648</ele>
        <time>2014-12-29T08:51:04.000Z</time>
      </trkpt>
      <trkpt lat="50.36638" lon="4.30306">
        <ele>136.39999389648</ele>
        <time>2014-12-29T08:51:11.000Z</time>
      </trkpt>
      <trkpt lat="50.36631" lon="4.30315">
        <ele>136</ele>
        <time>2014-12-29T08:51:19.000Z</time>
      </trkpt>
      <trkpt lat="50.36625" lon="4.30321">
        <ele>135.80000305176</ele>
        <time>2014-12-29T08:51:24.000Z</time>
      </trkpt>
      <trkpt lat="50.36622" lon="4.30326">
        <ele>135.60000610352</ele>
        <time>2014-12-29T08:51:29.000Z</time>
      </trkpt>
      <trkpt lat="50.36613" lon="4.30335">
        <ele>135.19999694824</ele>
        <time>2014-12-29T08:51:38.000Z</time>
      </trkpt>
      <trkpt lat="50.36607" lon="4.30342">
        <ele>135</ele>
        <time>2014-12-29T08:51:44.000Z</time>
      </trkpt>
      <trkpt lat="50.36601" lon="4.30348">
        <ele>134.80000305176</ele>
        <time>2014-12-29T08:51:51.000Z</time>
      </trkpt>
      <trkpt lat="50.36591" lon="4.30357">
        <ele>134.19999694824</ele>
        <time>2014-12-29T08:51:59.000Z</time>
      </trkpt>
      <trkpt lat="50.36587" lon="4.30361">
        <ele>134.19999694824</ele>
        <time>2014-12-29T08:52:03.000Z</time>
      </trkpt>
      <trkpt lat="50.3658" lon="4.30368">
        <ele>134.19999694824</ele>
        <time>2014-12-29T08:52:09.000Z</time>
      </trkpt>
      <trkpt lat="50.36574" lon="4.30373">
        <ele>134.19999694824</ele>
        <time>2014-12-29T08:52:14.000Z</time>
      </trkpt>
      <trkpt lat="50.36569" lon="4.30379">
        <ele>134.19999694824</ele>
        <time>2014-12-29T08:52:19.000Z</time>
      </trkpt>
      <trkpt lat="50.36559" lon="4.30388">
        <ele>134.60000610352</ele>
        <time>2014-12-29T08:52:29.000Z</time>
      </trkpt>
      <trkpt lat="50.36552" lon="4.30395">
        <ele>135.19999694824</ele>
        <time>2014-12-29T08:52:36.000Z</time>
      </trkpt>
      <trkpt lat="50.36545" lon="4.30403">
        <ele>135.19999694824</ele>
        <time>2014-12-29T08:52:43.000Z</time>
      </trkpt>
      <trkpt lat="50.36536" lon="4.30412">
        <ele>135</ele>
        <time>2014-12-29T08:52:51.000Z</time>
      </trkpt>
      <trkpt lat="50.3653" lon="4.30419">
        <ele>134.80000305176</ele>
        <time>2014-12-29T08:52:58.000Z</time>
      </trkpt>
      <trkpt lat="50.36524" lon="4.30423">
        <ele>134.80000305176</ele>
        <time>2014-12-29T08:53:04.000Z</time>
      </trkpt>
      <trkpt lat="50.36516" lon="4.30431">
        <ele>134.60000610352</ele>
        <time>2014-12-29T08:53:13.000Z</time>
      </trkpt>
      <trkpt lat="50.3651" lon="4.30437">
        <ele>134.60000610352</ele>
        <time>2014-12-29T08:53:19.000Z</time>
      </trkpt>
      <trkpt lat="50.36505" lon="4.30442">
        <ele>134.39999389648</ele>
        <time>2014-12-29T08:53:24.000Z</time>
      </trkpt>
      <trkpt lat="50.365" lon="4.30448">
        <ele>134.19999694824</ele>
        <time>2014-12-29T08:53:29.000Z</time>
      </trkpt>
      <trkpt lat="50.36492" lon="4.30456">
        <ele>134</ele>
        <time>2014-12-29T08:53:39.000Z</time>
      </trkpt>
      <trkpt lat="50.36485" lon="4.30462">
        <ele>133.80000305176</ele>
        <time>2014-12-29T08:53:44.000Z</time>
      </trkpt>
      <trkpt lat="50.36477" lon="4.30469">
        <ele>133.60000610352</ele>
        <time>2014-12-29T08:53:53.000Z</time>
      </trkpt>
      <trkpt lat="50.36469" lon="4.30476">
        <ele>133.39999389648</ele>
        <time>2014-12-29T08:54:00.000Z</time>
      </trkpt>
      <trkpt lat="50.36462" lon="4.30484">
        <ele>133</ele>
        <time>2014-12-29T08:54:08.000Z</time>
      </trkpt>
      <trkpt lat="50.36453" lon="4.30493">
        <ele>132.80000305176</ele>
        <time>2014-12-29T08:54:15.000Z</time>
      </trkpt>
      <trkpt lat="50.36447" lon="4.305">
        <ele>132.60000610352</ele>
        <time>2014-12-29T08:54:21.000Z</time>
      </trkpt>
      <trkpt lat="50.3644" lon="4.30507">
        <ele>132.39999389648</ele>
        <time>2014-12-29T08:54:29.000Z</time>
      </trkpt>
      <trkpt lat="50.36436" lon="4.30512">
        <ele>132.19999694824</ele>
        <time>2014-12-29T08:54:33.000Z</time>
      </trkpt>
      <trkpt lat="50.36434" lon="4.30514">
        <ele>132.19999694824</ele>
        <time>2014-12-29T08:54:37.000Z</time>
      </trkpt>
      <trkpt lat="50.36428" lon="4.30521">
        <ele>132</ele>
        <time>2014-12-29T08:54:44.000Z</time>
      </trkpt>
      <trkpt lat="50.36424" lon="4.30524">
        <ele>131.80000305176</ele>
        <time>2014-12-29T08:54:47.000Z</time>
      </trkpt>
      <trkpt lat="50.36413" lon="4.30535">
        <ele>131.80000305176</ele>
        <time>2014-12-29T08:54:56.000Z</time>
      </trkpt>
      <trkpt lat="50.36411" lon="4.30536">
        <ele>131.80000305176</ele>
        <time>2014-12-29T08:54:59.000Z</time>
      </trkpt>
      <trkpt lat="50.36406" lon="4.30541">
        <ele>131.80000305176</ele>
        <time>2014-12-29T08:55:03.000Z</time>
      </trkpt>
      <trkpt lat="50.36399" lon="4.3055">
        <ele>131.80000305176</ele>
        <time>2014-12-29T08:55:13.000Z</time>
      </trkpt>
      <trkpt lat="50.36395" lon="4.30554">
        <ele>132</ele>
        <time>2014-12-29T08:55:17.000Z</time>
      </trkpt>
      <trkpt lat="50.36387" lon="4.30563">
        <ele>132.39999389648</ele>
        <time>2014-12-29T08:55:24.000Z</time>
      </trkpt>
      <trkpt lat="50.36381" lon="4.30569">
        <ele>132.60000610352</ele>
        <time>2014-12-29T08:55:31.000Z</time>
      </trkpt>
      <trkpt lat="50.3638" lon="4.3057">
        <ele>132.60000610352</ele>
        <time>2014-12-29T08:55:32.000Z</time>
      </trkpt>
      <trkpt lat="50.36373" lon="4.30579">
        <ele>132.80000305176</ele>
        <time>2014-12-29T08:55:41.000Z</time>
      </trkpt>
      <trkpt lat="50.36368" lon="4.30584">
        <ele>132.80000305176</ele>
        <time>2014-12-29T08:55:45.000Z</time>
      </trkpt>
      <trkpt lat="50.3636" lon="4.30592">
        <ele>133</ele>
        <time>2014-12-29T08:55:54.000Z</time>
      </trkpt>
      <trkpt lat="50.36355" lon="4.30598">
        <ele>133.19999694824</ele>
        <time>2014-12-29T08:55:58.000Z</time>
      </trkpt>
      <trkpt lat="50.36347" lon="4.30607">
        <ele>133.19999694824</ele>
        <time>2014-12-29T08:56:06.000Z</time>
      </trkpt>
      <trkpt lat="50.36338" lon="4.30615">
        <ele>133.39999389648</ele>
        <time>2014-12-29T08:56:14.000Z</time>
      </trkpt>
      <trkpt lat="50.36331" lon="4.30621">
        <ele>133.60000610352</ele>
        <time>2014-12-29T08:56:21.000Z</time>
      </trkpt>
      <trkpt lat="50.36325" lon="4.30628">
        <ele>133.80000305176</ele>
        <time>2014-12-29T08:56:27.000Z</time>
      </trkpt>
      <trkpt lat="50.36315" lon="4.30638">
        <ele>133.80000305176</ele>
        <time>2014-12-29T08:56:36.000Z</time>
      </trkpt>
      <trkpt lat="50.36307" lon="4.30646">
        <ele>134</ele>
        <time>2014-12-29T08:56:44.000Z</time>
      </trkpt>
      <trkpt lat="50.36301" lon="4.30651">
        <ele>134</ele>
        <time>2014-12-29T08:56:51.000Z</time>
      </trkpt>
      <trkpt lat="50.36295" lon="4.30657">
        <ele>134.19999694824</ele>
        <time>2014-12-29T08:56:57.000Z</time>
      </trkpt>
      <trkpt lat="50.36286" lon="4.30665">
        <ele>134.39999389648</ele>
        <time>2014-12-29T08:57:04.000Z</time>
      </trkpt>
      <trkpt lat="50.36279" lon="4.30673">
        <ele>134.60000610352</ele>
        <time>2014-12-29T08:57:13.000Z</time>
      </trkpt>
      <trkpt lat="50.36272" lon="4.30678">
        <ele>134.60000610352</ele>
        <time>2014-12-29T08:57:21.000Z</time>
      </trkpt>
      <trkpt lat="50.36264" lon="4.30685">
        <ele>134.80000305176</ele>
        <time>2014-12-29T08:57:29.000Z</time>
      </trkpt>
      <trkpt lat="50.36257" lon="4.30692">
        <ele>134.80000305176</ele>
        <time>2014-12-29T08:57:37.000Z</time>
      </trkpt>
      <trkpt lat="50.36248" lon="4.307">
        <ele>134.80000305176</ele>
        <time>2014-12-29T08:57:45.000Z</time>
      </trkpt>
      <trkpt lat="50.36237" lon="4.3071">
        <ele>135.19999694824</ele>
        <time>2014-12-29T08:57:56.000Z</time>
      </trkpt>
      <trkpt lat="50.36228" lon="4.30719">
        <ele>135.19999694824</ele>
        <time>2014-12-29T08:58:03.000Z</time>
      </trkpt>
      <trkpt lat="50.36219" lon="4.30727">
        <ele>135</ele>
        <time>2014-12-29T08:58:12.000Z</time>
      </trkpt>
      <trkpt lat="50.36213" lon="4.30732">
        <ele>135</ele>
        <time>2014-12-29T08:58:18.000Z</time>
      </trkpt>
      <trkpt lat="50.36206" lon="4.30739">
        <ele>135</ele>
        <time>2014-12-29T08:58:24.000Z</time>
      </trkpt>
      <trkpt lat="50.36199" lon="4.30744">
        <ele>134.80000305176</ele>
        <time>2014-12-29T08:58:32.000Z</time>
      </trkpt>
      <trkpt lat="50.36191" lon="4.30752">
        <ele>134.80000305176</ele>
        <time>2014-12-29T08:58:41.000Z</time>
      </trkpt>
      <trkpt lat="50.36188" lon="4.30755">
        <ele>134.80000305176</ele>
        <time>2014-12-29T08:58:48.000Z</time>
      </trkpt>
      <trkpt lat="50.36186" lon="4.30755">
        <ele>134.80000305176</ele>
        <time>2014-12-29T08:58:53.000Z</time>
      </trkpt>
      <trkpt lat="50.36184" lon="4.30761">
        <ele>134.60000610352</ele>
        <time>2014-12-29T08:59:01.000Z</time>
      </trkpt>
      <trkpt lat="50.3618" lon="4.30759">
        <ele>134.80000305176</ele>
        <time>2014-12-29T08:59:03.000Z</time>
      </trkpt>
      <trkpt lat="50.36173" lon="4.30762">
        <ele>134.80000305176</ele>
        <time>2014-12-29T08:59:11.000Z</time>
      </trkpt>
      <trkpt lat="50.3617" lon="4.30764">
        <ele>134.80000305176</ele>
        <time>2014-12-29T08:59:14.000Z</time>
      </trkpt>
      <trkpt lat="50.36163" lon="4.3077">
        <ele>134.60000610352</ele>
        <time>2014-12-29T08:59:21.000Z</time>
      </trkpt>
      <trkpt lat="50.36161" lon="4.30771">
        <ele>134.60000610352</ele>
        <time>2014-12-29T08:59:24.000Z</time>
      </trkpt>
      <trkpt lat="50.36151" lon="4.30778">
        <ele>134.39999389648</ele>
        <time>2014-12-29T08:59:31.000Z</time>
      </trkpt>
      <trkpt lat="50.36141" lon="4.30785">
        <ele>134.39999389648</ele>
        <time>2014-12-29T08:59:40.000Z</time>
      </trkpt>
      <trkpt lat="50.36134" lon="4.3079">
        <ele>134.19999694824</ele>
        <time>2014-12-29T08:59:48.000Z</time>
      </trkpt>
      <trkpt lat="50.36129" lon="4.30792">
        <ele>134.39999389648</ele>
        <time>2014-12-29T08:59:53.000Z</time>
      </trkpt>
      <trkpt lat="50.36121" lon="4.30797">
        <ele>135</ele>
        <time>2014-12-29T09:00:02.000Z</time>
      </trkpt>
      <trkpt lat="50.36116" lon="4.308">
        <ele>135.39999389648</ele>
        <time>2014-12-29T09:00:06.000Z</time>
      </trkpt>
      <trkpt lat="50.36115" lon="4.30802">
        <ele>135.39999389648</ele>
        <time>2014-12-29T09:00:08.000Z</time>
      </trkpt>
      <trkpt lat="50.36112" lon="4.30803">
        <ele>135.60000610352</ele>
        <time>2014-12-29T09:00:11.000Z</time>
      </trkpt>
      <trkpt lat="50.36103" lon="4.30809">
        <ele>136.19999694824</ele>
        <time>2014-12-29T09:00:19.000Z</time>
      </trkpt>
      <trkpt lat="50.36095" lon="4.30816">
        <ele>136.80000305176</ele>
        <time>2014-12-29T09:00:27.000Z</time>
      </trkpt>
      <trkpt lat="50.36085" lon="4.30822">
        <ele>137.60000610352</ele>
        <time>2014-12-29T09:00:37.000Z</time>
      </trkpt>
      <trkpt lat="50.36075" lon="4.30829">
        <ele>138.19999694824</ele>
        <time>2014-12-29T09:00:47.000Z</time>
      </trkpt>
      <trkpt lat="50.3607" lon="4.30833">
        <ele>138.60000610352</ele>
        <time>2014-12-29T09:00:53.000Z</time>
      </trkpt>
      <trkpt lat="50.36062" lon="4.30839">
        <ele>139</ele>
        <time>2014-12-29T09:00:59.000Z</time>
      </trkpt>
      <trkpt lat="50.36055" lon="4.30844">
        <ele>139.60000610352</ele>
        <time>2014-12-29T09:01:07.000Z</time>
      </trkpt>
      <trkpt lat="50.36048" lon="4.3085">
        <ele>140</ele>
        <time>2014-12-29T09:01:14.000Z</time>
      </trkpt>
      <trkpt lat="50.36042" lon="4.30855">
        <ele>140</ele>
        <time>2014-12-29T09:01:19.000Z</time>
      </trkpt>
      <trkpt lat="50.36033" lon="4.30861">
        <ele>140</ele>
        <time>2014-12-29T09:01:29.000Z</time>
      </trkpt>
      <trkpt lat="50.36024" lon="4.30867">
        <ele>140</ele>
        <time>2014-12-29T09:01:38.000Z</time>
      </trkpt>
      <trkpt lat="50.36017" lon="4.30872">
        <ele>140</ele>
        <time>2014-12-29T09:01:44.000Z</time>
      </trkpt>
      <trkpt lat="50.36014" lon="4.30875">
        <ele>140</ele>
        <time>2014-12-29T09:01:49.000Z</time>
      </trkpt>
      <trkpt lat="50.36005" lon="4.30881">
        <ele>140.19999694824</ele>
        <time>2014-12-29T09:01:57.000Z</time>
      </trkpt>
      <trkpt lat="50.35996" lon="4.3089">
        <ele>140.19999694824</ele>
        <time>2014-12-29T09:02:07.000Z</time>
      </trkpt>
      <trkpt lat="50.35993" lon="4.30891">
        <ele>140.39999389648</ele>
        <time>2014-12-29T09:02:09.000Z</time>
      </trkpt>
      <trkpt lat="50.35986" lon="4.30897">
        <ele>140.39999389648</ele>
        <time>2014-12-29T09:02:17.000Z</time>
      </trkpt>
      <trkpt lat="50.35983" lon="4.30898">
        <ele>140.39999389648</ele>
        <time>2014-12-29T09:02:20.000Z</time>
      </trkpt>
      <trkpt lat="50.35976" lon="4.30901">
        <ele>140.60000610352</ele>
        <time>2014-12-29T09:02:26.000Z</time>
      </trkpt>
      <trkpt lat="50.35967" lon="4.30907">
        <ele>140.80000305176</ele>
        <time>2014-12-29T09:02:35.000Z</time>
      </trkpt>
      <trkpt lat="50.35961" lon="4.3091">
        <ele>141</ele>
        <time>2014-12-29T09:02:41.000Z</time>
      </trkpt>
      <trkpt lat="50.35957" lon="4.3091">
        <ele>141.19999694824</ele>
        <time>2014-12-29T09:02:44.000Z</time>
      </trkpt>
      <trkpt lat="50.35953" lon="4.30912">
        <ele>141.39999389648</ele>
        <time>2014-12-29T09:02:48.000Z</time>
      </trkpt>
      <trkpt lat="50.35947" lon="4.30917">
        <ele>141.80000305176</ele>
        <time>2014-12-29T09:02:56.000Z</time>
      </trkpt>
      <trkpt lat="50.35944" lon="4.30918">
        <ele>141.80000305176</ele>
        <time>2014-12-29T09:02:59.000Z</time>
      </trkpt>
      <trkpt lat="50.35939" lon="4.30919">
        <ele>142.19999694824</ele>
        <time>2014-12-29T09:03:03.000Z</time>
      </trkpt>
      <trkpt lat="50.35931" lon="4.30924">
        <ele>142.39999389648</ele>
        <time>2014-12-29T09:03:12.000Z</time>
      </trkpt>
      <trkpt lat="50.35926" lon="4.30927">
        <ele>142.60000610352</ele>
        <time>2014-12-29T09:03:19.000Z</time>
      </trkpt>
      <trkpt lat="50.3592" lon="4.3093">
        <ele>142.60000610352</ele>
        <time>2014-12-29T09:03:26.000Z</time>
      </trkpt>
      <trkpt lat="50.35914" lon="4.30933">
        <ele>142.80000305176</ele>
        <time>2014-12-29T09:03:32.000Z</time>
      </trkpt>
      <trkpt lat="50.3591" lon="4.30936">
        <ele>143</ele>
        <time>2014-12-29T09:03:36.000Z</time>
      </trkpt>
      <trkpt lat="50.35904" lon="4.30939">
        <ele>143.19999694824</ele>
        <time>2014-12-29T09:03:43.000Z</time>
      </trkpt>
      <trkpt lat="50.35903" lon="4.30939">
        <ele>143.19999694824</ele>
        <time>2014-12-29T09:03:44.000Z</time>
      </trkpt>
      <trkpt lat="50.35898" lon="4.3094">
        <ele>143.39999389648</ele>
        <time>2014-12-29T09:03:49.000Z</time>
      </trkpt>
      <trkpt lat="50.35893" lon="4.30941">
        <ele>143.60000610352</ele>
        <time>2014-12-29T09:03:55.000Z</time>
      </trkpt>
      <trkpt lat="50.35891" lon="4.30942">
        <ele>143.60000610352</ele>
        <time>2014-12-29T09:03:57.000Z</time>
      </trkpt>
      <trkpt lat="50.35889" lon="4.30944">
        <ele>143.80000305176</ele>
        <time>2014-12-29T09:03:59.000Z</time>
      </trkpt>
      <trkpt lat="50.35879" lon="4.30953">
        <ele>143.80000305176</ele>
        <time>2014-12-29T09:04:09.000Z</time>
      </trkpt>
      <trkpt lat="50.35874" lon="4.30958">
        <ele>143.60000610352</ele>
        <time>2014-12-29T09:04:15.000Z</time>
      </trkpt>
      <trkpt lat="50.35874" lon="4.30959">
        <ele>143.60000610352</ele>
        <time>2014-12-29T09:04:16.000Z</time>
      </trkpt>
      <trkpt lat="50.35871" lon="4.30965">
        <ele>143.39999389648</ele>
        <time>2014-12-29T09:04:21.000Z</time>
      </trkpt>
      <trkpt lat="50.35869" lon="4.30972">
        <ele>143.19999694824</ele>
        <time>2014-12-29T09:04:26.000Z</time>
      </trkpt>
      <trkpt lat="50.35865" lon="4.3098">
        <ele>142.80000305176</ele>
        <time>2014-12-29T09:04:31.000Z</time>
      </trkpt>
      <trkpt lat="50.35863" lon="4.30987">
        <ele>142.39999389648</ele>
        <time>2014-12-29T09:04:36.000Z</time>
      </trkpt>
      <trkpt lat="50.35862" lon="4.30991">
        <ele>142.19999694824</ele>
        <time>2014-12-29T09:04:39.000Z</time>
      </trkpt>
      <trkpt lat="50.35859" lon="4.30988">
        <ele>142.60000610352</ele>
        <time>2014-12-29T09:04:52.000Z</time>
      </trkpt>
      <trkpt lat="50.35851" lon="4.30988">
        <ele>143</ele>
        <time>2014-12-29T09:05:02.000Z</time>
      </trkpt>
      <trkpt lat="50.35847" lon="4.30985">
        <ele>143.39999389648</ele>
        <time>2014-12-29T09:05:07.000Z</time>
      </trkpt>
      <trkpt lat="50.35844" lon="4.30986">
        <ele>143.39999389648</ele>
        <time>2014-12-29T09:05:09.000Z</time>
      </trkpt>
      <trkpt lat="50.35834" lon="4.30989">
        <ele>143.60000610352</ele>
        <time>2014-12-29T09:05:19.000Z</time>
      </trkpt>
      <trkpt lat="50.35825" lon="4.30989">
        <ele>143.80000305176</ele>
        <time>2014-12-29T09:05:27.000Z</time>
      </trkpt>
      <trkpt lat="50.35821" lon="4.30989">
        <ele>143.80000305176</ele>
        <time>2014-12-29T09:05:29.000Z</time>
      </trkpt>
      <trkpt lat="50.35816" lon="4.30987">
        <ele>144.19999694824</ele>
        <time>2014-12-29T09:05:34.000Z</time>
      </trkpt>
      <trkpt lat="50.35808" lon="4.30985">
        <ele>144.60000610352</ele>
        <time>2014-12-29T09:05:41.000Z</time>
      </trkpt>
      <trkpt lat="50.35801" lon="4.30983">
        <ele>145</ele>
        <time>2014-12-29T09:05:48.000Z</time>
      </trkpt>
      <trkpt lat="50.35778" lon="4.30986">
        <ele>144.39999389648</ele>
        <time>2014-12-29T09:06:07.000Z</time>
      </trkpt>
      <trkpt lat="50.3577" lon="4.30988">
        <ele>144.19999694824</ele>
        <time>2014-12-29T09:06:14.000Z</time>
      </trkpt>
      <trkpt lat="50.35768" lon="4.30988">
        <ele>144.19999694824</ele>
        <time>2014-12-29T09:06:15.000Z</time>
      </trkpt>
      <trkpt lat="50.35762" lon="4.30982">
        <ele>144.60000610352</ele>
        <time>2014-12-29T09:06:23.000Z</time>
      </trkpt>
      <trkpt lat="50.35756" lon="4.30983">
        <ele>144.39999389648</ele>
        <time>2014-12-29T09:06:29.000Z</time>
      </trkpt>
      <trkpt lat="50.35752" lon="4.30981">
        <ele>144.60000610352</ele>
        <time>2014-12-29T09:06:33.000Z</time>
      </trkpt>
      <trkpt lat="50.35745" lon="4.30976">
        <ele>145</ele>
        <time>2014-12-29T09:06:39.000Z</time>
      </trkpt>
      <trkpt lat="50.35739" lon="4.30972">
        <ele>145.19999694824</ele>
        <time>2014-12-29T09:06:46.000Z</time>
      </trkpt>
      <trkpt lat="50.35735" lon="4.3097">
        <ele>145.19999694824</ele>
        <time>2014-12-29T09:06:50.000Z</time>
      </trkpt>
      <trkpt lat="50.35727" lon="4.30968">
        <ele>145</ele>
        <time>2014-12-29T09:06:57.000Z</time>
      </trkpt>
      <trkpt lat="50.35722" lon="4.30965">
        <ele>145.19999694824</ele>
        <time>2014-12-29T09:07:02.000Z</time>
      </trkpt>
      <trkpt lat="50.35713" lon="4.30957">
        <ele>145.80000305176</ele>
        <time>2014-12-29T09:07:12.000Z</time>
      </trkpt>
      <trkpt lat="50.35711" lon="4.30955">
        <ele>145.80000305176</ele>
        <time>2014-12-29T09:07:14.000Z</time>
      </trkpt>
      <trkpt lat="50.35706" lon="4.30954">
        <ele>146</ele>
        <time>2014-12-29T09:07:19.000Z</time>
      </trkpt>
      <trkpt lat="50.357" lon="4.30948">
        <ele>146.60000610352</ele>
        <time>2014-12-29T09:07:26.000Z</time>
      </trkpt>
      <trkpt lat="50.35695" lon="4.30945">
        <ele>146.80000305176</ele>
        <time>2014-12-29T09:07:31.000Z</time>
      </trkpt>
      <trkpt lat="50.35688" lon="4.30939">
        <ele>147.60000610352</ele>
        <time>2014-12-29T09:07:38.000Z</time>
      </trkpt>
      <trkpt lat="50.35686" lon="4.30938">
        <ele>147.80000305176</ele>
        <time>2014-12-29T09:07:39.000Z</time>
      </trkpt>
      <trkpt lat="50.35679" lon="4.30932">
        <ele>148.80000305176</ele>
        <time>2014-12-29T09:07:47.000Z</time>
      </trkpt>
      <trkpt lat="50.35678" lon="4.30931">
        <ele>148.80000305176</ele>
        <time>2014-12-29T09:07:48.000Z</time>
      </trkpt>
      <trkpt lat="50.35674" lon="4.30929">
        <ele>149</ele>
        <time>2014-12-29T09:07:52.000Z</time>
      </trkpt>
      <trkpt lat="50.35672" lon="4.30927">
        <ele>149.19999694824</ele>
        <time>2014-12-29T09:07:54.000Z</time>
      </trkpt>
      <trkpt lat="50.35665" lon="4.30925">
        <ele>149.39999389648</ele>
        <time>2014-12-29T09:08:01.000Z</time>
      </trkpt>
      <trkpt lat="50.35664" lon="4.30924">
        <ele>149.60000610352</ele>
        <time>2014-12-29T09:08:03.000Z</time>
      </trkpt>
      <trkpt lat="50.35657" lon="4.3092">
        <ele>150.19999694824</ele>
        <time>2014-12-29T09:08:11.000Z</time>
      </trkpt>
      <trkpt lat="50.35655" lon="4.30918">
        <ele>150.39999389648</ele>
        <time>2014-12-29T09:08:13.000Z</time>
      </trkpt>
      <trkpt lat="50.35652" lon="4.30916">
        <ele>150.80000305176</ele>
        <time>2014-12-29T09:08:17.000Z</time>
      </trkpt>
      <trkpt lat="50.35645" lon="4.30911">
        <ele>151.19999694824</ele>
        <time>2014-12-29T09:08:24.000Z</time>
      </trkpt>
      <trkpt lat="50.35642" lon="4.3091">
        <ele>151.39999389648</ele>
        <time>2014-12-29T09:08:29.000Z</time>
      </trkpt>
      <trkpt lat="50.35638" lon="4.30908">
        <ele>151.80000305176</ele>
        <time>2014-12-29T09:08:34.000Z</time>
      </trkpt>
      <trkpt lat="50.35634" lon="4.30906">
        <ele>152</ele>
        <time>2014-12-29T09:08:39.000Z</time>
      </trkpt>
      <trkpt lat="50.35627" lon="4.30901">
        <ele>153</ele>
        <time>2014-12-29T09:08:45.000Z</time>
      </trkpt>
      <trkpt lat="50.35622" lon="4.30897">
        <ele>154</ele>
        <time>2014-12-29T09:08:50.000Z</time>
      </trkpt>
      <trkpt lat="50.35616" lon="4.30893">
        <ele>155.19999694824</ele>
        <time>2014-12-29T09:08:57.000Z</time>
      </trkpt>
      <trkpt lat="50.35609" lon="4.30889">
        <ele>156.19999694824</ele>
        <time>2014-12-29T09:09:03.000Z</time>
      </trkpt>
      <trkpt lat="50.35603" lon="4.30884">
        <ele>157.60000610352</ele>
        <time>2014-12-29T09:09:09.000Z</time>
      </trkpt>
      <trkpt lat="50.35599" lon="4.30881">
        <ele>158.39999389648</ele>
        <time>2014-12-29T09:09:14.000Z</time>
      </trkpt>
      <trkpt lat="50.35594" lon="4.30877">
        <ele>159.39999389648</ele>
        <time>2014-12-29T09:09:19.000Z</time>
      </trkpt>
      <trkpt lat="50.3559" lon="4.30875">
        <ele>160</ele>
        <time>2014-12-29T09:09:22.000Z</time>
      </trkpt>
      <trkpt lat="50.35584" lon="4.30872">
        <ele>160.80000305176</ele>
        <time>2014-12-29T09:09:28.000Z</time>
      </trkpt>
      <trkpt lat="50.35584" lon="4.30873">
        <ele>160.80000305176</ele>
        <time>2014-12-29T09:09:29.000Z</time>
      </trkpt>
      <trkpt lat="50.3558" lon="4.30871">
        <ele>161.39999389648</ele>
        <time>2014-12-29T09:09:38.000Z</time>
      </trkpt>
      <trkpt lat="50.35578" lon="4.3087">
        <ele>161.80000305176</ele>
        <time>2014-12-29T09:09:41.000Z</time>
      </trkpt>
      <trkpt lat="50.35574" lon="4.3087">
        <ele>162</ele>
        <time>2014-12-29T09:09:45.000Z</time>
      </trkpt>
      <trkpt lat="50.3557" lon="4.30867">
        <ele>162.80000305176</ele>
        <time>2014-12-29T09:09:50.000Z</time>
      </trkpt>
      <trkpt lat="50.35566" lon="4.30862">
        <ele>163.80000305176</ele>
        <time>2014-12-29T09:09:56.000Z</time>
      </trkpt>
      <trkpt lat="50.35563" lon="4.30858">
        <ele>164.60000610352</ele>
        <time>2014-12-29T09:10:03.000Z</time>
      </trkpt>
      <trkpt lat="50.35559" lon="4.30854">
        <ele>165.39999389648</ele>
        <time>2014-12-29T09:10:09.000Z</time>
      </trkpt>
      <trkpt lat="50.35553" lon="4.30848">
        <ele>166.39999389648</ele>
        <time>2014-12-29T09:10:14.000Z</time>
      </trkpt>
      <trkpt lat="50.35552" lon="4.30847">
        <ele>166.60000610352</ele>
        <time>2014-12-29T09:10:16.000Z</time>
      </trkpt>
      <trkpt lat="50.35548" lon="4.30843">
        <ele>167.39999389648</ele>
        <time>2014-12-29T09:10:21.000Z</time>
      </trkpt>
      <trkpt lat="50.35542" lon="4.30838">
        <ele>168</ele>
        <time>2014-12-29T09:10:28.000Z</time>
      </trkpt>
      <trkpt lat="50.35538" lon="4.30836">
        <ele>168</ele>
        <time>2014-12-29T09:10:32.000Z</time>
      </trkpt>
      <trkpt lat="50.3553" lon="4.30829">
        <ele>168.39999389648</ele>
        <time>2014-12-29T09:10:39.000Z</time>
      </trkpt>
      <trkpt lat="50.35522" lon="4.30823">
        <ele>169</ele>
        <time>2014-12-29T09:10:48.000Z</time>
      </trkpt>
      <trkpt lat="50.35516" lon="4.30815">
        <ele>169.80000305176</ele>
        <time>2014-12-29T09:10:55.000Z</time>
      </trkpt>
      <trkpt lat="50.35511" lon="4.30807">
        <ele>170.39999389648</ele>
        <time>2014-12-29T09:11:01.000Z</time>
      </trkpt>
      <trkpt lat="50.35508" lon="4.30801">
        <ele>171.19999694824</ele>
        <time>2014-12-29T09:11:06.000Z</time>
      </trkpt>
      <trkpt lat="50.35507" lon="4.30798">
        <ele>171.39999389648</ele>
        <time>2014-12-29T09:11:08.000Z</time>
      </trkpt>
      <trkpt lat="50.35502" lon="4.30794">
        <ele>171.60000610352</ele>
        <time>2014-12-29T09:11:15.000Z</time>
      </trkpt>
      <trkpt lat="50.35499" lon="4.30793">
        <ele>171.80000305176</ele>
        <time>2014-12-29T09:11:23.000Z</time>
      </trkpt>
      <trkpt lat="50.35494" lon="4.30788">
        <ele>172.19999694824</ele>
        <time>2014-12-29T09:11:29.000Z</time>
      </trkpt>
      <trkpt lat="50.35491" lon="4.30786">
        <ele>172.19999694824</ele>
        <time>2014-12-29T09:11:33.000Z</time>
      </trkpt>
      <trkpt lat="50.35486" lon="4.30782">
        <ele>172.60000610352</ele>
        <time>2014-12-29T09:11:39.000Z</time>
      </trkpt>
      <trkpt lat="50.35484" lon="4.30779">
        <ele>172.80000305176</ele>
        <time>2014-12-29T09:11:42.000Z</time>
      </trkpt>
      <trkpt lat="50.35478" lon="4.30769">
        <ele>174</ele>
        <time>2014-12-29T09:11:51.000Z</time>
      </trkpt>
      <trkpt lat="50.35474" lon="4.30765">
        <ele>174.60000610352</ele>
        <time>2014-12-29T09:11:56.000Z</time>
      </trkpt>
      <trkpt lat="50.35466" lon="4.3076">
        <ele>175</ele>
        <time>2014-12-29T09:12:04.000Z</time>
      </trkpt>
      <trkpt lat="50.35462" lon="4.30758">
        <ele>175.19999694824</ele>
        <time>2014-12-29T09:12:09.000Z</time>
      </trkpt>
      <trkpt lat="50.35456" lon="4.3075">
        <ele>176.19999694824</ele>
        <time>2014-12-29T09:12:17.000Z</time>
      </trkpt>
      <trkpt lat="50.35454" lon="4.30745">
        <ele>176.80000305176</ele>
        <time>2014-12-29T09:12:21.000Z</time>
      </trkpt>
      <trkpt lat="50.3545" lon="4.30738">
        <ele>177.60000610352</ele>
        <time>2014-12-29T09:12:28.000Z</time>
      </trkpt>
      <trkpt lat="50.35446" lon="4.30732">
        <ele>178.60000610352</ele>
        <time>2014-12-29T09:12:34.000Z</time>
      </trkpt>
      <trkpt lat="50.35442" lon="4.30723">
        <ele>179.60000610352</ele>
        <time>2014-12-29T09:12:41.000Z</time>
      </trkpt>
      <trkpt lat="50.35439" lon="4.30715">
        <ele>180.80000305176</ele>
        <time>2014-12-29T09:12:47.000Z</time>
      </trkpt>
      <trkpt lat="50.35436" lon="4.30707">
        <ele>181.80000305176</ele>
        <time>2014-12-29T09:12:52.000Z</time>
      </trkpt>
      <trkpt lat="50.35433" lon="4.307">
        <ele>182.80000305176</ele>
        <time>2014-12-29T09:12:57.000Z</time>
      </trkpt>
      <trkpt lat="50.35429" lon="4.30689">
        <ele>183.60000610352</ele>
        <time>2014-12-29T09:13:04.000Z</time>
      </trkpt>
      <trkpt lat="50.35426" lon="4.30678">
        <ele>184.19999694824</ele>
        <time>2014-12-29T09:13:13.000Z</time>
      </trkpt>
      <trkpt lat="50.35423" lon="4.30668">
        <ele>184.80000305176</ele>
        <time>2014-12-29T09:13:20.000Z</time>
      </trkpt>
      <trkpt lat="50.35423" lon="4.30667">
        <ele>184.80000305176</ele>
        <time>2014-12-29T09:13:22.000Z</time>
      </trkpt>
      <trkpt lat="50.3542" lon="4.30658">
        <ele>185.19999694824</ele>
        <time>2014-12-29T09:13:30.000Z</time>
      </trkpt>
      <trkpt lat="50.35422" lon="4.30657">
        <ele>185.39999389648</ele>
        <time>2014-12-29T09:13:42.000Z</time>
      </trkpt>
      <trkpt lat="50.35428" lon="4.3065">
        <ele>186</ele>
        <time>2014-12-29T09:14:17.000Z</time>
      </trkpt>
      <trkpt lat="50.3542" lon="4.30644">
        <ele>186.19999694824</ele>
        <time>2014-12-29T09:14:25.000Z</time>
      </trkpt>
      <trkpt lat="50.35413" lon="4.30637">
        <ele>186.39999389648</ele>
        <time>2014-12-29T09:14:32.000Z</time>
      </trkpt>
      <trkpt lat="50.35411" lon="4.30636">
        <ele>186.39999389648</ele>
        <time>2014-12-29T09:14:34.000Z</time>
      </trkpt>
      <trkpt lat="50.35406" lon="4.30631">
        <ele>186.60000610352</ele>
        <time>2014-12-29T09:14:39.000Z</time>
      </trkpt>
      <trkpt lat="50.35401" lon="4.30625">
        <ele>186.80000305176</ele>
        <time>2014-12-29T09:14:45.000Z</time>
      </trkpt>
      <trkpt lat="50.35388" lon="4.30607">
        <ele>187.60000610352</ele>
        <time>2014-12-29T09:15:00.000Z</time>
      </trkpt>
      <trkpt lat="50.35383" lon="4.30598">
        <ele>188</ele>
        <time>2014-12-29T09:15:06.000Z</time>
      </trkpt>
      <trkpt lat="50.35378" lon="4.30588">
        <ele>188.39999389648</ele>
        <time>2014-12-29T09:15:13.000Z</time>
      </trkpt>
      <trkpt lat="50.35374" lon="4.30582">
        <ele>188.60000610352</ele>
        <time>2014-12-29T09:15:17.000Z</time>
      </trkpt>
      <trkpt lat="50.35369" lon="4.30571">
        <ele>189</ele>
        <time>2014-12-29T09:15:25.000Z</time>
      </trkpt>
      <trkpt lat="50.35368" lon="4.3057">
        <ele>189</ele>
        <time>2014-12-29T09:15:26.000Z</time>
      </trkpt>
      <trkpt lat="50.35364" lon="4.30563">
        <ele>189.19999694824</ele>
        <time>2014-12-29T09:15:31.000Z</time>
      </trkpt>
      <trkpt lat="50.3536" lon="4.30557">
        <ele>189.39999389648</ele>
        <time>2014-12-29T09:15:37.000Z</time>
      </trkpt>
      <trkpt lat="50.35354" lon="4.30547">
        <ele>189.60000610352</ele>
        <time>2014-12-29T09:15:45.000Z</time>
      </trkpt>
      <trkpt lat="50.35353" lon="4.30546">
        <ele>189.80000305176</ele>
        <time>2014-12-29T09:15:46.000Z</time>
      </trkpt>
      <trkpt lat="50.35345" lon="4.30536">
        <ele>190</ele>
        <time>2014-12-29T09:15:55.000Z</time>
      </trkpt>
      <trkpt lat="50.35344" lon="4.30536">
        <ele>190</ele>
        <time>2014-12-29T09:15:56.000Z</time>
      </trkpt>
      <trkpt lat="50.35329" lon="4.3052">
        <ele>190.19999694824</ele>
        <time>2014-12-29T09:16:15.000Z</time>
      </trkpt>
      <trkpt lat="50.35326" lon="4.30518">
        <ele>190</ele>
        <time>2014-12-29T09:16:18.000Z</time>
      </trkpt>
      <trkpt lat="50.35317" lon="4.30515">
        <ele>189.80000305176</ele>
        <time>2014-12-29T09:16:26.000Z</time>
      </trkpt>
      <trkpt lat="50.3531" lon="4.30512">
        <ele>189.60000610352</ele>
        <time>2014-12-29T09:16:32.000Z</time>
      </trkpt>
      <trkpt lat="50.35302" lon="4.30508">
        <ele>189.60000610352</ele>
        <time>2014-12-29T09:16:38.000Z</time>
      </trkpt>
      <trkpt lat="50.35294" lon="4.30502">
        <ele>189.80000305176</ele>
        <time>2014-12-29T09:16:45.000Z</time>
      </trkpt>
      <trkpt lat="50.35284" lon="4.30495">
        <ele>190.39999389648</ele>
        <time>2014-12-29T09:16:53.000Z</time>
      </trkpt>
      <trkpt lat="50.35275" lon="4.30487">
        <ele>191.19999694824</ele>
        <time>2014-12-29T09:17:02.000Z</time>
      </trkpt>
      <trkpt lat="50.3527" lon="4.30483">
        <ele>191.60000610352</ele>
        <time>2014-12-29T09:17:07.000Z</time>
      </trkpt>
      <trkpt lat="50.35266" lon="4.30478">
        <ele>191.80000305176</ele>
        <time>2014-12-29T09:17:13.000Z</time>
      </trkpt>
      <trkpt lat="50.35263" lon="4.30475">
        <ele>192.19999694824</ele>
        <time>2014-12-29T09:17:17.000Z</time>
      </trkpt>
      <trkpt lat="50.35261" lon="4.30472">
        <ele>192.39999389648</ele>
        <time>2014-12-29T09:17:25.000Z</time>
      </trkpt>
      <trkpt lat="50.35254" lon="4.30461">
        <ele>193.19999694824</ele>
        <time>2014-12-29T09:17:33.000Z</time>
      </trkpt>
      <trkpt lat="50.35254" lon="4.3046">
        <ele>193.19999694824</ele>
        <time>2014-12-29T09:17:34.000Z</time>
      </trkpt>
      <trkpt lat="50.35247" lon="4.30453">
        <ele>193.80000305176</ele>
        <time>2014-12-29T09:17:41.000Z</time>
      </trkpt>
      <trkpt lat="50.35245" lon="4.30451">
        <ele>194</ele>
        <time>2014-12-29T09:17:43.000Z</time>
      </trkpt>
      <trkpt lat="50.35236" lon="4.30443">
        <ele>194.60000610352</ele>
        <time>2014-12-29T09:17:52.000Z</time>
      </trkpt>
      <trkpt lat="50.35229" lon="4.30437">
        <ele>195</ele>
        <time>2014-12-29T09:17:59.000Z</time>
      </trkpt>
      <trkpt lat="50.35222" lon="4.3043">
        <ele>195.39999389648</ele>
        <time>2014-12-29T09:18:05.000Z</time>
      </trkpt>
      <trkpt lat="50.35217" lon="4.30425">
        <ele>195.80000305176</ele>
        <time>2014-12-29T09:18:11.000Z</time>
      </trkpt>
      <trkpt lat="50.3521" lon="4.30413">
        <ele>196.19999694824</ele>
        <time>2014-12-29T09:18:19.000Z</time>
      </trkpt>
      <trkpt lat="50.35205" lon="4.30401">
        <ele>196.39999389648</ele>
        <time>2014-12-29T09:18:27.000Z</time>
      </trkpt>
      <trkpt lat="50.352" lon="4.30388">
        <ele>196.80000305176</ele>
        <time>2014-12-29T09:18:35.000Z</time>
      </trkpt>
      <trkpt lat="50.35194" lon="4.30378">
        <ele>197</ele>
        <time>2014-12-29T09:18:42.000Z</time>
      </trkpt>
      <trkpt lat="50.35191" lon="4.30373">
        <ele>197.19999694824</ele>
        <time>2014-12-29T09:18:46.000Z</time>
      </trkpt>
      <trkpt lat="50.35182" lon="4.30357">
        <ele>197.39999389648</ele>
        <time>2014-12-29T09:18:59.000Z</time>
      </trkpt>
      <trkpt lat="50.3518" lon="4.30355">
        <ele>197.39999389648</ele>
        <time>2014-12-29T09:19:02.000Z</time>
      </trkpt>
      <trkpt lat="50.35178" lon="4.30353">
        <ele>197.60000610352</ele>
        <time>2014-12-29T09:19:11.000Z</time>
      </trkpt>
      <trkpt lat="50.35179" lon="4.30351">
        <ele>197.60000610352</ele>
        <time>2014-12-29T09:19:25.000Z</time>
      </trkpt>
      <trkpt lat="50.35175" lon="4.30348">
        <ele>197.60000610352</ele>
        <time>2014-12-29T09:19:33.000Z</time>
      </trkpt>
      <trkpt lat="50.35174" lon="4.30342">
        <ele>197.80000305176</ele>
        <time>2014-12-29T09:19:41.000Z</time>
      </trkpt>
      <trkpt lat="50.35175" lon="4.3034">
        <ele>197.80000305176</ele>
        <time>2014-12-29T09:19:47.000Z</time>
      </trkpt>
      <trkpt lat="50.35171" lon="4.30336">
        <ele>198</ele>
        <time>2014-12-29T09:20:18.000Z</time>
      </trkpt>
      <trkpt lat="50.35165" lon="4.30337">
        <ele>197.80000305176</ele>
        <time>2014-12-29T09:20:24.000Z</time>
      </trkpt>
      <trkpt lat="50.35159" lon="4.30339">
        <ele>197.60000610352</ele>
        <time>2014-12-29T09:20:30.000Z</time>
      </trkpt>
      <trkpt lat="50.3515" lon="4.30341">
        <ele>197.19999694824</ele>
        <time>2014-12-29T09:20:39.000Z</time>
      </trkpt>
      <trkpt lat="50.35145" lon="4.3034">
        <ele>197.19999694824</ele>
        <time>2014-12-29T09:20:44.000Z</time>
      </trkpt>
      <trkpt lat="50.35139" lon="4.30337">
        <ele>197.19999694824</ele>
        <time>2014-12-29T09:20:49.000Z</time>
      </trkpt>
      <trkpt lat="50.35131" lon="4.30329">
        <ele>197.19999694824</ele>
        <time>2014-12-29T09:20:57.000Z</time>
      </trkpt>
      <trkpt lat="50.35128" lon="4.30324">
        <ele>197.39999389648</ele>
        <time>2014-12-29T09:21:02.000Z</time>
      </trkpt>
      <trkpt lat="50.35124" lon="4.30313">
        <ele>197.60000610352</ele>
        <time>2014-12-29T09:21:09.000Z</time>
      </trkpt>
      <trkpt lat="50.35122" lon="4.303">
        <ele>198</ele>
        <time>2014-12-29T09:21:18.000Z</time>
      </trkpt>
      <trkpt lat="50.35122" lon="4.30288">
        <ele>198.39999389648</ele>
        <time>2014-12-29T09:21:26.000Z</time>
      </trkpt>
      <trkpt lat="50.35121" lon="4.30282">
        <ele>198.60000610352</ele>
        <time>2014-12-29T09:21:30.000Z</time>
      </trkpt>
      <trkpt lat="50.35121" lon="4.30279">
        <ele>198.80000305176</ele>
        <time>2014-12-29T09:21:32.000Z</time>
      </trkpt>
      <trkpt lat="50.35119" lon="4.30265">
        <ele>199</ele>
        <time>2014-12-29T09:21:39.000Z</time>
      </trkpt>
      <trkpt lat="50.35118" lon="4.30255">
        <ele>199.19999694824</ele>
        <time>2014-12-29T09:21:47.000Z</time>
      </trkpt>
      <trkpt lat="50.35114" lon="4.30239">
        <ele>199.60000610352</ele>
        <time>2014-12-29T09:21:56.000Z</time>
      </trkpt>
      <trkpt lat="50.35108" lon="4.30228">
        <ele>199.80000305176</ele>
        <time>2014-12-29T09:22:05.000Z</time>
      </trkpt>
      <trkpt lat="50.35104" lon="4.30222">
        <ele>199.80000305176</ele>
        <time>2014-12-29T09:22:10.000Z</time>
      </trkpt>
      <trkpt lat="50.35097" lon="4.30214">
        <ele>199.80000305176</ele>
        <time>2014-12-29T09:22:17.000Z</time>
      </trkpt>
      <trkpt lat="50.35096" lon="4.30214">
        <ele>199.80000305176</ele>
        <time>2014-12-29T09:22:18.000Z</time>
      </trkpt>
      <trkpt lat="50.35088" lon="4.30209">
        <ele>199.60000610352</ele>
        <time>2014-12-29T09:22:26.000Z</time>
      </trkpt>
      <trkpt lat="50.3508" lon="4.30204">
        <ele>199.60000610352</ele>
        <time>2014-12-29T09:22:34.000Z</time>
      </trkpt>
      <trkpt lat="50.35073" lon="4.30198">
        <ele>199.60000610352</ele>
        <time>2014-12-29T09:22:42.000Z</time>
      </trkpt>
      <trkpt lat="50.35068" lon="4.30194">
        <ele>199.60000610352</ele>
        <time>2014-12-29T09:22:48.000Z</time>
      </trkpt>
      <trkpt lat="50.35062" lon="4.3019">
        <ele>199.39999389648</ele>
        <time>2014-12-29T09:22:57.000Z</time>
      </trkpt>
      <trkpt lat="50.35057" lon="4.30184">
        <ele>199.39999389648</ele>
        <time>2014-12-29T09:23:04.000Z</time>
      </trkpt>
      <trkpt lat="50.35052" lon="4.30177">
        <ele>199.39999389648</ele>
        <time>2014-12-29T09:23:11.000Z</time>
      </trkpt>
      <trkpt lat="50.3505" lon="4.30175">
        <ele>199.39999389648</ele>
        <time>2014-12-29T09:23:14.000Z</time>
      </trkpt>
      <trkpt lat="50.35045" lon="4.3017">
        <ele>199.19999694824</ele>
        <time>2014-12-29T09:23:20.000Z</time>
      </trkpt>
      <trkpt lat="50.35037" lon="4.30159">
        <ele>199.19999694824</ele>
        <time>2014-12-29T09:23:29.000Z</time>
      </trkpt>
      <trkpt lat="50.3503" lon="4.3015">
        <ele>199.19999694824</ele>
        <time>2014-12-29T09:23:37.000Z</time>
      </trkpt>
      <trkpt lat="50.35023" lon="4.30141">
        <ele>199</ele>
        <time>2014-12-29T09:23:44.000Z</time>
      </trkpt>
      <trkpt lat="50.3502" lon="4.30137">
        <ele>199</ele>
        <time>2014-12-29T09:23:47.000Z</time>
      </trkpt>
      <trkpt lat="50.35012" lon="4.30124">
        <ele>199</ele>
        <time>2014-12-29T09:23:57.000Z</time>
      </trkpt>
      <trkpt lat="50.3501" lon="4.30119">
        <ele>199</ele>
        <time>2014-12-29T09:24:01.000Z</time>
      </trkpt>
      <trkpt lat="50.3501" lon="4.30116">
        <ele>199</ele>
        <time>2014-12-29T09:24:06.000Z</time>
      </trkpt>
      <trkpt lat="50.35009" lon="4.30115">
        <ele>199</ele>
        <time>2014-12-29T09:24:07.000Z</time>
      </trkpt>
      <trkpt lat="50.35004" lon="4.30106">
        <ele>199</ele>
        <time>2014-12-29T09:24:13.000Z</time>
      </trkpt>
      <trkpt lat="50.34999" lon="4.30093">
        <ele>198.80000305176</ele>
        <time>2014-12-29T09:24:21.000Z</time>
      </trkpt>
      <trkpt lat="50.34992" lon="4.30081">
        <ele>198.60000610352</ele>
        <time>2014-12-29T09:24:29.000Z</time>
      </trkpt>
      <trkpt lat="50.34986" lon="4.30069">
        <ele>198.60000610352</ele>
        <time>2014-12-29T09:24:37.000Z</time>
      </trkpt>
      <trkpt lat="50.3498" lon="4.30056">
        <ele>198.39999389648</ele>
        <time>2014-12-29T09:24:46.000Z</time>
      </trkpt>
      <trkpt lat="50.34976" lon="4.30043">
        <ele>198.19999694824</ele>
        <time>2014-12-29T09:25:04.000Z</time>
      </trkpt>
      <trkpt lat="50.34973" lon="4.30053">
        <ele>198.19999694824</ele>
        <time>2014-12-29T09:26:21.000Z</time>
      </trkpt>
      <trkpt lat="50.34972" lon="4.30054">
        <ele>198.19999694824</ele>
        <time>2014-12-29T09:26:27.000Z</time>
      </trkpt>
      <trkpt lat="50.34971" lon="4.30054">
        <ele>198.19999694824</ele>
        <time>2014-12-29T09:26:34.000Z</time>
      </trkpt>
      <trkpt lat="50.34973" lon="4.30048">
        <ele>198.19999694824</ele>
        <time>2014-12-29T09:26:59.000Z</time>
      </trkpt>
      <trkpt lat="50.34972" lon="4.30044">
        <ele>198.19999694824</ele>
        <time>2014-12-29T09:27:13.000Z</time>
      </trkpt>
      <trkpt lat="50.34973" lon="4.30042">
        <ele>198.19999694824</ele>
        <time>2014-12-29T09:27:20.000Z</time>
      </trkpt>
      <trkpt lat="50.34973" lon="4.30026">
        <ele>198.19999694824</ele>
        <time>2014-12-29T09:29:13.000Z</time>
      </trkpt>
      <trkpt lat="50.34971" lon="4.30023">
        <ele>198</ele>
        <time>2014-12-29T09:29:18.000Z</time>
      </trkpt>
      <trkpt lat="50.3497" lon="4.30021">
        <ele>197.80000305176</ele>
        <time>2014-12-29T09:29:19.000Z</time>
      </trkpt>
      <trkpt lat="50.34969" lon="4.30013">
        <ele>197.60000610352</ele>
        <time>2014-12-29T09:29:26.000Z</time>
      </trkpt>
      <trkpt lat="50.34969" lon="4.30012">
        <ele>197.60000610352</ele>
        <time>2014-12-29T09:29:27.000Z</time>
      </trkpt>
      <trkpt lat="50.34967" lon="4.30005">
        <ele>197.19999694824</ele>
        <time>2014-12-29T09:29:31.000Z</time>
      </trkpt>
      <trkpt lat="50.34965" lon="4.29995">
        <ele>196.80000305176</ele>
        <time>2014-12-29T09:29:39.000Z</time>
      </trkpt>
      <trkpt lat="50.34963" lon="4.29984">
        <ele>196</ele>
        <time>2014-12-29T09:29:46.000Z</time>
      </trkpt>
      <trkpt lat="50.34964" lon="4.29973">
        <ele>195.80000305176</ele>
        <time>2014-12-29T09:29:53.000Z</time>
      </trkpt>
      <trkpt lat="50.34964" lon="4.29955">
        <ele>195</ele>
        <time>2014-12-29T09:30:02.000Z</time>
      </trkpt>
      <trkpt lat="50.34965" lon="4.29942">
        <ele>195</ele>
        <time>2014-12-29T09:30:09.000Z</time>
      </trkpt>
      <trkpt lat="50.34965" lon="4.29937">
        <ele>194.80000305176</ele>
        <time>2014-12-29T09:30:11.000Z</time>
      </trkpt>
      <trkpt lat="50.34967" lon="4.29929">
        <ele>194.60000610352</ele>
        <time>2014-12-29T09:30:16.000Z</time>
      </trkpt>
      <trkpt lat="50.34968" lon="4.29918">
        <ele>194.39999389648</ele>
        <time>2014-12-29T09:30:23.000Z</time>
      </trkpt>
      <trkpt lat="50.34968" lon="4.29915">
        <ele>194.39999389648</ele>
        <time>2014-12-29T09:30:25.000Z</time>
      </trkpt>
      <trkpt lat="50.3497" lon="4.29907">
        <ele>194.19999694824</ele>
        <time>2014-12-29T09:30:30.000Z</time>
      </trkpt>
      <trkpt lat="50.34978" lon="4.29891">
        <ele>194.19999694824</ele>
        <time>2014-12-29T09:30:41.000Z</time>
      </trkpt>
      <trkpt lat="50.3498" lon="4.29887">
        <ele>194.19999694824</ele>
        <time>2014-12-29T09:30:45.000Z</time>
      </trkpt>
      <trkpt lat="50.34989" lon="4.29875">
        <ele>194.19999694824</ele>
        <time>2014-12-29T09:30:54.000Z</time>
      </trkpt>
      <trkpt lat="50.34993" lon="4.29862">
        <ele>194</ele>
        <time>2014-12-29T09:31:03.000Z</time>
      </trkpt>
      <trkpt lat="50.34993" lon="4.2986">
        <ele>194</ele>
        <time>2014-12-29T09:31:04.000Z</time>
      </trkpt>
      <trkpt lat="50.34994" lon="4.29851">
        <ele>194</ele>
        <time>2014-12-29T09:31:09.000Z</time>
      </trkpt>
      <trkpt lat="50.34994" lon="4.29834">
        <ele>193.80000305176</ele>
        <time>2014-12-29T09:31:19.000Z</time>
      </trkpt>
      <trkpt lat="50.34995" lon="4.29834">
        <ele>193.80000305176</ele>
        <time>2014-12-29T09:31:20.000Z</time>
      </trkpt>
      <trkpt lat="50.34995" lon="4.29833">
        <ele>193.80000305176</ele>
        <time>2014-12-29T09:31:21.000Z</time>
      </trkpt>
      <trkpt lat="50.34995" lon="4.2983">
        <ele>193.80000305176</ele>
        <time>2014-12-29T09:31:24.000Z</time>
      </trkpt>
      <trkpt lat="50.34996" lon="4.29819">
        <ele>193.60000610352</ele>
        <time>2014-12-29T09:31:30.000Z</time>
      </trkpt>
      <trkpt lat="50.34994" lon="4.29806">
        <ele>193.39999389648</ele>
        <time>2014-12-29T09:31:38.000Z</time>
      </trkpt>
      <trkpt lat="50.34995" lon="4.29804">
        <ele>193.39999389648</ele>
        <time>2014-12-29T09:31:39.000Z</time>
      </trkpt>
      <trkpt lat="50.34995" lon="4.29791">
        <ele>193</ele>
        <time>2014-12-29T09:31:45.000Z</time>
      </trkpt>
      <trkpt lat="50.34993" lon="4.29772">
        <ele>192.60000610352</ele>
        <time>2014-12-29T09:31:54.000Z</time>
      </trkpt>
      <trkpt lat="50.34994" lon="4.29769">
        <ele>192.60000610352</ele>
        <time>2014-12-29T09:31:56.000Z</time>
      </trkpt>
      <trkpt lat="50.34992" lon="4.29755">
        <ele>192.39999389648</ele>
        <time>2014-12-29T09:32:03.000Z</time>
      </trkpt>
      <trkpt lat="50.34993" lon="4.29752">
        <ele>192.39999389648</ele>
        <time>2014-12-29T09:32:05.000Z</time>
      </trkpt>
      <trkpt lat="50.34996" lon="4.2975">
        <ele>192.39999389648</ele>
        <time>2014-12-29T09:32:09.000Z</time>
      </trkpt>
      <trkpt lat="50.34999" lon="4.29743">
        <ele>192.39999389648</ele>
        <time>2014-12-29T09:32:13.000Z</time>
      </trkpt>
      <trkpt lat="50.35" lon="4.29735">
        <ele>192.39999389648</ele>
        <time>2014-12-29T09:32:17.000Z</time>
      </trkpt>
      <trkpt lat="50.35001" lon="4.29732">
        <ele>192.19999694824</ele>
        <time>2014-12-29T09:32:19.000Z</time>
      </trkpt>
      <trkpt lat="50.35" lon="4.29731">
        <ele>192.19999694824</ele>
        <time>2014-12-29T09:32:20.000Z</time>
      </trkpt>
      <trkpt lat="50.35002" lon="4.29718">
        <ele>192.19999694824</ele>
        <time>2014-12-29T09:32:27.000Z</time>
      </trkpt>
      <trkpt lat="50.35006" lon="4.29701">
        <ele>192</ele>
        <time>2014-12-29T09:32:35.000Z</time>
      </trkpt>
      <trkpt lat="50.35007" lon="4.29697">
        <ele>192</ele>
        <time>2014-12-29T09:32:39.000Z</time>
      </trkpt>
      <trkpt lat="50.35006" lon="4.29683">
        <ele>192.19999694824</ele>
        <time>2014-12-29T09:32:46.000Z</time>
      </trkpt>
      <trkpt lat="50.35004" lon="4.29667">
        <ele>192.39999389648</ele>
        <time>2014-12-29T09:32:54.000Z</time>
      </trkpt>
      <trkpt lat="50.35002" lon="4.29646">
        <ele>192.39999389648</ele>
        <time>2014-12-29T09:33:04.000Z</time>
      </trkpt>
      <trkpt lat="50.35002" lon="4.29645">
        <ele>192.39999389648</ele>
        <time>2014-12-29T09:33:05.000Z</time>
      </trkpt>
      <trkpt lat="50.35002" lon="4.2963">
        <ele>192</ele>
        <time>2014-12-29T09:33:12.000Z</time>
      </trkpt>
      <trkpt lat="50.35" lon="4.29615">
        <ele>191.60000610352</ele>
        <time>2014-12-29T09:33:20.000Z</time>
      </trkpt>
      <trkpt lat="50.34997" lon="4.29596">
        <ele>191.60000610352</ele>
        <time>2014-12-29T09:33:29.000Z</time>
      </trkpt>
      <trkpt lat="50.34993" lon="4.2958">
        <ele>191.60000610352</ele>
        <time>2014-12-29T09:33:38.000Z</time>
      </trkpt>
      <trkpt lat="50.34989" lon="4.29566">
        <ele>191.80000305176</ele>
        <time>2014-12-29T09:33:45.000Z</time>
      </trkpt>
      <trkpt lat="50.34982" lon="4.29551">
        <ele>191.80000305176</ele>
        <time>2014-12-29T09:33:54.000Z</time>
      </trkpt>
      <trkpt lat="50.34975" lon="4.2954">
        <ele>191.80000305176</ele>
        <time>2014-12-29T09:34:03.000Z</time>
      </trkpt>
      <trkpt lat="50.34965" lon="4.29523">
        <ele>191.80000305176</ele>
        <time>2014-12-29T09:34:15.000Z</time>
      </trkpt>
      <trkpt lat="50.34958" lon="4.29508">
        <ele>191</ele>
        <time>2014-12-29T09:34:24.000Z</time>
      </trkpt>
      <trkpt lat="50.34949" lon="4.29491">
        <ele>190</ele>
        <time>2014-12-29T09:34:35.000Z</time>
      </trkpt>
      <trkpt lat="50.34944" lon="4.29475">
        <ele>189.19999694824</ele>
        <time>2014-12-29T09:34:44.000Z</time>
      </trkpt>
      <trkpt lat="50.34939" lon="4.29462">
        <ele>188.39999389648</ele>
        <time>2014-12-29T09:34:51.000Z</time>
      </trkpt>
      <trkpt lat="50.34932" lon="4.29445">
        <ele>187.60000610352</ele>
        <time>2014-12-29T09:35:02.000Z</time>
      </trkpt>
      <trkpt lat="50.34926" lon="4.2943">
        <ele>188</ele>
        <time>2014-12-29T09:35:10.000Z</time>
      </trkpt>
      <trkpt lat="50.3492" lon="4.29414">
        <ele>188.60000610352</ele>
        <time>2014-12-29T09:35:20.000Z</time>
      </trkpt>
      <trkpt lat="50.34915" lon="4.29402">
        <ele>188.80000305176</ele>
        <time>2014-12-29T09:35:27.000Z</time>
      </trkpt>
      <trkpt lat="50.34911" lon="4.29392">
        <ele>189</ele>
        <time>2014-12-29T09:35:33.000Z</time>
      </trkpt>
      <trkpt lat="50.34906" lon="4.29376">
        <ele>188.80000305176</ele>
        <time>2014-12-29T09:35:42.000Z</time>
      </trkpt>
      <trkpt lat="50.34893" lon="4.29342">
        <ele>188.60000610352</ele>
        <time>2014-12-29T09:36:01.000Z</time>
      </trkpt>
      <trkpt lat="50.34886" lon="4.29327">
        <ele>188.60000610352</ele>
        <time>2014-12-29T09:36:10.000Z</time>
      </trkpt>
      <trkpt lat="50.34881" lon="4.29312">
        <ele>188.60000610352</ele>
        <time>2014-12-29T09:36:19.000Z</time>
      </trkpt>
      <trkpt lat="50.34875" lon="4.29294">
        <ele>188</ele>
        <time>2014-12-29T09:36:29.000Z</time>
      </trkpt>
      <trkpt lat="50.3487" lon="4.29278">
        <ele>187.60000610352</ele>
        <time>2014-12-29T09:36:38.000Z</time>
      </trkpt>
      <trkpt lat="50.34866" lon="4.29262">
        <ele>188</ele>
        <time>2014-12-29T09:36:46.000Z</time>
      </trkpt>
      <trkpt lat="50.3486" lon="4.29243">
        <ele>187.60000610352</ele>
        <time>2014-12-29T09:36:57.000Z</time>
      </trkpt>
      <trkpt lat="50.34854" lon="4.29225">
        <ele>187.39999389648</ele>
        <time>2014-12-29T09:37:07.000Z</time>
      </trkpt>
      <trkpt lat="50.34848" lon="4.29205">
        <ele>187.19999694824</ele>
        <time>2014-12-29T09:37:18.000Z</time>
      </trkpt>
      <trkpt lat="50.34843" lon="4.29188">
        <ele>187</ele>
        <time>2014-12-29T09:37:27.000Z</time>
      </trkpt>
      <trkpt lat="50.3484" lon="4.29181">
        <ele>187</ele>
        <time>2014-12-29T09:37:33.000Z</time>
      </trkpt>
      <trkpt lat="50.34836" lon="4.29163">
        <ele>187</ele>
        <time>2014-12-29T09:37:43.000Z</time>
      </trkpt>
      <trkpt lat="50.34833" lon="4.29142">
        <ele>187</ele>
        <time>2014-12-29T09:37:54.000Z</time>
      </trkpt>
      <trkpt lat="50.34832" lon="4.29127">
        <ele>186.80000305176</ele>
        <time>2014-12-29T09:38:02.000Z</time>
      </trkpt>
      <trkpt lat="50.34833" lon="4.29108">
        <ele>186.80000305176</ele>
        <time>2014-12-29T09:38:11.000Z</time>
      </trkpt>
      <trkpt lat="50.34835" lon="4.29093">
        <ele>187</ele>
        <time>2014-12-29T09:38:19.000Z</time>
      </trkpt>
      <trkpt lat="50.34837" lon="4.29074">
        <ele>187.39999389648</ele>
        <time>2014-12-29T09:38:28.000Z</time>
      </trkpt>
      <trkpt lat="50.34835" lon="4.29058">
        <ele>187.39999389648</ele>
        <time>2014-12-29T09:38:36.000Z</time>
      </trkpt>
      <trkpt lat="50.34832" lon="4.29042">
        <ele>187.19999694824</ele>
        <time>2014-12-29T09:38:45.000Z</time>
      </trkpt>
      <trkpt lat="50.34831" lon="4.2903">
        <ele>187.19999694824</ele>
        <time>2014-12-29T09:38:51.000Z</time>
      </trkpt>
      <trkpt lat="50.34832" lon="4.2901">
        <ele>187.19999694824</ele>
        <time>2014-12-29T09:39:02.000Z</time>
      </trkpt>
      <trkpt lat="50.34834" lon="4.28997">
        <ele>187.19999694824</ele>
        <time>2014-12-29T09:39:09.000Z</time>
      </trkpt>
      <trkpt lat="50.34838" lon="4.28984">
        <ele>187.39999389648</ele>
        <time>2014-12-29T09:39:17.000Z</time>
      </trkpt>
      <trkpt lat="50.3484" lon="4.28981">
        <ele>187.39999389648</ele>
        <time>2014-12-29T09:39:20.000Z</time>
      </trkpt>
      <trkpt lat="50.34848" lon="4.28968">
        <ele>187.39999389648</ele>
        <time>2014-12-29T09:39:29.000Z</time>
      </trkpt>
      <trkpt lat="50.34853" lon="4.2896">
        <ele>187.39999389648</ele>
        <time>2014-12-29T09:39:36.000Z</time>
      </trkpt>
      <trkpt lat="50.34861" lon="4.28947">
        <ele>187.60000610352</ele>
        <time>2014-12-29T09:39:46.000Z</time>
      </trkpt>
      <trkpt lat="50.34867" lon="4.28933">
        <ele>187.60000610352</ele>
        <time>2014-12-29T09:39:55.000Z</time>
      </trkpt>
      <trkpt lat="50.34872" lon="4.28915">
        <ele>187.60000610352</ele>
        <time>2014-12-29T09:40:05.000Z</time>
      </trkpt>
      <trkpt lat="50.34879" lon="4.28908">
        <ele>187.60000610352</ele>
        <time>2014-12-29T09:40:12.000Z</time>
      </trkpt>
      <trkpt lat="50.34886" lon="4.28906">
        <ele>187.60000610352</ele>
        <time>2014-12-29T09:40:19.000Z</time>
      </trkpt>
      <trkpt lat="50.34888" lon="4.28905">
        <ele>187.60000610352</ele>
        <time>2014-12-29T09:40:21.000Z</time>
      </trkpt>
      <trkpt lat="50.3489" lon="4.28903">
        <ele>187.60000610352</ele>
        <time>2014-12-29T09:40:25.000Z</time>
      </trkpt>
      <trkpt lat="50.34897" lon="4.28893">
        <ele>187.60000610352</ele>
        <time>2014-12-29T09:40:34.000Z</time>
      </trkpt>
      <trkpt lat="50.34905" lon="4.28885">
        <ele>187.39999389648</ele>
        <time>2014-12-29T09:40:43.000Z</time>
      </trkpt>
      <trkpt lat="50.34911" lon="4.28869">
        <ele>186.60000610352</ele>
        <time>2014-12-29T09:40:53.000Z</time>
      </trkpt>
      <trkpt lat="50.34915" lon="4.28829">
        <ele>185.80000305176</ele>
        <time>2014-12-29T09:41:13.000Z</time>
      </trkpt>
      <trkpt lat="50.34918" lon="4.2881">
        <ele>185.39999389648</ele>
        <time>2014-12-29T09:41:23.000Z</time>
      </trkpt>
      <trkpt lat="50.34923" lon="4.28784">
        <ele>185</ele>
        <time>2014-12-29T09:41:37.000Z</time>
      </trkpt>
      <trkpt lat="50.34928" lon="4.28767">
        <ele>184.80000305176</ele>
        <time>2014-12-29T09:41:47.000Z</time>
      </trkpt>
      <trkpt lat="50.34933" lon="4.2875">
        <ele>184.39999389648</ele>
        <time>2014-12-29T09:41:57.000Z</time>
      </trkpt>
      <trkpt lat="50.34938" lon="4.2873">
        <ele>184.39999389648</ele>
        <time>2014-12-29T09:42:09.000Z</time>
      </trkpt>
      <trkpt lat="50.34941" lon="4.28715">
        <ele>184.19999694824</ele>
        <time>2014-12-29T09:42:17.000Z</time>
      </trkpt>
      <trkpt lat="50.34944" lon="4.28699">
        <ele>184.19999694824</ele>
        <time>2014-12-29T09:42:26.000Z</time>
      </trkpt>
      <trkpt lat="50.34948" lon="4.28677">
        <ele>183.60000610352</ele>
        <time>2014-12-29T09:42:37.000Z</time>
      </trkpt>
      <trkpt lat="50.34954" lon="4.28664">
        <ele>183.19999694824</ele>
        <time>2014-12-29T09:42:45.000Z</time>
      </trkpt>
      <trkpt lat="50.34961" lon="4.2865">
        <ele>182.80000305176</ele>
        <time>2014-12-29T09:42:55.000Z</time>
      </trkpt>
      <trkpt lat="50.34964" lon="4.28638">
        <ele>182.60000610352</ele>
        <time>2014-12-29T09:43:03.000Z</time>
      </trkpt>
      <trkpt lat="50.34965" lon="4.28635">
        <ele>182.60000610352</ele>
        <time>2014-12-29T09:43:05.000Z</time>
      </trkpt>
      <trkpt lat="50.34968" lon="4.28623">
        <ele>182.39999389648</ele>
        <time>2014-12-29T09:43:13.000Z</time>
      </trkpt>
      <trkpt lat="50.34969" lon="4.28607">
        <ele>182.19999694824</ele>
        <time>2014-12-29T09:43:22.000Z</time>
      </trkpt>
      <trkpt lat="50.3497" lon="4.28605">
        <ele>182</ele>
        <time>2014-12-29T09:43:23.000Z</time>
      </trkpt>
      <trkpt lat="50.34974" lon="4.2859">
        <ele>182</ele>
        <time>2014-12-29T09:43:32.000Z</time>
      </trkpt>
      <trkpt lat="50.3498" lon="4.28575">
        <ele>182.19999694824</ele>
        <time>2014-12-29T09:43:41.000Z</time>
      </trkpt>
      <trkpt lat="50.34985" lon="4.28563">
        <ele>182.19999694824</ele>
        <time>2014-12-29T09:43:49.000Z</time>
      </trkpt>
      <trkpt lat="50.34987" lon="4.28546">
        <ele>182</ele>
        <time>2014-12-29T09:43:59.000Z</time>
      </trkpt>
      <trkpt lat="50.34987" lon="4.28529">
        <ele>181.60000610352</ele>
        <time>2014-12-29T09:44:08.000Z</time>
      </trkpt>
      <trkpt lat="50.34986" lon="4.28518">
        <ele>181.19999694824</ele>
        <time>2014-12-29T09:44:15.000Z</time>
      </trkpt>
      <trkpt lat="50.34986" lon="4.28504">
        <ele>180.60000610352</ele>
        <time>2014-12-29T09:44:23.000Z</time>
      </trkpt>
      <trkpt lat="50.34983" lon="4.28488">
        <ele>180</ele>
        <time>2014-12-29T09:44:32.000Z</time>
      </trkpt>
      <trkpt lat="50.34981" lon="4.28475">
        <ele>179.39999389648</ele>
        <time>2014-12-29T09:44:39.000Z</time>
      </trkpt>
      <trkpt lat="50.34979" lon="4.28462">
        <ele>179</ele>
        <time>2014-12-29T09:44:46.000Z</time>
      </trkpt>
      <trkpt lat="50.34976" lon="4.28446">
        <ele>178.19999694824</ele>
        <time>2014-12-29T09:44:55.000Z</time>
      </trkpt>
      <trkpt lat="50.34974" lon="4.2843">
        <ele>177.80000305176</ele>
        <time>2014-12-29T09:45:04.000Z</time>
      </trkpt>
      <trkpt lat="50.34972" lon="4.28422">
        <ele>177.60000610352</ele>
        <time>2014-12-29T09:45:09.000Z</time>
      </trkpt>
      <trkpt lat="50.34971" lon="4.2842">
        <ele>177.60000610352</ele>
        <time>2014-12-29T09:45:15.000Z</time>
      </trkpt>
      <trkpt lat="50.34968" lon="4.28415">
        <ele>177.39999389648</ele>
        <time>2014-12-29T09:45:20.000Z</time>
      </trkpt>
      <trkpt lat="50.34966" lon="4.28415">
        <ele>177.39999389648</ele>
        <time>2014-12-29T09:45:21.000Z</time>
      </trkpt>
      <trkpt lat="50.3496" lon="4.28417">
        <ele>177.19999694824</ele>
        <time>2014-12-29T09:45:26.000Z</time>
      </trkpt>
      <trkpt lat="50.34957" lon="4.28417">
        <ele>177</ele>
        <time>2014-12-29T09:45:29.000Z</time>
      </trkpt>
      <trkpt lat="50.34949" lon="4.28416">
        <ele>176.80000305176</ele>
        <time>2014-12-29T09:45:36.000Z</time>
      </trkpt>
      <trkpt lat="50.34946" lon="4.28407">
        <ele>176.39999389648</ele>
        <time>2014-12-29T09:45:43.000Z</time>
      </trkpt>
      <trkpt lat="50.34945" lon="4.28402">
        <ele>176.19999694824</ele>
        <time>2014-12-29T09:45:46.000Z</time>
      </trkpt>
      <trkpt lat="50.34944" lon="4.28377">
        <ele>175.60000610352</ele>
        <time>2014-12-29T09:46:01.000Z</time>
      </trkpt>
      <trkpt lat="50.34943" lon="4.28366">
        <ele>175.39999389648</ele>
        <time>2014-12-29T09:46:08.000Z</time>
      </trkpt>
      <trkpt lat="50.34943" lon="4.28364">
        <ele>175.19999694824</ele>
        <time>2014-12-29T09:46:09.000Z</time>
      </trkpt>
      <trkpt lat="50.34942" lon="4.28355">
        <ele>174.39999389648</ele>
        <time>2014-12-29T09:46:15.000Z</time>
      </trkpt>
      <trkpt lat="50.34942" lon="4.2835">
        <ele>174</ele>
        <time>2014-12-29T09:46:18.000Z</time>
      </trkpt>
      <trkpt lat="50.3494" lon="4.28335">
        <ele>172.60000610352</ele>
        <time>2014-12-29T09:46:27.000Z</time>
      </trkpt>
      <trkpt lat="50.3494" lon="4.2832">
        <ele>171.60000610352</ele>
        <time>2014-12-29T09:46:36.000Z</time>
      </trkpt>
      <trkpt lat="50.34939" lon="4.28312">
        <ele>171</ele>
        <time>2014-12-29T09:46:41.000Z</time>
      </trkpt>
      <trkpt lat="50.3494" lon="4.28299">
        <ele>170.39999389648</ele>
        <time>2014-12-29T09:46:49.000Z</time>
      </trkpt>
      <trkpt lat="50.34937" lon="4.28285">
        <ele>169.39999389648</ele>
        <time>2014-12-29T09:46:58.000Z</time>
      </trkpt>
      <trkpt lat="50.34937" lon="4.28282">
        <ele>169.19999694824</ele>
        <time>2014-12-29T09:46:59.000Z</time>
      </trkpt>
      <trkpt lat="50.34937" lon="4.28272">
        <ele>168.39999389648</ele>
        <time>2014-12-29T09:47:06.000Z</time>
      </trkpt>
      <trkpt lat="50.34937" lon="4.28268">
        <ele>168</ele>
        <time>2014-12-29T09:47:11.000Z</time>
      </trkpt>
      <trkpt lat="50.34937" lon="4.28254">
        <ele>166.80000305176</ele>
        <time>2014-12-29T09:47:19.000Z</time>
      </trkpt>
      <trkpt lat="50.34935" lon="4.28245">
        <ele>166.19999694824</ele>
        <time>2014-12-29T09:47:25.000Z</time>
      </trkpt>
      <trkpt lat="50.34935" lon="4.28234">
        <ele>165.60000610352</ele>
        <time>2014-12-29T09:47:32.000Z</time>
      </trkpt>
      <trkpt lat="50.34933" lon="4.28219">
        <ele>164.80000305176</ele>
        <time>2014-12-29T09:47:40.000Z</time>
      </trkpt>
      <trkpt lat="50.34932" lon="4.28206">
        <ele>164</ele>
        <time>2014-12-29T09:47:47.000Z</time>
      </trkpt>
      <trkpt lat="50.34932" lon="4.28193">
        <ele>163.39999389648</ele>
        <time>2014-12-29T09:47:56.000Z</time>
      </trkpt>
      <trkpt lat="50.34932" lon="4.28183">
        <ele>162.80000305176</ele>
        <time>2014-12-29T09:48:06.000Z</time>
      </trkpt>
      <trkpt lat="50.34933" lon="4.28175">
        <ele>162.60000610352</ele>
        <time>2014-12-29T09:48:14.000Z</time>
      </trkpt>
      <trkpt lat="50.34933" lon="4.28171">
        <ele>162.39999389648</ele>
        <time>2014-12-29T09:48:20.000Z</time>
      </trkpt>
      <trkpt lat="50.34934" lon="4.28165">
        <ele>162.39999389648</ele>
        <time>2014-12-29T09:48:26.000Z</time>
      </trkpt>
      <trkpt lat="50.34935" lon="4.28157">
        <ele>162.19999694824</ele>
        <time>2014-12-29T09:48:33.000Z</time>
      </trkpt>
      <trkpt lat="50.34936" lon="4.28151">
        <ele>162.19999694824</ele>
        <time>2014-12-29T09:48:40.000Z</time>
      </trkpt>
      <trkpt lat="50.34935" lon="4.28144">
        <ele>162</ele>
        <time>2014-12-29T09:48:51.000Z</time>
      </trkpt>
      <trkpt lat="50.34927" lon="4.28129">
        <ele>160.60000610352</ele>
        <time>2014-12-29T09:49:02.000Z</time>
      </trkpt>
      <trkpt lat="50.34929" lon="4.2813">
        <ele>160.80000305176</ele>
        <time>2014-12-29T09:49:09.000Z</time>
      </trkpt>
      <trkpt lat="50.34929" lon="4.2813">
        <ele>160.80000305176</ele>
        <time>2014-12-29T09:49:17.000Z</time>
      </trkpt>
      <trkpt lat="50.34929" lon="4.28128">
        <ele>160.80000305176</ele>
        <time>2014-12-29T09:49:24.000Z</time>
      </trkpt>
      <trkpt lat="50.34924" lon="4.28122">
        <ele>160</ele>
        <time>2014-12-29T09:49:36.000Z</time>
      </trkpt>
      <trkpt lat="50.3492" lon="4.28116">
        <ele>159.19999694824</ele>
        <time>2014-12-29T09:49:41.000Z</time>
      </trkpt>
      <trkpt lat="50.34918" lon="4.28117">
        <ele>159</ele>
        <time>2014-12-29T09:49:48.000Z</time>
      </trkpt>
      <trkpt lat="50.34916" lon="4.28114">
        <ele>158.60000610352</ele>
        <time>2014-12-29T09:50:28.000Z</time>
      </trkpt>
      <trkpt lat="50.34914" lon="4.2811">
        <ele>158.19999694824</ele>
        <time>2014-12-29T09:50:32.000Z</time>
      </trkpt>
      <trkpt lat="50.34911" lon="4.28107">
        <ele>157.60000610352</ele>
        <time>2014-12-29T09:50:38.000Z</time>
      </trkpt>
      <trkpt lat="50.34907" lon="4.28105">
        <ele>157</ele>
        <time>2014-12-29T09:50:43.000Z</time>
      </trkpt>
      <trkpt lat="50.34905" lon="4.28103">
        <ele>156.60000610352</ele>
        <time>2014-12-29T09:50:49.000Z</time>
      </trkpt>
      <trkpt lat="50.34905" lon="4.28102">
        <ele>156.60000610352</ele>
        <time>2014-12-29T09:50:55.000Z</time>
      </trkpt>
      <trkpt lat="50.349" lon="4.28099">
        <ele>155.80000305176</ele>
        <time>2014-12-29T09:51:15.000Z</time>
      </trkpt>
      <trkpt lat="50.34893" lon="4.28091">
        <ele>154.60000610352</ele>
        <time>2014-12-29T09:51:23.000Z</time>
      </trkpt>
      <trkpt lat="50.34885" lon="4.28079">
        <ele>153</ele>
        <time>2014-12-29T09:51:33.000Z</time>
      </trkpt>
      <trkpt lat="50.34881" lon="4.28081">
        <ele>152.39999389648</ele>
        <time>2014-12-29T09:51:40.000Z</time>
      </trkpt>
      <trkpt lat="50.34875" lon="4.28081">
        <ele>152</ele>
        <time>2014-12-29T09:51:47.000Z</time>
      </trkpt>
      <trkpt lat="50.34866" lon="4.28078">
        <ele>151</ele>
        <time>2014-12-29T09:51:56.000Z</time>
      </trkpt>
      <trkpt lat="50.34859" lon="4.28075">
        <ele>150.39999389648</ele>
        <time>2014-12-29T09:52:02.000Z</time>
      </trkpt>
      <trkpt lat="50.34852" lon="4.28072">
        <ele>149.60000610352</ele>
        <time>2014-12-29T09:52:09.000Z</time>
      </trkpt>
      <trkpt lat="50.34845" lon="4.28068">
        <ele>148.80000305176</ele>
        <time>2014-12-29T09:52:16.000Z</time>
      </trkpt>
      <trkpt lat="50.34836" lon="4.28063">
        <ele>147.80000305176</ele>
        <time>2014-12-29T09:52:25.000Z</time>
      </trkpt>
      <trkpt lat="50.34831" lon="4.28061">
        <ele>147.19999694824</ele>
        <time>2014-12-29T09:52:30.000Z</time>
      </trkpt>
      <trkpt lat="50.34822" lon="4.28057">
        <ele>146.39999389648</ele>
        <time>2014-12-29T09:52:38.000Z</time>
      </trkpt>
      <trkpt lat="50.34815" lon="4.28054">
        <ele>146</ele>
        <time>2014-12-29T09:52:44.000Z</time>
      </trkpt>
      <trkpt lat="50.34806" lon="4.28053">
        <ele>145.60000610352</ele>
        <time>2014-12-29T09:52:52.000Z</time>
      </trkpt>
      <trkpt lat="50.34805" lon="4.28052">
        <ele>145.39999389648</ele>
        <time>2014-12-29T09:52:53.000Z</time>
      </trkpt>
      <trkpt lat="50.34797" lon="4.2805">
        <ele>144.80000305176</ele>
        <time>2014-12-29T09:53:01.000Z</time>
      </trkpt>
      <trkpt lat="50.34796" lon="4.28049">
        <ele>144.60000610352</ele>
        <time>2014-12-29T09:53:02.000Z</time>
      </trkpt>
      <trkpt lat="50.34794" lon="4.2804">
        <ele>143.39999389648</ele>
        <time>2014-12-29T09:53:07.000Z</time>
      </trkpt>
      <trkpt lat="50.34794" lon="4.28031">
        <ele>142.60000610352</ele>
        <time>2014-12-29T09:53:12.000Z</time>
      </trkpt>
      <trkpt lat="50.34794" lon="4.2803">
        <ele>142.39999389648</ele>
        <time>2014-12-29T09:53:13.000Z</time>
      </trkpt>
      <trkpt lat="50.34795" lon="4.28014">
        <ele>142.19999694824</ele>
        <time>2014-12-29T09:53:22.000Z</time>
      </trkpt>
      <trkpt lat="50.348" lon="4.27998">
        <ele>142.39999389648</ele>
        <time>2014-12-29T09:53:32.000Z</time>
      </trkpt>
      <trkpt lat="50.34806" lon="4.27987">
        <ele>142.80000305176</ele>
        <time>2014-12-29T09:53:40.000Z</time>
      </trkpt>
      <trkpt lat="50.34814" lon="4.27976">
        <ele>143.19999694824</ele>
        <time>2014-12-29T09:53:48.000Z</time>
      </trkpt>
      <trkpt lat="50.34819" lon="4.27967">
        <ele>143.39999389648</ele>
        <time>2014-12-29T09:53:55.000Z</time>
      </trkpt>
      <trkpt lat="50.34819" lon="4.27965">
        <ele>143.60000610352</ele>
        <time>2014-12-29T09:53:56.000Z</time>
      </trkpt>
      <trkpt lat="50.34822" lon="4.27961">
        <ele>144.19999694824</ele>
        <time>2014-12-29T09:54:03.000Z</time>
      </trkpt>
      <trkpt lat="50.34824" lon="4.27958">
        <ele>144.80000305176</ele>
        <time>2014-12-29T09:54:07.000Z</time>
      </trkpt>
      <trkpt lat="50.34829" lon="4.27952">
        <ele>145.80000305176</ele>
        <time>2014-12-29T09:54:13.000Z</time>
      </trkpt>
      <trkpt lat="50.34829" lon="4.27941">
        <ele>146</ele>
        <time>2014-12-29T09:54:19.000Z</time>
      </trkpt>
      <trkpt lat="50.34828" lon="4.27939">
        <ele>146</ele>
        <time>2014-12-29T09:54:20.000Z</time>
      </trkpt>
      <trkpt lat="50.34828" lon="4.27938">
        <ele>146</ele>
        <time>2014-12-29T09:54:21.000Z</time>
      </trkpt>
      <trkpt lat="50.34826" lon="4.27937">
        <ele>145.60000610352</ele>
        <time>2014-12-29T09:54:24.000Z</time>
      </trkpt>
      <trkpt lat="50.34822" lon="4.27939">
        <ele>145</ele>
        <time>2014-12-29T09:54:30.000Z</time>
      </trkpt>
      <trkpt lat="50.34817" lon="4.27941">
        <ele>144.19999694824</ele>
        <time>2014-12-29T09:54:38.000Z</time>
      </trkpt>
      <trkpt lat="50.34813" lon="4.27942">
        <ele>143.60000610352</ele>
        <time>2014-12-29T09:54:43.000Z</time>
      </trkpt>
      <trkpt lat="50.34808" lon="4.27944">
        <ele>142.60000610352</ele>
        <time>2014-12-29T09:54:50.000Z</time>
      </trkpt>
      <trkpt lat="50.34805" lon="4.27945">
        <ele>142.19999694824</ele>
        <time>2014-12-29T09:54:54.000Z</time>
      </trkpt>
      <trkpt lat="50.34801" lon="4.27946">
        <ele>141.60000610352</ele>
        <time>2014-12-29T09:55:00.000Z</time>
      </trkpt>
      <trkpt lat="50.348" lon="4.27946">
        <ele>141.39999389648</ele>
        <time>2014-12-29T09:55:01.000Z</time>
      </trkpt>
      <trkpt lat="50.34794" lon="4.27948">
        <ele>140.19999694824</ele>
        <time>2014-12-29T09:55:07.000Z</time>
      </trkpt>
      <trkpt lat="50.34791" lon="4.27949">
        <ele>139.80000305176</ele>
        <time>2014-12-29T09:55:13.000Z</time>
      </trkpt>
      <trkpt lat="50.34787" lon="4.27949">
        <ele>139</ele>
        <time>2014-12-29T09:55:27.000Z</time>
      </trkpt>
      <trkpt lat="50.34783" lon="4.27951">
        <ele>138.19999694824</ele>
        <time>2014-12-29T09:55:32.000Z</time>
      </trkpt>
      <trkpt lat="50.34777" lon="4.27955">
        <ele>137</ele>
        <time>2014-12-29T09:55:38.000Z</time>
      </trkpt>
      <trkpt lat="50.34776" lon="4.27956">
        <ele>136.80000305176</ele>
        <time>2014-12-29T09:55:39.000Z</time>
      </trkpt>
      <trkpt lat="50.3477" lon="4.2796">
        <ele>135.60000610352</ele>
        <time>2014-12-29T09:55:46.000Z</time>
      </trkpt>
      <trkpt lat="50.34765" lon="4.27961">
        <ele>134.60000610352</ele>
        <time>2014-12-29T09:55:54.000Z</time>
      </trkpt>
      <trkpt lat="50.34762" lon="4.27963">
        <ele>134.19999694824</ele>
        <time>2014-12-29T09:55:58.000Z</time>
      </trkpt>
      <trkpt lat="50.34758" lon="4.27966">
        <ele>133.39999389648</ele>
        <time>2014-12-29T09:56:03.000Z</time>
      </trkpt>
      <trkpt lat="50.34757" lon="4.27966">
        <ele>133.19999694824</ele>
        <time>2014-12-29T09:56:05.000Z</time>
      </trkpt>
      <trkpt lat="50.34754" lon="4.27968">
        <ele>132.60000610352</ele>
        <time>2014-12-29T09:56:12.000Z</time>
      </trkpt>
      <trkpt lat="50.34753" lon="4.27968">
        <ele>132.39999389648</ele>
        <time>2014-12-29T09:56:13.000Z</time>
      </trkpt>
      <trkpt lat="50.34748" lon="4.27973">
        <ele>131.39999389648</ele>
        <time>2014-12-29T09:56:18.000Z</time>
      </trkpt>
      <trkpt lat="50.34746" lon="4.27971">
        <ele>131.19999694824</ele>
        <time>2014-12-29T09:56:20.000Z</time>
      </trkpt>
      <trkpt lat="50.34748" lon="4.27968">
        <ele>131.39999389648</ele>
        <time>2014-12-29T09:56:34.000Z</time>
      </trkpt>
      <trkpt lat="50.34751" lon="4.27962">
        <ele>131.80000305176</ele>
        <time>2014-12-29T09:56:39.000Z</time>
      </trkpt>
      <trkpt lat="50.34755" lon="4.27954">
        <ele>132.60000610352</ele>
        <time>2014-12-29T09:56:46.000Z</time>
      </trkpt>
      <trkpt lat="50.34759" lon="4.27945">
        <ele>133</ele>
        <time>2014-12-29T09:56:53.000Z</time>
      </trkpt>
      <trkpt lat="50.34761" lon="4.27938">
        <ele>133</ele>
        <time>2014-12-29T09:56:57.000Z</time>
      </trkpt>
      <trkpt lat="50.34763" lon="4.27935">
        <ele>133.19999694824</ele>
        <time>2014-12-29T09:57:04.000Z</time>
      </trkpt>
      <trkpt lat="50.34764" lon="4.27934">
        <ele>133.39999389648</ele>
        <time>2014-12-29T09:57:10.000Z</time>
      </trkpt>
      <trkpt lat="50.34765" lon="4.27931">
        <ele>133.60000610352</ele>
        <time>2014-12-29T09:57:14.000Z</time>
      </trkpt>
      <trkpt lat="50.34768" lon="4.27921">
        <ele>133.39999389648</ele>
        <time>2014-12-29T09:57:20.000Z</time>
      </trkpt>
      <trkpt lat="50.34771" lon="4.27911">
        <ele>133.80000305176</ele>
        <time>2014-12-29T09:57:28.000Z</time>
      </trkpt>
      <trkpt lat="50.3477" lon="4.27905">
        <ele>133.39999389648</ele>
        <time>2014-12-29T09:57:34.000Z</time>
      </trkpt>
      <trkpt lat="50.34765" lon="4.27897">
        <ele>131.80000305176</ele>
        <time>2014-12-29T09:57:41.000Z</time>
      </trkpt>
      <trkpt lat="50.34764" lon="4.27896">
        <ele>131.60000610352</ele>
        <time>2014-12-29T09:57:42.000Z</time>
      </trkpt>
      <trkpt lat="50.34764" lon="4.27891">
        <ele>131.80000305176</ele>
        <time>2014-12-29T09:57:46.000Z</time>
      </trkpt>
      <trkpt lat="50.34771" lon="4.27878">
        <ele>132.80000305176</ele>
        <time>2014-12-29T09:57:56.000Z</time>
      </trkpt>
      <trkpt lat="50.34778" lon="4.27865">
        <ele>134.39999389648</ele>
        <time>2014-12-29T09:58:05.000Z</time>
      </trkpt>
      <trkpt lat="50.34784" lon="4.27853">
        <ele>135.60000610352</ele>
        <time>2014-12-29T09:58:13.000Z</time>
      </trkpt>
      <trkpt lat="50.34792" lon="4.27839">
        <ele>136.39999389648</ele>
        <time>2014-12-29T09:58:22.000Z</time>
      </trkpt>
      <trkpt lat="50.34798" lon="4.27823">
        <ele>136.80000305176</ele>
        <time>2014-12-29T09:58:32.000Z</time>
      </trkpt>
      <trkpt lat="50.34801" lon="4.27817">
        <ele>137</ele>
        <time>2014-12-29T09:58:36.000Z</time>
      </trkpt>
      <trkpt lat="50.34807" lon="4.27801">
        <ele>137.60000610352</ele>
        <time>2014-12-29T09:58:46.000Z</time>
      </trkpt>
      <trkpt lat="50.34812" lon="4.27786">
        <ele>138.39999389648</ele>
        <time>2014-12-29T09:58:55.000Z</time>
      </trkpt>
      <trkpt lat="50.34818" lon="4.27762">
        <ele>139.39999389648</ele>
        <time>2014-12-29T09:59:08.000Z</time>
      </trkpt>
      <trkpt lat="50.34821" lon="4.27747">
        <ele>139.39999389648</ele>
        <time>2014-12-29T09:59:16.000Z</time>
      </trkpt>
      <trkpt lat="50.34825" lon="4.2773">
        <ele>139.39999389648</ele>
        <time>2014-12-29T09:59:25.000Z</time>
      </trkpt>
      <trkpt lat="50.34827" lon="4.27709">
        <ele>140</ele>
        <time>2014-12-29T09:59:35.000Z</time>
      </trkpt>
      <trkpt lat="50.34829" lon="4.27687">
        <ele>141.19999694824</ele>
        <time>2014-12-29T09:59:46.000Z</time>
      </trkpt>
      <trkpt lat="50.34831" lon="4.27665">
        <ele>143</ele>
        <time>2014-12-29T09:59:57.000Z</time>
      </trkpt>
      <trkpt lat="50.34832" lon="4.27645">
        <ele>144.19999694824</ele>
        <time>2014-12-29T10:00:07.000Z</time>
      </trkpt>
      <trkpt lat="50.34832" lon="4.27623">
        <ele>144.60000610352</ele>
        <time>2014-12-29T10:00:18.000Z</time>
      </trkpt>
      <trkpt lat="50.34831" lon="4.27604">
        <ele>145</ele>
        <time>2014-12-29T10:00:28.000Z</time>
      </trkpt>
      <trkpt lat="50.3483" lon="4.27592">
        <ele>145.39999389648</ele>
        <time>2014-12-29T10:00:34.000Z</time>
      </trkpt>
      <trkpt lat="50.34827" lon="4.27567">
        <ele>145.60000610352</ele>
        <time>2014-12-29T10:00:47.000Z</time>
      </trkpt>
      <trkpt lat="50.34825" lon="4.2755">
        <ele>145.19999694824</ele>
        <time>2014-12-29T10:00:56.000Z</time>
      </trkpt>
      <trkpt lat="50.3482" lon="4.27535">
        <ele>143.80000305176</ele>
        <time>2014-12-29T10:01:04.000Z</time>
      </trkpt>
      <trkpt lat="50.34815" lon="4.2752">
        <ele>143.19999694824</ele>
        <time>2014-12-29T10:01:12.000Z</time>
      </trkpt>
      <trkpt lat="50.34809" lon="4.27506">
        <ele>142.60000610352</ele>
        <time>2014-12-29T10:01:20.000Z</time>
      </trkpt>
      <trkpt lat="50.34806" lon="4.27497">
        <ele>142.39999389648</ele>
        <time>2014-12-29T10:01:25.000Z</time>
      </trkpt>
      <trkpt lat="50.34806" lon="4.27488">
        <ele>143.19999694824</ele>
        <time>2014-12-29T10:01:30.000Z</time>
      </trkpt>
      <trkpt lat="50.34803" lon="4.27473">
        <ele>143.39999389648</ele>
        <time>2014-12-29T10:01:39.000Z</time>
      </trkpt>
      <trkpt lat="50.348" lon="4.27465">
        <ele>143</ele>
        <time>2014-12-29T10:01:44.000Z</time>
      </trkpt>
      <trkpt lat="50.34793" lon="4.27448">
        <ele>142.80000305176</ele>
        <time>2014-12-29T10:01:55.000Z</time>
      </trkpt>
      <trkpt lat="50.34792" lon="4.27445">
        <ele>142.80000305176</ele>
        <time>2014-12-29T10:01:57.000Z</time>
      </trkpt>
      <trkpt lat="50.34789" lon="4.27435">
        <ele>142.60000610352</ele>
        <time>2014-12-29T10:02:03.000Z</time>
      </trkpt>
      <trkpt lat="50.34781" lon="4.27419">
        <ele>142</ele>
        <time>2014-12-29T10:02:14.000Z</time>
      </trkpt>
      <trkpt lat="50.3478" lon="4.27416">
        <ele>142</ele>
        <time>2014-12-29T10:02:18.000Z</time>
      </trkpt>
      <trkpt lat="50.34772" lon="4.27404">
        <ele>141</ele>
        <time>2014-12-29T10:02:27.000Z</time>
      </trkpt>
      <trkpt lat="50.34763" lon="4.2739">
        <ele>139.80000305176</ele>
        <time>2014-12-29T10:02:38.000Z</time>
      </trkpt>
      <trkpt lat="50.34752" lon="4.27372">
        <ele>138.19999694824</ele>
        <time>2014-12-29T10:02:52.000Z</time>
      </trkpt>
      <trkpt lat="50.34743" lon="4.27361">
        <ele>137.19999694824</ele>
        <time>2014-12-29T10:03:04.000Z</time>
      </trkpt>
      <trkpt lat="50.34736" lon="4.27349">
        <ele>137.19999694824</ele>
        <time>2014-12-29T10:03:13.000Z</time>
      </trkpt>
      <trkpt lat="50.3473" lon="4.27337">
        <ele>137.60000610352</ele>
        <time>2014-12-29T10:03:22.000Z</time>
      </trkpt>
      <trkpt lat="50.34724" lon="4.27327">
        <ele>137.60000610352</ele>
        <time>2014-12-29T10:03:30.000Z</time>
      </trkpt>
      <trkpt lat="50.34721" lon="4.27319">
        <ele>137.80000305176</ele>
        <time>2014-12-29T10:03:36.000Z</time>
      </trkpt>
      <trkpt lat="50.34719" lon="4.27316">
        <ele>137.80000305176</ele>
        <time>2014-12-29T10:03:40.000Z</time>
      </trkpt>
      <trkpt lat="50.34713" lon="4.27305">
        <ele>138.19999694824</ele>
        <time>2014-12-29T10:03:48.000Z</time>
      </trkpt>
      <trkpt lat="50.34712" lon="4.27304">
        <ele>138.19999694824</ele>
        <time>2014-12-29T10:03:49.000Z</time>
      </trkpt>
      <trkpt lat="50.34708" lon="4.27298">
        <ele>138.39999389648</ele>
        <time>2014-12-29T10:03:54.000Z</time>
      </trkpt>
      <trkpt lat="50.34707" lon="4.27297">
        <ele>138.39999389648</ele>
        <time>2014-12-29T10:03:56.000Z</time>
      </trkpt>
      <trkpt lat="50.34703" lon="4.2729">
        <ele>138.60000610352</ele>
        <time>2014-12-29T10:04:02.000Z</time>
      </trkpt>
      <trkpt lat="50.34702" lon="4.27287">
        <ele>138.80000305176</ele>
        <time>2014-12-29T10:04:04.000Z</time>
      </trkpt>
      <trkpt lat="50.34697" lon="4.27279">
        <ele>139</ele>
        <time>2014-12-29T10:04:11.000Z</time>
      </trkpt>
      <trkpt lat="50.34696" lon="4.27278">
        <ele>139</ele>
        <time>2014-12-29T10:04:12.000Z</time>
      </trkpt>
      <trkpt lat="50.34696" lon="4.27277">
        <ele>139</ele>
        <time>2014-12-29T10:04:13.000Z</time>
      </trkpt>
      <trkpt lat="50.3469" lon="4.27271">
        <ele>138.80000305176</ele>
        <time>2014-12-29T10:04:19.000Z</time>
      </trkpt>
      <trkpt lat="50.34686" lon="4.27266">
        <ele>138.60000610352</ele>
        <time>2014-12-29T10:04:23.000Z</time>
      </trkpt>
      <trkpt lat="50.3468" lon="4.27255">
        <ele>138.60000610352</ele>
        <time>2014-12-29T10:04:32.000Z</time>
      </trkpt>
      <trkpt lat="50.34677" lon="4.27248">
        <ele>138.80000305176</ele>
        <time>2014-12-29T10:04:37.000Z</time>
      </trkpt>
      <trkpt lat="50.34669" lon="4.27237">
        <ele>138.39999389648</ele>
        <time>2014-12-29T10:04:46.000Z</time>
      </trkpt>
      <trkpt lat="50.34661" lon="4.27224">
        <ele>138.60000610352</ele>
        <time>2014-12-29T10:04:55.000Z</time>
      </trkpt>
      <trkpt lat="50.34655" lon="4.2721">
        <ele>139.19999694824</ele>
        <time>2014-12-29T10:05:04.000Z</time>
      </trkpt>
      <trkpt lat="50.3465" lon="4.27192">
        <ele>140.19999694824</ele>
        <time>2014-12-29T10:05:14.000Z</time>
      </trkpt>
      <trkpt lat="50.34646" lon="4.27179">
        <ele>140.60000610352</ele>
        <time>2014-12-29T10:05:21.000Z</time>
      </trkpt>
      <trkpt lat="50.34643" lon="4.27167">
        <ele>140.80000305176</ele>
        <time>2014-12-29T10:05:28.000Z</time>
      </trkpt>
      <trkpt lat="50.34639" lon="4.2715">
        <ele>141.39999389648</ele>
        <time>2014-12-29T10:05:37.000Z</time>
      </trkpt>
      <trkpt lat="50.34639" lon="4.27148">
        <ele>141.80000305176</ele>
        <time>2014-12-29T10:05:38.000Z</time>
      </trkpt>
      <trkpt lat="50.34643" lon="4.27144">
        <ele>142.80000305176</ele>
        <time>2014-12-29T10:05:41.000Z</time>
      </trkpt>
      <trkpt lat="50.34649" lon="4.27138">
        <ele>144.60000610352</ele>
        <time>2014-12-29T10:05:48.000Z</time>
      </trkpt>
      <trkpt lat="50.34654" lon="4.2713">
        <ele>146</ele>
        <time>2014-12-29T10:05:54.000Z</time>
      </trkpt>
      <trkpt lat="50.34657" lon="4.27124">
        <ele>147</ele>
        <time>2014-12-29T10:05:59.000Z</time>
      </trkpt>
      <trkpt lat="50.34661" lon="4.27112">
        <ele>148.19999694824</ele>
        <time>2014-12-29T10:06:07.000Z</time>
      </trkpt>
      <trkpt lat="50.34664" lon="4.27102">
        <ele>149.19999694824</ele>
        <time>2014-12-29T10:06:12.000Z</time>
      </trkpt>
      <trkpt lat="50.34665" lon="4.27095">
        <ele>150</ele>
        <time>2014-12-29T10:06:16.000Z</time>
      </trkpt>
      <trkpt lat="50.34669" lon="4.27082">
        <ele>151.60000610352</ele>
        <time>2014-12-29T10:06:24.000Z</time>
      </trkpt>
      <trkpt lat="50.34672" lon="4.27072">
        <ele>152.80000305176</ele>
        <time>2014-12-29T10:06:31.000Z</time>
      </trkpt>
      <trkpt lat="50.34672" lon="4.2707">
        <ele>153</ele>
        <time>2014-12-29T10:06:32.000Z</time>
      </trkpt>
      <trkpt lat="50.34673" lon="4.27068">
        <ele>153.19999694824</ele>
        <time>2014-12-29T10:06:33.000Z</time>
      </trkpt>
      <trkpt lat="50.34674" lon="4.27062">
        <ele>153.39999389648</ele>
        <time>2014-12-29T10:06:37.000Z</time>
      </trkpt>
      <trkpt lat="50.34674" lon="4.27061">
        <ele>153.60000610352</ele>
        <time>2014-12-29T10:06:39.000Z</time>
      </trkpt>
      <trkpt lat="50.34677" lon="4.27052">
        <ele>154.19999694824</ele>
        <time>2014-12-29T10:06:45.000Z</time>
      </trkpt>
      <trkpt lat="50.34677" lon="4.27051">
        <ele>154.39999389648</ele>
        <time>2014-12-29T10:06:46.000Z</time>
      </trkpt>
      <trkpt lat="50.34681" lon="4.27036">
        <ele>155.39999389648</ele>
        <time>2014-12-29T10:06:56.000Z</time>
      </trkpt>
      <trkpt lat="50.34682" lon="4.27029">
        <ele>155.80000305176</ele>
        <time>2014-12-29T10:07:00.000Z</time>
      </trkpt>
      <trkpt lat="50.34683" lon="4.27019">
        <ele>156.19999694824</ele>
        <time>2014-12-29T10:07:06.000Z</time>
      </trkpt>
      <trkpt lat="50.34683" lon="4.27013">
        <ele>156.39999389648</ele>
        <time>2014-12-29T10:07:10.000Z</time>
      </trkpt>
      <trkpt lat="50.34683" lon="4.27012">
        <ele>156.39999389648</ele>
        <time>2014-12-29T10:07:16.000Z</time>
      </trkpt>
      <trkpt lat="50.34682" lon="4.27002">
        <ele>156.80000305176</ele>
        <time>2014-12-29T10:07:52.000Z</time>
      </trkpt>
      <trkpt lat="50.34682" lon="4.26991">
        <ele>157</ele>
        <time>2014-12-29T10:07:59.000Z</time>
      </trkpt>
      <trkpt lat="50.34683" lon="4.26981">
        <ele>157.19999694824</ele>
        <time>2014-12-29T10:08:07.000Z</time>
      </trkpt>
      <trkpt lat="50.34683" lon="4.26978">
        <ele>157.19999694824</ele>
        <time>2014-12-29T10:08:09.000Z</time>
      </trkpt>
      <trkpt lat="50.34684" lon="4.26963">
        <ele>157.60000610352</ele>
        <time>2014-12-29T10:08:18.000Z</time>
      </trkpt>
      <trkpt lat="50.34686" lon="4.2695">
        <ele>158</ele>
        <time>2014-12-29T10:08:27.000Z</time>
      </trkpt>
      <trkpt lat="50.34687" lon="4.2694">
        <ele>158.19999694824</ele>
        <time>2014-12-29T10:08:34.000Z</time>
      </trkpt>
      <trkpt lat="50.34689" lon="4.26927">
        <ele>159</ele>
        <time>2014-12-29T10:08:42.000Z</time>
      </trkpt>
      <trkpt lat="50.3469" lon="4.26918">
        <ele>159.19999694824</ele>
        <time>2014-12-29T10:08:48.000Z</time>
      </trkpt>
      <trkpt lat="50.34693" lon="4.26905">
        <ele>159.39999389648</ele>
        <time>2014-12-29T10:08:56.000Z</time>
      </trkpt>
      <trkpt lat="50.34697" lon="4.26896">
        <ele>159.80000305176</ele>
        <time>2014-12-29T10:09:03.000Z</time>
      </trkpt>
      <trkpt lat="50.34701" lon="4.26887">
        <ele>160</ele>
        <time>2014-12-29T10:09:10.000Z</time>
      </trkpt>
      <trkpt lat="50.34702" lon="4.26885">
        <ele>160.19999694824</ele>
        <time>2014-12-29T10:09:11.000Z</time>
      </trkpt>
      <trkpt lat="50.34705" lon="4.26878">
        <ele>160.39999389648</ele>
        <time>2014-12-29T10:09:16.000Z</time>
      </trkpt>
      <trkpt lat="50.34709" lon="4.26867">
        <ele>160.60000610352</ele>
        <time>2014-12-29T10:09:23.000Z</time>
      </trkpt>
      <trkpt lat="50.34709" lon="4.26853">
        <ele>160.39999389648</ele>
        <time>2014-12-29T10:09:30.000Z</time>
      </trkpt>
      <trkpt lat="50.34703" lon="4.26842">
        <ele>159.80000305176</ele>
        <time>2014-12-29T10:09:37.000Z</time>
      </trkpt>
      <trkpt lat="50.34696" lon="4.26832">
        <ele>159.19999694824</ele>
        <time>2014-12-29T10:09:44.000Z</time>
      </trkpt>
      <trkpt lat="50.34699" lon="4.26716">
        <ele>158.19999694824</ele>
        <time>2014-12-29T10:09:56.000Z</time>
      </trkpt>
      <trkpt lat="50.34682" lon="4.26809">
        <ele>157.80000305176</ele>
        <time>2014-12-29T10:10:00.000Z</time>
      </trkpt>
      <trkpt lat="50.34678" lon="4.26794">
        <ele>157.19999694824</ele>
        <time>2014-12-29T10:10:08.000Z</time>
      </trkpt>
      <trkpt lat="50.34679" lon="4.26775">
        <ele>156.80000305176</ele>
        <time>2014-12-29T10:10:18.000Z</time>
      </trkpt>
      <trkpt lat="50.3468" lon="4.26767">
        <ele>156.80000305176</ele>
        <time>2014-12-29T10:10:23.000Z</time>
      </trkpt>
      <trkpt lat="50.34682" lon="4.26752">
        <ele>156.80000305176</ele>
        <time>2014-12-29T10:10:31.000Z</time>
      </trkpt>
      <trkpt lat="50.34683" lon="4.26744">
        <ele>156.60000610352</ele>
        <time>2014-12-29T10:10:35.000Z</time>
      </trkpt>
      <trkpt lat="50.34685" lon="4.26733">
        <ele>156.39999389648</ele>
        <time>2014-12-29T10:10:41.000Z</time>
      </trkpt>
      <trkpt lat="50.34685" lon="4.26731">
        <ele>156.39999389648</ele>
        <time>2014-12-29T10:10:42.000Z</time>
      </trkpt>
      <trkpt lat="50.34683" lon="4.26714">
        <ele>156</ele>
        <time>2014-12-29T10:10:51.000Z</time>
      </trkpt>
      <trkpt lat="50.34681" lon="4.26703">
        <ele>155.60000610352</ele>
        <time>2014-12-29T10:10:58.000Z</time>
      </trkpt>
      <trkpt lat="50.34676" lon="4.26689">
        <ele>154.60000610352</ele>
        <time>2014-12-29T10:11:07.000Z</time>
      </trkpt>
      <trkpt lat="50.34672" lon="4.26679">
        <ele>153.60000610352</ele>
        <time>2014-12-29T10:11:14.000Z</time>
      </trkpt>
      <trkpt lat="50.34675" lon="4.26667">
        <ele>152.60000610352</ele>
        <time>2014-12-29T10:11:21.000Z</time>
      </trkpt>
      <trkpt lat="50.3468" lon="4.26651">
        <ele>151.60000610352</ele>
        <time>2014-12-29T10:11:30.000Z</time>
      </trkpt>
      <trkpt lat="50.3468" lon="4.2665">
        <ele>151.60000610352</ele>
        <time>2014-12-29T10:11:31.000Z</time>
      </trkpt>
      <trkpt lat="50.34682" lon="4.26645">
        <ele>151.39999389648</ele>
        <time>2014-12-29T10:11:34.000Z</time>
      </trkpt>
      <trkpt lat="50.34684" lon="4.26639">
        <ele>151</ele>
        <time>2014-12-29T10:11:37.000Z</time>
      </trkpt>
      <trkpt lat="50.34681" lon="4.26623">
        <ele>149.80000305176</ele>
        <time>2014-12-29T10:11:45.000Z</time>
      </trkpt>
      <trkpt lat="50.3468" lon="4.26622">
        <ele>149.60000610352</ele>
        <time>2014-12-29T10:11:46.000Z</time>
      </trkpt>
      <trkpt lat="50.34673" lon="4.26612">
        <ele>148.39999389648</ele>
        <time>2014-12-29T10:11:54.000Z</time>
      </trkpt>
      <trkpt lat="50.34668" lon="4.26607">
        <ele>147.80000305176</ele>
        <time>2014-12-29T10:11:59.000Z</time>
      </trkpt>
      <trkpt lat="50.34661" lon="4.26598">
        <ele>146.60000610352</ele>
        <time>2014-12-29T10:12:07.000Z</time>
      </trkpt>
      <trkpt lat="50.34666" lon="4.2658">
        <ele>145.39999389648</ele>
        <time>2014-12-29T10:19:12.000Z</time>
      </trkpt>
      <trkpt lat="50.34664" lon="4.26569">
        <ele>144.39999389648</ele>
        <time>2014-12-29T10:19:19.000Z</time>
      </trkpt>
      <trkpt lat="50.34664" lon="4.26567">
        <ele>144.19999694824</ele>
        <time>2014-12-29T10:19:20.000Z</time>
      </trkpt>
      <trkpt lat="50.34662" lon="4.26551">
        <ele>143</ele>
        <time>2014-12-29T10:19:29.000Z</time>
      </trkpt>
      <trkpt lat="50.34662" lon="4.26549">
        <ele>142.80000305176</ele>
        <time>2014-12-29T10:19:30.000Z</time>
      </trkpt>
      <trkpt lat="50.34661" lon="4.26544">
        <ele>142.39999389648</ele>
        <time>2014-12-29T10:19:34.000Z</time>
      </trkpt>
      <trkpt lat="50.3466" lon="4.26541">
        <ele>142.19999694824</ele>
        <time>2014-12-29T10:19:42.000Z</time>
      </trkpt>
      <trkpt lat="50.34659" lon="4.26541">
        <ele>142</ele>
        <time>2014-12-29T10:19:46.000Z</time>
      </trkpt>
      <trkpt lat="50.34654" lon="4.26543">
        <ele>141.80000305176</ele>
        <time>2014-12-29T10:19:52.000Z</time>
      </trkpt>
      <trkpt lat="50.34652" lon="4.26544">
        <ele>141.60000610352</ele>
        <time>2014-12-29T10:19:54.000Z</time>
      </trkpt>
      <trkpt lat="50.34645" lon="4.26553">
        <ele>141.80000305176</ele>
        <time>2014-12-29T10:20:03.000Z</time>
      </trkpt>
      <trkpt lat="50.34636" lon="4.2656">
        <ele>141.80000305176</ele>
        <time>2014-12-29T10:20:12.000Z</time>
      </trkpt>
      <trkpt lat="50.34633" lon="4.26566">
        <ele>142.19999694824</ele>
        <time>2014-12-29T10:20:21.000Z</time>
      </trkpt>
      <trkpt lat="50.34629" lon="4.26573">
        <ele>142.39999389648</ele>
        <time>2014-12-29T10:20:27.000Z</time>
      </trkpt>
      <trkpt lat="50.34626" lon="4.26571">
        <ele>141.80000305176</ele>
        <time>2014-12-29T10:20:34.000Z</time>
      </trkpt>
      <trkpt lat="50.34623" lon="4.26567">
        <ele>141.19999694824</ele>
        <time>2014-12-29T10:20:39.000Z</time>
      </trkpt>
      <trkpt lat="50.34623" lon="4.26564">
        <ele>141</ele>
        <time>2014-12-29T10:20:42.000Z</time>
      </trkpt>
      <trkpt lat="50.34625" lon="4.26557">
        <ele>140.60000610352</ele>
        <time>2014-12-29T10:20:47.000Z</time>
      </trkpt>
      <trkpt lat="50.34626" lon="4.26555">
        <ele>140.60000610352</ele>
        <time>2014-12-29T10:20:49.000Z</time>
      </trkpt>
      <trkpt lat="50.34629" lon="4.26545">
        <ele>140</ele>
        <time>2014-12-29T10:20:57.000Z</time>
      </trkpt>
      <trkpt lat="50.3463" lon="4.26537">
        <ele>139.60000610352</ele>
        <time>2014-12-29T10:21:03.000Z</time>
      </trkpt>
      <trkpt lat="50.3463" lon="4.26536">
        <ele>139.39999389648</ele>
        <time>2014-12-29T10:21:04.000Z</time>
      </trkpt>
      <trkpt lat="50.3463" lon="4.26531">
        <ele>139</ele>
        <time>2014-12-29T10:21:07.000Z</time>
      </trkpt>
      <trkpt lat="50.34635" lon="4.26518">
        <ele>138.60000610352</ele>
        <time>2014-12-29T10:21:15.000Z</time>
      </trkpt>
      <trkpt lat="50.34637" lon="4.26515">
        <ele>138.60000610352</ele>
        <time>2014-12-29T10:21:21.000Z</time>
      </trkpt>
      <trkpt lat="50.34636" lon="4.2651">
        <ele>138.39999389648</ele>
        <time>2014-12-29T10:21:29.000Z</time>
      </trkpt>
      <trkpt lat="50.34633" lon="4.26507">
        <ele>137.80000305176</ele>
        <time>2014-12-29T10:21:35.000Z</time>
      </trkpt>
      <trkpt lat="50.34629" lon="4.26508">
        <ele>137.60000610352</ele>
        <time>2014-12-29T10:21:43.000Z</time>
      </trkpt>
      <trkpt lat="50.34626" lon="4.2651">
        <ele>137.39999389648</ele>
        <time>2014-12-29T10:21:51.000Z</time>
      </trkpt>
      <trkpt lat="50.34621" lon="4.2651">
        <ele>136.80000305176</ele>
        <time>2014-12-29T10:21:58.000Z</time>
      </trkpt>
      <trkpt lat="50.34617" lon="4.26504">
        <ele>136.19999694824</ele>
        <time>2014-12-29T10:22:05.000Z</time>
      </trkpt>
      <trkpt lat="50.34616" lon="4.26501">
        <ele>136</ele>
        <time>2014-12-29T10:22:10.000Z</time>
      </trkpt>
      <trkpt lat="50.34615" lon="4.26496">
        <ele>135.39999389648</ele>
        <time>2014-12-29T10:22:16.000Z</time>
      </trkpt>
      <trkpt lat="50.34615" lon="4.26496">
        <ele>135.39999389648</ele>
        <time>2014-12-29T10:22:27.000Z</time>
      </trkpt>
      <trkpt lat="50.34616" lon="4.26493">
        <ele>135.39999389648</ele>
        <time>2014-12-29T10:22:36.000Z</time>
      </trkpt>
      <trkpt lat="50.34614" lon="4.26491">
        <ele>135</ele>
        <time>2014-12-29T10:22:41.000Z</time>
      </trkpt>
      <trkpt lat="50.34611" lon="4.26494">
        <ele>135</ele>
        <time>2014-12-29T10:22:47.000Z</time>
      </trkpt>
      <trkpt lat="50.34603" lon="4.26501">
        <ele>134.60000610352</ele>
        <time>2014-12-29T10:22:56.000Z</time>
      </trkpt>
      <trkpt lat="50.34601" lon="4.26504">
        <ele>134.39999389648</ele>
        <time>2014-12-29T10:23:01.000Z</time>
      </trkpt>
      <trkpt lat="50.34597" lon="4.2651">
        <ele>134.19999694824</ele>
        <time>2014-12-29T10:23:08.000Z</time>
      </trkpt>
      <trkpt lat="50.34594" lon="4.26514">
        <ele>134</ele>
        <time>2014-12-29T10:23:26.000Z</time>
      </trkpt>
      <trkpt lat="50.34593" lon="4.26515">
        <ele>134</ele>
        <time>2014-12-29T10:23:31.000Z</time>
      </trkpt>
      <trkpt lat="50.34589" lon="4.26521">
        <ele>133.60000610352</ele>
        <time>2014-12-29T10:23:37.000Z</time>
      </trkpt>
      <trkpt lat="50.34581" lon="4.2653">
        <ele>133</ele>
        <time>2014-12-29T10:23:45.000Z</time>
      </trkpt>
      <trkpt lat="50.34571" lon="4.26538">
        <ele>132.39999389648</ele>
        <time>2014-12-29T10:23:54.000Z</time>
      </trkpt>
      <trkpt lat="50.34557" lon="4.26527">
        <ele>130</ele>
        <time>2014-12-29T10:24:07.000Z</time>
      </trkpt>
      <trkpt lat="50.34548" lon="4.2652">
        <ele>128.80000305176</ele>
        <time>2014-12-29T10:24:15.000Z</time>
      </trkpt>
      <trkpt lat="50.34543" lon="4.26515">
        <ele>128.19999694824</ele>
        <time>2014-12-29T10:24:21.000Z</time>
      </trkpt>
      <trkpt lat="50.34542" lon="4.26514">
        <ele>128</ele>
        <time>2014-12-29T10:24:23.000Z</time>
      </trkpt>
      <trkpt lat="50.34541" lon="4.26513">
        <ele>127.80000305176</ele>
        <time>2014-12-29T10:24:25.000Z</time>
      </trkpt>
      <trkpt lat="50.34532" lon="4.26512">
        <ele>127</ele>
        <time>2014-12-29T10:24:31.000Z</time>
      </trkpt>
      <trkpt lat="50.3452" lon="4.26506">
        <ele>125.59999847412</ele>
        <time>2014-12-29T10:24:37.000Z</time>
      </trkpt>
      <trkpt lat="50.34507" lon="4.26499">
        <ele>124</ele>
        <time>2014-12-29T10:24:46.000Z</time>
      </trkpt>
      <trkpt lat="50.34501" lon="4.26495">
        <ele>123.19999694824</ele>
        <time>2014-12-29T10:24:52.000Z</time>
      </trkpt>
      <trkpt lat="50.34491" lon="4.26488">
        <ele>122</ele>
        <time>2014-12-29T10:25:01.000Z</time>
      </trkpt>
      <trkpt lat="50.34483" lon="4.26483">
        <ele>121</ele>
        <time>2014-12-29T10:25:08.000Z</time>
      </trkpt>
      <trkpt lat="50.34472" lon="4.26478">
        <ele>119.80000305176</ele>
        <time>2014-12-29T10:25:17.000Z</time>
      </trkpt>
      <trkpt lat="50.34461" lon="4.26471">
        <ele>118.80000305176</ele>
        <time>2014-12-29T10:25:27.000Z</time>
      </trkpt>
      <trkpt lat="50.3446" lon="4.26469">
        <ele>118.80000305176</ele>
        <time>2014-12-29T10:25:28.000Z</time>
      </trkpt>
      <trkpt lat="50.34459" lon="4.26467">
        <ele>118.80000305176</ele>
        <time>2014-12-29T10:25:32.000Z</time>
      </trkpt>
      <trkpt lat="50.3446" lon="4.26458">
        <ele>119</ele>
        <time>2014-12-29T10:25:37.000Z</time>
      </trkpt>
      <trkpt lat="50.34458" lon="4.26454">
        <ele>119</ele>
        <time>2014-12-29T10:25:42.000Z</time>
      </trkpt>
      <trkpt lat="50.34458" lon="4.26454">
        <ele>119</ele>
        <time>2014-12-29T10:25:52.000Z</time>
      </trkpt>
      <trkpt lat="50.3446" lon="4.26456">
        <ele>119</ele>
        <time>2014-12-29T10:26:13.000Z</time>
      </trkpt>
      <trkpt lat="50.34459" lon="4.26455">
        <ele>119</ele>
        <time>2014-12-29T10:26:18.000Z</time>
      </trkpt>
      <trkpt lat="50.34461" lon="4.26456">
        <ele>119</ele>
        <time>2014-12-29T10:26:25.000Z</time>
      </trkpt>
      <trkpt lat="50.34456" lon="4.26454">
        <ele>119.19999694824</ele>
        <time>2014-12-29T10:26:31.000Z</time>
      </trkpt>
      <trkpt lat="50.34455" lon="4.26452">
        <ele>119.19999694824</ele>
        <time>2014-12-29T10:26:36.000Z</time>
      </trkpt>
      <trkpt lat="50.34457" lon="4.26452">
        <ele>119.19999694824</ele>
        <time>2014-12-29T10:26:56.000Z</time>
      </trkpt>
      <trkpt lat="50.34453" lon="4.26451">
        <ele>119.19999694824</ele>
        <time>2014-12-29T10:27:09.000Z</time>
      </trkpt>
      <trkpt lat="50.34447" lon="4.26447">
        <ele>119.40000152588</ele>
        <time>2014-12-29T10:27:17.000Z</time>
      </trkpt>
      <trkpt lat="50.34437" lon="4.26442">
        <ele>119.80000305176</ele>
        <time>2014-12-29T10:27:28.000Z</time>
      </trkpt>
      <trkpt lat="50.34424" lon="4.26435">
        <ele>120.19999694824</ele>
        <time>2014-12-29T10:27:40.000Z</time>
      </trkpt>
      <trkpt lat="50.3442" lon="4.26433">
        <ele>120.40000152588</ele>
        <time>2014-12-29T10:27:44.000Z</time>
      </trkpt>
      <trkpt lat="50.34417" lon="4.26424">
        <ele>120.59999847412</ele>
        <time>2014-12-29T10:27:50.000Z</time>
      </trkpt>
      <trkpt lat="50.34421" lon="4.26412">
        <ele>120.80000305176</ele>
        <time>2014-12-29T10:27:58.000Z</time>
      </trkpt>
      <trkpt lat="50.34422" lon="4.26408">
        <ele>121</ele>
        <time>2014-12-29T10:28:00.000Z</time>
      </trkpt>
      <trkpt lat="50.34424" lon="4.26396">
        <ele>121</ele>
        <time>2014-12-29T10:28:08.000Z</time>
      </trkpt>
      <trkpt lat="50.34427" lon="4.26385">
        <ele>121</ele>
        <time>2014-12-29T10:28:15.000Z</time>
      </trkpt>
      <trkpt lat="50.34428" lon="4.26376">
        <ele>121.19999694824</ele>
        <time>2014-12-29T10:28:20.000Z</time>
      </trkpt>
      <trkpt lat="50.34424" lon="4.26372">
        <ele>121.40000152588</ele>
        <time>2014-12-29T10:28:24.000Z</time>
      </trkpt>
      <trkpt lat="50.34417" lon="4.26362">
        <ele>121.80000305176</ele>
        <time>2014-12-29T10:28:32.000Z</time>
      </trkpt>
      <trkpt lat="50.34412" lon="4.26351">
        <ele>123.19999694824</ele>
        <time>2014-12-29T10:28:39.000Z</time>
      </trkpt>
      <trkpt lat="50.34408" lon="4.26336">
        <ele>125</ele>
        <time>2014-12-29T10:28:47.000Z</time>
      </trkpt>
      <trkpt lat="50.34406" lon="4.26321">
        <ele>126.59999847412</ele>
        <time>2014-12-29T10:28:55.000Z</time>
      </trkpt>
      <trkpt lat="50.34404" lon="4.26308">
        <ele>128.19999694824</ele>
        <time>2014-12-29T10:29:02.000Z</time>
      </trkpt>
      <trkpt lat="50.34402" lon="4.26303">
        <ele>128.80000305176</ele>
        <time>2014-12-29T10:29:05.000Z</time>
      </trkpt>
      <trkpt lat="50.34401" lon="4.26297">
        <ele>129.19999694824</ele>
        <time>2014-12-29T10:29:12.000Z</time>
      </trkpt>
      <trkpt lat="50.34399" lon="4.26291">
        <ele>129.60000610352</ele>
        <time>2014-12-29T10:29:16.000Z</time>
      </trkpt>
      <trkpt lat="50.34396" lon="4.26282">
        <ele>130.39999389648</ele>
        <time>2014-12-29T10:29:21.000Z</time>
      </trkpt>
      <trkpt lat="50.34396" lon="4.26278">
        <ele>130.80000305176</ele>
        <time>2014-12-29T10:29:23.000Z</time>
      </trkpt>
      <trkpt lat="50.34392" lon="4.2626">
        <ele>132.80000305176</ele>
        <time>2014-12-29T10:29:32.000Z</time>
      </trkpt>
      <trkpt lat="50.34391" lon="4.26258">
        <ele>133</ele>
        <time>2014-12-29T10:29:33.000Z</time>
      </trkpt>
      <trkpt lat="50.34388" lon="4.26248">
        <ele>134.39999389648</ele>
        <time>2014-12-29T10:29:39.000Z</time>
      </trkpt>
      <trkpt lat="50.34387" lon="4.26245">
        <ele>134.80000305176</ele>
        <time>2014-12-29T10:29:41.000Z</time>
      </trkpt>
      <trkpt lat="50.34385" lon="4.26241">
        <ele>135.19999694824</ele>
        <time>2014-12-29T10:29:50.000Z</time>
      </trkpt>
      <trkpt lat="50.34381" lon="4.26229">
        <ele>136.80000305176</ele>
        <time>2014-12-29T10:30:00.000Z</time>
      </trkpt>
      <trkpt lat="50.34379" lon="4.26224">
        <ele>137.19999694824</ele>
        <time>2014-12-29T10:30:03.000Z</time>
      </trkpt>
      <trkpt lat="50.34375" lon="4.26216">
        <ele>138</ele>
        <time>2014-12-29T10:30:10.000Z</time>
      </trkpt>
      <trkpt lat="50.34373" lon="4.26213">
        <ele>138.19999694824</ele>
        <time>2014-12-29T10:30:13.000Z</time>
      </trkpt>
      <trkpt lat="50.34372" lon="4.26209">
        <ele>138.60000610352</ele>
        <time>2014-12-29T10:30:19.000Z</time>
      </trkpt>
      <trkpt lat="50.3437" lon="4.26205">
        <ele>139</ele>
        <time>2014-12-29T10:30:31.000Z</time>
      </trkpt>
      <trkpt lat="50.34367" lon="4.26199">
        <ele>139.60000610352</ele>
        <time>2014-12-29T10:30:37.000Z</time>
      </trkpt>
      <trkpt lat="50.34364" lon="4.26195">
        <ele>140</ele>
        <time>2014-12-29T10:30:41.000Z</time>
      </trkpt>
      <trkpt lat="50.34362" lon="4.26191">
        <ele>140.60000610352</ele>
        <time>2014-12-29T10:30:46.000Z</time>
      </trkpt>
      <trkpt lat="50.34358" lon="4.26186">
        <ele>141.19999694824</ele>
        <time>2014-12-29T10:31:03.000Z</time>
      </trkpt>
      <trkpt lat="50.34355" lon="4.26182">
        <ele>141.80000305176</ele>
        <time>2014-12-29T10:31:09.000Z</time>
      </trkpt>
      <trkpt lat="50.34352" lon="4.26175">
        <ele>142.60000610352</ele>
        <time>2014-12-29T10:31:16.000Z</time>
      </trkpt>
      <trkpt lat="50.3435" lon="4.26173">
        <ele>143</ele>
        <time>2014-12-29T10:31:21.000Z</time>
      </trkpt>
      <trkpt lat="50.34347" lon="4.26169">
        <ele>143.39999389648</ele>
        <time>2014-12-29T10:31:28.000Z</time>
      </trkpt>
      <trkpt lat="50.34344" lon="4.26163">
        <ele>144.19999694824</ele>
        <time>2014-12-29T10:31:42.000Z</time>
      </trkpt>
      <trkpt lat="50.34343" lon="4.26159">
        <ele>145</ele>
        <time>2014-12-29T10:32:05.000Z</time>
      </trkpt>
      <trkpt lat="50.34342" lon="4.26159">
        <ele>144.80000305176</ele>
        <time>2014-12-29T10:32:17.000Z</time>
      </trkpt>
      <trkpt lat="50.34341" lon="4.26158">
        <ele>145</ele>
        <time>2014-12-29T10:32:23.000Z</time>
      </trkpt>
      <trkpt lat="50.34338" lon="4.26153">
        <ele>145.60000610352</ele>
        <time>2014-12-29T10:32:29.000Z</time>
      </trkpt>
      <trkpt lat="50.34335" lon="4.26145">
        <ele>146.60000610352</ele>
        <time>2014-12-29T10:32:35.000Z</time>
      </trkpt>
      <trkpt lat="50.34334" lon="4.26142">
        <ele>147</ele>
        <time>2014-12-29T10:32:37.000Z</time>
      </trkpt>
      <trkpt lat="50.34332" lon="4.26136">
        <ele>148</ele>
        <time>2014-12-29T10:32:41.000Z</time>
      </trkpt>
      <trkpt lat="50.34331" lon="4.26128">
        <ele>149</ele>
        <time>2014-12-29T10:32:46.000Z</time>
      </trkpt>
      <trkpt lat="50.34329" lon="4.26117">
        <ele>150.60000610352</ele>
        <time>2014-12-29T10:32:53.000Z</time>
      </trkpt>
      <trkpt lat="50.34327" lon="4.26109">
        <ele>151.60000610352</ele>
        <time>2014-12-29T10:32:58.000Z</time>
      </trkpt>
      <trkpt lat="50.34328" lon="4.26109">
        <ele>151.39999389648</ele>
        <time>2014-12-29T10:33:11.000Z</time>
      </trkpt>
      <trkpt lat="50.34325" lon="4.26108">
        <ele>151.60000610352</ele>
        <time>2014-12-29T10:33:17.000Z</time>
      </trkpt>
      <trkpt lat="50.34321" lon="4.26107">
        <ele>151.80000305176</ele>
        <time>2014-12-29T10:33:22.000Z</time>
      </trkpt>
      <trkpt lat="50.34315" lon="4.26108">
        <ele>151.60000610352</ele>
        <time>2014-12-29T10:33:28.000Z</time>
      </trkpt>
      <trkpt lat="50.3431" lon="4.26108">
        <ele>151.60000610352</ele>
        <time>2014-12-29T10:33:36.000Z</time>
      </trkpt>
      <trkpt lat="50.34304" lon="4.26106">
        <ele>151.80000305176</ele>
        <time>2014-12-29T10:33:42.000Z</time>
      </trkpt>
      <trkpt lat="50.34301" lon="4.26106">
        <ele>151.80000305176</ele>
        <time>2014-12-29T10:33:45.000Z</time>
      </trkpt>
      <trkpt lat="50.34297" lon="4.26105">
        <ele>152</ele>
        <time>2014-12-29T10:33:49.000Z</time>
      </trkpt>
      <trkpt lat="50.34286" lon="4.26103">
        <ele>151.39999389648</ele>
        <time>2014-12-29T10:34:00.000Z</time>
      </trkpt>
      <trkpt lat="50.3428" lon="4.26101">
        <ele>151.39999389648</ele>
        <time>2014-12-29T10:34:07.000Z</time>
      </trkpt>
      <trkpt lat="50.34278" lon="4.26101">
        <ele>151.39999389648</ele>
        <time>2014-12-29T10:34:09.000Z</time>
      </trkpt>
      <trkpt lat="50.34276" lon="4.26098">
        <ele>151.60000610352</ele>
        <time>2014-12-29T10:34:15.000Z</time>
      </trkpt>
      <trkpt lat="50.34273" lon="4.26092">
        <ele>152</ele>
        <time>2014-12-29T10:34:31.000Z</time>
      </trkpt>
      <trkpt lat="50.34272" lon="4.26083">
        <ele>152.80000305176</ele>
        <time>2014-12-29T10:34:42.000Z</time>
      </trkpt>
      <trkpt lat="50.34269" lon="4.26067">
        <ele>154.60000610352</ele>
        <time>2014-12-29T10:34:52.000Z</time>
      </trkpt>
      <trkpt lat="50.34269" lon="4.26066">
        <ele>154.80000305176</ele>
        <time>2014-12-29T10:34:53.000Z</time>
      </trkpt>
      <trkpt lat="50.34265" lon="4.26054">
        <ele>156</ele>
        <time>2014-12-29T10:35:01.000Z</time>
      </trkpt>
      <trkpt lat="50.34261" lon="4.2604">
        <ele>157.60000610352</ele>
        <time>2014-12-29T10:35:10.000Z</time>
      </trkpt>
      <trkpt lat="50.34256" lon="4.26025">
        <ele>158.60000610352</ele>
        <time>2014-12-29T10:35:19.000Z</time>
      </trkpt>
      <trkpt lat="50.3425" lon="4.26016">
        <ele>158.19999694824</ele>
        <time>2014-12-29T10:35:27.000Z</time>
      </trkpt>
      <trkpt lat="50.34243" lon="4.26007">
        <ele>157.60000610352</ele>
        <time>2014-12-29T10:35:35.000Z</time>
      </trkpt>
      <trkpt lat="50.34232" lon="4.25998">
        <ele>156.80000305176</ele>
        <time>2014-12-29T10:35:45.000Z</time>
      </trkpt>
      <trkpt lat="50.34221" lon="4.2599">
        <ele>156</ele>
        <time>2014-12-29T10:35:55.000Z</time>
      </trkpt>
      <trkpt lat="50.34212" lon="4.25984">
        <ele>155.60000610352</ele>
        <time>2014-12-29T10:36:03.000Z</time>
      </trkpt>
      <trkpt lat="50.34203" lon="4.25979">
        <ele>156</ele>
        <time>2014-12-29T10:36:11.000Z</time>
      </trkpt>
      <trkpt lat="50.34195" lon="4.25974">
        <ele>156.39999389648</ele>
        <time>2014-12-29T10:36:19.000Z</time>
      </trkpt>
      <trkpt lat="50.34186" lon="4.25966">
        <ele>156.80000305176</ele>
        <time>2014-12-29T10:36:27.000Z</time>
      </trkpt>
      <trkpt lat="50.34178" lon="4.25955">
        <ele>157.19999694824</ele>
        <time>2014-12-29T10:36:36.000Z</time>
      </trkpt>
      <trkpt lat="50.3417" lon="4.25944">
        <ele>157.60000610352</ele>
        <time>2014-12-29T10:36:45.000Z</time>
      </trkpt>
      <trkpt lat="50.34162" lon="4.2593">
        <ele>157.80000305176</ele>
        <time>2014-12-29T10:36:55.000Z</time>
      </trkpt>
      <trkpt lat="50.34155" lon="4.25912">
        <ele>158.19999694824</ele>
        <time>2014-12-29T10:37:07.000Z</time>
      </trkpt>
      <trkpt lat="50.3415" lon="4.25897">
        <ele>158.39999389648</ele>
        <time>2014-12-29T10:37:16.000Z</time>
      </trkpt>
      <trkpt lat="50.34143" lon="4.2588">
        <ele>158.60000610352</ele>
        <time>2014-12-29T10:37:26.000Z</time>
      </trkpt>
      <trkpt lat="50.34136" lon="4.25867">
        <ele>158.80000305176</ele>
        <time>2014-12-29T10:37:35.000Z</time>
      </trkpt>
      <trkpt lat="50.34129" lon="4.25857">
        <ele>158.80000305176</ele>
        <time>2014-12-29T10:37:42.000Z</time>
      </trkpt>
      <trkpt lat="50.3412" lon="4.25843">
        <ele>158.80000305176</ele>
        <time>2014-12-29T10:37:52.000Z</time>
      </trkpt>
      <trkpt lat="50.34103" lon="4.25824">
        <ele>158.80000305176</ele>
        <time>2014-12-29T10:38:09.000Z</time>
      </trkpt>
      <trkpt lat="50.34092" lon="4.25812">
        <ele>158.80000305176</ele>
        <time>2014-12-29T10:38:19.000Z</time>
      </trkpt>
      <trkpt lat="50.34085" lon="4.25805">
        <ele>158.80000305176</ele>
        <time>2014-12-29T10:38:26.000Z</time>
      </trkpt>
      <trkpt lat="50.34077" lon="4.25796">
        <ele>158.60000610352</ele>
        <time>2014-12-29T10:38:34.000Z</time>
      </trkpt>
      <trkpt lat="50.34071" lon="4.25788">
        <ele>158.60000610352</ele>
        <time>2014-12-29T10:38:40.000Z</time>
      </trkpt>
      <trkpt lat="50.34068" lon="4.25783">
        <ele>158.60000610352</ele>
        <time>2014-12-29T10:38:44.000Z</time>
      </trkpt>
      <trkpt lat="50.34065" lon="4.25779">
        <ele>158.60000610352</ele>
        <time>2014-12-29T10:38:47.000Z</time>
      </trkpt>
      <trkpt lat="50.34054" lon="4.25769">
        <ele>158.80000305176</ele>
        <time>2014-12-29T10:38:56.000Z</time>
      </trkpt>
      <trkpt lat="50.34041" lon="4.25754">
        <ele>158.60000610352</ele>
        <time>2014-12-29T10:39:09.000Z</time>
      </trkpt>
      <trkpt lat="50.34028" lon="4.25743">
        <ele>158.60000610352</ele>
        <time>2014-12-29T10:39:20.000Z</time>
      </trkpt>
      <trkpt lat="50.34018" lon="4.25737">
        <ele>158.39999389648</ele>
        <time>2014-12-29T10:39:29.000Z</time>
      </trkpt>
      <trkpt lat="50.34008" lon="4.25742">
        <ele>158.60000610352</ele>
        <time>2014-12-29T10:39:37.000Z</time>
      </trkpt>
      <trkpt lat="50.34007" lon="4.25743">
        <ele>158.60000610352</ele>
        <time>2014-12-29T10:39:38.000Z</time>
      </trkpt>
      <trkpt lat="50.34006" lon="4.25755">
        <ele>159</ele>
        <time>2014-12-29T10:39:45.000Z</time>
      </trkpt>
      <trkpt lat="50.34003" lon="4.25769">
        <ele>159.19999694824</ele>
        <time>2014-12-29T10:39:52.000Z</time>
      </trkpt>
      <trkpt lat="50.34" lon="4.25789">
        <ele>159.80000305176</ele>
        <time>2014-12-29T10:40:02.000Z</time>
      </trkpt>
      <trkpt lat="50.33995" lon="4.25806">
        <ele>160.19999694824</ele>
        <time>2014-12-29T10:40:11.000Z</time>
      </trkpt>
      <trkpt lat="50.33991" lon="4.25824">
        <ele>161</ele>
        <time>2014-12-29T10:40:21.000Z</time>
      </trkpt>
      <trkpt lat="50.33987" lon="4.25837">
        <ele>161.60000610352</ele>
        <time>2014-12-29T10:40:29.000Z</time>
      </trkpt>
      <trkpt lat="50.33984" lon="4.25848">
        <ele>162</ele>
        <time>2014-12-29T10:40:36.000Z</time>
      </trkpt>
      <trkpt lat="50.33981" lon="4.25861">
        <ele>162.60000610352</ele>
        <time>2014-12-29T10:40:44.000Z</time>
      </trkpt>
      <trkpt lat="50.33977" lon="4.25877">
        <ele>162.80000305176</ele>
        <time>2014-12-29T10:40:53.000Z</time>
      </trkpt>
      <trkpt lat="50.33973" lon="4.25896">
        <ele>163.19999694824</ele>
        <time>2014-12-29T10:41:04.000Z</time>
      </trkpt>
      <trkpt lat="50.33969" lon="4.2591">
        <ele>163.39999389648</ele>
        <time>2014-12-29T10:41:12.000Z</time>
      </trkpt>
      <trkpt lat="50.33964" lon="4.25928">
        <ele>163.80000305176</ele>
        <time>2014-12-29T10:41:22.000Z</time>
      </trkpt>
      <trkpt lat="50.33962" lon="4.25933">
        <ele>163.80000305176</ele>
        <time>2014-12-29T10:41:27.000Z</time>
      </trkpt>
      <trkpt lat="50.33959" lon="4.25944">
        <ele>163.80000305176</ele>
        <time>2014-12-29T10:41:33.000Z</time>
      </trkpt>
      <trkpt lat="50.33957" lon="4.25957">
        <ele>164</ele>
        <time>2014-12-29T10:41:40.000Z</time>
      </trkpt>
      <trkpt lat="50.33953" lon="4.25973">
        <ele>164</ele>
        <time>2014-12-29T10:41:49.000Z</time>
      </trkpt>
      <trkpt lat="50.33948" lon="4.25992">
        <ele>164.19999694824</ele>
        <time>2014-12-29T10:41:59.000Z</time>
      </trkpt>
      <trkpt lat="50.33945" lon="4.26009">
        <ele>164.19999694824</ele>
        <time>2014-12-29T10:42:08.000Z</time>
      </trkpt>
      <trkpt lat="50.33945" lon="4.26008">
        <ele>164.19999694824</ele>
        <time>2014-12-29T10:42:11.000Z</time>
      </trkpt>
      <trkpt lat="50.33945" lon="4.2601">
        <ele>164.19999694824</ele>
        <time>2014-12-29T10:42:12.000Z</time>
      </trkpt>
      <trkpt lat="50.33942" lon="4.26019">
        <ele>164.39999389648</ele>
        <time>2014-12-29T10:42:17.000Z</time>
      </trkpt>
      <trkpt lat="50.33938" lon="4.26036">
        <ele>164.19999694824</ele>
        <time>2014-12-29T10:42:26.000Z</time>
      </trkpt>
      <trkpt lat="50.33936" lon="4.26043">
        <ele>164</ele>
        <time>2014-12-29T10:42:31.000Z</time>
      </trkpt>
      <trkpt lat="50.3393" lon="4.26065">
        <ele>163.39999389648</ele>
        <time>2014-12-29T10:42:43.000Z</time>
      </trkpt>
      <trkpt lat="50.33926" lon="4.2608">
        <ele>163</ele>
        <time>2014-12-29T10:42:51.000Z</time>
      </trkpt>
      <trkpt lat="50.33923" lon="4.26097">
        <ele>163</ele>
        <time>2014-12-29T10:43:00.000Z</time>
      </trkpt>
      <trkpt lat="50.33918" lon="4.26118">
        <ele>162.80000305176</ele>
        <time>2014-12-29T10:43:12.000Z</time>
      </trkpt>
      <trkpt lat="50.33915" lon="4.26136">
        <ele>162.19999694824</ele>
        <time>2014-12-29T10:43:22.000Z</time>
      </trkpt>
      <trkpt lat="50.33913" lon="4.26146">
        <ele>161.80000305176</ele>
        <time>2014-12-29T10:43:27.000Z</time>
      </trkpt>
      <trkpt lat="50.33912" lon="4.2615">
        <ele>161.80000305176</ele>
        <time>2014-12-29T10:43:32.000Z</time>
      </trkpt>
      <trkpt lat="50.3391" lon="4.26163">
        <ele>161.60000610352</ele>
        <time>2014-12-29T10:43:39.000Z</time>
      </trkpt>
      <trkpt lat="50.33908" lon="4.2618">
        <ele>161.60000610352</ele>
        <time>2014-12-29T10:43:48.000Z</time>
      </trkpt>
      <trkpt lat="50.33908" lon="4.26191">
        <ele>161.39999389648</ele>
        <time>2014-12-29T10:43:55.000Z</time>
      </trkpt>
      <trkpt lat="50.33914" lon="4.26211">
        <ele>161.19999694824</ele>
        <time>2014-12-29T10:44:06.000Z</time>
      </trkpt>
      <trkpt lat="50.33923" lon="4.26231">
        <ele>161</ele>
        <time>2014-12-29T10:44:18.000Z</time>
      </trkpt>
      <trkpt lat="50.3393" lon="4.26245">
        <ele>160.80000305176</ele>
        <time>2014-12-29T10:44:28.000Z</time>
      </trkpt>
      <trkpt lat="50.33933" lon="4.26256">
        <ele>160.80000305176</ele>
        <time>2014-12-29T10:44:34.000Z</time>
      </trkpt>
      <trkpt lat="50.33939" lon="4.26269">
        <ele>160.60000610352</ele>
        <time>2014-12-29T10:44:42.000Z</time>
      </trkpt>
      <trkpt lat="50.33945" lon="4.26284">
        <ele>160.39999389648</ele>
        <time>2014-12-29T10:44:51.000Z</time>
      </trkpt>
      <trkpt lat="50.33954" lon="4.26305">
        <ele>160.19999694824</ele>
        <time>2014-12-29T10:45:04.000Z</time>
      </trkpt>
      <trkpt lat="50.33963" lon="4.26325">
        <ele>160</ele>
        <time>2014-12-29T10:45:17.000Z</time>
      </trkpt>
      <trkpt lat="50.33968" lon="4.26337">
        <ele>159.80000305176</ele>
        <time>2014-12-29T10:45:25.000Z</time>
      </trkpt>
      <trkpt lat="50.33968" lon="4.26338">
        <ele>159.80000305176</ele>
        <time>2014-12-29T10:45:26.000Z</time>
      </trkpt>
      <trkpt lat="50.33973" lon="4.26349">
        <ele>159.39999389648</ele>
        <time>2014-12-29T10:45:34.000Z</time>
      </trkpt>
      <trkpt lat="50.3398" lon="4.26363">
        <ele>158.80000305176</ele>
        <time>2014-12-29T10:45:44.000Z</time>
      </trkpt>
      <trkpt lat="50.33987" lon="4.26375">
        <ele>157.80000305176</ele>
        <time>2014-12-29T10:45:54.000Z</time>
      </trkpt>
      <trkpt lat="50.33991" lon="4.26383">
        <ele>157</ele>
        <time>2014-12-29T10:46:01.000Z</time>
      </trkpt>
      <trkpt lat="50.34" lon="4.26398">
        <ele>155.80000305176</ele>
        <time>2014-12-29T10:46:12.000Z</time>
      </trkpt>
      <trkpt lat="50.34007" lon="4.26409">
        <ele>154.80000305176</ele>
        <time>2014-12-29T10:46:20.000Z</time>
      </trkpt>
      <trkpt lat="50.34013" lon="4.26422">
        <ele>154</ele>
        <time>2014-12-29T10:46:30.000Z</time>
      </trkpt>
      <trkpt lat="50.34014" lon="4.26423">
        <ele>154</ele>
        <time>2014-12-29T10:46:31.000Z</time>
      </trkpt>
      <trkpt lat="50.34016" lon="4.26426">
        <ele>153.80000305176</ele>
        <time>2014-12-29T10:46:34.000Z</time>
      </trkpt>
      <trkpt lat="50.34017" lon="4.26426">
        <ele>153.60000610352</ele>
        <time>2014-12-29T10:46:36.000Z</time>
      </trkpt>
      <trkpt lat="50.34015" lon="4.26426">
        <ele>153.80000305176</ele>
        <time>2014-12-29T10:46:41.000Z</time>
      </trkpt>
      <trkpt lat="50.34015" lon="4.26425">
        <ele>153.80000305176</ele>
        <time>2014-12-29T10:46:48.000Z</time>
      </trkpt>
      <trkpt lat="50.34012" lon="4.26416">
        <ele>154.19999694824</ele>
        <time>2014-12-29T10:48:07.000Z</time>
      </trkpt>
      <trkpt lat="50.3401" lon="4.26413">
        <ele>154.39999389648</ele>
        <time>2014-12-29T10:48:13.000Z</time>
      </trkpt>
      <trkpt lat="50.34015" lon="4.2642">
        <ele>153.80000305176</ele>
        <time>2014-12-29T10:48:19.000Z</time>
      </trkpt>
      <trkpt lat="50.34015" lon="4.26423">
        <ele>153.80000305176</ele>
        <time>2014-12-29T10:48:27.000Z</time>
      </trkpt>
      <trkpt lat="50.34018" lon="4.26426">
        <ele>153.60000610352</ele>
        <time>2014-12-29T10:48:59.000Z</time>
      </trkpt>
      <trkpt lat="50.34018" lon="4.26428">
        <ele>153.60000610352</ele>
        <time>2014-12-29T10:49:07.000Z</time>
      </trkpt>
      <trkpt lat="50.34018" lon="4.2643">
        <ele>153.39999389648</ele>
        <time>2014-12-29T10:49:13.000Z</time>
      </trkpt>
      <trkpt lat="50.34019" lon="4.2643">
        <ele>153.39999389648</ele>
        <time>2014-12-29T10:49:26.000Z</time>
      </trkpt>
      <trkpt lat="50.34019" lon="4.2643">
        <ele>153.39999389648</ele>
        <time>2014-12-29T10:50:11.000Z</time>
      </trkpt>
      <trkpt lat="50.34018" lon="4.26427">
        <ele>153.39999389648</ele>
        <time>2014-12-29T10:51:13.000Z</time>
      </trkpt>
      <trkpt lat="50.34017" lon="4.26425">
        <ele>153.60000610352</ele>
        <time>2014-12-29T10:51:27.000Z</time>
      </trkpt>
      <trkpt lat="50.34017" lon="4.26422">
        <ele>153.60000610352</ele>
        <time>2014-12-29T10:51:35.000Z</time>
      </trkpt>
      <trkpt lat="50.34018" lon="4.26424">
        <ele>153.60000610352</ele>
        <time>2014-12-29T10:52:19.000Z</time>
      </trkpt>
      <trkpt lat="50.34016" lon="4.2643">
        <ele>153.80000305176</ele>
        <time>2014-12-29T10:52:25.000Z</time>
      </trkpt>
      <trkpt lat="50.34017" lon="4.26437">
        <ele>153.60000610352</ele>
        <time>2014-12-29T10:52:29.000Z</time>
      </trkpt>
      <trkpt lat="50.34018" lon="4.26454">
        <ele>153.19999694824</ele>
        <time>2014-12-29T10:52:37.000Z</time>
      </trkpt>
      <trkpt lat="50.34016" lon="4.26471">
        <ele>152.60000610352</ele>
        <time>2014-12-29T10:52:45.000Z</time>
      </trkpt>
      <trkpt lat="50.34014" lon="4.2649">
        <ele>152</ele>
        <time>2014-12-29T10:52:54.000Z</time>
      </trkpt>
      <trkpt lat="50.34011" lon="4.26511">
        <ele>152.19999694824</ele>
        <time>2014-12-29T10:53:05.000Z</time>
      </trkpt>
      <trkpt lat="50.34006" lon="4.2653">
        <ele>153</ele>
        <time>2014-12-29T10:53:15.000Z</time>
      </trkpt>
      <trkpt lat="50.34" lon="4.26552">
        <ele>152.80000305176</ele>
        <time>2014-12-29T10:53:27.000Z</time>
      </trkpt>
      <trkpt lat="50.33996" lon="4.26569">
        <ele>153.19999694824</ele>
        <time>2014-12-29T10:53:36.000Z</time>
      </trkpt>
      <trkpt lat="50.33992" lon="4.26584">
        <ele>153.80000305176</ele>
        <time>2014-12-29T10:53:44.000Z</time>
      </trkpt>
      <trkpt lat="50.33988" lon="4.26604">
        <ele>155</ele>
        <time>2014-12-29T10:53:55.000Z</time>
      </trkpt>
      <trkpt lat="50.33983" lon="4.26627">
        <ele>155.39999389648</ele>
        <time>2014-12-29T10:54:07.000Z</time>
      </trkpt>
      <trkpt lat="50.33979" lon="4.26645">
        <ele>155.80000305176</ele>
        <time>2014-12-29T10:54:16.000Z</time>
      </trkpt>
      <trkpt lat="50.33977" lon="4.26661">
        <ele>156.19999694824</ele>
        <time>2014-12-29T10:54:24.000Z</time>
      </trkpt>
      <trkpt lat="50.33975" lon="4.26679">
        <ele>156.39999389648</ele>
        <time>2014-12-29T10:54:33.000Z</time>
      </trkpt>
      <trkpt lat="50.33975" lon="4.26695">
        <ele>156.39999389648</ele>
        <time>2014-12-29T10:54:41.000Z</time>
      </trkpt>
      <trkpt lat="50.33975" lon="4.26698">
        <ele>156.19999694824</ele>
        <time>2014-12-29T10:54:42.000Z</time>
      </trkpt>
      <trkpt lat="50.33977" lon="4.26706">
        <ele>155.39999389648</ele>
        <time>2014-12-29T10:54:46.000Z</time>
      </trkpt>
      <trkpt lat="50.33979" lon="4.26722">
        <ele>154.39999389648</ele>
        <time>2014-12-29T10:54:54.000Z</time>
      </trkpt>
      <trkpt lat="50.33985" lon="4.26729">
        <ele>153</ele>
        <time>2014-12-29T10:54:59.000Z</time>
      </trkpt>
      <trkpt lat="50.33987" lon="4.26746">
        <ele>152</ele>
        <time>2014-12-29T10:55:08.000Z</time>
      </trkpt>
      <trkpt lat="50.33987" lon="4.26763">
        <ele>151.80000305176</ele>
        <time>2014-12-29T10:55:17.000Z</time>
      </trkpt>
      <trkpt lat="50.33988" lon="4.26778">
        <ele>151.60000610352</ele>
        <time>2014-12-29T10:55:24.000Z</time>
      </trkpt>
      <trkpt lat="50.33988" lon="4.2678">
        <ele>151.39999389648</ele>
        <time>2014-12-29T10:55:25.000Z</time>
      </trkpt>
      <trkpt lat="50.33988" lon="4.26785">
        <ele>151.19999694824</ele>
        <time>2014-12-29T10:55:30.000Z</time>
      </trkpt>
      <trkpt lat="50.33989" lon="4.26794">
        <ele>150.60000610352</ele>
        <time>2014-12-29T10:55:35.000Z</time>
      </trkpt>
      <trkpt lat="50.3399" lon="4.26812">
        <ele>149.80000305176</ele>
        <time>2014-12-29T10:55:44.000Z</time>
      </trkpt>
      <trkpt lat="50.3399" lon="4.2683">
        <ele>149.80000305176</ele>
        <time>2014-12-29T10:55:53.000Z</time>
      </trkpt>
      <trkpt lat="50.33989" lon="4.26848">
        <ele>149.60000610352</ele>
        <time>2014-12-29T10:56:02.000Z</time>
      </trkpt>
      <trkpt lat="50.3399" lon="4.26863">
        <ele>149.39999389648</ele>
        <time>2014-12-29T10:56:10.000Z</time>
      </trkpt>
      <trkpt lat="50.3399" lon="4.26867">
        <ele>149.60000610352</ele>
        <time>2014-12-29T10:56:12.000Z</time>
      </trkpt>
      <trkpt lat="50.33985" lon="4.26878">
        <ele>152</ele>
        <time>2014-12-29T10:56:19.000Z</time>
      </trkpt>
      <trkpt lat="50.33984" lon="4.26883">
        <ele>152.80000305176</ele>
        <time>2014-12-29T10:56:22.000Z</time>
      </trkpt>
      <trkpt lat="50.33984" lon="4.26899">
        <ele>153.60000610352</ele>
        <time>2014-12-29T10:56:32.000Z</time>
      </trkpt>
      <trkpt lat="50.33984" lon="4.26911">
        <ele>154</ele>
        <time>2014-12-29T10:56:38.000Z</time>
      </trkpt>
      <trkpt lat="50.33984" lon="4.26927">
        <ele>154.60000610352</ele>
        <time>2014-12-29T10:56:47.000Z</time>
      </trkpt>
      <trkpt lat="50.33983" lon="4.26933">
        <ele>155</ele>
        <time>2014-12-29T10:56:53.000Z</time>
      </trkpt>
      <trkpt lat="50.33983" lon="4.26938">
        <ele>155.19999694824</ele>
        <time>2014-12-29T10:57:00.000Z</time>
      </trkpt>
      <trkpt lat="50.33988" lon="4.2695">
        <ele>154.60000610352</ele>
        <time>2014-12-29T10:57:26.000Z</time>
      </trkpt>
      <trkpt lat="50.33987" lon="4.26951">
        <ele>155</ele>
        <time>2014-12-29T10:57:32.000Z</time>
      </trkpt>
      <trkpt lat="50.33984" lon="4.26957">
        <ele>156.60000610352</ele>
        <time>2014-12-29T10:57:37.000Z</time>
      </trkpt>
      <trkpt lat="50.3398" lon="4.2697">
        <ele>158.19999694824</ele>
        <time>2014-12-29T10:57:44.000Z</time>
      </trkpt>
      <trkpt lat="50.33976" lon="4.26984">
        <ele>159.39999389648</ele>
        <time>2014-12-29T10:57:52.000Z</time>
      </trkpt>
      <trkpt lat="50.33964" lon="4.27022">
        <ele>162.60000610352</ele>
        <time>2014-12-29T10:58:14.000Z</time>
      </trkpt>
      <trkpt lat="50.33959" lon="4.27037">
        <ele>163.39999389648</ele>
        <time>2014-12-29T10:58:24.000Z</time>
      </trkpt>
      <trkpt lat="50.33955" lon="4.27051">
        <ele>163.80000305176</ele>
        <time>2014-12-29T10:58:32.000Z</time>
      </trkpt>
      <trkpt lat="50.33949" lon="4.27068">
        <ele>164.19999694824</ele>
        <time>2014-12-29T10:58:42.000Z</time>
      </trkpt>
      <trkpt lat="50.33945" lon="4.27083">
        <ele>164.80000305176</ele>
        <time>2014-12-29T10:58:51.000Z</time>
      </trkpt>
      <trkpt lat="50.33942" lon="4.27094">
        <ele>165</ele>
        <time>2014-12-29T10:58:58.000Z</time>
      </trkpt>
      <trkpt lat="50.33938" lon="4.27104">
        <ele>165.19999694824</ele>
        <time>2014-12-29T10:59:04.000Z</time>
      </trkpt>
      <trkpt lat="50.33934" lon="4.2712">
        <ele>165.60000610352</ele>
        <time>2014-12-29T10:59:13.000Z</time>
      </trkpt>
      <trkpt lat="50.33931" lon="4.27132">
        <ele>165.80000305176</ele>
        <time>2014-12-29T10:59:20.000Z</time>
      </trkpt>
      <trkpt lat="50.33927" lon="4.27147">
        <ele>166.19999694824</ele>
        <time>2014-12-29T10:59:28.000Z</time>
      </trkpt>
      <trkpt lat="50.33922" lon="4.27164">
        <ele>166.60000610352</ele>
        <time>2014-12-29T10:59:37.000Z</time>
      </trkpt>
      <trkpt lat="50.33918" lon="4.27177">
        <ele>166.80000305176</ele>
        <time>2014-12-29T10:59:45.000Z</time>
      </trkpt>
      <trkpt lat="50.33911" lon="4.27197">
        <ele>167</ele>
        <time>2014-12-29T10:59:56.000Z</time>
      </trkpt>
      <trkpt lat="50.33905" lon="4.27214">
        <ele>167</ele>
        <time>2014-12-29T11:00:06.000Z</time>
      </trkpt>
      <trkpt lat="50.33898" lon="4.27233">
        <ele>167</ele>
        <time>2014-12-29T11:00:17.000Z</time>
      </trkpt>
      <trkpt lat="50.33893" lon="4.27249">
        <ele>167</ele>
        <time>2014-12-29T11:00:26.000Z</time>
      </trkpt>
      <trkpt lat="50.33886" lon="4.27268">
        <ele>167</ele>
        <time>2014-12-29T11:00:37.000Z</time>
      </trkpt>
      <trkpt lat="50.3388" lon="4.27285">
        <ele>167</ele>
        <time>2014-12-29T11:00:47.000Z</time>
      </trkpt>
      <trkpt lat="50.33873" lon="4.27305">
        <ele>167.60000610352</ele>
        <time>2014-12-29T11:00:59.000Z</time>
      </trkpt>
      <trkpt lat="50.33866" lon="4.27327">
        <ele>168.19999694824</ele>
        <time>2014-12-29T11:01:11.000Z</time>
      </trkpt>
      <trkpt lat="50.33862" lon="4.27341">
        <ele>168.60000610352</ele>
        <time>2014-12-29T11:01:20.000Z</time>
      </trkpt>
      <trkpt lat="50.33857" lon="4.27357">
        <ele>168.60000610352</ele>
        <time>2014-12-29T11:01:29.000Z</time>
      </trkpt>
      <trkpt lat="50.33849" lon="4.2738">
        <ele>168.80000305176</ele>
        <time>2014-12-29T11:01:42.000Z</time>
      </trkpt>
      <trkpt lat="50.33843" lon="4.27397">
        <ele>168.80000305176</ele>
        <time>2014-12-29T11:01:52.000Z</time>
      </trkpt>
      <trkpt lat="50.33837" lon="4.27414">
        <ele>169</ele>
        <time>2014-12-29T11:02:02.000Z</time>
      </trkpt>
      <trkpt lat="50.33833" lon="4.27426">
        <ele>169.19999694824</ele>
        <time>2014-12-29T11:02:09.000Z</time>
      </trkpt>
      <trkpt lat="50.33825" lon="4.27443">
        <ele>169.39999389648</ele>
        <time>2014-12-29T11:02:20.000Z</time>
      </trkpt>
      <trkpt lat="50.33816" lon="4.2746">
        <ele>169.60000610352</ele>
        <time>2014-12-29T11:02:31.000Z</time>
      </trkpt>
      <trkpt lat="50.33808" lon="4.27475">
        <ele>169.80000305176</ele>
        <time>2014-12-29T11:02:41.000Z</time>
      </trkpt>
      <trkpt lat="50.33807" lon="4.27478">
        <ele>169.80000305176</ele>
        <time>2014-12-29T11:02:46.000Z</time>
      </trkpt>
      <trkpt lat="50.33801" lon="4.27491">
        <ele>170</ele>
        <time>2014-12-29T11:02:54.000Z</time>
      </trkpt>
      <trkpt lat="50.3379" lon="4.27513">
        <ele>170.19999694824</ele>
        <time>2014-12-29T11:03:06.000Z</time>
      </trkpt>
      <trkpt lat="50.33783" lon="4.27529">
        <ele>170.19999694824</ele>
        <time>2014-12-29T11:03:16.000Z</time>
      </trkpt>
      <trkpt lat="50.33776" lon="4.27541">
        <ele>169.80000305176</ele>
        <time>2014-12-29T11:03:24.000Z</time>
      </trkpt>
      <trkpt lat="50.33768" lon="4.27561">
        <ele>169.19999694824</ele>
        <time>2014-12-29T11:03:36.000Z</time>
      </trkpt>
      <trkpt lat="50.33763" lon="4.27571">
        <ele>169</ele>
        <time>2014-12-29T11:03:43.000Z</time>
      </trkpt>
      <trkpt lat="50.33754" lon="4.27587">
        <ele>168.80000305176</ele>
        <time>2014-12-29T11:03:54.000Z</time>
      </trkpt>
      <trkpt lat="50.3375" lon="4.27598">
        <ele>169</ele>
        <time>2014-12-29T11:04:02.000Z</time>
      </trkpt>
      <trkpt lat="50.33741" lon="4.27613">
        <ele>169</ele>
        <time>2014-12-29T11:04:13.000Z</time>
      </trkpt>
      <trkpt lat="50.33733" lon="4.27626">
        <ele>168.80000305176</ele>
        <time>2014-12-29T11:04:23.000Z</time>
      </trkpt>
      <trkpt lat="50.33726" lon="4.27636">
        <ele>169</ele>
        <time>2014-12-29T11:04:32.000Z</time>
      </trkpt>
      <trkpt lat="50.33717" lon="4.27649">
        <ele>169.39999389648</ele>
        <time>2014-12-29T11:04:43.000Z</time>
      </trkpt>
      <trkpt lat="50.33716" lon="4.27653">
        <ele>169.39999389648</ele>
        <time>2014-12-29T11:04:46.000Z</time>
      </trkpt>
      <trkpt lat="50.33706" lon="4.27664">
        <ele>169.39999389648</ele>
        <time>2014-12-29T11:04:56.000Z</time>
      </trkpt>
      <trkpt lat="50.33683" lon="4.27695">
        <ele>170</ele>
        <time>2014-12-29T11:05:21.000Z</time>
      </trkpt>
      <trkpt lat="50.33674" lon="4.27708">
        <ele>170.39999389648</ele>
        <time>2014-12-29T11:05:32.000Z</time>
      </trkpt>
      <trkpt lat="50.33667" lon="4.2772">
        <ele>170.39999389648</ele>
        <time>2014-12-29T11:05:42.000Z</time>
      </trkpt>
      <trkpt lat="50.33663" lon="4.27728">
        <ele>170.39999389648</ele>
        <time>2014-12-29T11:05:49.000Z</time>
      </trkpt>
      <trkpt lat="50.33658" lon="4.27734">
        <ele>170.60000610352</ele>
        <time>2014-12-29T11:05:56.000Z</time>
      </trkpt>
      <trkpt lat="50.33649" lon="4.27743">
        <ele>170.80000305176</ele>
        <time>2014-12-29T11:06:06.000Z</time>
      </trkpt>
      <trkpt lat="50.33642" lon="4.27753">
        <ele>171</ele>
        <time>2014-12-29T11:06:15.000Z</time>
      </trkpt>
      <trkpt lat="50.33641" lon="4.27754">
        <ele>171</ele>
        <time>2014-12-29T11:06:16.000Z</time>
      </trkpt>
      <trkpt lat="50.33635" lon="4.27763">
        <ele>171</ele>
        <time>2014-12-29T11:06:24.000Z</time>
      </trkpt>
      <trkpt lat="50.33629" lon="4.27772">
        <ele>171.19999694824</ele>
        <time>2014-12-29T11:06:32.000Z</time>
      </trkpt>
      <trkpt lat="50.33626" lon="4.27777">
        <ele>171.19999694824</ele>
        <time>2014-12-29T11:06:37.000Z</time>
      </trkpt>
      <trkpt lat="50.3362" lon="4.27787">
        <ele>171.39999389648</ele>
        <time>2014-12-29T11:06:45.000Z</time>
      </trkpt>
      <trkpt lat="50.33618" lon="4.2779">
        <ele>171.39999389648</ele>
        <time>2014-12-29T11:06:57.000Z</time>
      </trkpt>
      <trkpt lat="50.33614" lon="4.27798">
        <ele>171.60000610352</ele>
        <time>2014-12-29T11:07:04.000Z</time>
      </trkpt>
      <trkpt lat="50.33605" lon="4.27811">
        <ele>171.80000305176</ele>
        <time>2014-12-29T11:07:14.000Z</time>
      </trkpt>
      <trkpt lat="50.33597" lon="4.27821">
        <ele>172.19999694824</ele>
        <time>2014-12-29T11:07:22.000Z</time>
      </trkpt>
      <trkpt lat="50.3359" lon="4.27832">
        <ele>172.39999389648</ele>
        <time>2014-12-29T11:07:30.000Z</time>
      </trkpt>
      <trkpt lat="50.33584" lon="4.2784">
        <ele>172.60000610352</ele>
        <time>2014-12-29T11:07:37.000Z</time>
      </trkpt>
      <trkpt lat="50.33576" lon="4.27851">
        <ele>172.80000305176</ele>
        <time>2014-12-29T11:07:46.000Z</time>
      </trkpt>
      <trkpt lat="50.33566" lon="4.27864">
        <ele>173</ele>
        <time>2014-12-29T11:07:56.000Z</time>
      </trkpt>
      <trkpt lat="50.33554" lon="4.27878">
        <ele>173.19999694824</ele>
        <time>2014-12-29T11:08:08.000Z</time>
      </trkpt>
      <trkpt lat="50.33545" lon="4.27887">
        <ele>173.39999389648</ele>
        <time>2014-12-29T11:08:17.000Z</time>
      </trkpt>
      <trkpt lat="50.33544" lon="4.27889">
        <ele>173.39999389648</ele>
        <time>2014-12-29T11:08:23.000Z</time>
      </trkpt>
      <trkpt lat="50.3355" lon="4.27894">
        <ele>173.19999694824</ele>
        <time>2014-12-29T11:08:29.000Z</time>
      </trkpt>
      <trkpt lat="50.33557" lon="4.27907">
        <ele>172.39999389648</ele>
        <time>2014-12-29T11:08:39.000Z</time>
      </trkpt>
      <trkpt lat="50.33562" lon="4.27916">
        <ele>171.80000305176</ele>
        <time>2014-12-29T11:08:46.000Z</time>
      </trkpt>
      <trkpt lat="50.33569" lon="4.27927">
        <ele>171.19999694824</ele>
        <time>2014-12-29T11:08:54.000Z</time>
      </trkpt>
      <trkpt lat="50.33571" lon="4.27929">
        <ele>171</ele>
        <time>2014-12-29T11:08:56.000Z</time>
      </trkpt>
      <trkpt lat="50.33578" lon="4.27941">
        <ele>170.19999694824</ele>
        <time>2014-12-29T11:09:05.000Z</time>
      </trkpt>
      <trkpt lat="50.3358" lon="4.27947">
        <ele>170</ele>
        <time>2014-12-29T11:09:11.000Z</time>
      </trkpt>
      <trkpt lat="50.33584" lon="4.27952">
        <ele>169.60000610352</ele>
        <time>2014-12-29T11:09:16.000Z</time>
      </trkpt>
      <trkpt lat="50.33584" lon="4.27953">
        <ele>169.60000610352</ele>
        <time>2014-12-29T11:09:17.000Z</time>
      </trkpt>
      <trkpt lat="50.33587" lon="4.27957">
        <ele>169.19999694824</ele>
        <time>2014-12-29T11:09:21.000Z</time>
      </trkpt>
      <trkpt lat="50.33594" lon="4.27971">
        <ele>168</ele>
        <time>2014-12-29T11:09:31.000Z</time>
      </trkpt>
      <trkpt lat="50.33597" lon="4.27975">
        <ele>167.60000610352</ele>
        <time>2014-12-29T11:09:34.000Z</time>
      </trkpt>
      <trkpt lat="50.336" lon="4.27982">
        <ele>167.19999694824</ele>
        <time>2014-12-29T11:09:40.000Z</time>
      </trkpt>
      <trkpt lat="50.33605" lon="4.27991">
        <ele>166.39999389648</ele>
        <time>2014-12-29T11:09:48.000Z</time>
      </trkpt>
      <trkpt lat="50.33612" lon="4.28002">
        <ele>165.39999389648</ele>
        <time>2014-12-29T11:09:57.000Z</time>
      </trkpt>
      <trkpt lat="50.33613" lon="4.28003">
        <ele>165.39999389648</ele>
        <time>2014-12-29T11:09:58.000Z</time>
      </trkpt>
      <trkpt lat="50.3362" lon="4.28016">
        <ele>164.19999694824</ele>
        <time>2014-12-29T11:10:08.000Z</time>
      </trkpt>
      <trkpt lat="50.33625" lon="4.28026">
        <ele>163.60000610352</ele>
        <time>2014-12-29T11:10:14.000Z</time>
      </trkpt>
      <trkpt lat="50.33631" lon="4.28037">
        <ele>162.39999389648</ele>
        <time>2014-12-29T11:10:22.000Z</time>
      </trkpt>
      <trkpt lat="50.33636" lon="4.28048">
        <ele>161</ele>
        <time>2014-12-29T11:10:29.000Z</time>
      </trkpt>
      <trkpt lat="50.33645" lon="4.28061">
        <ele>158.80000305176</ele>
        <time>2014-12-29T11:10:38.000Z</time>
      </trkpt>
      <trkpt lat="50.3365" lon="4.28072">
        <ele>157.39999389648</ele>
        <time>2014-12-29T11:10:45.000Z</time>
      </trkpt>
      <trkpt lat="50.3365" lon="4.28074">
        <ele>157.19999694824</ele>
        <time>2014-12-29T11:10:46.000Z</time>
      </trkpt>
      <trkpt lat="50.33649" lon="4.28078">
        <ele>157</ele>
        <time>2014-12-29T11:10:49.000Z</time>
      </trkpt>
      <trkpt lat="50.33646" lon="4.28085">
        <ele>157</ele>
        <time>2014-12-29T11:10:56.000Z</time>
      </trkpt>
      <trkpt lat="50.3363" lon="4.28111">
        <ele>157.19999694824</ele>
        <time>2014-12-29T11:11:17.000Z</time>
      </trkpt>
      <trkpt lat="50.3362" lon="4.28125">
        <ele>157.39999389648</ele>
        <time>2014-12-29T11:11:28.000Z</time>
      </trkpt>
      <trkpt lat="50.33611" lon="4.28139">
        <ele>157.39999389648</ele>
        <time>2014-12-29T11:11:38.000Z</time>
      </trkpt>
      <trkpt lat="50.33605" lon="4.28153">
        <ele>157</ele>
        <time>2014-12-29T11:11:47.000Z</time>
      </trkpt>
      <trkpt lat="50.33601" lon="4.28159">
        <ele>157</ele>
        <time>2014-12-29T11:11:56.000Z</time>
      </trkpt>
      <trkpt lat="50.33599" lon="4.28166">
        <ele>156.80000305176</ele>
        <time>2014-12-29T11:12:01.000Z</time>
      </trkpt>
      <trkpt lat="50.33595" lon="4.28178">
        <ele>157</ele>
        <time>2014-12-29T11:12:09.000Z</time>
      </trkpt>
      <trkpt lat="50.33591" lon="4.28196">
        <ele>157</ele>
        <time>2014-12-29T11:12:20.000Z</time>
      </trkpt>
      <trkpt lat="50.33589" lon="4.28209">
        <ele>157</ele>
        <time>2014-12-29T11:12:28.000Z</time>
      </trkpt>
      <trkpt lat="50.33588" lon="4.28227">
        <ele>156.60000610352</ele>
        <time>2014-12-29T11:12:39.000Z</time>
      </trkpt>
      <trkpt lat="50.33586" lon="4.28241">
        <ele>156.39999389648</ele>
        <time>2014-12-29T11:12:48.000Z</time>
      </trkpt>
      <trkpt lat="50.33588" lon="4.2826">
        <ele>155.39999389648</ele>
        <time>2014-12-29T11:13:00.000Z</time>
      </trkpt>
      <trkpt lat="50.33594" lon="4.28287">
        <ele>153.19999694824</ele>
        <time>2014-12-29T11:13:17.000Z</time>
      </trkpt>
      <trkpt lat="50.33598" lon="4.28301">
        <ele>152</ele>
        <time>2014-12-29T11:13:26.000Z</time>
      </trkpt>
      <trkpt lat="50.33599" lon="4.28308">
        <ele>151.19999694824</ele>
        <time>2014-12-29T11:13:30.000Z</time>
      </trkpt>
      <trkpt lat="50.33604" lon="4.2832">
        <ele>150</ele>
        <time>2014-12-29T11:13:39.000Z</time>
      </trkpt>
      <trkpt lat="50.33609" lon="4.28331">
        <ele>148.39999389648</ele>
        <time>2014-12-29T11:13:48.000Z</time>
      </trkpt>
      <trkpt lat="50.33617" lon="4.28343">
        <ele>146.39999389648</ele>
        <time>2014-12-29T11:13:58.000Z</time>
      </trkpt>
      <trkpt lat="50.33627" lon="4.28354">
        <ele>144.19999694824</ele>
        <time>2014-12-29T11:14:05.000Z</time>
      </trkpt>
      <trkpt lat="50.33628" lon="4.28355">
        <ele>143.80000305176</ele>
        <time>2014-12-29T11:14:06.000Z</time>
      </trkpt>
      <trkpt lat="50.33637" lon="4.28353">
        <ele>142.60000610352</ele>
        <time>2014-12-29T11:14:12.000Z</time>
      </trkpt>
      <trkpt lat="50.33636" lon="4.2836">
        <ele>142.39999389648</ele>
        <time>2014-12-29T11:14:17.000Z</time>
      </trkpt>
      <trkpt lat="50.33635" lon="4.28363">
        <ele>142.39999389648</ele>
        <time>2014-12-29T11:14:19.000Z</time>
      </trkpt>
      <trkpt lat="50.3364" lon="4.28362">
        <ele>141.80000305176</ele>
        <time>2014-12-29T11:14:26.000Z</time>
      </trkpt>
      <trkpt lat="50.3364" lon="4.28362">
        <ele>141.80000305176</ele>
        <time>2014-12-29T11:14:27.000Z</time>
      </trkpt>
      <trkpt lat="50.33646" lon="4.28353">
        <ele>141.39999389648</ele>
        <time>2014-12-29T11:14:37.000Z</time>
      </trkpt>
      <trkpt lat="50.33648" lon="4.28351">
        <ele>141.39999389648</ele>
        <time>2014-12-29T11:14:45.000Z</time>
      </trkpt>
      <trkpt lat="50.33653" lon="4.28343">
        <ele>141</ele>
        <time>2014-12-29T11:14:52.000Z</time>
      </trkpt>
      <trkpt lat="50.33655" lon="4.28341">
        <ele>140.80000305176</ele>
        <time>2014-12-29T11:14:58.000Z</time>
      </trkpt>
      <trkpt lat="50.3366" lon="4.28337">
        <ele>140.39999389648</ele>
        <time>2014-12-29T11:15:03.000Z</time>
      </trkpt>
      <trkpt lat="50.33662" lon="4.28334">
        <ele>140.19999694824</ele>
        <time>2014-12-29T11:15:07.000Z</time>
      </trkpt>
      <trkpt lat="50.33669" lon="4.28329">
        <ele>139.60000610352</ele>
        <time>2014-12-29T11:15:13.000Z</time>
      </trkpt>
      <trkpt lat="50.3367" lon="4.28329">
        <ele>139.39999389648</ele>
        <time>2014-12-29T11:15:14.000Z</time>
      </trkpt>
      <trkpt lat="50.33679" lon="4.28321">
        <ele>138.39999389648</ele>
        <time>2014-12-29T11:15:24.000Z</time>
      </trkpt>
      <trkpt lat="50.3368" lon="4.28321">
        <ele>138.39999389648</ele>
        <time>2014-12-29T11:15:25.000Z</time>
      </trkpt>
      <trkpt lat="50.3368" lon="4.28321">
        <ele>138.19999694824</ele>
        <time>2014-12-29T11:15:26.000Z</time>
      </trkpt>
      <trkpt lat="50.33691" lon="4.28317">
        <ele>136.60000610352</ele>
        <time>2014-12-29T11:15:37.000Z</time>
      </trkpt>
      <trkpt lat="50.33701" lon="4.28315">
        <ele>135.19999694824</ele>
        <time>2014-12-29T11:15:46.000Z</time>
      </trkpt>
      <trkpt lat="50.33708" lon="4.28317">
        <ele>134</ele>
        <time>2014-12-29T11:15:54.000Z</time>
      </trkpt>
      <trkpt lat="50.3371" lon="4.28317">
        <ele>133.60000610352</ele>
        <time>2014-12-29T11:15:56.000Z</time>
      </trkpt>
      <trkpt lat="50.33715" lon="4.28324">
        <ele>132.80000305176</ele>
        <time>2014-12-29T11:16:03.000Z</time>
      </trkpt>
      <trkpt lat="50.33724" lon="4.28327">
        <ele>131.39999389648</ele>
        <time>2014-12-29T11:16:12.000Z</time>
      </trkpt>
      <trkpt lat="50.33731" lon="4.28328">
        <ele>130.39999389648</ele>
        <time>2014-12-29T11:16:20.000Z</time>
      </trkpt>
      <trkpt lat="50.33732" lon="4.28327">
        <ele>130.19999694824</ele>
        <time>2014-12-29T11:16:21.000Z</time>
      </trkpt>
      <trkpt lat="50.33738" lon="4.28327">
        <ele>129.39999389648</ele>
        <time>2014-12-29T11:16:27.000Z</time>
      </trkpt>
      <trkpt lat="50.33747" lon="4.28326">
        <ele>128.19999694824</ele>
        <time>2014-12-29T11:16:35.000Z</time>
      </trkpt>
      <trkpt lat="50.33753" lon="4.28325">
        <ele>127.19999694824</ele>
        <time>2014-12-29T11:16:41.000Z</time>
      </trkpt>
      <trkpt lat="50.33756" lon="4.28324">
        <ele>127</ele>
        <time>2014-12-29T11:16:45.000Z</time>
      </trkpt>
      <trkpt lat="50.33762" lon="4.28325">
        <ele>126.19999694824</ele>
        <time>2014-12-29T11:16:53.000Z</time>
      </trkpt>
      <trkpt lat="50.33768" lon="4.28326">
        <ele>125.19999694824</ele>
        <time>2014-12-29T11:17:00.000Z</time>
      </trkpt>
      <trkpt lat="50.33771" lon="4.28326">
        <ele>125</ele>
        <time>2014-12-29T11:17:06.000Z</time>
      </trkpt>
      <trkpt lat="50.33775" lon="4.28326">
        <ele>124.40000152588</ele>
        <time>2014-12-29T11:17:11.000Z</time>
      </trkpt>
      <trkpt lat="50.33782" lon="4.28326">
        <ele>123.59999847412</ele>
        <time>2014-12-29T11:17:18.000Z</time>
      </trkpt>
      <trkpt lat="50.33791" lon="4.28322">
        <ele>122.80000305176</ele>
        <time>2014-12-29T11:17:25.000Z</time>
      </trkpt>
      <trkpt lat="50.33793" lon="4.28321">
        <ele>122.59999847412</ele>
        <time>2014-12-29T11:17:26.000Z</time>
      </trkpt>
      <trkpt lat="50.33798" lon="4.28316">
        <ele>120</ele>
      </trkpt>
      <trkpt lat="50.33804" lon="4.28314">
        <ele>120</ele>
      </trkpt>
      <trkpt lat="50.33808" lon="4.28311">
        <ele>120</ele>
      </trkpt>
      <trkpt lat="50.33814" lon="4.28309">
        <ele>123.4</ele>
        <time>2014-12-29T11:17:41Z</time>
      </trkpt>
      <trkpt lat="50.3382" lon="4.28304">
        <ele>124</ele>
        <time>2014-12-29T11:18:02Z</time>
      </trkpt>
      <trkpt lat="50.33827" lon="4.28298">
        <ele>123.59999847412</ele>
        <time>2014-12-29T11:18:10.000Z</time>
      </trkpt>
      <trkpt lat="50.33835" lon="4.28292">
        <ele>123</ele>
        <time>2014-12-29T11:18:18.000Z</time>
      </trkpt>
      <trkpt lat="50.33844" lon="4.28288">
        <ele>122.59999847412</ele>
        <time>2014-12-29T11:18:26.000Z</time>
      </trkpt>
      <trkpt lat="50.33852" lon="4.28291">
        <ele>122.40000152588</ele>
        <time>2014-12-29T11:18:33.000Z</time>
      </trkpt>
      <trkpt lat="50.33858" lon="4.28298">
        <ele>122.40000152588</ele>
        <time>2014-12-29T11:18:39.000Z</time>
      </trkpt>
      <trkpt lat="50.33858" lon="4.28299">
        <ele>122.59999847412</ele>
        <time>2014-12-29T11:18:40.000Z</time>
      </trkpt>
      <trkpt lat="50.33861" lon="4.28311">
        <ele>122.80000305176</ele>
        <time>2014-12-29T11:18:47.000Z</time>
      </trkpt>
      <trkpt lat="50.33861" lon="4.28313">
        <ele>122.80000305176</ele>
        <time>2014-12-29T11:18:48.000Z</time>
      </trkpt>
      <trkpt lat="50.33861" lon="4.28326">
        <ele>123.40000152588</ele>
        <time>2014-12-29T11:18:57.000Z</time>
      </trkpt>
      <trkpt lat="50.33862" lon="4.2834">
        <ele>123.80000305176</ele>
        <time>2014-12-29T11:19:05.000Z</time>
      </trkpt>
      <trkpt lat="50.33862" lon="4.28351">
        <ele>123.59999847412</ele>
        <time>2014-12-29T11:19:12.000Z</time>
      </trkpt>
      <trkpt lat="50.33864" lon="4.28365">
        <ele>123.59999847412</ele>
        <time>2014-12-29T11:19:20.000Z</time>
      </trkpt>
      <trkpt lat="50.33867" lon="4.28376">
        <ele>125.40000152588</ele>
        <time>2014-12-29T11:19:27.000Z</time>
      </trkpt>
      <trkpt lat="50.33868" lon="4.28377">
        <ele>125.59999847412</ele>
        <time>2014-12-29T11:19:28.000Z</time>
      </trkpt>
      <trkpt lat="50.33871" lon="4.28383">
        <ele>126.59999847412</ele>
        <time>2014-12-29T11:19:32.000Z</time>
      </trkpt>
      <trkpt lat="50.33874" lon="4.28388">
        <ele>127.40000152588</ele>
        <time>2014-12-29T11:19:37.000Z</time>
      </trkpt>
      <trkpt lat="50.33878" lon="4.28395">
        <ele>128.80000305176</ele>
        <time>2014-12-29T11:19:44.000Z</time>
      </trkpt>
      <trkpt lat="50.33881" lon="4.28399">
        <ele>129.60000610352</ele>
        <time>2014-12-29T11:19:47.000Z</time>
      </trkpt>
      <trkpt lat="50.33891" lon="4.28404">
        <ele>131.80000305176</ele>
        <time>2014-12-29T11:19:57.000Z</time>
      </trkpt>
      <trkpt lat="50.33894" lon="4.28409">
        <ele>133</ele>
        <time>2014-12-29T11:20:01.000Z</time>
      </trkpt>
      <trkpt lat="50.33895" lon="4.28418">
        <ele>134.60000610352</ele>
        <time>2014-12-29T11:20:08.000Z</time>
      </trkpt>
      <trkpt lat="50.33895" lon="4.2842">
        <ele>134.80000305176</ele>
        <time>2014-12-29T11:20:09.000Z</time>
      </trkpt>
      <trkpt lat="50.33895" lon="4.28427">
        <ele>136</ele>
        <time>2014-12-29T11:20:16.000Z</time>
      </trkpt>
      <trkpt lat="50.33896" lon="4.28434">
        <ele>137.19999694824</ele>
        <time>2014-12-29T11:20:21.000Z</time>
      </trkpt>
      <trkpt lat="50.33896" lon="4.28445">
        <ele>139</ele>
        <time>2014-12-29T11:20:27.000Z</time>
      </trkpt>
      <trkpt lat="50.33893" lon="4.28459">
        <ele>139.80000305176</ele>
        <time>2014-12-29T11:20:35.000Z</time>
      </trkpt>
      <trkpt lat="50.3389" lon="4.28468">
        <ele>141.19999694824</ele>
        <time>2014-12-29T11:20:42.000Z</time>
      </trkpt>
      <trkpt lat="50.3389" lon="4.28469">
        <ele>141.39999389648</ele>
        <time>2014-12-29T11:20:43.000Z</time>
      </trkpt>
      <trkpt lat="50.33888" lon="4.2847">
        <ele>141.39999389648</ele>
        <time>2014-12-29T11:20:53.000Z</time>
      </trkpt>
      <trkpt lat="50.33887" lon="4.28472">
        <ele>141.60000610352</ele>
        <time>2014-12-29T11:20:59.000Z</time>
      </trkpt>
      <trkpt lat="50.33883" lon="4.28478">
        <ele>142.60000610352</ele>
        <time>2014-12-29T11:21:05.000Z</time>
      </trkpt>
      <trkpt lat="50.33878" lon="4.28488">
        <ele>143.39999389648</ele>
        <time>2014-12-29T11:21:12.000Z</time>
      </trkpt>
      <trkpt lat="50.33873" lon="4.28499">
        <ele>144.60000610352</ele>
        <time>2014-12-29T11:21:20.000Z</time>
      </trkpt>
      <trkpt lat="50.33873" lon="4.285">
        <ele>144.60000610352</ele>
        <time>2014-12-29T11:21:21.000Z</time>
      </trkpt>
      <trkpt lat="50.33873" lon="4.28501">
        <ele>144.80000305176</ele>
        <time>2014-12-29T11:21:24.000Z</time>
      </trkpt>
      <trkpt lat="50.33871" lon="4.28506">
        <ele>145.39999389648</ele>
        <time>2014-12-29T11:21:28.000Z</time>
      </trkpt>
      <trkpt lat="50.33867" lon="4.28515">
        <ele>146.19999694824</ele>
        <time>2014-12-29T11:21:36.000Z</time>
      </trkpt>
      <trkpt lat="50.33863" lon="4.28529">
        <ele>146</ele>
        <time>2014-12-29T11:21:45.000Z</time>
      </trkpt>
      <trkpt lat="50.33859" lon="4.28546">
        <ele>145.80000305176</ele>
        <time>2014-12-29T11:21:55.000Z</time>
      </trkpt>
      <trkpt lat="50.33858" lon="4.28555">
        <ele>146</ele>
        <time>2014-12-29T11:22:01.000Z</time>
      </trkpt>
      <trkpt lat="50.33857" lon="4.28563">
        <ele>146.19999694824</ele>
        <time>2014-12-29T11:22:09.000Z</time>
      </trkpt>
      <trkpt lat="50.33858" lon="4.28572">
        <ele>147</ele>
        <time>2014-12-29T11:22:16.000Z</time>
      </trkpt>
      <trkpt lat="50.33859" lon="4.28579">
        <ele>147.60000610352</ele>
        <time>2014-12-29T11:22:36.000Z</time>
      </trkpt>
      <trkpt lat="50.33859" lon="4.2859">
        <ele>148.39999389648</ele>
        <time>2014-12-29T11:22:43.000Z</time>
      </trkpt>
      <trkpt lat="50.33861" lon="4.286">
        <ele>149.60000610352</ele>
        <time>2014-12-29T11:22:53.000Z</time>
      </trkpt>
      <trkpt lat="50.33861" lon="4.28607">
        <ele>150.19999694824</ele>
        <time>2014-12-29T11:22:59.000Z</time>
      </trkpt>
      <trkpt lat="50.33861" lon="4.28616">
        <ele>151</ele>
        <time>2014-12-29T11:23:06.000Z</time>
      </trkpt>
      <trkpt lat="50.33862" lon="4.28636">
        <ele>152.80000305176</ele>
        <time>2014-12-29T11:23:17.000Z</time>
      </trkpt>
      <trkpt lat="50.33862" lon="4.28639">
        <ele>153</ele>
        <time>2014-12-29T11:23:18.000Z</time>
      </trkpt>
      <trkpt lat="50.33863" lon="4.28646">
        <ele>153.60000610352</ele>
        <time>2014-12-29T11:23:22.000Z</time>
      </trkpt>
      <trkpt lat="50.33864" lon="4.2866">
        <ele>155</ele>
        <time>2014-12-29T11:23:31.000Z</time>
      </trkpt>
      <trkpt lat="50.33866" lon="4.28667">
        <ele>156</ele>
        <time>2014-12-29T11:23:37.000Z</time>
      </trkpt>
      <trkpt lat="50.33865" lon="4.28668">
        <ele>155.80000305176</ele>
        <time>2014-12-29T11:23:42.000Z</time>
      </trkpt>
      <trkpt lat="50.33868" lon="4.28671">
        <ele>156.60000610352</ele>
        <time>2014-12-29T11:23:46.000Z</time>
      </trkpt>
      <trkpt lat="50.3387" lon="4.28674">
        <ele>157.60000610352</ele>
        <time>2014-12-29T11:23:49.000Z</time>
      </trkpt>
      <trkpt lat="50.33876" lon="4.28677">
        <ele>159.39999389648</ele>
        <time>2014-12-29T11:23:56.000Z</time>
      </trkpt>
      <trkpt lat="50.3388" lon="4.28678">
        <ele>160.39999389648</ele>
        <time>2014-12-29T11:24:00.000Z</time>
      </trkpt>
      <trkpt lat="50.33883" lon="4.28681">
        <ele>160.39999389648</ele>
        <time>2014-12-29T11:24:05.000Z</time>
      </trkpt>
      <trkpt lat="50.33884" lon="4.28684">
        <ele>160.60000610352</ele>
        <time>2014-12-29T11:24:11.000Z</time>
      </trkpt>
      <trkpt lat="50.33886" lon="4.28688">
        <ele>160.60000610352</ele>
        <time>2014-12-29T11:24:19.000Z</time>
      </trkpt>
      <trkpt lat="50.33886" lon="4.28695">
        <ele>161</ele>
        <time>2014-12-29T11:24:27.000Z</time>
      </trkpt>
      <trkpt lat="50.33889" lon="4.28702">
        <ele>160.80000305176</ele>
        <time>2014-12-29T11:24:33.000Z</time>
      </trkpt>
      <trkpt lat="50.33893" lon="4.28711">
        <ele>160.39999389648</ele>
        <time>2014-12-29T11:24:40.000Z</time>
      </trkpt>
      <trkpt lat="50.33895" lon="4.28717">
        <ele>160.19999694824</ele>
        <time>2014-12-29T11:24:45.000Z</time>
      </trkpt>
      <trkpt lat="50.33899" lon="4.2872">
        <ele>159.80000305176</ele>
        <time>2014-12-29T11:24:51.000Z</time>
      </trkpt>
      <trkpt lat="50.33901" lon="4.28724">
        <ele>159.39999389648</ele>
        <time>2014-12-29T11:24:56.000Z</time>
      </trkpt>
      <trkpt lat="50.33903" lon="4.2873">
        <ele>159.19999694824</ele>
        <time>2014-12-29T11:25:00.000Z</time>
      </trkpt>
      <trkpt lat="50.33905" lon="4.28734">
        <ele>159</ele>
        <time>2014-12-29T11:25:06.000Z</time>
      </trkpt>
      <trkpt lat="50.33908" lon="4.28739">
        <ele>158.60000610352</ele>
        <time>2014-12-29T11:25:10.000Z</time>
      </trkpt>
      <trkpt lat="50.33909" lon="4.28741">
        <ele>158.39999389648</ele>
        <time>2014-12-29T11:25:12.000Z</time>
      </trkpt>
      <trkpt lat="50.33911" lon="4.28746">
        <ele>158.19999694824</ele>
        <time>2014-12-29T11:25:16.000Z</time>
      </trkpt>
      <trkpt lat="50.33915" lon="4.28752">
        <ele>157.80000305176</ele>
        <time>2014-12-29T11:25:23.000Z</time>
      </trkpt>
      <trkpt lat="50.33917" lon="4.28753">
        <ele>157.39999389648</ele>
        <time>2014-12-29T11:25:26.000Z</time>
      </trkpt>
      <trkpt lat="50.33922" lon="4.28754">
        <ele>156.80000305176</ele>
        <time>2014-12-29T11:25:30.000Z</time>
      </trkpt>
      <trkpt lat="50.33923" lon="4.28754">
        <ele>156.60000610352</ele>
        <time>2014-12-29T11:25:31.000Z</time>
      </trkpt>
      <trkpt lat="50.33923" lon="4.28757">
        <ele>156.60000610352</ele>
        <time>2014-12-29T11:25:36.000Z</time>
      </trkpt>
      <trkpt lat="50.33923" lon="4.28764">
        <ele>156.80000305176</ele>
        <time>2014-12-29T11:25:44.000Z</time>
      </trkpt>
      <trkpt lat="50.33924" lon="4.28767">
        <ele>156.60000610352</ele>
        <time>2014-12-29T11:25:50.000Z</time>
      </trkpt>
      <trkpt lat="50.33927" lon="4.2877">
        <ele>156.19999694824</ele>
        <time>2014-12-29T11:25:55.000Z</time>
      </trkpt>
      <trkpt lat="50.33928" lon="4.28778">
        <ele>156.19999694824</ele>
        <time>2014-12-29T11:26:01.000Z</time>
      </trkpt>
      <trkpt lat="50.33929" lon="4.2878">
        <ele>156</ele>
        <time>2014-12-29T11:26:02.000Z</time>
      </trkpt>
      <trkpt lat="50.33934" lon="4.28783">
        <ele>155.39999389648</ele>
        <time>2014-12-29T11:26:07.000Z</time>
      </trkpt>
      <trkpt lat="50.33941" lon="4.28783">
        <ele>154.39999389648</ele>
        <time>2014-12-29T11:26:12.000Z</time>
      </trkpt>
      <trkpt lat="50.33944" lon="4.28782">
        <ele>153.80000305176</ele>
        <time>2014-12-29T11:26:18.000Z</time>
      </trkpt>
      <trkpt lat="50.33946" lon="4.28782">
        <ele>153.60000610352</ele>
        <time>2014-12-29T11:26:20.000Z</time>
      </trkpt>
      <trkpt lat="50.33951" lon="4.28783">
        <ele>153</ele>
        <time>2014-12-29T11:26:27.000Z</time>
      </trkpt>
      <trkpt lat="50.33956" lon="4.28783">
        <ele>152.19999694824</ele>
        <time>2014-12-29T11:26:33.000Z</time>
      </trkpt>
      <trkpt lat="50.33962" lon="4.28784">
        <ele>151.39999389648</ele>
        <time>2014-12-29T11:26:40.000Z</time>
      </trkpt>
      <trkpt lat="50.33964" lon="4.28784">
        <ele>151.19999694824</ele>
        <time>2014-12-29T11:26:41.000Z</time>
      </trkpt>
      <trkpt lat="50.33966" lon="4.28786">
        <ele>150.60000610352</ele>
        <time>2014-12-29T11:26:47.000Z</time>
      </trkpt>
      <trkpt lat="50.33971" lon="4.2879">
        <ele>148.60000610352</ele>
        <time>2014-12-29T11:27:27.000Z</time>
      </trkpt>
      <trkpt lat="50.3397" lon="4.28793">
        <ele>149.19999694824</ele>
        <time>2014-12-29T11:28:00.000Z</time>
      </trkpt>
      <trkpt lat="50.33969" lon="4.28795">
        <ele>149.60000610352</ele>
        <time>2014-12-29T11:28:19.000Z</time>
      </trkpt>
      <trkpt lat="50.33962" lon="4.28795">
        <ele>151.80000305176</ele>
        <time>2014-12-29T11:28:26.000Z</time>
      </trkpt>
      <trkpt lat="50.3395" lon="4.28794">
        <ele>153.60000610352</ele>
        <time>2014-12-29T11:28:36.000Z</time>
      </trkpt>
      <trkpt lat="50.33941" lon="4.28791">
        <ele>154.80000305176</ele>
        <time>2014-12-29T11:28:45.000Z</time>
      </trkpt>
      <trkpt lat="50.33928" lon="4.28785">
        <ele>156.39999389648</ele>
        <time>2014-12-29T11:29:00.000Z</time>
      </trkpt>
      <trkpt lat="50.33925" lon="4.28776">
        <ele>156.60000610352</ele>
        <time>2014-12-29T11:29:07.000Z</time>
      </trkpt>
      <trkpt lat="50.33928" lon="4.28766">
        <ele>156</ele>
        <time>2014-12-29T11:29:13.000Z</time>
      </trkpt>
      <trkpt lat="50.33926" lon="4.28756">
        <ele>156.19999694824</ele>
        <time>2014-12-29T11:29:19.000Z</time>
      </trkpt>
      <trkpt lat="50.33927" lon="4.28744">
        <ele>156</ele>
        <time>2014-12-29T11:29:28.000Z</time>
      </trkpt>
      <trkpt lat="50.33928" lon="4.28743">
        <ele>155.80000305176</ele>
        <time>2014-12-29T11:29:29.000Z</time>
      </trkpt>
      <trkpt lat="50.33932" lon="4.28732">
        <ele>154.80000305176</ele>
        <time>2014-12-29T11:29:37.000Z</time>
      </trkpt>
      <trkpt lat="50.33933" lon="4.28731">
        <ele>154.60000610352</ele>
        <time>2014-12-29T11:29:38.000Z</time>
      </trkpt>
      <trkpt lat="50.33933" lon="4.2873">
        <ele>154.60000610352</ele>
        <time>2014-12-29T11:29:39.000Z</time>
      </trkpt>
      <trkpt lat="50.33934" lon="4.28727">
        <ele>154.39999389648</ele>
        <time>2014-12-29T11:29:42.000Z</time>
      </trkpt>
      <trkpt lat="50.33938" lon="4.28717">
        <ele>153.60000610352</ele>
        <time>2014-12-29T11:29:48.000Z</time>
      </trkpt>
      <trkpt lat="50.33941" lon="4.28707">
        <ele>152.80000305176</ele>
        <time>2014-12-29T11:29:54.000Z</time>
      </trkpt>
      <trkpt lat="50.33943" lon="4.28705">
        <ele>152.39999389648</ele>
        <time>2014-12-29T11:30:01.000Z</time>
      </trkpt>
      <trkpt lat="50.33947" lon="4.28704">
        <ele>151.80000305176</ele>
        <time>2014-12-29T11:30:05.000Z</time>
      </trkpt>
      <trkpt lat="50.33949" lon="4.28702">
        <ele>151.39999389648</ele>
        <time>2014-12-29T11:30:09.000Z</time>
      </trkpt>
      <trkpt lat="50.33952" lon="4.28701">
        <ele>151</ele>
        <time>2014-12-29T11:30:11.000Z</time>
      </trkpt>
      <trkpt lat="50.33977" lon="4.28796">
        <ele>146</ele>
        <time>2014-12-29T12:44:33.000Z</time>
      </trkpt>
      <trkpt lat="50.33982" lon="4.28801">
        <ele>144.19999694824</ele>
        <time>2014-12-29T12:44:49.000Z</time>
      </trkpt>
      <trkpt lat="50.33984" lon="4.28803">
        <ele>143.19999694824</ele>
        <time>2014-12-29T12:44:52.000Z</time>
      </trkpt>
      <trkpt lat="50.33992" lon="4.28802">
        <ele>140.19999694824</ele>
        <time>2014-12-29T12:45:01.000Z</time>
      </trkpt>
      <trkpt lat="50.33994" lon="4.28802">
        <ele>139.80000305176</ele>
        <time>2014-12-29T12:45:03.000Z</time>
      </trkpt>
      <trkpt lat="50.33998" lon="4.288">
        <ele>138.19999694824</ele>
        <time>2014-12-29T12:45:08.000Z</time>
      </trkpt>
      <trkpt lat="50.34004" lon="4.28798">
        <ele>135.80000305176</ele>
        <time>2014-12-29T12:45:17.000Z</time>
      </trkpt>
      <trkpt lat="50.3401" lon="4.28798">
        <ele>133.80000305176</ele>
        <time>2014-12-29T12:45:26.000Z</time>
      </trkpt>
      <trkpt lat="50.34011" lon="4.28802">
        <ele>133.19999694824</ele>
        <time>2014-12-29T12:45:31.000Z</time>
      </trkpt>
      <trkpt lat="50.34011" lon="4.28808">
        <ele>133.19999694824</ele>
        <time>2014-12-29T12:45:37.000Z</time>
      </trkpt>
      <trkpt lat="50.34012" lon="4.2882">
        <ele>132.60000610352</ele>
        <time>2014-12-29T12:45:46.000Z</time>
      </trkpt>
      <trkpt lat="50.34013" lon="4.28821">
        <ele>132.39999389648</ele>
        <time>2014-12-29T12:45:47.000Z</time>
      </trkpt>
      <trkpt lat="50.34014" lon="4.28825">
        <ele>132</ele>
        <time>2014-12-29T12:45:50.000Z</time>
      </trkpt>
      <trkpt lat="50.34015" lon="4.28834">
        <ele>131.60000610352</ele>
        <time>2014-12-29T12:45:56.000Z</time>
      </trkpt>
      <trkpt lat="50.34015" lon="4.28835">
        <ele>131.60000610352</ele>
        <time>2014-12-29T12:45:57.000Z</time>
      </trkpt>
      <trkpt lat="50.34017" lon="4.28843">
        <ele>131.19999694824</ele>
        <time>2014-12-29T12:46:03.000Z</time>
      </trkpt>
      <trkpt lat="50.34018" lon="4.28847">
        <ele>130.80000305176</ele>
        <time>2014-12-29T12:46:06.000Z</time>
      </trkpt>
      <trkpt lat="50.34019" lon="4.28851">
        <ele>130.39999389648</ele>
        <time>2014-12-29T12:46:09.000Z</time>
      </trkpt>
      <trkpt lat="50.34022" lon="4.28858">
        <ele>129.60000610352</ele>
        <time>2014-12-29T12:46:17.000Z</time>
      </trkpt>
      <trkpt lat="50.34026" lon="4.28857">
        <ele>127.59999847412</ele>
        <time>2014-12-29T12:46:24.000Z</time>
      </trkpt>
      <trkpt lat="50.34029" lon="4.28848">
        <ele>126.19999694824</ele>
        <time>2014-12-29T12:46:33.000Z</time>
      </trkpt>
      <trkpt lat="50.34032" lon="4.2884">
        <ele>125</ele>
        <time>2014-12-29T12:46:40.000Z</time>
      </trkpt>
      <trkpt lat="50.34032" lon="4.28839">
        <ele>125</ele>
        <time>2014-12-29T12:46:41.000Z</time>
      </trkpt>
      <trkpt lat="50.34032" lon="4.28835">
        <ele>125</ele>
        <time>2014-12-29T12:46:44.000Z</time>
      </trkpt>
      <trkpt lat="50.34034" lon="4.28826">
        <ele>124.19999694824</ele>
        <time>2014-12-29T12:46:51.000Z</time>
      </trkpt>
      <trkpt lat="50.34036" lon="4.28814">
        <ele>124</ele>
        <time>2014-12-29T12:46:59.000Z</time>
      </trkpt>
      <trkpt lat="50.34037" lon="4.288">
        <ele>123.40000152588</ele>
        <time>2014-12-29T12:47:09.000Z</time>
      </trkpt>
      <trkpt lat="50.34039" lon="4.28789">
        <ele>123</ele>
        <time>2014-12-29T12:47:16.000Z</time>
      </trkpt>
      <trkpt lat="50.34039" lon="4.28788">
        <ele>122.80000305176</ele>
        <time>2014-12-29T12:47:17.000Z</time>
      </trkpt>
      <trkpt lat="50.34041" lon="4.28777">
        <ele>122.40000152588</ele>
        <time>2014-12-29T12:47:27.000Z</time>
      </trkpt>
      <trkpt lat="50.34042" lon="4.28765">
        <ele>121.80000305176</ele>
        <time>2014-12-29T12:47:35.000Z</time>
      </trkpt>
      <trkpt lat="50.34043" lon="4.28759">
        <ele>121.80000305176</ele>
        <time>2014-12-29T12:47:39.000Z</time>
      </trkpt>
      <trkpt lat="50.34046" lon="4.2875">
        <ele>120.80000305176</ele>
        <time>2014-12-29T12:47:47.000Z</time>
      </trkpt>
      <trkpt lat="50.34049" lon="4.28742">
        <ele>120.40000152588</ele>
        <time>2014-12-29T12:47:52.000Z</time>
      </trkpt>
      <trkpt lat="50.34054" lon="4.28725">
        <ele>120.40000152588</ele>
        <time>2014-12-29T12:48:03.000Z</time>
      </trkpt>
      <trkpt lat="50.34056" lon="4.28713">
        <ele>120.40000152588</ele>
        <time>2014-12-29T12:48:10.000Z</time>
      </trkpt>
      <trkpt lat="50.34058" lon="4.28698">
        <ele>120.59999847412</ele>
        <time>2014-12-29T12:48:19.000Z</time>
      </trkpt>
      <trkpt lat="50.34057" lon="4.28697">
        <ele>120.59999847412</ele>
        <time>2014-12-29T12:48:20.000Z</time>
      </trkpt>
      <trkpt lat="50.34059" lon="4.28687">
        <ele>120.59999847412</ele>
        <time>2014-12-29T12:48:26.000Z</time>
      </trkpt>
      <trkpt lat="50.34061" lon="4.28683">
        <ele>120.59999847412</ele>
        <time>2014-12-29T12:48:29.000Z</time>
      </trkpt>
      <trkpt lat="50.34063" lon="4.28696">
        <ele>120.19999694824</ele>
        <time>2014-12-29T12:48:37.000Z</time>
      </trkpt>
      <trkpt lat="50.34065" lon="4.28716">
        <ele>120.19999694824</ele>
        <time>2014-12-29T12:48:46.000Z</time>
      </trkpt>
      <trkpt lat="50.34068" lon="4.28729">
        <ele>119.80000305176</ele>
        <time>2014-12-29T12:48:53.000Z</time>
      </trkpt>
      <trkpt lat="50.34073" lon="4.2874">
        <ele>119.59999847412</ele>
        <time>2014-12-29T12:49:01.000Z</time>
      </trkpt>
      <trkpt lat="50.34079" lon="4.28749">
        <ele>119.19999694824</ele>
        <time>2014-12-29T12:49:08.000Z</time>
      </trkpt>
      <trkpt lat="50.34083" lon="4.28757">
        <ele>119</ele>
        <time>2014-12-29T12:49:15.000Z</time>
      </trkpt>
      <trkpt lat="50.34093" lon="4.28767">
        <ele>118.59999847412</ele>
        <time>2014-12-29T12:49:26.000Z</time>
      </trkpt>
      <trkpt lat="50.34103" lon="4.28771">
        <ele>118</ele>
        <time>2014-12-29T12:49:36.000Z</time>
      </trkpt>
      <trkpt lat="50.34114" lon="4.28772">
        <ele>117.59999847412</ele>
        <time>2014-12-29T12:49:46.000Z</time>
      </trkpt>
      <trkpt lat="50.34128" lon="4.28769">
        <ele>117.19999694824</ele>
        <time>2014-12-29T12:49:58.000Z</time>
      </trkpt>
      <trkpt lat="50.34141" lon="4.28763">
        <ele>117.80000305176</ele>
        <time>2014-12-29T12:50:09.000Z</time>
      </trkpt>
      <trkpt lat="50.34152" lon="4.28755">
        <ele>118.59999847412</ele>
        <time>2014-12-29T12:50:20.000Z</time>
      </trkpt>
      <trkpt lat="50.34163" lon="4.28744">
        <ele>119.40000152588</ele>
        <time>2014-12-29T12:50:31.000Z</time>
      </trkpt>
      <trkpt lat="50.34171" lon="4.28735">
        <ele>120</ele>
        <time>2014-12-29T12:50:39.000Z</time>
      </trkpt>
      <trkpt lat="50.3418" lon="4.28732">
        <ele>120.59999847412</ele>
        <time>2014-12-29T12:50:46.000Z</time>
      </trkpt>
      <trkpt lat="50.34189" lon="4.28733">
        <ele>121.19999694824</ele>
        <time>2014-12-29T12:50:53.000Z</time>
      </trkpt>
      <trkpt lat="50.34198" lon="4.28736">
        <ele>121.80000305176</ele>
        <time>2014-12-29T12:51:01.000Z</time>
      </trkpt>
      <trkpt lat="50.34206" lon="4.2874">
        <ele>122.40000152588</ele>
        <time>2014-12-29T12:51:08.000Z</time>
      </trkpt>
      <trkpt lat="50.34214" lon="4.28743">
        <ele>123</ele>
        <time>2014-12-29T12:51:16.000Z</time>
      </trkpt>
      <trkpt lat="50.34225" lon="4.28747">
        <ele>124.40000152588</ele>
        <time>2014-12-29T12:51:25.000Z</time>
      </trkpt>
      <trkpt lat="50.34228" lon="4.28752">
        <ele>124.80000305176</ele>
        <time>2014-12-29T12:51:30.000Z</time>
      </trkpt>
      <trkpt lat="50.34232" lon="4.28759">
        <ele>125.40000152588</ele>
        <time>2014-12-29T12:51:36.000Z</time>
      </trkpt>
      <trkpt lat="50.34233" lon="4.28766">
        <ele>125.59999847412</ele>
        <time>2014-12-29T12:51:41.000Z</time>
      </trkpt>
      <trkpt lat="50.34233" lon="4.28775">
        <ele>125.59999847412</ele>
        <time>2014-12-29T12:51:47.000Z</time>
      </trkpt>
      <trkpt lat="50.34233" lon="4.28777">
        <ele>125.59999847412</ele>
        <time>2014-12-29T12:51:48.000Z</time>
      </trkpt>
      <trkpt lat="50.34234" lon="4.28783">
        <ele>125.59999847412</ele>
        <time>2014-12-29T12:51:52.000Z</time>
      </trkpt>
      <trkpt lat="50.34235" lon="4.28781">
        <ele>125.80000305176</ele>
        <time>2014-12-29T12:51:58.000Z</time>
      </trkpt>
      <trkpt lat="50.34235" lon="4.28768">
        <ele>125.80000305176</ele>
        <time>2014-12-29T12:52:06.000Z</time>
      </trkpt>
      <trkpt lat="50.34236" lon="4.28766">
        <ele>125.80000305176</ele>
        <time>2014-12-29T12:52:07.000Z</time>
      </trkpt>
      <trkpt lat="50.3424" lon="4.28764">
        <ele>126.40000152588</ele>
        <time>2014-12-29T12:52:11.000Z</time>
      </trkpt>
      <trkpt lat="50.34255" lon="4.2878">
        <ele>128.39999389648</ele>
        <time>2014-12-29T12:52:26.000Z</time>
      </trkpt>
      <trkpt lat="50.34257" lon="4.28788">
        <ele>128.60000610352</ele>
        <time>2014-12-29T12:52:30.000Z</time>
      </trkpt>
      <trkpt lat="50.34261" lon="4.28796">
        <ele>129</ele>
        <time>2014-12-29T12:52:37.000Z</time>
      </trkpt>
      <trkpt lat="50.34261" lon="4.28785">
        <ele>129.19999694824</ele>
        <time>2014-12-29T12:52:45.000Z</time>
      </trkpt>
      <trkpt lat="50.3426" lon="4.28781">
        <ele>129</ele>
        <time>2014-12-29T12:52:47.000Z</time>
      </trkpt>
      <trkpt lat="50.34262" lon="4.28769">
        <ele>129.39999389648</ele>
        <time>2014-12-29T12:52:55.000Z</time>
      </trkpt>
      <trkpt lat="50.34263" lon="4.28769">
        <ele>129.39999389648</ele>
        <time>2014-12-29T12:52:56.000Z</time>
      </trkpt>
      <trkpt lat="50.3427" lon="4.28769">
        <ele>130.39999389648</ele>
        <time>2014-12-29T12:53:03.000Z</time>
      </trkpt>
      <trkpt lat="50.34278" lon="4.28772">
        <ele>131.39999389648</ele>
        <time>2014-12-29T12:53:11.000Z</time>
      </trkpt>
      <trkpt lat="50.34286" lon="4.28778">
        <ele>132.60000610352</ele>
        <time>2014-12-29T12:53:19.000Z</time>
      </trkpt>
      <trkpt lat="50.343" lon="4.28786">
        <ele>134.19999694824</ele>
        <time>2014-12-29T12:53:32.000Z</time>
      </trkpt>
      <trkpt lat="50.34301" lon="4.28788">
        <ele>134.39999389648</ele>
        <time>2014-12-29T12:53:34.000Z</time>
      </trkpt>
      <trkpt lat="50.34309" lon="4.28794">
        <ele>135.19999694824</ele>
        <time>2014-12-29T12:53:43.000Z</time>
      </trkpt>
      <trkpt lat="50.3431" lon="4.28795">
        <ele>135.39999389648</ele>
        <time>2014-12-29T12:53:44.000Z</time>
      </trkpt>
      <trkpt lat="50.34318" lon="4.28801">
        <ele>136.39999389648</ele>
        <time>2014-12-29T12:53:53.000Z</time>
      </trkpt>
      <trkpt lat="50.34326" lon="4.28804">
        <ele>137.60000610352</ele>
        <time>2014-12-29T12:54:00.000Z</time>
      </trkpt>
      <trkpt lat="50.34334" lon="4.28806">
        <ele>138.60000610352</ele>
        <time>2014-12-29T12:54:08.000Z</time>
      </trkpt>
      <trkpt lat="50.34343" lon="4.28805">
        <ele>140.19999694824</ele>
        <time>2014-12-29T12:54:17.000Z</time>
      </trkpt>
      <trkpt lat="50.34362" lon="4.28802">
        <ele>143.19999694824</ele>
        <time>2014-12-29T12:54:35.000Z</time>
      </trkpt>
      <trkpt lat="50.34371" lon="4.28807">
        <ele>144.39999389648</ele>
        <time>2014-12-29T12:54:42.000Z</time>
      </trkpt>
      <trkpt lat="50.34378" lon="4.28815">
        <ele>145.39999389648</ele>
        <time>2014-12-29T12:54:50.000Z</time>
      </trkpt>
      <trkpt lat="50.34386" lon="4.28825">
        <ele>146</ele>
        <time>2014-12-29T12:54:59.000Z</time>
      </trkpt>
      <trkpt lat="50.34394" lon="4.28835">
        <ele>146.60000610352</ele>
        <time>2014-12-29T12:55:08.000Z</time>
      </trkpt>
      <trkpt lat="50.344" lon="4.28845">
        <ele>147</ele>
        <time>2014-12-29T12:55:16.000Z</time>
      </trkpt>
      <trkpt lat="50.34407" lon="4.28854">
        <ele>147.39999389648</ele>
        <time>2014-12-29T12:55:24.000Z</time>
      </trkpt>
      <trkpt lat="50.34413" lon="4.28862">
        <ele>148</ele>
        <time>2014-12-29T12:55:32.000Z</time>
      </trkpt>
      <trkpt lat="50.34422" lon="4.28874">
        <ele>148.39999389648</ele>
        <time>2014-12-29T12:55:42.000Z</time>
      </trkpt>
      <trkpt lat="50.34429" lon="4.28883">
        <ele>148.80000305176</ele>
        <time>2014-12-29T12:55:50.000Z</time>
      </trkpt>
      <trkpt lat="50.34437" lon="4.28895">
        <ele>149.19999694824</ele>
        <time>2014-12-29T12:56:00.000Z</time>
      </trkpt>
      <trkpt lat="50.34445" lon="4.28904">
        <ele>149.80000305176</ele>
        <time>2014-12-29T12:56:09.000Z</time>
      </trkpt>
      <trkpt lat="50.34452" lon="4.28912">
        <ele>150.19999694824</ele>
        <time>2014-12-29T12:56:16.000Z</time>
      </trkpt>
      <trkpt lat="50.34462" lon="4.28924">
        <ele>150.80000305176</ele>
        <time>2014-12-29T12:56:27.000Z</time>
      </trkpt>
      <trkpt lat="50.34464" lon="4.28927">
        <ele>151</ele>
        <time>2014-12-29T12:56:29.000Z</time>
      </trkpt>
      <trkpt lat="50.34468" lon="4.28933">
        <ele>151.39999389648</ele>
        <time>2014-12-29T12:56:34.000Z</time>
      </trkpt>
      <trkpt lat="50.34473" lon="4.2894">
        <ele>152</ele>
        <time>2014-12-29T12:56:40.000Z</time>
      </trkpt>
      <trkpt lat="50.34478" lon="4.28945">
        <ele>152.60000610352</ele>
        <time>2014-12-29T12:56:45.000Z</time>
      </trkpt>
      <trkpt lat="50.34488" lon="4.28957">
        <ele>153.60000610352</ele>
        <time>2014-12-29T12:56:56.000Z</time>
      </trkpt>
      <trkpt lat="50.34495" lon="4.28966">
        <ele>154.19999694824</ele>
        <time>2014-12-29T12:57:04.000Z</time>
      </trkpt>
      <trkpt lat="50.34514" lon="4.28981">
        <ele>156.39999389648</ele>
        <time>2014-12-29T12:57:25.000Z</time>
      </trkpt>
      <trkpt lat="50.34519" lon="4.28974">
        <ele>157.80000305176</ele>
        <time>2014-12-29T12:57:32.000Z</time>
      </trkpt>
      <trkpt lat="50.3452" lon="4.28973">
        <ele>158.19999694824</ele>
        <time>2014-12-29T12:57:34.000Z</time>
      </trkpt>
      <trkpt lat="50.34521" lon="4.28964">
        <ele>159</ele>
        <time>2014-12-29T12:57:39.000Z</time>
      </trkpt>
      <trkpt lat="50.34519" lon="4.28954">
        <ele>159.19999694824</ele>
        <time>2014-12-29T12:57:45.000Z</time>
      </trkpt>
      <trkpt lat="50.34514" lon="4.28938">
        <ele>159.39999389648</ele>
        <time>2014-12-29T12:57:55.000Z</time>
      </trkpt>
      <trkpt lat="50.3451" lon="4.28924">
        <ele>159.39999389648</ele>
        <time>2014-12-29T12:58:03.000Z</time>
      </trkpt>
      <trkpt lat="50.34508" lon="4.28915">
        <ele>159.39999389648</ele>
        <time>2014-12-29T12:58:08.000Z</time>
      </trkpt>
      <trkpt lat="50.34514" lon="4.28913">
        <ele>160.39999389648</ele>
        <time>2014-12-29T12:58:14.000Z</time>
      </trkpt>
      <trkpt lat="50.34516" lon="4.28915">
        <ele>160.80000305176</ele>
        <time>2014-12-29T12:58:16.000Z</time>
      </trkpt>
      <trkpt lat="50.34524" lon="4.28926">
        <ele>161.80000305176</ele>
        <time>2014-12-29T12:58:26.000Z</time>
      </trkpt>
      <trkpt lat="50.34525" lon="4.28927">
        <ele>162</ele>
        <time>2014-12-29T12:58:27.000Z</time>
      </trkpt>
      <trkpt lat="50.34534" lon="4.28939">
        <ele>162.80000305176</ele>
        <time>2014-12-29T12:58:38.000Z</time>
      </trkpt>
      <trkpt lat="50.34541" lon="4.28952">
        <ele>163.39999389648</ele>
        <time>2014-12-29T12:58:48.000Z</time>
      </trkpt>
      <trkpt lat="50.34545" lon="4.28961">
        <ele>163.60000610352</ele>
        <time>2014-12-29T12:58:55.000Z</time>
      </trkpt>
      <trkpt lat="50.3455" lon="4.2897">
        <ele>163.60000610352</ele>
        <time>2014-12-29T12:59:02.000Z</time>
      </trkpt>
      <trkpt lat="50.34552" lon="4.28973">
        <ele>163.80000305176</ele>
        <time>2014-12-29T12:59:05.000Z</time>
      </trkpt>
      <trkpt lat="50.34553" lon="4.28976">
        <ele>163.60000610352</ele>
        <time>2014-12-29T12:59:15.000Z</time>
      </trkpt>
      <trkpt lat="50.34557" lon="4.28981">
        <ele>164</ele>
        <time>2014-12-29T12:59:27.000Z</time>
      </trkpt>
      <trkpt lat="50.34562" lon="4.28986">
        <ele>164.39999389648</ele>
        <time>2014-12-29T12:59:32.000Z</time>
      </trkpt>
      <trkpt lat="50.3457" lon="4.28993">
        <ele>165.19999694824</ele>
        <time>2014-12-29T12:59:40.000Z</time>
      </trkpt>
      <trkpt lat="50.34573" lon="4.28996">
        <ele>165.39999389648</ele>
        <time>2014-12-29T12:59:43.000Z</time>
      </trkpt>
      <trkpt lat="50.34582" lon="4.29">
        <ele>166.39999389648</ele>
        <time>2014-12-29T12:59:50.000Z</time>
      </trkpt>
      <trkpt lat="50.34584" lon="4.29002">
        <ele>166.80000305176</ele>
        <time>2014-12-29T12:59:52.000Z</time>
      </trkpt>
      <trkpt lat="50.34593" lon="4.29006">
        <ele>167.80000305176</ele>
        <time>2014-12-29T12:59:59.000Z</time>
      </trkpt>
      <trkpt lat="50.346" lon="4.29011">
        <ele>168.60000610352</ele>
        <time>2014-12-29T13:00:05.000Z</time>
      </trkpt>
      <trkpt lat="50.34607" lon="4.29017">
        <ele>169.19999694824</ele>
        <time>2014-12-29T13:00:12.000Z</time>
      </trkpt>
      <trkpt lat="50.34613" lon="4.29023">
        <ele>169.80000305176</ele>
        <time>2014-12-29T13:00:18.000Z</time>
      </trkpt>
      <trkpt lat="50.34622" lon="4.29028">
        <ele>170.60000610352</ele>
        <time>2014-12-29T13:00:27.000Z</time>
      </trkpt>
      <trkpt lat="50.34632" lon="4.29034">
        <ele>171.80000305176</ele>
        <time>2014-12-29T13:00:37.000Z</time>
      </trkpt>
      <trkpt lat="50.3464" lon="4.29037">
        <ele>172.39999389648</ele>
        <time>2014-12-29T13:00:44.000Z</time>
      </trkpt>
      <trkpt lat="50.34648" lon="4.29042">
        <ele>172.80000305176</ele>
        <time>2014-12-29T13:00:52.000Z</time>
      </trkpt>
      <trkpt lat="50.3465" lon="4.29043">
        <ele>173</ele>
        <time>2014-12-29T13:00:54.000Z</time>
      </trkpt>
      <trkpt lat="50.34658" lon="4.29047">
        <ele>173.60000610352</ele>
        <time>2014-12-29T13:01:02.000Z</time>
      </trkpt>
      <trkpt lat="50.34663" lon="4.29049">
        <ele>174</ele>
        <time>2014-12-29T13:01:07.000Z</time>
      </trkpt>
      <trkpt lat="50.34667" lon="4.29051">
        <ele>174.19999694824</ele>
        <time>2014-12-29T13:01:11.000Z</time>
      </trkpt>
      <trkpt lat="50.34676" lon="4.29058">
        <ele>174.39999389648</ele>
        <time>2014-12-29T13:01:19.000Z</time>
      </trkpt>
      <trkpt lat="50.34684" lon="4.29062">
        <ele>175</ele>
        <time>2014-12-29T13:01:27.000Z</time>
      </trkpt>
      <trkpt lat="50.34694" lon="4.29068">
        <ele>175.60000610352</ele>
        <time>2014-12-29T13:01:37.000Z</time>
      </trkpt>
      <trkpt lat="50.34701" lon="4.29076">
        <ele>175.80000305176</ele>
        <time>2014-12-29T13:01:45.000Z</time>
      </trkpt>
      <trkpt lat="50.34709" lon="4.29083">
        <ele>176</ele>
        <time>2014-12-29T13:01:54.000Z</time>
      </trkpt>
      <trkpt lat="50.34718" lon="4.29092">
        <ele>176.39999389648</ele>
        <time>2014-12-29T13:02:04.000Z</time>
      </trkpt>
      <trkpt lat="50.34726" lon="4.291">
        <ele>176.60000610352</ele>
        <time>2014-12-29T13:02:13.000Z</time>
      </trkpt>
      <trkpt lat="50.34732" lon="4.29106">
        <ele>176.80000305176</ele>
        <time>2014-12-29T13:02:20.000Z</time>
      </trkpt>
      <trkpt lat="50.34741" lon="4.29115">
        <ele>177.60000610352</ele>
        <time>2014-12-29T13:02:31.000Z</time>
      </trkpt>
      <trkpt lat="50.34749" lon="4.29119">
        <ele>178.39999389648</ele>
        <time>2014-12-29T13:02:38.000Z</time>
      </trkpt>
      <trkpt lat="50.34757" lon="4.29122">
        <ele>179.39999389648</ele>
        <time>2014-12-29T13:02:46.000Z</time>
      </trkpt>
      <trkpt lat="50.34764" lon="4.29123">
        <ele>180.39999389648</ele>
        <time>2014-12-29T13:02:54.000Z</time>
      </trkpt>
      <trkpt lat="50.34766" lon="4.29122">
        <ele>180.60000610352</ele>
        <time>2014-12-29T13:02:56.000Z</time>
      </trkpt>
      <trkpt lat="50.34774" lon="4.2912">
        <ele>181.60000610352</ele>
        <time>2014-12-29T13:03:04.000Z</time>
      </trkpt>
      <trkpt lat="50.34781" lon="4.29118">
        <ele>182.60000610352</ele>
        <time>2014-12-29T13:03:11.000Z</time>
      </trkpt>
      <trkpt lat="50.3479" lon="4.29116">
        <ele>184</ele>
        <time>2014-12-29T13:03:19.000Z</time>
      </trkpt>
      <trkpt lat="50.34801" lon="4.29117">
        <ele>185.19999694824</ele>
        <time>2014-12-29T13:03:28.000Z</time>
      </trkpt>
      <trkpt lat="50.3481" lon="4.29119">
        <ele>185.60000610352</ele>
        <time>2014-12-29T13:03:37.000Z</time>
      </trkpt>
      <trkpt lat="50.34818" lon="4.29124">
        <ele>186</ele>
        <time>2014-12-29T13:03:45.000Z</time>
      </trkpt>
      <trkpt lat="50.34822" lon="4.29131">
        <ele>186.39999389648</ele>
        <time>2014-12-29T13:03:51.000Z</time>
      </trkpt>
      <trkpt lat="50.34825" lon="4.29137">
        <ele>186.60000610352</ele>
        <time>2014-12-29T13:03:56.000Z</time>
      </trkpt>
      <trkpt lat="50.3483" lon="4.29159">
        <ele>186.60000610352</ele>
        <time>2014-12-29T13:04:10.000Z</time>
      </trkpt>
      <trkpt lat="50.34841" lon="4.29198">
        <ele>186.60000610352</ele>
        <time>2014-12-29T13:04:31.000Z</time>
      </trkpt>
      <trkpt lat="50.34843" lon="4.29201">
        <ele>186.80000305176</ele>
        <time>2014-12-29T13:04:33.000Z</time>
      </trkpt>
      <trkpt lat="50.34848" lon="4.29201">
        <ele>187.19999694824</ele>
        <time>2014-12-29T13:04:37.000Z</time>
      </trkpt>
      <trkpt lat="50.34864" lon="4.29191">
        <ele>188.60000610352</ele>
        <time>2014-12-29T13:04:51.000Z</time>
      </trkpt>
      <trkpt lat="50.34876" lon="4.29181">
        <ele>189.60000610352</ele>
        <time>2014-12-29T13:05:02.000Z</time>
      </trkpt>
      <trkpt lat="50.34887" lon="4.29172">
        <ele>189.80000305176</ele>
        <time>2014-12-29T13:05:13.000Z</time>
      </trkpt>
      <trkpt lat="50.34898" lon="4.29162">
        <ele>189.60000610352</ele>
        <time>2014-12-29T13:05:25.000Z</time>
      </trkpt>
      <trkpt lat="50.34903" lon="4.29154">
        <ele>189.39999389648</ele>
        <time>2014-12-29T13:05:34.000Z</time>
      </trkpt>
      <trkpt lat="50.34905" lon="4.29152">
        <ele>189.39999389648</ele>
        <time>2014-12-29T13:05:39.000Z</time>
      </trkpt>
      <trkpt lat="50.34905" lon="4.29153">
        <ele>189.39999389648</ele>
        <time>2014-12-29T13:06:13.000Z</time>
      </trkpt>
      <trkpt lat="50.3491" lon="4.29145">
        <ele>189.39999389648</ele>
        <time>2014-12-29T13:06:20.000Z</time>
      </trkpt>
      <trkpt lat="50.34917" lon="4.29131">
        <ele>189.80000305176</ele>
        <time>2014-12-29T13:06:31.000Z</time>
      </trkpt>
      <trkpt lat="50.34921" lon="4.29123">
        <ele>190.19999694824</ele>
        <time>2014-12-29T13:06:39.000Z</time>
      </trkpt>
      <trkpt lat="50.3493" lon="4.29111">
        <ele>190.80000305176</ele>
        <time>2014-12-29T13:06:48.000Z</time>
      </trkpt>
      <trkpt lat="50.34936" lon="4.29112">
        <ele>191</ele>
        <time>2014-12-29T13:06:54.000Z</time>
      </trkpt>
      <trkpt lat="50.34939" lon="4.29114">
        <ele>191</ele>
        <time>2014-12-29T13:06:59.000Z</time>
      </trkpt>
      <trkpt lat="50.34947" lon="4.2912">
        <ele>191.19999694824</ele>
        <time>2014-12-29T13:07:07.000Z</time>
      </trkpt>
      <trkpt lat="50.34956" lon="4.29127">
        <ele>191.39999389648</ele>
        <time>2014-12-29T13:07:18.000Z</time>
      </trkpt>
      <trkpt lat="50.34957" lon="4.29128">
        <ele>191.39999389648</ele>
        <time>2014-12-29T13:07:19.000Z</time>
      </trkpt>
      <trkpt lat="50.34961" lon="4.29132">
        <ele>191.39999389648</ele>
        <time>2014-12-29T13:07:24.000Z</time>
      </trkpt>
      <trkpt lat="50.34964" lon="4.29134">
        <ele>191.39999389648</ele>
        <time>2014-12-29T13:07:28.000Z</time>
      </trkpt>
      <trkpt lat="50.34972" lon="4.2914">
        <ele>191.60000610352</ele>
        <time>2014-12-29T13:07:37.000Z</time>
      </trkpt>
      <trkpt lat="50.3498" lon="4.29146">
        <ele>191.80000305176</ele>
        <time>2014-12-29T13:07:45.000Z</time>
      </trkpt>
      <trkpt lat="50.34988" lon="4.29152">
        <ele>192</ele>
        <time>2014-12-29T13:07:53.000Z</time>
      </trkpt>
      <trkpt lat="50.35002" lon="4.29162">
        <ele>192.19999694824</ele>
        <time>2014-12-29T13:08:06.000Z</time>
      </trkpt>
      <trkpt lat="50.35003" lon="4.29164">
        <ele>192.19999694824</ele>
        <time>2014-12-29T13:08:07.000Z</time>
      </trkpt>
      <trkpt lat="50.35009" lon="4.29167">
        <ele>192.39999389648</ele>
        <time>2014-12-29T13:08:12.000Z</time>
      </trkpt>
      <trkpt lat="50.35021" lon="4.29177">
        <ele>192.60000610352</ele>
        <time>2014-12-29T13:08:24.000Z</time>
      </trkpt>
      <trkpt lat="50.35033" lon="4.29186">
        <ele>192.80000305176</ele>
        <time>2014-12-29T13:08:35.000Z</time>
      </trkpt>
      <trkpt lat="50.35043" lon="4.29188">
        <ele>192.80000305176</ele>
        <time>2014-12-29T13:08:44.000Z</time>
      </trkpt>
      <trkpt lat="50.35054" lon="4.29186">
        <ele>193</ele>
        <time>2014-12-29T13:08:53.000Z</time>
      </trkpt>
      <trkpt lat="50.35063" lon="4.29183">
        <ele>193.19999694824</ele>
        <time>2014-12-29T13:09:01.000Z</time>
      </trkpt>
      <trkpt lat="50.35075" lon="4.2918">
        <ele>193.39999389648</ele>
        <time>2014-12-29T13:09:11.000Z</time>
      </trkpt>
      <trkpt lat="50.35098" lon="4.29174">
        <ele>194</ele>
        <time>2014-12-29T13:09:31.000Z</time>
      </trkpt>
      <trkpt lat="50.35105" lon="4.29178">
        <ele>194.19999694824</ele>
        <time>2014-12-29T13:09:37.000Z</time>
      </trkpt>
      <trkpt lat="50.35112" lon="4.29176">
        <ele>194.19999694824</ele>
        <time>2014-12-29T13:09:43.000Z</time>
      </trkpt>
      <trkpt lat="50.35119" lon="4.29179">
        <ele>194.39999389648</ele>
        <time>2014-12-29T13:09:49.000Z</time>
      </trkpt>
      <trkpt lat="50.35132" lon="4.29186">
        <ele>194.80000305176</ele>
        <time>2014-12-29T13:10:00.000Z</time>
      </trkpt>
      <trkpt lat="50.35144" lon="4.29189">
        <ele>195</ele>
        <time>2014-12-29T13:10:09.000Z</time>
      </trkpt>
      <trkpt lat="50.35152" lon="4.29192">
        <ele>195.19999694824</ele>
        <time>2014-12-29T13:10:16.000Z</time>
      </trkpt>
      <trkpt lat="50.35162" lon="4.29196">
        <ele>195.39999389648</ele>
        <time>2014-12-29T13:10:25.000Z</time>
      </trkpt>
      <trkpt lat="50.35172" lon="4.29199">
        <ele>195.39999389648</ele>
        <time>2014-12-29T13:10:34.000Z</time>
      </trkpt>
      <trkpt lat="50.35183" lon="4.29203">
        <ele>195.60000610352</ele>
        <time>2014-12-29T13:10:43.000Z</time>
      </trkpt>
      <trkpt lat="50.35187" lon="4.29205">
        <ele>195.60000610352</ele>
        <time>2014-12-29T13:10:46.000Z</time>
      </trkpt>
      <trkpt lat="50.35193" lon="4.29207">
        <ele>195.80000305176</ele>
        <time>2014-12-29T13:10:51.000Z</time>
      </trkpt>
      <trkpt lat="50.35206" lon="4.29209">
        <ele>196</ele>
        <time>2014-12-29T13:11:00.000Z</time>
      </trkpt>
      <trkpt lat="50.35218" lon="4.2921">
        <ele>196</ele>
        <time>2014-12-29T13:11:09.000Z</time>
      </trkpt>
      <trkpt lat="50.35228" lon="4.29211">
        <ele>195.80000305176</ele>
        <time>2014-12-29T13:11:17.000Z</time>
      </trkpt>
      <trkpt lat="50.35238" lon="4.29211">
        <ele>195.60000610352</ele>
        <time>2014-12-29T13:11:25.000Z</time>
      </trkpt>
      <trkpt lat="50.35249" lon="4.29209">
        <ele>195.39999389648</ele>
        <time>2014-12-29T13:11:33.000Z</time>
      </trkpt>
      <trkpt lat="50.35256" lon="4.29213">
        <ele>195.19999694824</ele>
        <time>2014-12-29T13:11:40.000Z</time>
      </trkpt>
      <trkpt lat="50.35267" lon="4.29215">
        <ele>195</ele>
        <time>2014-12-29T13:11:49.000Z</time>
      </trkpt>
      <trkpt lat="50.3528" lon="4.29218">
        <ele>194.60000610352</ele>
        <time>2014-12-29T13:11:59.000Z</time>
      </trkpt>
      <trkpt lat="50.35291" lon="4.29222">
        <ele>194.39999389648</ele>
        <time>2014-12-29T13:12:07.000Z</time>
      </trkpt>
      <trkpt lat="50.35296" lon="4.29224">
        <ele>194.39999389648</ele>
        <time>2014-12-29T13:12:10.000Z</time>
      </trkpt>
      <trkpt lat="50.35311" lon="4.29228">
        <ele>194.39999389648</ele>
        <time>2014-12-29T13:12:20.000Z</time>
      </trkpt>
      <trkpt lat="50.35324" lon="4.29231">
        <ele>194.39999389648</ele>
        <time>2014-12-29T13:12:30.000Z</time>
      </trkpt>
      <trkpt lat="50.35335" lon="4.29234">
        <ele>194.39999389648</ele>
        <time>2014-12-29T13:12:38.000Z</time>
      </trkpt>
      <trkpt lat="50.35348" lon="4.2924">
        <ele>194.60000610352</ele>
        <time>2014-12-29T13:12:48.000Z</time>
      </trkpt>
      <trkpt lat="50.35359" lon="4.29243">
        <ele>194.80000305176</ele>
        <time>2014-12-29T13:12:57.000Z</time>
      </trkpt>
      <trkpt lat="50.35362" lon="4.29245">
        <ele>194.80000305176</ele>
        <time>2014-12-29T13:12:59.000Z</time>
      </trkpt>
      <trkpt lat="50.35371" lon="4.29247">
        <ele>194.80000305176</ele>
        <time>2014-12-29T13:13:06.000Z</time>
      </trkpt>
      <trkpt lat="50.35379" lon="4.29248">
        <ele>195</ele>
        <time>2014-12-29T13:13:12.000Z</time>
      </trkpt>
      <trkpt lat="50.35385" lon="4.29249">
        <ele>195</ele>
        <time>2014-12-29T13:13:17.000Z</time>
      </trkpt>
      <trkpt lat="50.35395" lon="4.29253">
        <ele>194.60000610352</ele>
        <time>2014-12-29T13:13:25.000Z</time>
      </trkpt>
      <trkpt lat="50.35403" lon="4.29254">
        <ele>194.39999389648</ele>
        <time>2014-12-29T13:13:32.000Z</time>
      </trkpt>
      <trkpt lat="50.35412" lon="4.29255">
        <ele>194.19999694824</ele>
        <time>2014-12-29T13:13:39.000Z</time>
      </trkpt>
      <trkpt lat="50.3542" lon="4.29255">
        <ele>194</ele>
        <time>2014-12-29T13:13:46.000Z</time>
      </trkpt>
      <trkpt lat="50.35428" lon="4.29255">
        <ele>193.80000305176</ele>
        <time>2014-12-29T13:13:53.000Z</time>
      </trkpt>
      <trkpt lat="50.3544" lon="4.29256">
        <ele>193.60000610352</ele>
        <time>2014-12-29T13:14:03.000Z</time>
      </trkpt>
      <trkpt lat="50.35449" lon="4.29256">
        <ele>193.39999389648</ele>
        <time>2014-12-29T13:14:10.000Z</time>
      </trkpt>
      <trkpt lat="50.35457" lon="4.29256">
        <ele>193.19999694824</ele>
        <time>2014-12-29T13:14:17.000Z</time>
      </trkpt>
      <trkpt lat="50.3547" lon="4.29256">
        <ele>193</ele>
        <time>2014-12-29T13:14:26.000Z</time>
      </trkpt>
      <trkpt lat="50.35483" lon="4.29257">
        <ele>193</ele>
        <time>2014-12-29T13:14:36.000Z</time>
      </trkpt>
      <trkpt lat="50.35494" lon="4.29256">
        <ele>193</ele>
        <time>2014-12-29T13:14:45.000Z</time>
      </trkpt>
      <trkpt lat="50.35503" lon="4.29256">
        <ele>193</ele>
        <time>2014-12-29T13:14:52.000Z</time>
      </trkpt>
      <trkpt lat="50.35514" lon="4.29255">
        <ele>193</ele>
        <time>2014-12-29T13:15:00.000Z</time>
      </trkpt>
      <trkpt lat="50.35518" lon="4.29255">
        <ele>193</ele>
        <time>2014-12-29T13:15:03.000Z</time>
      </trkpt>
      <trkpt lat="50.35526" lon="4.29254">
        <ele>193</ele>
        <time>2014-12-29T13:15:09.000Z</time>
      </trkpt>
      <trkpt lat="50.35527" lon="4.29254">
        <ele>192.80000305176</ele>
        <time>2014-12-29T13:15:10.000Z</time>
      </trkpt>
      <trkpt lat="50.35541" lon="4.29255">
        <ele>192.60000610352</ele>
        <time>2014-12-29T13:15:20.000Z</time>
      </trkpt>
      <trkpt lat="50.35549" lon="4.29254">
        <ele>192.39999389648</ele>
        <time>2014-12-29T13:15:26.000Z</time>
      </trkpt>
      <trkpt lat="50.35557" lon="4.29253">
        <ele>192.19999694824</ele>
        <time>2014-12-29T13:15:32.000Z</time>
      </trkpt>
      <trkpt lat="50.35564" lon="4.29253">
        <ele>192.19999694824</ele>
        <time>2014-12-29T13:15:37.000Z</time>
      </trkpt>
      <trkpt lat="50.35573" lon="4.29252">
        <ele>192</ele>
        <time>2014-12-29T13:15:44.000Z</time>
      </trkpt>
      <trkpt lat="50.35588" lon="4.2925">
        <ele>191.80000305176</ele>
        <time>2014-12-29T13:15:55.000Z</time>
      </trkpt>
      <trkpt lat="50.35601" lon="4.2925">
        <ele>191.60000610352</ele>
        <time>2014-12-29T13:16:05.000Z</time>
      </trkpt>
      <trkpt lat="50.35615" lon="4.29249">
        <ele>191.39999389648</ele>
        <time>2014-12-29T13:16:15.000Z</time>
      </trkpt>
      <trkpt lat="50.35629" lon="4.29248">
        <ele>191.19999694824</ele>
        <time>2014-12-29T13:16:26.000Z</time>
      </trkpt>
      <trkpt lat="50.35639" lon="4.29248">
        <ele>191.19999694824</ele>
        <time>2014-12-29T13:16:33.000Z</time>
      </trkpt>
      <trkpt lat="50.35652" lon="4.29248">
        <ele>191.19999694824</ele>
        <time>2014-12-29T13:16:42.000Z</time>
      </trkpt>
      <trkpt lat="50.35657" lon="4.29247">
        <ele>191.19999694824</ele>
        <time>2014-12-29T13:16:46.000Z</time>
      </trkpt>
      <trkpt lat="50.35664" lon="4.29247">
        <ele>191.19999694824</ele>
        <time>2014-12-29T13:16:52.000Z</time>
      </trkpt>
      <trkpt lat="50.35677" lon="4.29246">
        <ele>191.19999694824</ele>
        <time>2014-12-29T13:17:01.000Z</time>
      </trkpt>
      <trkpt lat="50.35687" lon="4.29246">
        <ele>191.19999694824</ele>
        <time>2014-12-29T13:17:08.000Z</time>
      </trkpt>
      <trkpt lat="50.35695" lon="4.29246">
        <ele>191.39999389648</ele>
        <time>2014-12-29T13:17:15.000Z</time>
      </trkpt>
      <trkpt lat="50.35704" lon="4.29245">
        <ele>191.39999389648</ele>
        <time>2014-12-29T13:17:22.000Z</time>
      </trkpt>
      <trkpt lat="50.35716" lon="4.29245">
        <ele>191.60000610352</ele>
        <time>2014-12-29T13:17:31.000Z</time>
      </trkpt>
      <trkpt lat="50.3573" lon="4.29245">
        <ele>191.39999389648</ele>
        <time>2014-12-29T13:17:41.000Z</time>
      </trkpt>
      <trkpt lat="50.35741" lon="4.29245">
        <ele>191.19999694824</ele>
        <time>2014-12-29T13:17:49.000Z</time>
      </trkpt>
      <trkpt lat="50.35747" lon="4.29245">
        <ele>191.19999694824</ele>
        <time>2014-12-29T13:17:54.000Z</time>
      </trkpt>
      <trkpt lat="50.35758" lon="4.29243">
        <ele>191</ele>
        <time>2014-12-29T13:18:03.000Z</time>
      </trkpt>
      <trkpt lat="50.35766" lon="4.29243">
        <ele>191</ele>
        <time>2014-12-29T13:18:08.000Z</time>
      </trkpt>
      <trkpt lat="50.35774" lon="4.29244">
        <ele>191</ele>
        <time>2014-12-29T13:18:15.000Z</time>
      </trkpt>
      <trkpt lat="50.35784" lon="4.29243">
        <ele>191</ele>
        <time>2014-12-29T13:18:24.000Z</time>
      </trkpt>
      <trkpt lat="50.358" lon="4.29242">
        <ele>191</ele>
        <time>2014-12-29T13:18:36.000Z</time>
      </trkpt>
      <trkpt lat="50.35809" lon="4.29241">
        <ele>191.19999694824</ele>
        <time>2014-12-29T13:18:43.000Z</time>
      </trkpt>
      <trkpt lat="50.3582" lon="4.29239">
        <ele>191.60000610352</ele>
        <time>2014-12-29T13:18:51.000Z</time>
      </trkpt>
      <trkpt lat="50.35829" lon="4.29239">
        <ele>191.80000305176</ele>
        <time>2014-12-29T13:18:58.000Z</time>
      </trkpt>
      <trkpt lat="50.35838" lon="4.29238">
        <ele>192</ele>
        <time>2014-12-29T13:19:05.000Z</time>
      </trkpt>
      <trkpt lat="50.35852" lon="4.29237">
        <ele>192.19999694824</ele>
        <time>2014-12-29T13:19:15.000Z</time>
      </trkpt>
      <trkpt lat="50.35866" lon="4.29236">
        <ele>192.60000610352</ele>
        <time>2014-12-29T13:19:26.000Z</time>
      </trkpt>
      <trkpt lat="50.35878" lon="4.29236">
        <ele>193</ele>
        <time>2014-12-29T13:19:36.000Z</time>
      </trkpt>
      <trkpt lat="50.35884" lon="4.29236">
        <ele>193</ele>
        <time>2014-12-29T13:19:41.000Z</time>
      </trkpt>
      <trkpt lat="50.35891" lon="4.29235">
        <ele>192.80000305176</ele>
        <time>2014-12-29T13:19:46.000Z</time>
      </trkpt>
      <trkpt lat="50.35897" lon="4.29231">
        <ele>192.80000305176</ele>
        <time>2014-12-29T13:19:52.000Z</time>
      </trkpt>
      <trkpt lat="50.35903" lon="4.29226">
        <ele>192.80000305176</ele>
        <time>2014-12-29T13:19:57.000Z</time>
      </trkpt>
      <trkpt lat="50.35909" lon="4.29207">
        <ele>192.60000610352</ele>
        <time>2014-12-29T13:20:07.000Z</time>
      </trkpt>
      <trkpt lat="50.35912" lon="4.29191">
        <ele>192.60000610352</ele>
        <time>2014-12-29T13:20:15.000Z</time>
      </trkpt>
      <trkpt lat="50.35912" lon="4.29168">
        <ele>192.60000610352</ele>
        <time>2014-12-29T13:20:26.000Z</time>
      </trkpt>
      <trkpt lat="50.35911" lon="4.29131">
        <ele>192.80000305176</ele>
        <time>2014-12-29T13:20:45.000Z</time>
      </trkpt>
      <trkpt lat="50.35911" lon="4.29129">
        <ele>192.80000305176</ele>
        <time>2014-12-29T13:20:46.000Z</time>
      </trkpt>
      <trkpt lat="50.3591" lon="4.29116">
        <ele>193</ele>
        <time>2014-12-29T13:20:52.000Z</time>
      </trkpt>
      <trkpt lat="50.3591" lon="4.29112">
        <ele>193</ele>
        <time>2014-12-29T13:20:54.000Z</time>
      </trkpt>
      <trkpt lat="50.3591" lon="4.29094">
        <ele>193</ele>
        <time>2014-12-29T13:21:03.000Z</time>
      </trkpt>
      <trkpt lat="50.3591" lon="4.29082">
        <ele>193</ele>
        <time>2014-12-29T13:21:09.000Z</time>
      </trkpt>
      <trkpt lat="50.3591" lon="4.29045">
        <ele>193.19999694824</ele>
        <time>2014-12-29T13:21:28.000Z</time>
      </trkpt>
      <trkpt lat="50.35909" lon="4.29033">
        <ele>193.39999389648</ele>
        <time>2014-12-29T13:21:34.000Z</time>
      </trkpt>
      <trkpt lat="50.35909" lon="4.29025">
        <ele>193.19999694824</ele>
        <time>2014-12-29T13:21:38.000Z</time>
      </trkpt>
      <trkpt lat="50.35909" lon="4.29004">
        <ele>193</ele>
        <time>2014-12-29T13:21:48.000Z</time>
      </trkpt>
      <trkpt lat="50.35908" lon="4.28984">
        <ele>192.80000305176</ele>
        <time>2014-12-29T13:21:57.000Z</time>
      </trkpt>
      <trkpt lat="50.35908" lon="4.28974">
        <ele>192.60000610352</ele>
        <time>2014-12-29T13:22:02.000Z</time>
      </trkpt>
      <trkpt lat="50.35908" lon="4.28958">
        <ele>192.60000610352</ele>
        <time>2014-12-29T13:22:10.000Z</time>
      </trkpt>
      <trkpt lat="50.35908" lon="4.28952">
        <ele>192.60000610352</ele>
        <time>2014-12-29T13:22:13.000Z</time>
      </trkpt>
      <trkpt lat="50.35908" lon="4.2895">
        <ele>192.60000610352</ele>
        <time>2014-12-29T13:22:14.000Z</time>
      </trkpt>
      <trkpt lat="50.35909" lon="4.28933">
        <ele>192.60000610352</ele>
        <time>2014-12-29T13:22:23.000Z</time>
      </trkpt>
      <trkpt lat="50.35909" lon="4.28932">
        <ele>192.60000610352</ele>
        <time>2014-12-29T13:22:24.000Z</time>
      </trkpt>
      <trkpt lat="50.35908" lon="4.28924">
        <ele>192.60000610352</ele>
        <time>2014-12-29T13:22:28.000Z</time>
      </trkpt>
      <trkpt lat="50.35907" lon="4.28913">
        <ele>192.60000610352</ele>
        <time>2014-12-29T13:22:34.000Z</time>
      </trkpt>
      <trkpt lat="50.35906" lon="4.28891">
        <ele>192.60000610352</ele>
        <time>2014-12-29T13:22:45.000Z</time>
      </trkpt>
      <trkpt lat="50.35905" lon="4.28875">
        <ele>192.60000610352</ele>
        <time>2014-12-29T13:22:53.000Z</time>
      </trkpt>
      <trkpt lat="50.35904" lon="4.28856">
        <ele>192.39999389648</ele>
        <time>2014-12-29T13:23:02.000Z</time>
      </trkpt>
      <trkpt lat="50.35904" lon="4.2884">
        <ele>192.19999694824</ele>
        <time>2014-12-29T13:23:10.000Z</time>
      </trkpt>
      <trkpt lat="50.35904" lon="4.28824">
        <ele>192</ele>
        <time>2014-12-29T13:23:18.000Z</time>
      </trkpt>
      <trkpt lat="50.35903" lon="4.28804">
        <ele>191.80000305176</ele>
        <time>2014-12-29T13:23:28.000Z</time>
      </trkpt>
      <trkpt lat="50.35902" lon="4.28783">
        <ele>191.39999389648</ele>
        <time>2014-12-29T13:23:38.000Z</time>
      </trkpt>
      <trkpt lat="50.35902" lon="4.2876">
        <ele>191</ele>
        <time>2014-12-29T13:23:49.000Z</time>
      </trkpt>
      <trkpt lat="50.35901" lon="4.28742">
        <ele>190.80000305176</ele>
        <time>2014-12-29T13:23:58.000Z</time>
      </trkpt>
      <trkpt lat="50.35901" lon="4.28726">
        <ele>190.60000610352</ele>
        <time>2014-12-29T13:24:06.000Z</time>
      </trkpt>
      <trkpt lat="50.359" lon="4.28712">
        <ele>190.39999389648</ele>
        <time>2014-12-29T13:24:13.000Z</time>
      </trkpt>
      <trkpt lat="50.35899" lon="4.28694">
        <ele>190.19999694824</ele>
        <time>2014-12-29T13:24:22.000Z</time>
      </trkpt>
      <trkpt lat="50.35899" lon="4.28678">
        <ele>190.39999389648</ele>
        <time>2014-12-29T13:24:30.000Z</time>
      </trkpt>
      <trkpt lat="50.35899" lon="4.2866">
        <ele>190.60000610352</ele>
        <time>2014-12-29T13:24:39.000Z</time>
      </trkpt>
      <trkpt lat="50.35899" lon="4.28642">
        <ele>190.80000305176</ele>
        <time>2014-12-29T13:24:48.000Z</time>
      </trkpt>
      <trkpt lat="50.35899" lon="4.28626">
        <ele>191</ele>
        <time>2014-12-29T13:24:56.000Z</time>
      </trkpt>
      <trkpt lat="50.35899" lon="4.2861">
        <ele>191</ele>
        <time>2014-12-29T13:25:04.000Z</time>
      </trkpt>
      <trkpt lat="50.35898" lon="4.28591">
        <ele>191</ele>
        <time>2014-12-29T13:25:13.000Z</time>
      </trkpt>
      <trkpt lat="50.35899" lon="4.28578">
        <ele>191</ele>
        <time>2014-12-29T13:25:19.000Z</time>
      </trkpt>
      <trkpt lat="50.35899" lon="4.28571">
        <ele>191</ele>
        <time>2014-12-29T13:25:22.000Z</time>
      </trkpt>
      <trkpt lat="50.35896" lon="4.28553">
        <ele>191</ele>
        <time>2014-12-29T13:25:31.000Z</time>
      </trkpt>
      <trkpt lat="50.35896" lon="4.28531">
        <ele>191</ele>
        <time>2014-12-29T13:25:41.000Z</time>
      </trkpt>
      <trkpt lat="50.35895" lon="4.28508">
        <ele>191</ele>
        <time>2014-12-29T13:25:52.000Z</time>
      </trkpt>
      <trkpt lat="50.35895" lon="4.28488">
        <ele>191</ele>
        <time>2014-12-29T13:26:02.000Z</time>
      </trkpt>
      <trkpt lat="50.35897" lon="4.28473">
        <ele>191</ele>
        <time>2014-12-29T13:26:10.000Z</time>
      </trkpt>
      <trkpt lat="50.35905" lon="4.2847">
        <ele>191</ele>
        <time>2014-12-29T13:26:17.000Z</time>
      </trkpt>
      <trkpt lat="50.35922" lon="4.28469">
        <ele>190.80000305176</ele>
        <time>2014-12-29T13:26:30.000Z</time>
      </trkpt>
      <trkpt lat="50.35934" lon="4.28468">
        <ele>190.60000610352</ele>
        <time>2014-12-29T13:26:39.000Z</time>
      </trkpt>
      <trkpt lat="50.35943" lon="4.28468">
        <ele>190.60000610352</ele>
        <time>2014-12-29T13:26:46.000Z</time>
      </trkpt>
      <trkpt lat="50.35952" lon="4.28467">
        <ele>190.39999389648</ele>
        <time>2014-12-29T13:26:54.000Z</time>
      </trkpt>
      <trkpt lat="50.35964" lon="4.28467">
        <ele>190.19999694824</ele>
        <time>2014-12-29T13:27:05.000Z</time>
      </trkpt>
      <trkpt lat="50.35972" lon="4.28467">
        <ele>190.39999389648</ele>
        <time>2014-12-29T13:27:12.000Z</time>
      </trkpt>
      <trkpt lat="50.35981" lon="4.28466">
        <ele>190.39999389648</ele>
        <time>2014-12-29T13:27:19.000Z</time>
      </trkpt>
      <trkpt lat="50.35991" lon="4.28466">
        <ele>190.39999389648</ele>
        <time>2014-12-29T13:27:28.000Z</time>
      </trkpt>
      <trkpt lat="50.36004" lon="4.28467">
        <ele>190.39999389648</ele>
        <time>2014-12-29T13:27:37.000Z</time>
      </trkpt>
      <trkpt lat="50.36014" lon="4.28467">
        <ele>190.60000610352</ele>
        <time>2014-12-29T13:27:44.000Z</time>
      </trkpt>
      <trkpt lat="50.36028" lon="4.2847">
        <ele>190.60000610352</ele>
        <time>2014-12-29T13:27:54.000Z</time>
      </trkpt>
      <trkpt lat="50.36037" lon="4.28473">
        <ele>190.60000610352</ele>
        <time>2014-12-29T13:28:01.000Z</time>
      </trkpt>
      <trkpt lat="50.36049" lon="4.28477">
        <ele>190.80000305176</ele>
        <time>2014-12-29T13:28:11.000Z</time>
      </trkpt>
      <trkpt lat="50.36058" lon="4.28481">
        <ele>190.80000305176</ele>
        <time>2014-12-29T13:28:18.000Z</time>
      </trkpt>
      <trkpt lat="50.36071" lon="4.28487">
        <ele>190.60000610352</ele>
        <time>2014-12-29T13:28:28.000Z</time>
      </trkpt>
      <trkpt lat="50.36083" lon="4.28492">
        <ele>190.60000610352</ele>
        <time>2014-12-29T13:28:37.000Z</time>
      </trkpt>
      <trkpt lat="50.36091" lon="4.28495">
        <ele>190.60000610352</ele>
        <time>2014-12-29T13:28:44.000Z</time>
      </trkpt>
      <trkpt lat="50.36093" lon="4.28496">
        <ele>190.60000610352</ele>
        <time>2014-12-29T13:28:46.000Z</time>
      </trkpt>
      <trkpt lat="50.36099" lon="4.28497">
        <ele>190.60000610352</ele>
        <time>2014-12-29T13:28:52.000Z</time>
      </trkpt>
      <trkpt lat="50.361" lon="4.28498">
        <ele>190.60000610352</ele>
        <time>2014-12-29T13:28:53.000Z</time>
      </trkpt>
      <trkpt lat="50.36109" lon="4.285">
        <ele>190.60000610352</ele>
        <time>2014-12-29T13:29:00.000Z</time>
      </trkpt>
      <trkpt lat="50.36114" lon="4.28501">
        <ele>190.60000610352</ele>
        <time>2014-12-29T13:29:04.000Z</time>
      </trkpt>
      <trkpt lat="50.36121" lon="4.28505">
        <ele>190.60000610352</ele>
        <time>2014-12-29T13:29:10.000Z</time>
      </trkpt>
      <trkpt lat="50.36131" lon="4.28507">
        <ele>190.39999389648</ele>
        <time>2014-12-29T13:29:18.000Z</time>
      </trkpt>
      <trkpt lat="50.3615" lon="4.28513">
        <ele>189.39999389648</ele>
        <time>2014-12-29T13:29:32.000Z</time>
      </trkpt>
      <trkpt lat="50.36155" lon="4.28516">
        <ele>189.19999694824</ele>
        <time>2014-12-29T13:29:37.000Z</time>
      </trkpt>
      <trkpt lat="50.36163" lon="4.28517">
        <ele>188.80000305176</ele>
        <time>2014-12-29T13:29:45.000Z</time>
      </trkpt>
      <trkpt lat="50.36172" lon="4.28522">
        <ele>188.39999389648</ele>
        <time>2014-12-29T13:29:52.000Z</time>
      </trkpt>
      <trkpt lat="50.36181" lon="4.28527">
        <ele>188</ele>
        <time>2014-12-29T13:29:59.000Z</time>
      </trkpt>
      <trkpt lat="50.3619" lon="4.28532">
        <ele>187.60000610352</ele>
        <time>2014-12-29T13:30:05.000Z</time>
      </trkpt>
      <trkpt lat="50.36198" lon="4.28535">
        <ele>187.19999694824</ele>
        <time>2014-12-29T13:30:11.000Z</time>
      </trkpt>
      <trkpt lat="50.36201" lon="4.28535">
        <ele>187.19999694824</ele>
        <time>2014-12-29T13:30:14.000Z</time>
      </trkpt>
      <trkpt lat="50.36214" lon="4.28539">
        <ele>186.60000610352</ele>
        <time>2014-12-29T13:30:26.000Z</time>
      </trkpt>
      <trkpt lat="50.36223" lon="4.28543">
        <ele>186.60000610352</ele>
        <time>2014-12-29T13:30:33.000Z</time>
      </trkpt>
      <trkpt lat="50.36232" lon="4.28546">
        <ele>186.60000610352</ele>
        <time>2014-12-29T13:30:40.000Z</time>
      </trkpt>
      <trkpt lat="50.36243" lon="4.28551">
        <ele>186.60000610352</ele>
        <time>2014-12-29T13:30:48.000Z</time>
      </trkpt>
      <trkpt lat="50.36255" lon="4.28556">
        <ele>186.80000305176</ele>
        <time>2014-12-29T13:30:56.000Z</time>
      </trkpt>
      <trkpt lat="50.36264" lon="4.2856">
        <ele>186.80000305176</ele>
        <time>2014-12-29T13:31:02.000Z</time>
      </trkpt>
      <trkpt lat="50.36271" lon="4.28562">
        <ele>186.80000305176</ele>
        <time>2014-12-29T13:31:08.000Z</time>
      </trkpt>
      <trkpt lat="50.36279" lon="4.28566">
        <ele>187</ele>
        <time>2014-12-29T13:31:15.000Z</time>
      </trkpt>
      <trkpt lat="50.36292" lon="4.28574">
        <ele>187.19999694824</ele>
        <time>2014-12-29T13:31:25.000Z</time>
      </trkpt>
      <trkpt lat="50.363" lon="4.28577">
        <ele>187.19999694824</ele>
        <time>2014-12-29T13:31:32.000Z</time>
      </trkpt>
      <trkpt lat="50.36309" lon="4.2858">
        <ele>187</ele>
        <time>2014-12-29T13:31:39.000Z</time>
      </trkpt>
      <trkpt lat="50.36317" lon="4.28585">
        <ele>186.80000305176</ele>
        <time>2014-12-29T13:31:46.000Z</time>
      </trkpt>
      <trkpt lat="50.36326" lon="4.2859">
        <ele>186.60000610352</ele>
        <time>2014-12-29T13:31:53.000Z</time>
      </trkpt>
      <trkpt lat="50.36336" lon="4.28595">
        <ele>186.19999694824</ele>
        <time>2014-12-29T13:32:02.000Z</time>
      </trkpt>
      <trkpt lat="50.3635" lon="4.28602">
        <ele>186</ele>
        <time>2014-12-29T13:32:12.000Z</time>
      </trkpt>
      <trkpt lat="50.36361" lon="4.28607">
        <ele>185.60000610352</ele>
        <time>2014-12-29T13:32:21.000Z</time>
      </trkpt>
      <trkpt lat="50.36373" lon="4.28613">
        <ele>185.39999389648</ele>
        <time>2014-12-29T13:32:29.000Z</time>
      </trkpt>
      <trkpt lat="50.36381" lon="4.28618">
        <ele>185.19999694824</ele>
        <time>2014-12-29T13:32:36.000Z</time>
      </trkpt>
      <trkpt lat="50.36383" lon="4.28619">
        <ele>185.19999694824</ele>
        <time>2014-12-29T13:32:38.000Z</time>
      </trkpt>
      <trkpt lat="50.36387" lon="4.28619">
        <ele>185</ele>
        <time>2014-12-29T13:32:44.000Z</time>
      </trkpt>
      <trkpt lat="50.36392" lon="4.28621">
        <ele>185</ele>
        <time>2014-12-29T13:32:51.000Z</time>
      </trkpt>
      <trkpt lat="50.36399" lon="4.28625">
        <ele>185</ele>
        <time>2014-12-29T13:32:57.000Z</time>
      </trkpt>
      <trkpt lat="50.36405" lon="4.28626">
        <ele>185</ele>
        <time>2014-12-29T13:33:03.000Z</time>
      </trkpt>
      <trkpt lat="50.3641" lon="4.28631">
        <ele>185</ele>
        <time>2014-12-29T13:33:10.000Z</time>
      </trkpt>
      <trkpt lat="50.36412" lon="4.28632">
        <ele>185</ele>
        <time>2014-12-29T13:33:13.000Z</time>
      </trkpt>
      <trkpt lat="50.3642" lon="4.28637">
        <ele>185</ele>
        <time>2014-12-29T13:33:20.000Z</time>
      </trkpt>
      <trkpt lat="50.36427" lon="4.28643">
        <ele>185</ele>
        <time>2014-12-29T13:33:27.000Z</time>
      </trkpt>
      <trkpt lat="50.36436" lon="4.28649">
        <ele>185</ele>
        <time>2014-12-29T13:33:34.000Z</time>
      </trkpt>
      <trkpt lat="50.36446" lon="4.28656">
        <ele>185</ele>
        <time>2014-12-29T13:33:42.000Z</time>
      </trkpt>
      <trkpt lat="50.36449" lon="4.28658">
        <ele>185</ele>
        <time>2014-12-29T13:33:48.000Z</time>
      </trkpt>
      <trkpt lat="50.36453" lon="4.28655">
        <ele>185</ele>
        <time>2014-12-29T13:33:54.000Z</time>
      </trkpt>
      <trkpt lat="50.36456" lon="4.28653">
        <ele>185</ele>
        <time>2014-12-29T13:33:58.000Z</time>
      </trkpt>
      <trkpt lat="50.36459" lon="4.2865">
        <ele>185</ele>
        <time>2014-12-29T13:34:02.000Z</time>
      </trkpt>
      <trkpt lat="50.36462" lon="4.28644">
        <ele>185</ele>
        <time>2014-12-29T13:34:06.000Z</time>
      </trkpt>
      <trkpt lat="50.36465" lon="4.2864">
        <ele>185</ele>
        <time>2014-12-29T13:34:11.000Z</time>
      </trkpt>
      <trkpt lat="50.36465" lon="4.28637">
        <ele>185</ele>
        <time>2014-12-29T13:34:13.000Z</time>
      </trkpt>
      <trkpt lat="50.36469" lon="4.28631">
        <ele>185.19999694824</ele>
        <time>2014-12-29T13:34:18.000Z</time>
      </trkpt>
      <trkpt lat="50.36471" lon="4.2863">
        <ele>185.39999389648</ele>
        <time>2014-12-29T13:34:21.000Z</time>
      </trkpt>
      <trkpt lat="50.36474" lon="4.28626">
        <ele>185.39999389648</ele>
        <time>2014-12-29T13:34:25.000Z</time>
      </trkpt>
      <trkpt lat="50.36481" lon="4.28616">
        <ele>185.80000305176</ele>
        <time>2014-12-29T13:34:33.000Z</time>
      </trkpt>
      <trkpt lat="50.36485" lon="4.28602">
        <ele>186</ele>
        <time>2014-12-29T13:34:42.000Z</time>
      </trkpt>
      <trkpt lat="50.36487" lon="4.28592">
        <ele>186</ele>
        <time>2014-12-29T13:34:48.000Z</time>
      </trkpt>
      <trkpt lat="50.36489" lon="4.28582">
        <ele>186.19999694824</ele>
        <time>2014-12-29T13:34:54.000Z</time>
      </trkpt>
      <trkpt lat="50.3649" lon="4.28578">
        <ele>186.19999694824</ele>
        <time>2014-12-29T13:34:56.000Z</time>
      </trkpt>
      <trkpt lat="50.36493" lon="4.28568">
        <ele>186.39999389648</ele>
        <time>2014-12-29T13:35:03.000Z</time>
      </trkpt>
      <trkpt lat="50.36494" lon="4.28561">
        <ele>186.39999389648</ele>
        <time>2014-12-29T13:35:08.000Z</time>
      </trkpt>
      <trkpt lat="50.36495" lon="4.2856">
        <ele>186.39999389648</ele>
        <time>2014-12-29T13:35:09.000Z</time>
      </trkpt>
      <trkpt lat="50.36496" lon="4.28557">
        <ele>186.60000610352</ele>
        <time>2014-12-29T13:35:11.000Z</time>
      </trkpt>
      <trkpt lat="50.36499" lon="4.28545">
        <ele>186.60000610352</ele>
        <time>2014-12-29T13:35:18.000Z</time>
      </trkpt>
      <trkpt lat="50.36502" lon="4.28535">
        <ele>186.80000305176</ele>
        <time>2014-12-29T13:35:24.000Z</time>
      </trkpt>
      <trkpt lat="50.36502" lon="4.28534">
        <ele>186.80000305176</ele>
        <time>2014-12-29T13:35:25.000Z</time>
      </trkpt>
      <trkpt lat="50.36504" lon="4.28523">
        <ele>186.80000305176</ele>
        <time>2014-12-29T13:35:31.000Z</time>
      </trkpt>
      <trkpt lat="50.36505" lon="4.28522">
        <ele>186.80000305176</ele>
        <time>2014-12-29T13:35:32.000Z</time>
      </trkpt>
      <trkpt lat="50.36509" lon="4.28512">
        <ele>186.80000305176</ele>
        <time>2014-12-29T13:35:38.000Z</time>
      </trkpt>
      <trkpt lat="50.36514" lon="4.285">
        <ele>186.60000610352</ele>
        <time>2014-12-29T13:35:45.000Z</time>
      </trkpt>
      <trkpt lat="50.36518" lon="4.2849">
        <ele>186.60000610352</ele>
        <time>2014-12-29T13:35:52.000Z</time>
      </trkpt>
      <trkpt lat="50.36522" lon="4.28481">
        <ele>186.60000610352</ele>
        <time>2014-12-29T13:35:58.000Z</time>
      </trkpt>
      <trkpt lat="50.36525" lon="4.28473">
        <ele>186.60000610352</ele>
        <time>2014-12-29T13:36:04.000Z</time>
      </trkpt>
      <trkpt lat="50.36526" lon="4.28471">
        <ele>186.60000610352</ele>
        <time>2014-12-29T13:36:06.000Z</time>
      </trkpt>
      <trkpt lat="50.3653" lon="4.28466">
        <ele>186.60000610352</ele>
        <time>2014-12-29T13:36:10.000Z</time>
      </trkpt>
      <trkpt lat="50.36533" lon="4.2846">
        <ele>186.60000610352</ele>
        <time>2014-12-29T13:36:15.000Z</time>
      </trkpt>
      <trkpt lat="50.3654" lon="4.2845">
        <ele>186.80000305176</ele>
        <time>2014-12-29T13:36:23.000Z</time>
      </trkpt>
      <trkpt lat="50.36542" lon="4.28448">
        <ele>186.80000305176</ele>
        <time>2014-12-29T13:36:25.000Z</time>
      </trkpt>
      <trkpt lat="50.36551" lon="4.28436">
        <ele>186.80000305176</ele>
        <time>2014-12-29T13:36:34.000Z</time>
      </trkpt>
      <trkpt lat="50.36551" lon="4.28434">
        <ele>186.60000610352</ele>
        <time>2014-12-29T13:36:35.000Z</time>
      </trkpt>
      <trkpt lat="50.36556" lon="4.28425">
        <ele>186.39999389648</ele>
        <time>2014-12-29T13:36:41.000Z</time>
      </trkpt>
      <trkpt lat="50.3656" lon="4.28418">
        <ele>186.19999694824</ele>
        <time>2014-12-29T13:36:46.000Z</time>
      </trkpt>
      <trkpt lat="50.36561" lon="4.28417">
        <ele>186.19999694824</ele>
        <time>2014-12-29T13:36:47.000Z</time>
      </trkpt>
      <trkpt lat="50.36562" lon="4.28414">
        <ele>186</ele>
        <time>2014-12-29T13:36:49.000Z</time>
      </trkpt>
      <trkpt lat="50.36566" lon="4.28407">
        <ele>185.80000305176</ele>
        <time>2014-12-29T13:36:54.000Z</time>
      </trkpt>
      <trkpt lat="50.36569" lon="4.28401">
        <ele>185.60000610352</ele>
        <time>2014-12-29T13:36:59.000Z</time>
      </trkpt>
      <trkpt lat="50.36575" lon="4.28392">
        <ele>185.39999389648</ele>
        <time>2014-12-29T13:37:05.000Z</time>
      </trkpt>
      <trkpt lat="50.36577" lon="4.28389">
        <ele>185.39999389648</ele>
        <time>2014-12-29T13:37:07.000Z</time>
      </trkpt>
      <trkpt lat="50.36578" lon="4.28386">
        <ele>185.39999389648</ele>
        <time>2014-12-29T13:37:09.000Z</time>
      </trkpt>
      <trkpt lat="50.36584" lon="4.28373">
        <ele>185.39999389648</ele>
        <time>2014-12-29T13:37:17.000Z</time>
      </trkpt>
      <trkpt lat="50.36592" lon="4.28362">
        <ele>185.60000610352</ele>
        <time>2014-12-29T13:37:25.000Z</time>
      </trkpt>
      <trkpt lat="50.36596" lon="4.28356">
        <ele>185.39999389648</ele>
        <time>2014-12-29T13:37:30.000Z</time>
      </trkpt>
      <trkpt lat="50.36601" lon="4.28344">
        <ele>185.19999694824</ele>
        <time>2014-12-29T13:37:37.000Z</time>
      </trkpt>
      <trkpt lat="50.36607" lon="4.28333">
        <ele>185</ele>
        <time>2014-12-29T13:37:44.000Z</time>
      </trkpt>
      <trkpt lat="50.36607" lon="4.28331">
        <ele>185</ele>
        <time>2014-12-29T13:37:45.000Z</time>
      </trkpt>
      <trkpt lat="50.36608" lon="4.28327">
        <ele>184.80000305176</ele>
        <time>2014-12-29T13:37:47.000Z</time>
      </trkpt>
      <trkpt lat="50.36611" lon="4.28322">
        <ele>184.80000305176</ele>
        <time>2014-12-29T13:37:50.000Z</time>
      </trkpt>
      <trkpt lat="50.36615" lon="4.28313">
        <ele>184.60000610352</ele>
        <time>2014-12-29T13:37:56.000Z</time>
      </trkpt>
      <trkpt lat="50.36618" lon="4.28306">
        <ele>184.39999389648</ele>
        <time>2014-12-29T13:38:00.000Z</time>
      </trkpt>
      <trkpt lat="50.36622" lon="4.28292">
        <ele>184.19999694824</ele>
        <time>2014-12-29T13:38:07.000Z</time>
      </trkpt>
      <trkpt lat="50.36623" lon="4.28289">
        <ele>184.19999694824</ele>
        <time>2014-12-29T13:38:09.000Z</time>
      </trkpt>
      <trkpt lat="50.3663" lon="4.28283">
        <ele>184</ele>
        <time>2014-12-29T13:38:15.000Z</time>
      </trkpt>
      <trkpt lat="50.36632" lon="4.2828">
        <ele>184</ele>
        <time>2014-12-29T13:38:18.000Z</time>
      </trkpt>
      <trkpt lat="50.36634" lon="4.28277">
        <ele>184</ele>
        <time>2014-12-29T13:38:20.000Z</time>
      </trkpt>
      <trkpt lat="50.36638" lon="4.28272">
        <ele>184</ele>
        <time>2014-12-29T13:38:25.000Z</time>
      </trkpt>
      <trkpt lat="50.36642" lon="4.28269">
        <ele>183.80000305176</ele>
        <time>2014-12-29T13:38:28.000Z</time>
      </trkpt>
      <trkpt lat="50.36647" lon="4.28264">
        <ele>183.80000305176</ele>
        <time>2014-12-29T13:38:34.000Z</time>
      </trkpt>
      <trkpt lat="50.36652" lon="4.28258">
        <ele>183.80000305176</ele>
        <time>2014-12-29T13:38:39.000Z</time>
      </trkpt>
      <trkpt lat="50.36653" lon="4.28257">
        <ele>183.80000305176</ele>
        <time>2014-12-29T13:38:40.000Z</time>
      </trkpt>
      <trkpt lat="50.36656" lon="4.28255">
        <ele>183.80000305176</ele>
        <time>2014-12-29T13:38:42.000Z</time>
      </trkpt>
      <trkpt lat="50.36659" lon="4.28252">
        <ele>183.60000610352</ele>
        <time>2014-12-29T13:38:46.000Z</time>
      </trkpt>
      <trkpt lat="50.36665" lon="4.28246">
        <ele>183.60000610352</ele>
        <time>2014-12-29T13:38:52.000Z</time>
      </trkpt>
      <trkpt lat="50.36671" lon="4.2824">
        <ele>183.60000610352</ele>
        <time>2014-12-29T13:38:58.000Z</time>
      </trkpt>
      <trkpt lat="50.36673" lon="4.28237">
        <ele>183.39999389648</ele>
        <time>2014-12-29T13:39:00.000Z</time>
      </trkpt>
      <trkpt lat="50.36679" lon="4.28229">
        <ele>183.60000610352</ele>
        <time>2014-12-29T13:39:07.000Z</time>
      </trkpt>
      <trkpt lat="50.36686" lon="4.28225">
        <ele>183.60000610352</ele>
        <time>2014-12-29T13:39:14.000Z</time>
      </trkpt>
      <trkpt lat="50.36687" lon="4.28224">
        <ele>183.60000610352</ele>
        <time>2014-12-29T13:39:15.000Z</time>
      </trkpt>
      <trkpt lat="50.36696" lon="4.28223">
        <ele>183.80000305176</ele>
        <time>2014-12-29T13:39:22.000Z</time>
      </trkpt>
      <trkpt lat="50.36697" lon="4.28222">
        <ele>183.80000305176</ele>
        <time>2014-12-29T13:39:23.000Z</time>
      </trkpt>
      <trkpt lat="50.36705" lon="4.28218">
        <ele>184</ele>
        <time>2014-12-29T13:39:31.000Z</time>
      </trkpt>
      <trkpt lat="50.36706" lon="4.28217">
        <ele>184</ele>
        <time>2014-12-29T13:39:32.000Z</time>
      </trkpt>
      <trkpt lat="50.36713" lon="4.28212">
        <ele>184.19999694824</ele>
        <time>2014-12-29T13:39:38.000Z</time>
      </trkpt>
      <trkpt lat="50.3672" lon="4.28202">
        <ele>184.19999694824</ele>
        <time>2014-12-29T13:39:45.000Z</time>
      </trkpt>
      <trkpt lat="50.3672" lon="4.282">
        <ele>184.19999694824</ele>
        <time>2014-12-29T13:39:46.000Z</time>
      </trkpt>
      <trkpt lat="50.36723" lon="4.28194">
        <ele>184.19999694824</ele>
        <time>2014-12-29T13:39:49.000Z</time>
      </trkpt>
      <trkpt lat="50.36726" lon="4.28184">
        <ele>184.39999389648</ele>
        <time>2014-12-29T13:39:54.000Z</time>
      </trkpt>
      <trkpt lat="50.36727" lon="4.28182">
        <ele>184.39999389648</ele>
        <time>2014-12-29T13:39:55.000Z</time>
      </trkpt>
      <trkpt lat="50.36727" lon="4.2818">
        <ele>184.60000610352</ele>
        <time>2014-12-29T13:39:56.000Z</time>
      </trkpt>
      <trkpt lat="50.3673" lon="4.28173">
        <ele>184.60000610352</ele>
        <time>2014-12-29T13:40:01.000Z</time>
      </trkpt>
      <trkpt lat="50.36732" lon="4.2817">
        <ele>184.80000305176</ele>
        <time>2014-12-29T13:40:03.000Z</time>
      </trkpt>
      <trkpt lat="50.36734" lon="4.28157">
        <ele>185</ele>
        <time>2014-12-29T13:40:10.000Z</time>
      </trkpt>
      <trkpt lat="50.36735" lon="4.28154">
        <ele>185</ele>
        <time>2014-12-29T13:40:12.000Z</time>
      </trkpt>
      <trkpt lat="50.36735" lon="4.2815">
        <ele>185</ele>
        <time>2014-12-29T13:40:14.000Z</time>
      </trkpt>
      <trkpt lat="50.36738" lon="4.28123">
        <ele>185.39999389648</ele>
        <time>2014-12-29T13:40:29.000Z</time>
      </trkpt>
      <trkpt lat="50.36739" lon="4.2812">
        <ele>185.39999389648</ele>
        <time>2014-12-29T13:40:31.000Z</time>
      </trkpt>
      <trkpt lat="50.36737" lon="4.28108">
        <ele>185.60000610352</ele>
        <time>2014-12-29T13:40:39.000Z</time>
      </trkpt>
      <trkpt lat="50.36737" lon="4.28106">
        <ele>185.60000610352</ele>
        <time>2014-12-29T13:40:40.000Z</time>
      </trkpt>
      <trkpt lat="50.36737" lon="4.28104">
        <ele>185.60000610352</ele>
        <time>2014-12-29T13:40:41.000Z</time>
      </trkpt>
      <trkpt lat="50.36742" lon="4.28097">
        <ele>185.60000610352</ele>
        <time>2014-12-29T13:40:48.000Z</time>
      </trkpt>
      <trkpt lat="50.36747" lon="4.28092">
        <ele>185.80000305176</ele>
        <time>2014-12-29T13:40:54.000Z</time>
      </trkpt>
      <trkpt lat="50.36747" lon="4.28092">
        <ele>185.80000305176</ele>
        <time>2014-12-29T13:40:55.000Z</time>
      </trkpt>
      <trkpt lat="50.36751" lon="4.28091">
        <ele>185.80000305176</ele>
        <time>2014-12-29T13:41:02.000Z</time>
      </trkpt>
      <trkpt lat="50.36757" lon="4.28096">
        <ele>186</ele>
        <time>2014-12-29T13:41:08.000Z</time>
      </trkpt>
      <trkpt lat="50.36757" lon="4.28096">
        <ele>186</ele>
        <time>2014-12-29T13:41:09.000Z</time>
      </trkpt>
      <trkpt lat="50.36764" lon="4.28101">
        <ele>186.19999694824</ele>
        <time>2014-12-29T13:41:16.000Z</time>
      </trkpt>
      <trkpt lat="50.36767" lon="4.28104">
        <ele>186.19999694824</ele>
        <time>2014-12-29T13:41:18.000Z</time>
      </trkpt>
      <trkpt lat="50.36771" lon="4.28108">
        <ele>186.39999389648</ele>
        <time>2014-12-29T13:41:22.000Z</time>
      </trkpt>
      <trkpt lat="50.36773" lon="4.2811">
        <ele>186.39999389648</ele>
        <time>2014-12-29T13:41:24.000Z</time>
      </trkpt>
      <trkpt lat="50.36778" lon="4.28114">
        <ele>186.60000610352</ele>
        <time>2014-12-29T13:41:28.000Z</time>
      </trkpt>
      <trkpt lat="50.36784" lon="4.28119">
        <ele>186.60000610352</ele>
        <time>2014-12-29T13:41:33.000Z</time>
      </trkpt>
      <trkpt lat="50.36789" lon="4.28124">
        <ele>186.60000610352</ele>
        <time>2014-12-29T13:41:37.000Z</time>
      </trkpt>
      <trkpt lat="50.36793" lon="4.28128">
        <ele>186.80000305176</ele>
        <time>2014-12-29T13:41:41.000Z</time>
      </trkpt>
      <trkpt lat="50.36803" lon="4.28137">
        <ele>186.80000305176</ele>
        <time>2014-12-29T13:41:49.000Z</time>
      </trkpt>
      <trkpt lat="50.36808" lon="4.28144">
        <ele>186.80000305176</ele>
        <time>2014-12-29T13:41:55.000Z</time>
      </trkpt>
      <trkpt lat="50.36816" lon="4.28151">
        <ele>187</ele>
        <time>2014-12-29T13:42:02.000Z</time>
      </trkpt>
      <trkpt lat="50.36821" lon="4.28158">
        <ele>187</ele>
        <time>2014-12-29T13:42:09.000Z</time>
      </trkpt>
      <trkpt lat="50.36823" lon="4.28162">
        <ele>187</ele>
        <time>2014-12-29T13:42:12.000Z</time>
      </trkpt>
      <trkpt lat="50.36827" lon="4.28167">
        <ele>187</ele>
        <time>2014-12-29T13:42:17.000Z</time>
      </trkpt>
      <trkpt lat="50.36836" lon="4.28176">
        <ele>187.19999694824</ele>
        <time>2014-12-29T13:42:26.000Z</time>
      </trkpt>
      <trkpt lat="50.36843" lon="4.28183">
        <ele>187.19999694824</ele>
        <time>2014-12-29T13:42:32.000Z</time>
      </trkpt>
      <trkpt lat="50.36843" lon="4.28184">
        <ele>187.19999694824</ele>
        <time>2014-12-29T13:42:33.000Z</time>
      </trkpt>
      <trkpt lat="50.36844" lon="4.28188">
        <ele>187.19999694824</ele>
        <time>2014-12-29T13:42:38.000Z</time>
      </trkpt>
      <trkpt lat="50.36845" lon="4.28189">
        <ele>187.19999694824</ele>
        <time>2014-12-29T13:42:39.000Z</time>
      </trkpt>
      <trkpt lat="50.3685" lon="4.28195">
        <ele>187.19999694824</ele>
        <time>2014-12-29T13:42:46.000Z</time>
      </trkpt>
      <trkpt lat="50.36857" lon="4.28202">
        <ele>187.19999694824</ele>
        <time>2014-12-29T13:42:52.000Z</time>
      </trkpt>
      <trkpt lat="50.36862" lon="4.28209">
        <ele>187</ele>
        <time>2014-12-29T13:42:57.000Z</time>
      </trkpt>
      <trkpt lat="50.36863" lon="4.28211">
        <ele>187</ele>
        <time>2014-12-29T13:42:59.000Z</time>
      </trkpt>
      <trkpt lat="50.3687" lon="4.28217">
        <ele>187</ele>
        <time>2014-12-29T13:43:05.000Z</time>
      </trkpt>
      <trkpt lat="50.36879" lon="4.28227">
        <ele>186.80000305176</ele>
        <time>2014-12-29T13:43:13.000Z</time>
      </trkpt>
      <trkpt lat="50.36887" lon="4.28235">
        <ele>186.80000305176</ele>
        <time>2014-12-29T13:43:19.000Z</time>
      </trkpt>
      <trkpt lat="50.36893" lon="4.28243">
        <ele>186.60000610352</ele>
        <time>2014-12-29T13:43:25.000Z</time>
      </trkpt>
      <trkpt lat="50.36901" lon="4.28252">
        <ele>186.39999389648</ele>
        <time>2014-12-29T13:43:32.000Z</time>
      </trkpt>
      <trkpt lat="50.36906" lon="4.28258">
        <ele>186.39999389648</ele>
        <time>2014-12-29T13:43:38.000Z</time>
      </trkpt>
      <trkpt lat="50.36908" lon="4.28259">
        <ele>186.39999389648</ele>
        <time>2014-12-29T13:43:39.000Z</time>
      </trkpt>
      <trkpt lat="50.36912" lon="4.28264">
        <ele>186.39999389648</ele>
        <time>2014-12-29T13:43:44.000Z</time>
      </trkpt>
      <trkpt lat="50.3692" lon="4.28272">
        <ele>186.19999694824</ele>
        <time>2014-12-29T13:43:51.000Z</time>
      </trkpt>
      <trkpt lat="50.36925" lon="4.28277">
        <ele>186.19999694824</ele>
        <time>2014-12-29T13:43:55.000Z</time>
      </trkpt>
      <trkpt lat="50.36927" lon="4.28278">
        <ele>186.19999694824</ele>
        <time>2014-12-29T13:43:57.000Z</time>
      </trkpt>
      <trkpt lat="50.36932" lon="4.28284">
        <ele>186.19999694824</ele>
        <time>2014-12-29T13:44:02.000Z</time>
      </trkpt>
      <trkpt lat="50.3694" lon="4.28292">
        <ele>186.19999694824</ele>
        <time>2014-12-29T13:44:09.000Z</time>
      </trkpt>
      <trkpt lat="50.36946" lon="4.283">
        <ele>186</ele>
        <time>2014-12-29T13:44:16.000Z</time>
      </trkpt>
      <trkpt lat="50.36948" lon="4.28302">
        <ele>186</ele>
        <time>2014-12-29T13:44:18.000Z</time>
      </trkpt>
      <trkpt lat="50.36956" lon="4.28312">
        <ele>186</ele>
        <time>2014-12-29T13:44:27.000Z</time>
      </trkpt>
      <trkpt lat="50.36965" lon="4.28321">
        <ele>186</ele>
        <time>2014-12-29T13:44:36.000Z</time>
      </trkpt>
      <trkpt lat="50.36967" lon="4.28323">
        <ele>186</ele>
        <time>2014-12-29T13:44:38.000Z</time>
      </trkpt>
      <trkpt lat="50.36973" lon="4.28332">
        <ele>185.80000305176</ele>
        <time>2014-12-29T13:44:46.000Z</time>
      </trkpt>
      <trkpt lat="50.36977" lon="4.28336">
        <ele>185.60000610352</ele>
        <time>2014-12-29T13:44:52.000Z</time>
      </trkpt>
      <trkpt lat="50.36979" lon="4.28338">
        <ele>185.60000610352</ele>
        <time>2014-12-29T13:44:56.000Z</time>
      </trkpt>
      <trkpt lat="50.36982" lon="4.28341">
        <ele>185.60000610352</ele>
        <time>2014-12-29T13:45:01.000Z</time>
      </trkpt>
      <trkpt lat="50.36987" lon="4.28345">
        <ele>185.39999389648</ele>
        <time>2014-12-29T13:45:07.000Z</time>
      </trkpt>
      <trkpt lat="50.3699" lon="4.28349">
        <ele>185.39999389648</ele>
        <time>2014-12-29T13:45:12.000Z</time>
      </trkpt>
      <trkpt lat="50.37" lon="4.28358">
        <ele>185.19999694824</ele>
        <time>2014-12-29T13:45:19.000Z</time>
      </trkpt>
      <trkpt lat="50.37003" lon="4.28361">
        <ele>185</ele>
        <time>2014-12-29T13:45:22.000Z</time>
      </trkpt>
      <trkpt lat="50.3701" lon="4.28369">
        <ele>184.80000305176</ele>
        <time>2014-12-29T13:45:28.000Z</time>
      </trkpt>
      <trkpt lat="50.37015" lon="4.28381">
        <ele>184.39999389648</ele>
        <time>2014-12-29T13:45:36.000Z</time>
      </trkpt>
      <trkpt lat="50.37018" lon="4.28389">
        <ele>184</ele>
        <time>2014-12-29T13:45:42.000Z</time>
      </trkpt>
      <trkpt lat="50.3702" lon="4.28393">
        <ele>184</ele>
        <time>2014-12-29T13:45:44.000Z</time>
      </trkpt>
      <trkpt lat="50.37023" lon="4.28399">
        <ele>183.60000610352</ele>
        <time>2014-12-29T13:45:48.000Z</time>
      </trkpt>
      <trkpt lat="50.37028" lon="4.2841">
        <ele>183.39999389648</ele>
        <time>2014-12-29T13:45:55.000Z</time>
      </trkpt>
      <trkpt lat="50.37033" lon="4.28422">
        <ele>182.80000305176</ele>
        <time>2014-12-29T13:46:02.000Z</time>
      </trkpt>
      <trkpt lat="50.37038" lon="4.2843">
        <ele>182.60000610352</ele>
        <time>2014-12-29T13:46:07.000Z</time>
      </trkpt>
      <trkpt lat="50.37042" lon="4.28439">
        <ele>182.19999694824</ele>
        <time>2014-12-29T13:46:12.000Z</time>
      </trkpt>
      <trkpt lat="50.37048" lon="4.28453">
        <ele>181.80000305176</ele>
        <time>2014-12-29T13:46:20.000Z</time>
      </trkpt>
      <trkpt lat="50.37056" lon="4.28468">
        <ele>181.39999389648</ele>
        <time>2014-12-29T13:46:29.000Z</time>
      </trkpt>
      <trkpt lat="50.37058" lon="4.28468">
        <ele>181.39999389648</ele>
        <time>2014-12-29T13:46:30.000Z</time>
      </trkpt>
      <trkpt lat="50.37063" lon="4.28473">
        <ele>181.39999389648</ele>
        <time>2014-12-29T13:46:35.000Z</time>
      </trkpt>
      <trkpt lat="50.37068" lon="4.28476">
        <ele>181.39999389648</ele>
        <time>2014-12-29T13:46:40.000Z</time>
      </trkpt>
      <trkpt lat="50.37073" lon="4.2848">
        <ele>181.39999389648</ele>
        <time>2014-12-29T13:46:46.000Z</time>
      </trkpt>
      <trkpt lat="50.37077" lon="4.28481">
        <ele>181.39999389648</ele>
        <time>2014-12-29T13:46:49.000Z</time>
      </trkpt>
      <trkpt lat="50.37082" lon="4.28484">
        <ele>181.39999389648</ele>
        <time>2014-12-29T13:46:55.000Z</time>
      </trkpt>
      <trkpt lat="50.37087" lon="4.28485">
        <ele>181.60000610352</ele>
        <time>2014-12-29T13:47:00.000Z</time>
      </trkpt>
      <trkpt lat="50.3709" lon="4.28487">
        <ele>181.60000610352</ele>
        <time>2014-12-29T13:47:03.000Z</time>
      </trkpt>
      <trkpt lat="50.37094" lon="4.28489">
        <ele>181.60000610352</ele>
        <time>2014-12-29T13:47:08.000Z</time>
      </trkpt>
      <trkpt lat="50.37102" lon="4.28491">
        <ele>181.60000610352</ele>
        <time>2014-12-29T13:47:17.000Z</time>
      </trkpt>
      <trkpt lat="50.37103" lon="4.28491">
        <ele>181.60000610352</ele>
        <time>2014-12-29T13:47:18.000Z</time>
      </trkpt>
      <trkpt lat="50.37103" lon="4.2849">
        <ele>181.60000610352</ele>
        <time>2014-12-29T13:47:19.000Z</time>
      </trkpt>
      <trkpt lat="50.3711" lon="4.28494">
        <ele>181.60000610352</ele>
        <time>2014-12-29T13:47:26.000Z</time>
      </trkpt>
      <trkpt lat="50.37112" lon="4.28496">
        <ele>181.60000610352</ele>
        <time>2014-12-29T13:47:28.000Z</time>
      </trkpt>
      <trkpt lat="50.37117" lon="4.28498">
        <ele>181.60000610352</ele>
        <time>2014-12-29T13:47:32.000Z</time>
      </trkpt>
      <trkpt lat="50.37122" lon="4.28495">
        <ele>181.80000305176</ele>
        <time>2014-12-29T13:47:38.000Z</time>
      </trkpt>
      <trkpt lat="50.37125" lon="4.28492">
        <ele>181.80000305176</ele>
        <time>2014-12-29T13:47:41.000Z</time>
      </trkpt>
      <trkpt lat="50.37131" lon="4.28487">
        <ele>182</ele>
        <time>2014-12-29T13:47:46.000Z</time>
      </trkpt>
      <trkpt lat="50.37139" lon="4.2848">
        <ele>182.39999389648</ele>
        <time>2014-12-29T13:47:54.000Z</time>
      </trkpt>
      <trkpt lat="50.37146" lon="4.28473">
        <ele>182.80000305176</ele>
        <time>2014-12-29T13:48:00.000Z</time>
      </trkpt>
      <trkpt lat="50.37152" lon="4.28467">
        <ele>183</ele>
        <time>2014-12-29T13:48:06.000Z</time>
      </trkpt>
      <trkpt lat="50.37158" lon="4.28458">
        <ele>182.80000305176</ele>
        <time>2014-12-29T13:48:13.000Z</time>
      </trkpt>
      <trkpt lat="50.37165" lon="4.28451">
        <ele>182.60000610352</ele>
        <time>2014-12-29T13:48:20.000Z</time>
      </trkpt>
      <trkpt lat="50.37173" lon="4.28439">
        <ele>182.60000610352</ele>
        <time>2014-12-29T13:48:29.000Z</time>
      </trkpt>
      <trkpt lat="50.37174" lon="4.28438">
        <ele>182.60000610352</ele>
        <time>2014-12-29T13:48:30.000Z</time>
      </trkpt>
      <trkpt lat="50.37188" lon="4.28425">
        <ele>182.80000305176</ele>
        <time>2014-12-29T13:48:43.000Z</time>
      </trkpt>
      <trkpt lat="50.37189" lon="4.28424">
        <ele>182.80000305176</ele>
        <time>2014-12-29T13:48:44.000Z</time>
      </trkpt>
      <trkpt lat="50.37195" lon="4.28417">
        <ele>182.60000610352</ele>
        <time>2014-12-29T13:48:51.000Z</time>
      </trkpt>
      <trkpt lat="50.37199" lon="4.28414">
        <ele>182.39999389648</ele>
        <time>2014-12-29T13:48:54.000Z</time>
      </trkpt>
      <trkpt lat="50.37206" lon="4.28405">
        <ele>182</ele>
        <time>2014-12-29T13:49:02.000Z</time>
      </trkpt>
      <trkpt lat="50.37213" lon="4.28395">
        <ele>181.39999389648</ele>
        <time>2014-12-29T13:49:10.000Z</time>
      </trkpt>
      <trkpt lat="50.37221" lon="4.28385">
        <ele>181.39999389648</ele>
        <time>2014-12-29T13:49:18.000Z</time>
      </trkpt>
      <trkpt lat="50.3723" lon="4.28374">
        <ele>181.39999389648</ele>
        <time>2014-12-29T13:49:26.000Z</time>
      </trkpt>
      <trkpt lat="50.37234" lon="4.28367">
        <ele>181.39999389648</ele>
        <time>2014-12-29T13:49:31.000Z</time>
      </trkpt>
      <trkpt lat="50.37239" lon="4.28358">
        <ele>181.80000305176</ele>
        <time>2014-12-29T13:49:37.000Z</time>
      </trkpt>
      <trkpt lat="50.3724" lon="4.28357">
        <ele>181.80000305176</ele>
        <time>2014-12-29T13:49:38.000Z</time>
      </trkpt>
      <trkpt lat="50.37242" lon="4.28352">
        <ele>182</ele>
        <time>2014-12-29T13:49:42.000Z</time>
      </trkpt>
      <trkpt lat="50.37247" lon="4.28342">
        <ele>182.19999694824</ele>
        <time>2014-12-29T13:49:49.000Z</time>
      </trkpt>
      <trkpt lat="50.37249" lon="4.2834">
        <ele>182.39999389648</ele>
        <time>2014-12-29T13:49:51.000Z</time>
      </trkpt>
      <trkpt lat="50.37253" lon="4.28323">
        <ele>182.80000305176</ele>
        <time>2014-12-29T13:50:00.000Z</time>
      </trkpt>
      <trkpt lat="50.37256" lon="4.28311">
        <ele>183.39999389648</ele>
        <time>2014-12-29T13:50:06.000Z</time>
      </trkpt>
      <trkpt lat="50.37259" lon="4.28301">
        <ele>183.80000305176</ele>
        <time>2014-12-29T13:50:11.000Z</time>
      </trkpt>
      <trkpt lat="50.37261" lon="4.28289">
        <ele>184.39999389648</ele>
        <time>2014-12-29T13:50:17.000Z</time>
      </trkpt>
      <trkpt lat="50.37265" lon="4.28272">
        <ele>185</ele>
        <time>2014-12-29T13:50:25.000Z</time>
      </trkpt>
      <trkpt lat="50.37268" lon="4.28258">
        <ele>185.39999389648</ele>
        <time>2014-12-29T13:50:32.000Z</time>
      </trkpt>
      <trkpt lat="50.37268" lon="4.28256">
        <ele>185.60000610352</ele>
        <time>2014-12-29T13:50:33.000Z</time>
      </trkpt>
      <trkpt lat="50.37273" lon="4.28241">
        <ele>186.19999694824</ele>
        <time>2014-12-29T13:50:41.000Z</time>
      </trkpt>
      <trkpt lat="50.37275" lon="4.28234">
        <ele>186.60000610352</ele>
        <time>2014-12-29T13:50:45.000Z</time>
      </trkpt>
      <trkpt lat="50.37279" lon="4.28222">
        <ele>187.19999694824</ele>
        <time>2014-12-29T13:50:52.000Z</time>
      </trkpt>
      <trkpt lat="50.37282" lon="4.28211">
        <ele>187.60000610352</ele>
        <time>2014-12-29T13:50:58.000Z</time>
      </trkpt>
      <trkpt lat="50.37282" lon="4.2821">
        <ele>187.80000305176</ele>
        <time>2014-12-29T13:50:59.000Z</time>
      </trkpt>
      <trkpt lat="50.37285" lon="4.28197">
        <ele>188.39999389648</ele>
        <time>2014-12-29T13:51:06.000Z</time>
      </trkpt>
      <trkpt lat="50.37289" lon="4.28187">
        <ele>188.80000305176</ele>
        <time>2014-12-29T13:51:12.000Z</time>
      </trkpt>
      <trkpt lat="50.37292" lon="4.28177">
        <ele>189.39999389648</ele>
        <time>2014-12-29T13:51:18.000Z</time>
      </trkpt>
      <trkpt lat="50.37295" lon="4.28171">
        <ele>189.80000305176</ele>
        <time>2014-12-29T13:51:22.000Z</time>
      </trkpt>
      <trkpt lat="50.37299" lon="4.28157">
        <ele>190.60000610352</ele>
        <time>2014-12-29T13:51:30.000Z</time>
      </trkpt>
      <trkpt lat="50.37302" lon="4.2815">
        <ele>191</ele>
        <time>2014-12-29T13:51:34.000Z</time>
      </trkpt>
      <trkpt lat="50.37305" lon="4.2814">
        <ele>191.60000610352</ele>
        <time>2014-12-29T13:51:41.000Z</time>
      </trkpt>
      <trkpt lat="50.37307" lon="4.28132">
        <ele>192.19999694824</ele>
        <time>2014-12-29T13:51:45.000Z</time>
      </trkpt>
      <trkpt lat="50.37312" lon="4.28118">
        <ele>192.60000610352</ele>
        <time>2014-12-29T13:51:53.000Z</time>
      </trkpt>
      <trkpt lat="50.37316" lon="4.28107">
        <ele>192.80000305176</ele>
        <time>2014-12-29T13:51:59.000Z</time>
      </trkpt>
      <trkpt lat="50.37321" lon="4.28096">
        <ele>193.39999389648</ele>
        <time>2014-12-29T13:52:06.000Z</time>
      </trkpt>
      <trkpt lat="50.37325" lon="4.28085">
        <ele>194</ele>
        <time>2014-12-29T13:52:12.000Z</time>
      </trkpt>
      <trkpt lat="50.37325" lon="4.28084">
        <ele>194</ele>
        <time>2014-12-29T13:52:13.000Z</time>
      </trkpt>
      <trkpt lat="50.37328" lon="4.28078">
        <ele>194.39999389648</ele>
        <time>2014-12-29T13:52:17.000Z</time>
      </trkpt>
      <trkpt lat="50.37332" lon="4.28064">
        <ele>195</ele>
        <time>2014-12-29T13:52:25.000Z</time>
      </trkpt>
      <trkpt lat="50.37333" lon="4.28062">
        <ele>195</ele>
        <time>2014-12-29T13:52:26.000Z</time>
      </trkpt>
      <trkpt lat="50.37334" lon="4.2806">
        <ele>195</ele>
        <time>2014-12-29T13:52:27.000Z</time>
      </trkpt>
      <trkpt lat="50.37335" lon="4.28052">
        <ele>194.80000305176</ele>
        <time>2014-12-29T13:52:31.000Z</time>
      </trkpt>
      <trkpt lat="50.37338" lon="4.28041">
        <ele>194.60000610352</ele>
        <time>2014-12-29T13:52:37.000Z</time>
      </trkpt>
      <trkpt lat="50.37339" lon="4.28035">
        <ele>194.60000610352</ele>
        <time>2014-12-29T13:52:40.000Z</time>
      </trkpt>
      <trkpt lat="50.37343" lon="4.28024">
        <ele>194.19999694824</ele>
        <time>2014-12-29T13:52:47.000Z</time>
      </trkpt>
      <trkpt lat="50.37344" lon="4.28022">
        <ele>194.19999694824</ele>
        <time>2014-12-29T13:52:48.000Z</time>
      </trkpt>
      <trkpt lat="50.37344" lon="4.28019">
        <ele>194</ele>
        <time>2014-12-29T13:52:50.000Z</time>
      </trkpt>
      <trkpt lat="50.37347" lon="4.28013">
        <ele>193.80000305176</ele>
        <time>2014-12-29T13:52:54.000Z</time>
      </trkpt>
      <trkpt lat="50.37353" lon="4.28005">
        <ele>193.39999389648</ele>
        <time>2014-12-29T13:53:01.000Z</time>
      </trkpt>
      <trkpt lat="50.37354" lon="4.28006">
        <ele>193.39999389648</ele>
        <time>2014-12-29T13:53:02.000Z</time>
      </trkpt>
      <trkpt lat="50.3736" lon="4.2801">
        <ele>193.60000610352</ele>
        <time>2014-12-29T13:53:08.000Z</time>
      </trkpt>
      <trkpt lat="50.37364" lon="4.28016">
        <ele>193.80000305176</ele>
        <time>2014-12-29T13:53:13.000Z</time>
      </trkpt>
      <trkpt lat="50.37366" lon="4.28018">
        <ele>193.80000305176</ele>
        <time>2014-12-29T13:53:15.000Z</time>
      </trkpt>
      <trkpt lat="50.37372" lon="4.28026">
        <ele>194</ele>
        <time>2014-12-29T13:53:21.000Z</time>
      </trkpt>
      <trkpt lat="50.37379" lon="4.28035">
        <ele>194</ele>
        <time>2014-12-29T13:53:28.000Z</time>
      </trkpt>
      <trkpt lat="50.37385" lon="4.28043">
        <ele>194.19999694824</ele>
        <time>2014-12-29T13:53:35.000Z</time>
      </trkpt>
      <trkpt lat="50.37388" lon="4.2805">
        <ele>194.19999694824</ele>
        <time>2014-12-29T13:53:41.000Z</time>
      </trkpt>
      <trkpt lat="50.3739" lon="4.28054">
        <ele>194.19999694824</ele>
        <time>2014-12-29T13:53:46.000Z</time>
      </trkpt>
      <trkpt lat="50.37391" lon="4.28055">
        <ele>194.39999389648</ele>
        <time>2014-12-29T13:53:47.000Z</time>
      </trkpt>
      <trkpt lat="50.37395" lon="4.28062">
        <ele>194.39999389648</ele>
        <time>2014-12-29T13:53:53.000Z</time>
      </trkpt>
      <trkpt lat="50.37396" lon="4.28063">
        <ele>194.39999389648</ele>
        <time>2014-12-29T13:53:54.000Z</time>
      </trkpt>
      <trkpt lat="50.37397" lon="4.28064">
        <ele>194.39999389648</ele>
        <time>2014-12-29T13:53:55.000Z</time>
      </trkpt>
      <trkpt lat="50.37403" lon="4.28073">
        <ele>194.60000610352</ele>
        <time>2014-12-29T13:54:02.000Z</time>
      </trkpt>
      <trkpt lat="50.37405" lon="4.28076">
        <ele>194.60000610352</ele>
        <time>2014-12-29T13:54:04.000Z</time>
      </trkpt>
      <trkpt lat="50.3741" lon="4.28085">
        <ele>194.60000610352</ele>
        <time>2014-12-29T13:54:12.000Z</time>
      </trkpt>
      <trkpt lat="50.37415" lon="4.28094">
        <ele>194.80000305176</ele>
        <time>2014-12-29T13:54:18.000Z</time>
      </trkpt>
      <trkpt lat="50.37418" lon="4.281">
        <ele>194.80000305176</ele>
        <time>2014-12-29T13:54:23.000Z</time>
      </trkpt>
      <trkpt lat="50.37422" lon="4.28107">
        <ele>195</ele>
        <time>2014-12-29T13:54:28.000Z</time>
      </trkpt>
      <trkpt lat="50.37428" lon="4.28118">
        <ele>195.19999694824</ele>
        <time>2014-12-29T13:54:35.000Z</time>
      </trkpt>
      <trkpt lat="50.3743" lon="4.28125">
        <ele>195.60000610352</ele>
        <time>2014-12-29T13:54:40.000Z</time>
      </trkpt>
      <trkpt lat="50.37431" lon="4.28127">
        <ele>195.60000610352</ele>
        <time>2014-12-29T13:54:42.000Z</time>
      </trkpt>
      <trkpt lat="50.37435" lon="4.28134">
        <ele>196</ele>
        <time>2014-12-29T13:54:47.000Z</time>
      </trkpt>
      <trkpt lat="50.3744" lon="4.28141">
        <ele>196.39999389648</ele>
        <time>2014-12-29T13:54:54.000Z</time>
      </trkpt>
      <trkpt lat="50.3744" lon="4.28142">
        <ele>196.39999389648</ele>
        <time>2014-12-29T13:54:55.000Z</time>
      </trkpt>
      <trkpt lat="50.37442" lon="4.28146">
        <ele>196.60000610352</ele>
        <time>2014-12-29T13:55:02.000Z</time>
      </trkpt>
      <trkpt lat="50.37443" lon="4.28149">
        <ele>196.80000305176</ele>
        <time>2014-12-29T13:55:08.000Z</time>
      </trkpt>
      <trkpt lat="50.37446" lon="4.28156">
        <ele>197</ele>
        <time>2014-12-29T13:55:13.000Z</time>
      </trkpt>
      <trkpt lat="50.37447" lon="4.28159">
        <ele>197.19999694824</ele>
        <time>2014-12-29T13:55:17.000Z</time>
      </trkpt>
      <trkpt lat="50.37449" lon="4.28163">
        <ele>197.39999389648</ele>
        <time>2014-12-29T13:55:21.000Z</time>
      </trkpt>
      <trkpt lat="50.37452" lon="4.28172">
        <ele>197.80000305176</ele>
        <time>2014-12-29T13:55:27.000Z</time>
      </trkpt>
      <trkpt lat="50.37454" lon="4.28176">
        <ele>198</ele>
        <time>2014-12-29T13:55:30.000Z</time>
      </trkpt>
      <trkpt lat="50.37459" lon="4.28185">
        <ele>198.39999389648</ele>
        <time>2014-12-29T13:55:36.000Z</time>
      </trkpt>
      <trkpt lat="50.37465" lon="4.28192">
        <ele>198.80000305176</ele>
        <time>2014-12-29T13:55:42.000Z</time>
      </trkpt>
      <trkpt lat="50.3747" lon="4.28203">
        <ele>198.60000610352</ele>
        <time>2014-12-29T13:55:49.000Z</time>
      </trkpt>
      <trkpt lat="50.37474" lon="4.28209">
        <ele>198.39999389648</ele>
        <time>2014-12-29T13:55:53.000Z</time>
      </trkpt>
      <trkpt lat="50.3748" lon="4.2822">
        <ele>197.80000305176</ele>
        <time>2014-12-29T13:56:00.000Z</time>
      </trkpt>
      <trkpt lat="50.37481" lon="4.28222">
        <ele>197.80000305176</ele>
        <time>2014-12-29T13:56:01.000Z</time>
      </trkpt>
      <trkpt lat="50.37488" lon="4.28233">
        <ele>197.39999389648</ele>
        <time>2014-12-29T13:56:08.000Z</time>
      </trkpt>
      <trkpt lat="50.37493" lon="4.28242">
        <ele>196.80000305176</ele>
        <time>2014-12-29T13:56:14.000Z</time>
      </trkpt>
      <trkpt lat="50.375" lon="4.28256">
        <ele>196.19999694824</ele>
        <time>2014-12-29T13:56:23.000Z</time>
      </trkpt>
      <trkpt lat="50.37506" lon="4.28268">
        <ele>195.80000305176</ele>
        <time>2014-12-29T13:56:31.000Z</time>
      </trkpt>
      <trkpt lat="50.37508" lon="4.28274">
        <ele>195.60000610352</ele>
        <time>2014-12-29T13:56:35.000Z</time>
      </trkpt>
      <trkpt lat="50.37511" lon="4.28283">
        <ele>195.19999694824</ele>
        <time>2014-12-29T13:56:41.000Z</time>
      </trkpt>
      <trkpt lat="50.37512" lon="4.28284">
        <ele>195.19999694824</ele>
        <time>2014-12-29T13:56:42.000Z</time>
      </trkpt>
      <trkpt lat="50.37513" lon="4.28287">
        <ele>195.19999694824</ele>
        <time>2014-12-29T13:56:44.000Z</time>
      </trkpt>
      <trkpt lat="50.37521" lon="4.283">
        <ele>194.80000305176</ele>
        <time>2014-12-29T13:56:52.000Z</time>
      </trkpt>
      <trkpt lat="50.37527" lon="4.2831">
        <ele>194.39999389648</ele>
        <time>2014-12-29T13:56:59.000Z</time>
      </trkpt>
      <trkpt lat="50.37533" lon="4.28324">
        <ele>194</ele>
        <time>2014-12-29T13:57:08.000Z</time>
      </trkpt>
      <trkpt lat="50.37539" lon="4.28336">
        <ele>193.60000610352</ele>
        <time>2014-12-29T13:57:16.000Z</time>
      </trkpt>
      <trkpt lat="50.37544" lon="4.28347">
        <ele>193.39999389648</ele>
        <time>2014-12-29T13:57:23.000Z</time>
      </trkpt>
      <trkpt lat="50.3755" lon="4.28361">
        <ele>193</ele>
        <time>2014-12-29T13:57:32.000Z</time>
      </trkpt>
      <trkpt lat="50.37555" lon="4.28373">
        <ele>193.19999694824</ele>
        <time>2014-12-29T13:57:39.000Z</time>
      </trkpt>
      <trkpt lat="50.37562" lon="4.28386">
        <ele>193.39999389648</ele>
        <time>2014-12-29T13:57:47.000Z</time>
      </trkpt>
      <trkpt lat="50.37571" lon="4.28401">
        <ele>193.60000610352</ele>
        <time>2014-12-29T13:57:56.000Z</time>
      </trkpt>
      <trkpt lat="50.37577" lon="4.28411">
        <ele>193.60000610352</ele>
        <time>2014-12-29T13:58:03.000Z</time>
      </trkpt>
      <trkpt lat="50.37582" lon="4.28422">
        <ele>193.80000305176</ele>
        <time>2014-12-29T13:58:10.000Z</time>
      </trkpt>
      <trkpt lat="50.37585" lon="4.28429">
        <ele>193.80000305176</ele>
        <time>2014-12-29T13:58:15.000Z</time>
      </trkpt>
      <trkpt lat="50.37592" lon="4.2844">
        <ele>194</ele>
        <time>2014-12-29T13:58:23.000Z</time>
      </trkpt>
      <trkpt lat="50.37593" lon="4.28442">
        <ele>194</ele>
        <time>2014-12-29T13:58:24.000Z</time>
      </trkpt>
      <trkpt lat="50.37598" lon="4.28449">
        <ele>194.19999694824</ele>
        <time>2014-12-29T13:58:29.000Z</time>
      </trkpt>
      <trkpt lat="50.37605" lon="4.28461">
        <ele>194.60000610352</ele>
        <time>2014-12-29T13:58:38.000Z</time>
      </trkpt>
      <trkpt lat="50.37606" lon="4.28463">
        <ele>194.60000610352</ele>
        <time>2014-12-29T13:58:39.000Z</time>
      </trkpt>
      <trkpt lat="50.37612" lon="4.28474">
        <ele>194.80000305176</ele>
        <time>2014-12-29T13:58:47.000Z</time>
      </trkpt>
      <trkpt lat="50.37617" lon="4.28482">
        <ele>195</ele>
        <time>2014-12-29T13:58:53.000Z</time>
      </trkpt>
      <trkpt lat="50.37619" lon="4.28488">
        <ele>195.19999694824</ele>
        <time>2014-12-29T13:58:57.000Z</time>
      </trkpt>
      <trkpt lat="50.37622" lon="4.28493">
        <ele>195.39999389648</ele>
        <time>2014-12-29T13:59:01.000Z</time>
      </trkpt>
      <trkpt lat="50.37624" lon="4.28499">
        <ele>195.39999389648</ele>
        <time>2014-12-29T13:59:06.000Z</time>
      </trkpt>
      <trkpt lat="50.3763" lon="4.2851">
        <ele>195.80000305176</ele>
        <time>2014-12-29T13:59:14.000Z</time>
      </trkpt>
      <trkpt lat="50.37633" lon="4.28516">
        <ele>195.80000305176</ele>
        <time>2014-12-29T13:59:19.000Z</time>
      </trkpt>
      <trkpt lat="50.37637" lon="4.28522">
        <ele>195.80000305176</ele>
        <time>2014-12-29T13:59:23.000Z</time>
      </trkpt>
      <trkpt lat="50.37639" lon="4.28525">
        <ele>195.80000305176</ele>
        <time>2014-12-29T13:59:25.000Z</time>
      </trkpt>
      <trkpt lat="50.37644" lon="4.28531">
        <ele>195.60000610352</ele>
        <time>2014-12-29T13:59:30.000Z</time>
      </trkpt>
      <trkpt lat="50.37649" lon="4.28541">
        <ele>195.60000610352</ele>
        <time>2014-12-29T13:59:38.000Z</time>
      </trkpt>
      <trkpt lat="50.37651" lon="4.28544">
        <ele>195.60000610352</ele>
        <time>2014-12-29T13:59:40.000Z</time>
      </trkpt>
      <trkpt lat="50.37652" lon="4.28547">
        <ele>195.39999389648</ele>
        <time>2014-12-29T13:59:42.000Z</time>
      </trkpt>
      <trkpt lat="50.37656" lon="4.28553">
        <ele>195.39999389648</ele>
        <time>2014-12-29T13:59:46.000Z</time>
      </trkpt>
      <trkpt lat="50.37663" lon="4.28564">
        <ele>195.19999694824</ele>
        <time>2014-12-29T13:59:54.000Z</time>
      </trkpt>
      <trkpt lat="50.37667" lon="4.28569">
        <ele>195.19999694824</ele>
        <time>2014-12-29T13:59:58.000Z</time>
      </trkpt>
      <trkpt lat="50.37672" lon="4.2858">
        <ele>195</ele>
        <time>2014-12-29T14:00:05.000Z</time>
      </trkpt>
      <trkpt lat="50.37675" lon="4.28586">
        <ele>194.80000305176</ele>
        <time>2014-12-29T14:00:10.000Z</time>
      </trkpt>
      <trkpt lat="50.37677" lon="4.2859">
        <ele>194.80000305176</ele>
        <time>2014-12-29T14:00:13.000Z</time>
      </trkpt>
      <trkpt lat="50.37678" lon="4.28594">
        <ele>194.60000610352</ele>
        <time>2014-12-29T14:00:15.000Z</time>
      </trkpt>
      <trkpt lat="50.37681" lon="4.286">
        <ele>194.60000610352</ele>
        <time>2014-12-29T14:00:19.000Z</time>
      </trkpt>
      <trkpt lat="50.37687" lon="4.28611">
        <ele>194.39999389648</ele>
        <time>2014-12-29T14:00:27.000Z</time>
      </trkpt>
      <trkpt lat="50.37692" lon="4.28621">
        <ele>194.19999694824</ele>
        <time>2014-12-29T14:00:33.000Z</time>
      </trkpt>
      <trkpt lat="50.37697" lon="4.28633">
        <ele>194</ele>
        <time>2014-12-29T14:00:39.000Z</time>
      </trkpt>
      <trkpt lat="50.37703" lon="4.28647">
        <ele>193.80000305176</ele>
        <time>2014-12-29T14:00:47.000Z</time>
      </trkpt>
      <trkpt lat="50.37708" lon="4.2866">
        <ele>193.60000610352</ele>
        <time>2014-12-29T14:00:54.000Z</time>
      </trkpt>
      <trkpt lat="50.37714" lon="4.28673">
        <ele>193.19999694824</ele>
        <time>2014-12-29T14:01:02.000Z</time>
      </trkpt>
      <trkpt lat="50.37718" lon="4.28683">
        <ele>193.19999694824</ele>
        <time>2014-12-29T14:01:08.000Z</time>
      </trkpt>
      <trkpt lat="50.37725" lon="4.28702">
        <ele>192.80000305176</ele>
        <time>2014-12-29T14:01:19.000Z</time>
      </trkpt>
      <trkpt lat="50.37731" lon="4.28715">
        <ele>192.39999389648</ele>
        <time>2014-12-29T14:01:27.000Z</time>
      </trkpt>
      <trkpt lat="50.37731" lon="4.28716">
        <ele>192.39999389648</ele>
        <time>2014-12-29T14:01:28.000Z</time>
      </trkpt>
      <trkpt lat="50.37736" lon="4.28727">
        <ele>192</ele>
        <time>2014-12-29T14:01:35.000Z</time>
      </trkpt>
      <trkpt lat="50.37739" lon="4.28736">
        <ele>191.80000305176</ele>
        <time>2014-12-29T14:01:41.000Z</time>
      </trkpt>
      <trkpt lat="50.37744" lon="4.28747">
        <ele>191.39999389648</ele>
        <time>2014-12-29T14:01:48.000Z</time>
      </trkpt>
      <trkpt lat="50.37748" lon="4.2876">
        <ele>191</ele>
        <time>2014-12-29T14:01:56.000Z</time>
      </trkpt>
      <trkpt lat="50.37755" lon="4.28773">
        <ele>190.60000610352</ele>
        <time>2014-12-29T14:02:04.000Z</time>
      </trkpt>
      <trkpt lat="50.37761" lon="4.28786">
        <ele>190</ele>
        <time>2014-12-29T14:02:12.000Z</time>
      </trkpt>
      <trkpt lat="50.37767" lon="4.28795">
        <ele>189.39999389648</ele>
        <time>2014-12-29T14:02:18.000Z</time>
      </trkpt>
      <trkpt lat="50.37772" lon="4.28806">
        <ele>188.80000305176</ele>
        <time>2014-12-29T14:02:25.000Z</time>
      </trkpt>
      <trkpt lat="50.37778" lon="4.28816">
        <ele>188</ele>
        <time>2014-12-29T14:02:32.000Z</time>
      </trkpt>
      <trkpt lat="50.37784" lon="4.28826">
        <ele>187.39999389648</ele>
        <time>2014-12-29T14:02:39.000Z</time>
      </trkpt>
      <trkpt lat="50.37789" lon="4.28834">
        <ele>186.80000305176</ele>
        <time>2014-12-29T14:02:44.000Z</time>
      </trkpt>
      <trkpt lat="50.37793" lon="4.28844">
        <ele>186.19999694824</ele>
        <time>2014-12-29T14:02:51.000Z</time>
      </trkpt>
      <trkpt lat="50.37798" lon="4.28855">
        <ele>185.60000610352</ele>
        <time>2014-12-29T14:02:58.000Z</time>
      </trkpt>
      <trkpt lat="50.37804" lon="4.28864">
        <ele>184.60000610352</ele>
        <time>2014-12-29T14:03:05.000Z</time>
      </trkpt>
      <trkpt lat="50.37809" lon="4.28873">
        <ele>184.39999389648</ele>
        <time>2014-12-29T14:03:11.000Z</time>
      </trkpt>
      <trkpt lat="50.37811" lon="4.28893">
        <ele>184.60000610352</ele>
        <time>2014-12-29T14:03:33.000Z</time>
      </trkpt>
      <trkpt lat="50.3781" lon="4.28898">
        <ele>184.80000305176</ele>
        <time>2014-12-29T14:03:37.000Z</time>
      </trkpt>
      <trkpt lat="50.37808" lon="4.2891">
        <ele>185</ele>
        <time>2014-12-29T14:03:43.000Z</time>
      </trkpt>
      <trkpt lat="50.37807" lon="4.28913">
        <ele>185</ele>
        <time>2014-12-29T14:03:45.000Z</time>
      </trkpt>
      <trkpt lat="50.37801" lon="4.28925">
        <ele>185.60000610352</ele>
        <time>2014-12-29T14:03:53.000Z</time>
      </trkpt>
      <trkpt lat="50.37799" lon="4.28931">
        <ele>185.80000305176</ele>
        <time>2014-12-29T14:03:57.000Z</time>
      </trkpt>
      <trkpt lat="50.37798" lon="4.28934">
        <ele>185.80000305176</ele>
        <time>2014-12-29T14:03:59.000Z</time>
      </trkpt>
      <trkpt lat="50.37796" lon="4.28938">
        <ele>186</ele>
        <time>2014-12-29T14:04:02.000Z</time>
      </trkpt>
      <trkpt lat="50.3779" lon="4.28951">
        <ele>186.19999694824</ele>
        <time>2014-12-29T14:04:10.000Z</time>
      </trkpt>
      <trkpt lat="50.37786" lon="4.28962">
        <ele>186.39999389648</ele>
        <time>2014-12-29T14:04:17.000Z</time>
      </trkpt>
      <trkpt lat="50.37783" lon="4.28977">
        <ele>186.80000305176</ele>
        <time>2014-12-29T14:04:26.000Z</time>
      </trkpt>
      <trkpt lat="50.3778" lon="4.28987">
        <ele>187</ele>
        <time>2014-12-29T14:04:32.000Z</time>
      </trkpt>
      <trkpt lat="50.37779" lon="4.28991">
        <ele>187</ele>
        <time>2014-12-29T14:04:35.000Z</time>
      </trkpt>
      <trkpt lat="50.37775" lon="4.28999">
        <ele>187.19999694824</ele>
        <time>2014-12-29T14:04:41.000Z</time>
      </trkpt>
      <trkpt lat="50.37774" lon="4.29">
        <ele>187.19999694824</ele>
        <time>2014-12-29T14:04:42.000Z</time>
      </trkpt>
      <trkpt lat="50.37771" lon="4.29006">
        <ele>187.19999694824</ele>
        <time>2014-12-29T14:04:46.000Z</time>
      </trkpt>
      <trkpt lat="50.37766" lon="4.29016">
        <ele>186.80000305176</ele>
        <time>2014-12-29T14:04:54.000Z</time>
      </trkpt>
      <trkpt lat="50.37763" lon="4.29025">
        <ele>186.39999389648</ele>
        <time>2014-12-29T14:05:00.000Z</time>
      </trkpt>
      <trkpt lat="50.37759" lon="4.29034">
        <ele>186</ele>
        <time>2014-12-29T14:05:06.000Z</time>
      </trkpt>
      <trkpt lat="50.37759" lon="4.29036">
        <ele>186</ele>
        <time>2014-12-29T14:05:07.000Z</time>
      </trkpt>
      <trkpt lat="50.37754" lon="4.29048">
        <ele>185.60000610352</ele>
        <time>2014-12-29T14:05:14.000Z</time>
      </trkpt>
      <trkpt lat="50.37753" lon="4.29049">
        <ele>185.60000610352</ele>
        <time>2014-12-29T14:05:15.000Z</time>
      </trkpt>
      <trkpt lat="50.37752" lon="4.29052">
        <ele>185.60000610352</ele>
        <time>2014-12-29T14:05:17.000Z</time>
      </trkpt>
      <trkpt lat="50.37751" lon="4.29059">
        <ele>185.39999389648</ele>
        <time>2014-12-29T14:05:21.000Z</time>
      </trkpt>
      <trkpt lat="50.37752" lon="4.29064">
        <ele>185.39999389648</ele>
        <time>2014-12-29T14:05:25.000Z</time>
      </trkpt>
      <trkpt lat="50.3775" lon="4.29068">
        <ele>185.39999389648</ele>
        <time>2014-12-29T14:05:29.000Z</time>
      </trkpt>
      <trkpt lat="50.37748" lon="4.2908">
        <ele>185.39999389648</ele>
        <time>2014-12-29T14:05:38.000Z</time>
      </trkpt>
      <trkpt lat="50.37746" lon="4.29091">
        <ele>185.39999389648</ele>
        <time>2014-12-29T14:05:45.000Z</time>
      </trkpt>
      <trkpt lat="50.37745" lon="4.29098">
        <ele>185.60000610352</ele>
        <time>2014-12-29T14:05:59.000Z</time>
      </trkpt>
      <trkpt lat="50.37744" lon="4.291">
        <ele>185.60000610352</ele>
        <time>2014-12-29T14:06:01.000Z</time>
      </trkpt>
      <trkpt lat="50.37742" lon="4.29105">
        <ele>185.60000610352</ele>
        <time>2014-12-29T14:06:05.000Z</time>
      </trkpt>
      <trkpt lat="50.37739" lon="4.2911">
        <ele>185.60000610352</ele>
        <time>2014-12-29T14:06:15.000Z</time>
      </trkpt>
      <trkpt lat="50.37734" lon="4.29118">
        <ele>185.39999389648</ele>
        <time>2014-12-29T14:06:28.000Z</time>
      </trkpt>
      <trkpt lat="50.37729" lon="4.29125">
        <ele>185.19999694824</ele>
        <time>2014-12-29T14:06:51.000Z</time>
      </trkpt>
      <trkpt lat="50.37728" lon="4.29132">
        <ele>185.19999694824</ele>
        <time>2014-12-29T14:06:57.000Z</time>
      </trkpt>
      <trkpt lat="50.37726" lon="4.29135">
        <ele>185.39999389648</ele>
        <time>2014-12-29T14:07:01.000Z</time>
      </trkpt>
      <trkpt lat="50.37726" lon="4.2914">
        <ele>185.60000610352</ele>
        <time>2014-12-29T14:07:05.000Z</time>
      </trkpt>
      <trkpt lat="50.37724" lon="4.29145">
        <ele>185.60000610352</ele>
        <time>2014-12-29T14:07:10.000Z</time>
      </trkpt>
      <trkpt lat="50.37723" lon="4.29153">
        <ele>185.80000305176</ele>
        <time>2014-12-29T14:07:15.000Z</time>
      </trkpt>
      <trkpt lat="50.37722" lon="4.29154">
        <ele>185.80000305176</ele>
        <time>2014-12-29T14:07:16.000Z</time>
      </trkpt>
      <trkpt lat="50.37719" lon="4.29161">
        <ele>186.19999694824</ele>
        <time>2014-12-29T14:07:23.000Z</time>
      </trkpt>
      <trkpt lat="50.37716" lon="4.29173">
        <ele>186.39999389648</ele>
        <time>2014-12-29T14:07:31.000Z</time>
      </trkpt>
      <trkpt lat="50.37713" lon="4.2918">
        <ele>186.60000610352</ele>
        <time>2014-12-29T14:07:37.000Z</time>
      </trkpt>
      <trkpt lat="50.37708" lon="4.29183">
        <ele>186.60000610352</ele>
        <time>2014-12-29T14:07:43.000Z</time>
      </trkpt>
      <trkpt lat="50.37707" lon="4.29185">
        <ele>186.60000610352</ele>
        <time>2014-12-29T14:07:45.000Z</time>
      </trkpt>
      <trkpt lat="50.37701" lon="4.29191">
        <ele>186.60000610352</ele>
        <time>2014-12-29T14:07:51.000Z</time>
      </trkpt>
      <trkpt lat="50.377" lon="4.29192">
        <ele>186.60000610352</ele>
        <time>2014-12-29T14:07:52.000Z</time>
      </trkpt>
      <trkpt lat="50.37695" lon="4.29197">
        <ele>186.60000610352</ele>
        <time>2014-12-29T14:07:59.000Z</time>
      </trkpt>
      <trkpt lat="50.37694" lon="4.29198">
        <ele>186.60000610352</ele>
        <time>2014-12-29T14:08:00.000Z</time>
      </trkpt>
      <trkpt lat="50.37694" lon="4.29199">
        <ele>186.60000610352</ele>
        <time>2014-12-29T14:08:01.000Z</time>
      </trkpt>
      <trkpt lat="50.37689" lon="4.29204">
        <ele>186.60000610352</ele>
        <time>2014-12-29T14:08:06.000Z</time>
      </trkpt>
      <trkpt lat="50.37685" lon="4.29213">
        <ele>186.80000305176</ele>
        <time>2014-12-29T14:08:12.000Z</time>
      </trkpt>
      <trkpt lat="50.37684" lon="4.29214">
        <ele>186.80000305176</ele>
        <time>2014-12-29T14:08:13.000Z</time>
      </trkpt>
      <trkpt lat="50.37682" lon="4.29218">
        <ele>187</ele>
        <time>2014-12-29T14:08:19.000Z</time>
      </trkpt>
      <trkpt lat="50.37677" lon="4.29228">
        <ele>187.19999694824</ele>
        <time>2014-12-29T14:08:26.000Z</time>
      </trkpt>
      <trkpt lat="50.37677" lon="4.29229">
        <ele>187.19999694824</ele>
        <time>2014-12-29T14:08:27.000Z</time>
      </trkpt>
      <trkpt lat="50.37673" lon="4.29234">
        <ele>187.39999389648</ele>
        <time>2014-12-29T14:08:32.000Z</time>
      </trkpt>
      <trkpt lat="50.37671" lon="4.29239">
        <ele>187.60000610352</ele>
        <time>2014-12-29T14:08:38.000Z</time>
      </trkpt>
      <trkpt lat="50.37667" lon="4.29248">
        <ele>188</ele>
        <time>2014-12-29T14:08:45.000Z</time>
      </trkpt>
      <trkpt lat="50.37666" lon="4.2925">
        <ele>188</ele>
        <time>2014-12-29T14:08:46.000Z</time>
      </trkpt>
      <trkpt lat="50.37666" lon="4.2925">
        <ele>188</ele>
        <time>2014-12-29T14:08:47.000Z</time>
      </trkpt>
      <trkpt lat="50.37665" lon="4.29251">
        <ele>188</ele>
        <time>2014-12-29T14:08:49.000Z</time>
      </trkpt>
      <trkpt lat="50.37667" lon="4.29259">
        <ele>188.39999389648</ele>
        <time>2014-12-29T14:08:55.000Z</time>
      </trkpt>
      <trkpt lat="50.37668" lon="4.29262">
        <ele>188.60000610352</ele>
        <time>2014-12-29T14:08:57.000Z</time>
      </trkpt>
      <trkpt lat="50.37669" lon="4.29269">
        <ele>189</ele>
        <time>2014-12-29T14:09:01.000Z</time>
      </trkpt>
      <trkpt lat="50.37671" lon="4.29276">
        <ele>189.19999694824</ele>
        <time>2014-12-29T14:09:06.000Z</time>
      </trkpt>
      <trkpt lat="50.37673" lon="4.29279">
        <ele>189.39999389648</ele>
        <time>2014-12-29T14:09:08.000Z</time>
      </trkpt>
      <trkpt lat="50.37678" lon="4.29285">
        <ele>189.80000305176</ele>
        <time>2014-12-29T14:09:13.000Z</time>
      </trkpt>
      <trkpt lat="50.3768" lon="4.29287">
        <ele>189.80000305176</ele>
        <time>2014-12-29T14:09:16.000Z</time>
      </trkpt>
      <trkpt lat="50.3768" lon="4.29293">
        <ele>190</ele>
        <time>2014-12-29T14:09:21.000Z</time>
      </trkpt>
      <trkpt lat="50.37681" lon="4.29301">
        <ele>190.39999389648</ele>
        <time>2014-12-29T14:09:26.000Z</time>
      </trkpt>
      <trkpt lat="50.37686" lon="4.29312">
        <ele>190.80000305176</ele>
        <time>2014-12-29T14:09:35.000Z</time>
      </trkpt>
      <trkpt lat="50.37686" lon="4.29313">
        <ele>190.80000305176</ele>
        <time>2014-12-29T14:09:36.000Z</time>
      </trkpt>
      <trkpt lat="50.37688" lon="4.29317">
        <ele>191</ele>
        <time>2014-12-29T14:09:44.000Z</time>
      </trkpt>
      <trkpt lat="50.37692" lon="4.29323">
        <ele>191.19999694824</ele>
        <time>2014-12-29T14:09:49.000Z</time>
      </trkpt>
      <trkpt lat="50.37697" lon="4.29332">
        <ele>191.60000610352</ele>
        <time>2014-12-29T14:09:57.000Z</time>
      </trkpt>
      <trkpt lat="50.37698" lon="4.29334">
        <ele>191.80000305176</ele>
        <time>2014-12-29T14:09:58.000Z</time>
      </trkpt>
      <trkpt lat="50.377" lon="4.2934">
        <ele>192</ele>
        <time>2014-12-29T14:10:04.000Z</time>
      </trkpt>
      <trkpt lat="50.377" lon="4.29341">
        <ele>192</ele>
        <time>2014-12-29T14:10:05.000Z</time>
      </trkpt>
      <trkpt lat="50.37702" lon="4.29342">
        <ele>192</ele>
        <time>2014-12-29T14:10:07.000Z</time>
      </trkpt>
      <trkpt lat="50.37703" lon="4.29344">
        <ele>192.19999694824</ele>
        <time>2014-12-29T14:10:11.000Z</time>
      </trkpt>
      <trkpt lat="50.37707" lon="4.29352">
        <ele>192.39999389648</ele>
        <time>2014-12-29T14:10:17.000Z</time>
      </trkpt>
      <trkpt lat="50.37711" lon="4.29359">
        <ele>192.80000305176</ele>
        <time>2014-12-29T14:10:25.000Z</time>
      </trkpt>
      <trkpt lat="50.37713" lon="4.29366">
        <ele>193</ele>
        <time>2014-12-29T14:10:30.000Z</time>
      </trkpt>
      <trkpt lat="50.37715" lon="4.29373">
        <ele>193.19999694824</ele>
        <time>2014-12-29T14:10:35.000Z</time>
      </trkpt>
      <trkpt lat="50.37715" lon="4.29377">
        <ele>193.19999694824</ele>
        <time>2014-12-29T14:10:37.000Z</time>
      </trkpt>
      <trkpt lat="50.37716" lon="4.29382">
        <ele>193.39999389648</ele>
        <time>2014-12-29T14:10:41.000Z</time>
      </trkpt>
      <trkpt lat="50.37718" lon="4.2939">
        <ele>193.39999389648</ele>
        <time>2014-12-29T14:10:47.000Z</time>
      </trkpt>
      <trkpt lat="50.37719" lon="4.29397">
        <ele>193.39999389648</ele>
        <time>2014-12-29T14:10:52.000Z</time>
      </trkpt>
      <trkpt lat="50.3772" lon="4.29398">
        <ele>193.39999389648</ele>
        <time>2014-12-29T14:10:53.000Z</time>
      </trkpt>
      <trkpt lat="50.37721" lon="4.29401">
        <ele>193.39999389648</ele>
        <time>2014-12-29T14:10:55.000Z</time>
      </trkpt>
      <trkpt lat="50.37723" lon="4.29409">
        <ele>193.39999389648</ele>
        <time>2014-12-29T14:10:59.000Z</time>
      </trkpt>
      <trkpt lat="50.37724" lon="4.29411">
        <ele>193.39999389648</ele>
        <time>2014-12-29T14:11:01.000Z</time>
      </trkpt>
      <trkpt lat="50.37725" lon="4.29413">
        <ele>193.39999389648</ele>
        <time>2014-12-29T14:11:02.000Z</time>
      </trkpt>
      <trkpt lat="50.37726" lon="4.29415">
        <ele>193.39999389648</ele>
        <time>2014-12-29T14:11:05.000Z</time>
      </trkpt>
      <trkpt lat="50.37728" lon="4.29422">
        <ele>193.39999389648</ele>
        <time>2014-12-29T14:11:10.000Z</time>
      </trkpt>
      <trkpt lat="50.37731" lon="4.29429">
        <ele>193.39999389648</ele>
        <time>2014-12-29T14:11:15.000Z</time>
      </trkpt>
      <trkpt lat="50.37732" lon="4.29433">
        <ele>193.39999389648</ele>
        <time>2014-12-29T14:11:17.000Z</time>
      </trkpt>
      <trkpt lat="50.37737" lon="4.29438">
        <ele>193.19999694824</ele>
        <time>2014-12-29T14:11:24.000Z</time>
      </trkpt>
      <trkpt lat="50.37738" lon="4.29439">
        <ele>193.19999694824</ele>
        <time>2014-12-29T14:11:25.000Z</time>
      </trkpt>
      <trkpt lat="50.37743" lon="4.2945">
        <ele>193</ele>
        <time>2014-12-29T14:11:33.000Z</time>
      </trkpt>
      <trkpt lat="50.37745" lon="4.29455">
        <ele>193</ele>
        <time>2014-12-29T14:11:36.000Z</time>
      </trkpt>
      <trkpt lat="50.37748" lon="4.29466">
        <ele>193</ele>
        <time>2014-12-29T14:11:43.000Z</time>
      </trkpt>
      <trkpt lat="50.37749" lon="4.29469">
        <ele>193</ele>
        <time>2014-12-29T14:11:45.000Z</time>
      </trkpt>
      <trkpt lat="50.37755" lon="4.29478">
        <ele>192.80000305176</ele>
        <time>2014-12-29T14:11:52.000Z</time>
      </trkpt>
      <trkpt lat="50.37756" lon="4.29478">
        <ele>192.80000305176</ele>
        <time>2014-12-29T14:11:53.000Z</time>
      </trkpt>
      <trkpt lat="50.37761" lon="4.29485">
        <ele>192.60000610352</ele>
        <time>2014-12-29T14:11:59.000Z</time>
      </trkpt>
      <trkpt lat="50.37761" lon="4.29492">
        <ele>192.80000305176</ele>
        <time>2014-12-29T14:12:03.000Z</time>
      </trkpt>
      <trkpt lat="50.37761" lon="4.29495">
        <ele>192.80000305176</ele>
        <time>2014-12-29T14:12:05.000Z</time>
      </trkpt>
      <trkpt lat="50.37762" lon="4.29497">
        <ele>192.80000305176</ele>
        <time>2014-12-29T14:12:07.000Z</time>
      </trkpt>
      <trkpt lat="50.37768" lon="4.29499">
        <ele>192.39999389648</ele>
        <time>2014-12-29T14:12:13.000Z</time>
      </trkpt>
      <trkpt lat="50.37769" lon="4.295">
        <ele>192.39999389648</ele>
        <time>2014-12-29T14:12:14.000Z</time>
      </trkpt>
      <trkpt lat="50.37774" lon="4.29509">
        <ele>192.19999694824</ele>
        <time>2014-12-29T14:12:21.000Z</time>
      </trkpt>
      <trkpt lat="50.37778" lon="4.29515">
        <ele>192</ele>
        <time>2014-12-29T14:12:28.000Z</time>
      </trkpt>
      <trkpt lat="50.3778" lon="4.29518">
        <ele>192.19999694824</ele>
        <time>2014-12-29T14:12:30.000Z</time>
      </trkpt>
      <trkpt lat="50.37784" lon="4.29529">
        <ele>192.19999694824</ele>
        <time>2014-12-29T14:12:37.000Z</time>
      </trkpt>
      <trkpt lat="50.37784" lon="4.2953">
        <ele>192.19999694824</ele>
        <time>2014-12-29T14:12:38.000Z</time>
      </trkpt>
      <trkpt lat="50.37787" lon="4.29533">
        <ele>192</ele>
        <time>2014-12-29T14:12:42.000Z</time>
      </trkpt>
      <trkpt lat="50.37789" lon="4.29535">
        <ele>192</ele>
        <time>2014-12-29T14:12:44.000Z</time>
      </trkpt>
      <trkpt lat="50.37789" lon="4.29539">
        <ele>192</ele>
        <time>2014-12-29T14:12:46.000Z</time>
      </trkpt>
      <trkpt lat="50.37787" lon="4.29544">
        <ele>192.19999694824</ele>
        <time>2014-12-29T14:12:50.000Z</time>
      </trkpt>
      <trkpt lat="50.37787" lon="4.29547">
        <ele>192.39999389648</ele>
        <time>2014-12-29T14:12:52.000Z</time>
      </trkpt>
      <trkpt lat="50.3779" lon="4.29552">
        <ele>192.19999694824</ele>
        <time>2014-12-29T14:12:57.000Z</time>
      </trkpt>
      <trkpt lat="50.37791" lon="4.29552">
        <ele>192.19999694824</ele>
        <time>2014-12-29T14:12:58.000Z</time>
      </trkpt>
      <trkpt lat="50.37793" lon="4.29555">
        <ele>192</ele>
        <time>2014-12-29T14:13:03.000Z</time>
      </trkpt>
      <trkpt lat="50.37794" lon="4.29555">
        <ele>192</ele>
        <time>2014-12-29T14:13:04.000Z</time>
      </trkpt>
      <trkpt lat="50.37796" lon="4.29559">
        <ele>192</ele>
        <time>2014-12-29T14:13:07.000Z</time>
      </trkpt>
      <trkpt lat="50.37799" lon="4.29566">
        <ele>191.80000305176</ele>
        <time>2014-12-29T14:13:14.000Z</time>
      </trkpt>
      <trkpt lat="50.378" lon="4.29567">
        <ele>191.80000305176</ele>
        <time>2014-12-29T14:13:16.000Z</time>
      </trkpt>
      <trkpt lat="50.37803" lon="4.2957">
        <ele>191.80000305176</ele>
        <time>2014-12-29T14:13:20.000Z</time>
      </trkpt>
      <trkpt lat="50.37805" lon="4.29572">
        <ele>191.80000305176</ele>
        <time>2014-12-29T14:13:22.000Z</time>
      </trkpt>
      <trkpt lat="50.37806" lon="4.29577">
        <ele>191.80000305176</ele>
        <time>2014-12-29T14:13:27.000Z</time>
      </trkpt>
      <trkpt lat="50.37808" lon="4.29582">
        <ele>192</ele>
        <time>2014-12-29T14:13:33.000Z</time>
      </trkpt>
      <trkpt lat="50.3781" lon="4.29587">
        <ele>192</ele>
        <time>2014-12-29T14:13:38.000Z</time>
      </trkpt>
      <trkpt lat="50.37813" lon="4.29592">
        <ele>192</ele>
        <time>2014-12-29T14:13:43.000Z</time>
      </trkpt>
      <trkpt lat="50.37817" lon="4.296">
        <ele>192</ele>
        <time>2014-12-29T14:13:49.000Z</time>
      </trkpt>
      <trkpt lat="50.37819" lon="4.29608">
        <ele>192.19999694824</ele>
        <time>2014-12-29T14:13:54.000Z</time>
      </trkpt>
      <trkpt lat="50.37821" lon="4.29617">
        <ele>192.19999694824</ele>
        <time>2014-12-29T14:14:00.000Z</time>
      </trkpt>
      <trkpt lat="50.37821" lon="4.29619">
        <ele>192.19999694824</ele>
        <time>2014-12-29T14:14:01.000Z</time>
      </trkpt>
      <trkpt lat="50.37824" lon="4.29626">
        <ele>192.19999694824</ele>
        <time>2014-12-29T14:14:06.000Z</time>
      </trkpt>
      <trkpt lat="50.37828" lon="4.29631">
        <ele>192.19999694824</ele>
        <time>2014-12-29T14:14:12.000Z</time>
      </trkpt>
      <trkpt lat="50.37832" lon="4.29639">
        <ele>192</ele>
        <time>2014-12-29T14:14:17.000Z</time>
      </trkpt>
      <trkpt lat="50.37832" lon="4.29645">
        <ele>192.19999694824</ele>
        <time>2014-12-29T14:14:21.000Z</time>
      </trkpt>
      <trkpt lat="50.37833" lon="4.29649">
        <ele>192.19999694824</ele>
        <time>2014-12-29T14:14:23.000Z</time>
      </trkpt>
      <trkpt lat="50.37833" lon="4.2965">
        <ele>192.19999694824</ele>
        <time>2014-12-29T14:14:24.000Z</time>
      </trkpt>
      <trkpt lat="50.37837" lon="4.29657">
        <ele>192.19999694824</ele>
        <time>2014-12-29T14:14:30.000Z</time>
      </trkpt>
      <trkpt lat="50.37839" lon="4.29663">
        <ele>192.19999694824</ele>
        <time>2014-12-29T14:14:34.000Z</time>
      </trkpt>
      <trkpt lat="50.3784" lon="4.29669">
        <ele>192.39999389648</ele>
        <time>2014-12-29T14:14:39.000Z</time>
      </trkpt>
      <trkpt lat="50.37842" lon="4.2967">
        <ele>192.19999694824</ele>
        <time>2014-12-29T14:14:42.000Z</time>
      </trkpt>
      <trkpt lat="50.37843" lon="4.29671">
        <ele>192.19999694824</ele>
        <time>2014-12-29T14:14:44.000Z</time>
      </trkpt>
      <trkpt lat="50.37844" lon="4.29673">
        <ele>192.19999694824</ele>
        <time>2014-12-29T14:14:50.000Z</time>
      </trkpt>
      <trkpt lat="50.37846" lon="4.29678">
        <ele>192.19999694824</ele>
        <time>2014-12-29T14:14:55.000Z</time>
      </trkpt>
      <trkpt lat="50.37849" lon="4.29681">
        <ele>192.19999694824</ele>
        <time>2014-12-29T14:15:00.000Z</time>
      </trkpt>
      <trkpt lat="50.37853" lon="4.29688">
        <ele>192.19999694824</ele>
        <time>2014-12-29T14:15:06.000Z</time>
      </trkpt>
      <trkpt lat="50.37853" lon="4.2969">
        <ele>192.19999694824</ele>
        <time>2014-12-29T14:15:07.000Z</time>
      </trkpt>
      <trkpt lat="50.37854" lon="4.29702">
        <ele>192.60000610352</ele>
        <time>2014-12-29T14:15:15.000Z</time>
      </trkpt>
      <trkpt lat="50.37855" lon="4.29706">
        <ele>192.80000305176</ele>
        <time>2014-12-29T14:15:17.000Z</time>
      </trkpt>
      <trkpt lat="50.37856" lon="4.29709">
        <ele>192.80000305176</ele>
        <time>2014-12-29T14:15:19.000Z</time>
      </trkpt>
      <trkpt lat="50.37859" lon="4.29714">
        <ele>193</ele>
        <time>2014-12-29T14:15:22.000Z</time>
      </trkpt>
      <trkpt lat="50.37861" lon="4.29716">
        <ele>193</ele>
        <time>2014-12-29T14:15:24.000Z</time>
      </trkpt>
      <trkpt lat="50.37864" lon="4.29722">
        <ele>193</ele>
        <time>2014-12-29T14:15:29.000Z</time>
      </trkpt>
      <trkpt lat="50.37867" lon="4.29724">
        <ele>193</ele>
        <time>2014-12-29T14:15:32.000Z</time>
      </trkpt>
      <trkpt lat="50.37871" lon="4.29732">
        <ele>193.19999694824</ele>
        <time>2014-12-29T14:15:39.000Z</time>
      </trkpt>
      <trkpt lat="50.37878" lon="4.29742">
        <ele>193.39999389648</ele>
        <time>2014-12-29T14:15:47.000Z</time>
      </trkpt>
      <trkpt lat="50.37881" lon="4.29745">
        <ele>193.39999389648</ele>
        <time>2014-12-29T14:15:50.000Z</time>
      </trkpt>
      <trkpt lat="50.37883" lon="4.29749">
        <ele>193.39999389648</ele>
        <time>2014-12-29T14:15:57.000Z</time>
      </trkpt>
      <trkpt lat="50.37884" lon="4.29754">
        <ele>193.60000610352</ele>
        <time>2014-12-29T14:16:00.000Z</time>
      </trkpt>
      <trkpt lat="50.37886" lon="4.29766">
        <ele>194</ele>
        <time>2014-12-29T14:16:08.000Z</time>
      </trkpt>
      <trkpt lat="50.37886" lon="4.29767">
        <ele>194</ele>
        <time>2014-12-29T14:16:09.000Z</time>
      </trkpt>
      <trkpt lat="50.37887" lon="4.29771">
        <ele>194</ele>
        <time>2014-12-29T14:16:12.000Z</time>
      </trkpt>
      <trkpt lat="50.37887" lon="4.29781">
        <ele>194.60000610352</ele>
        <time>2014-12-29T14:16:18.000Z</time>
      </trkpt>
      <trkpt lat="50.37879" lon="4.29788">
        <ele>195.60000610352</ele>
        <time>2014-12-29T14:16:30.000Z</time>
      </trkpt>
      <trkpt lat="50.37872" lon="4.29791">
        <ele>195.80000305176</ele>
        <time>2014-12-29T14:16:37.000Z</time>
      </trkpt>
      <trkpt lat="50.37867" lon="4.29792">
        <ele>196.19999694824</ele>
        <time>2014-12-29T14:16:42.000Z</time>
      </trkpt>
      <trkpt lat="50.37857" lon="4.29796">
        <ele>196.60000610352</ele>
        <time>2014-12-29T14:16:52.000Z</time>
      </trkpt>
      <trkpt lat="50.37856" lon="4.29796">
        <ele>196.60000610352</ele>
        <time>2014-12-29T14:16:53.000Z</time>
      </trkpt>
      <trkpt lat="50.37849" lon="4.29799">
        <ele>197</ele>
        <time>2014-12-29T14:17:00.000Z</time>
      </trkpt>
      <trkpt lat="50.37845" lon="4.29801">
        <ele>197.39999389648</ele>
        <time>2014-12-29T14:17:04.000Z</time>
      </trkpt>
      <trkpt lat="50.37837" lon="4.29805">
        <ele>197.80000305176</ele>
        <time>2014-12-29T14:17:12.000Z</time>
      </trkpt>
      <trkpt lat="50.37834" lon="4.29807">
        <ele>198</ele>
        <time>2014-12-29T14:17:16.000Z</time>
      </trkpt>
      <trkpt lat="50.37825" lon="4.29811">
        <ele>198.60000610352</ele>
        <time>2014-12-29T14:17:24.000Z</time>
      </trkpt>
      <trkpt lat="50.37814" lon="4.29816">
        <ele>199.19999694824</ele>
        <time>2014-12-29T14:17:33.000Z</time>
      </trkpt>
      <trkpt lat="50.37804" lon="4.29819">
        <ele>199.60000610352</ele>
        <time>2014-12-29T14:17:41.000Z</time>
      </trkpt>
      <trkpt lat="50.378" lon="4.29821">
        <ele>199.80000305176</ele>
        <time>2014-12-29T14:17:45.000Z</time>
      </trkpt>
      <trkpt lat="50.37795" lon="4.29823">
        <ele>200</ele>
        <time>2014-12-29T14:17:50.000Z</time>
      </trkpt>
      <trkpt lat="50.37786" lon="4.29829">
        <ele>200.39999389648</ele>
        <time>2014-12-29T14:17:58.000Z</time>
      </trkpt>
      <trkpt lat="50.37778" lon="4.29834">
        <ele>200.80000305176</ele>
        <time>2014-12-29T14:18:05.000Z</time>
      </trkpt>
      <trkpt lat="50.37775" lon="4.29837">
        <ele>201</ele>
        <time>2014-12-29T14:18:08.000Z</time>
      </trkpt>
      <trkpt lat="50.37766" lon="4.29842">
        <ele>201</ele>
        <time>2014-12-29T14:18:17.000Z</time>
      </trkpt>
      <trkpt lat="50.37761" lon="4.29846">
        <ele>201</ele>
        <time>2014-12-29T14:18:23.000Z</time>
      </trkpt>
      <trkpt lat="50.37757" lon="4.29849">
        <ele>200.80000305176</ele>
        <time>2014-12-29T14:18:27.000Z</time>
      </trkpt>
      <trkpt lat="50.37753" lon="4.29852">
        <ele>200.80000305176</ele>
        <time>2014-12-29T14:18:31.000Z</time>
      </trkpt>
      <trkpt lat="50.37747" lon="4.29856">
        <ele>200.60000610352</ele>
        <time>2014-12-29T14:18:37.000Z</time>
      </trkpt>
      <trkpt lat="50.37746" lon="4.29856">
        <ele>200.60000610352</ele>
        <time>2014-12-29T14:18:38.000Z</time>
      </trkpt>
      <trkpt lat="50.37745" lon="4.29857">
        <ele>200.60000610352</ele>
        <time>2014-12-29T14:18:39.000Z</time>
      </trkpt>
      <trkpt lat="50.37737" lon="4.29862">
        <ele>200.60000610352</ele>
        <time>2014-12-29T14:18:47.000Z</time>
      </trkpt>
      <trkpt lat="50.37728" lon="4.29868">
        <ele>200.39999389648</ele>
        <time>2014-12-29T14:18:55.000Z</time>
      </trkpt>
      <trkpt lat="50.37722" lon="4.29872">
        <ele>200.19999694824</ele>
        <time>2014-12-29T14:19:01.000Z</time>
      </trkpt>
      <trkpt lat="50.37715" lon="4.29877">
        <ele>200.19999694824</ele>
        <time>2014-12-29T14:19:08.000Z</time>
      </trkpt>
      <trkpt lat="50.3771" lon="4.29882">
        <ele>200.39999389648</ele>
        <time>2014-12-29T14:19:14.000Z</time>
      </trkpt>
      <trkpt lat="50.37706" lon="4.29884">
        <ele>200.39999389648</ele>
        <time>2014-12-29T14:19:18.000Z</time>
      </trkpt>
      <trkpt lat="50.37705" lon="4.29886">
        <ele>200.60000610352</ele>
        <time>2014-12-29T14:19:20.000Z</time>
      </trkpt>
      <trkpt lat="50.37701" lon="4.29887">
        <ele>200.60000610352</ele>
        <time>2014-12-29T14:19:25.000Z</time>
      </trkpt>
      <trkpt lat="50.37694" lon="4.29889">
        <ele>200.80000305176</ele>
        <time>2014-12-29T14:19:32.000Z</time>
      </trkpt>
      <trkpt lat="50.37685" lon="4.2989">
        <ele>201</ele>
        <time>2014-12-29T14:19:39.000Z</time>
      </trkpt>
      <trkpt lat="50.37676" lon="4.2989">
        <ele>201.19999694824</ele>
        <time>2014-12-29T14:19:47.000Z</time>
      </trkpt>
      <trkpt lat="50.37668" lon="4.29889">
        <ele>201.39999389648</ele>
        <time>2014-12-29T14:19:54.000Z</time>
      </trkpt>
      <trkpt lat="50.37661" lon="4.29894">
        <ele>201.60000610352</ele>
        <time>2014-12-29T14:20:01.000Z</time>
      </trkpt>
      <trkpt lat="50.37658" lon="4.29905">
        <ele>202</ele>
        <time>2014-12-29T14:20:09.000Z</time>
      </trkpt>
      <trkpt lat="50.37657" lon="4.29909">
        <ele>202.19999694824</ele>
        <time>2014-12-29T14:20:12.000Z</time>
      </trkpt>
      <trkpt lat="50.37656" lon="4.29916">
        <ele>202.39999389648</ele>
        <time>2014-12-29T14:20:18.000Z</time>
      </trkpt>
      <trkpt lat="50.37656" lon="4.2992">
        <ele>202.39999389648</ele>
        <time>2014-12-29T14:20:21.000Z</time>
      </trkpt>
      <trkpt lat="50.37655" lon="4.29934">
        <ele>202.80000305176</ele>
        <time>2014-12-29T14:20:29.000Z</time>
      </trkpt>
      <trkpt lat="50.37655" lon="4.29945">
        <ele>203</ele>
        <time>2014-12-29T14:20:35.000Z</time>
      </trkpt>
      <trkpt lat="50.37656" lon="4.29956">
        <ele>203.39999389648</ele>
        <time>2014-12-29T14:20:42.000Z</time>
      </trkpt>
      <trkpt lat="50.37655" lon="4.29957">
        <ele>203.39999389648</ele>
        <time>2014-12-29T14:20:43.000Z</time>
      </trkpt>
      <trkpt lat="50.37656" lon="4.29968">
        <ele>203.60000610352</ele>
        <time>2014-12-29T14:20:49.000Z</time>
      </trkpt>
      <trkpt lat="50.37656" lon="4.2998">
        <ele>204</ele>
        <time>2014-12-29T14:20:56.000Z</time>
      </trkpt>
      <trkpt lat="50.37657" lon="4.29991">
        <ele>204.19999694824</ele>
        <time>2014-12-29T14:21:03.000Z</time>
      </trkpt>
      <trkpt lat="50.37658" lon="4.29992">
        <ele>204.19999694824</ele>
        <time>2014-12-29T14:21:04.000Z</time>
      </trkpt>
      <trkpt lat="50.37659" lon="4.30004">
        <ele>204.39999389648</ele>
        <time>2014-12-29T14:21:11.000Z</time>
      </trkpt>
      <trkpt lat="50.3766" lon="4.30012">
        <ele>204.60000610352</ele>
        <time>2014-12-29T14:21:16.000Z</time>
      </trkpt>
      <trkpt lat="50.37663" lon="4.30027">
        <ele>204.80000305176</ele>
        <time>2014-12-29T14:21:25.000Z</time>
      </trkpt>
      <trkpt lat="50.37663" lon="4.30033">
        <ele>204.80000305176</ele>
        <time>2014-12-29T14:21:28.000Z</time>
      </trkpt>
      <trkpt lat="50.37666" lon="4.30049">
        <ele>204.39999389648</ele>
        <time>2014-12-29T14:21:37.000Z</time>
      </trkpt>
      <trkpt lat="50.37668" lon="4.30059">
        <ele>204</ele>
        <time>2014-12-29T14:21:42.000Z</time>
      </trkpt>
      <trkpt lat="50.37669" lon="4.30066">
        <ele>203.80000305176</ele>
        <time>2014-12-29T14:21:46.000Z</time>
      </trkpt>
      <trkpt lat="50.3767" lon="4.30072">
        <ele>203.60000610352</ele>
        <time>2014-12-29T14:21:50.000Z</time>
      </trkpt>
      <trkpt lat="50.37674" lon="4.3008">
        <ele>203.19999694824</ele>
        <time>2014-12-29T14:21:57.000Z</time>
      </trkpt>
      <trkpt lat="50.37677" lon="4.30083">
        <ele>203</ele>
        <time>2014-12-29T14:22:00.000Z</time>
      </trkpt>
      <trkpt lat="50.37684" lon="4.30087">
        <ele>202.80000305176</ele>
        <time>2014-12-29T14:22:07.000Z</time>
      </trkpt>
      <trkpt lat="50.37687" lon="4.3009">
        <ele>202.60000610352</ele>
        <time>2014-12-29T14:22:11.000Z</time>
      </trkpt>
      <trkpt lat="50.37694" lon="4.30098">
        <ele>202.19999694824</ele>
        <time>2014-12-29T14:22:19.000Z</time>
      </trkpt>
      <trkpt lat="50.377" lon="4.30104">
        <ele>201.80000305176</ele>
        <time>2014-12-29T14:22:26.000Z</time>
      </trkpt>
      <trkpt lat="50.37707" lon="4.3011">
        <ele>201.39999389648</ele>
        <time>2014-12-29T14:22:33.000Z</time>
      </trkpt>
      <trkpt lat="50.37714" lon="4.30117">
        <ele>201</ele>
        <time>2014-12-29T14:22:41.000Z</time>
      </trkpt>
      <trkpt lat="50.37721" lon="4.3012">
        <ele>200.60000610352</ele>
        <time>2014-12-29T14:22:47.000Z</time>
      </trkpt>
      <trkpt lat="50.37726" lon="4.30124">
        <ele>200.60000610352</ele>
        <time>2014-12-29T14:22:51.000Z</time>
      </trkpt>
      <trkpt lat="50.37735" lon="4.30131">
        <ele>200.19999694824</ele>
        <time>2014-12-29T14:23:00.000Z</time>
      </trkpt>
      <trkpt lat="50.37737" lon="4.30134">
        <ele>200</ele>
        <time>2014-12-29T14:23:03.000Z</time>
      </trkpt>
      <trkpt lat="50.37745" lon="4.3014">
        <ele>199.80000305176</ele>
        <time>2014-12-29T14:23:11.000Z</time>
      </trkpt>
      <trkpt lat="50.37747" lon="4.30141">
        <ele>199.60000610352</ele>
        <time>2014-12-29T14:23:12.000Z</time>
      </trkpt>
      <trkpt lat="50.37749" lon="4.30143">
        <ele>199.60000610352</ele>
        <time>2014-12-29T14:23:14.000Z</time>
      </trkpt>
      <trkpt lat="50.37756" lon="4.30148">
        <ele>199.39999389648</ele>
        <time>2014-12-29T14:23:21.000Z</time>
      </trkpt>
      <trkpt lat="50.37767" lon="4.30159">
        <ele>198.80000305176</ele>
        <time>2014-12-29T14:23:31.000Z</time>
      </trkpt>
      <trkpt lat="50.37769" lon="4.30159">
        <ele>198.80000305176</ele>
        <time>2014-12-29T14:23:32.000Z</time>
      </trkpt>
      <trkpt lat="50.37774" lon="4.30163">
        <ele>198.60000610352</ele>
        <time>2014-12-29T14:23:37.000Z</time>
      </trkpt>
      <trkpt lat="50.37777" lon="4.30165">
        <ele>198.60000610352</ele>
        <time>2014-12-29T14:23:40.000Z</time>
      </trkpt>
      <trkpt lat="50.37783" lon="4.3017">
        <ele>198.19999694824</ele>
        <time>2014-12-29T14:23:47.000Z</time>
      </trkpt>
      <trkpt lat="50.37787" lon="4.30174">
        <ele>198</ele>
        <time>2014-12-29T14:23:52.000Z</time>
      </trkpt>
      <trkpt lat="50.3779" lon="4.30177">
        <ele>198</ele>
        <time>2014-12-29T14:23:56.000Z</time>
      </trkpt>
      <trkpt lat="50.37799" lon="4.30184">
        <ele>197.60000610352</ele>
        <time>2014-12-29T14:24:05.000Z</time>
      </trkpt>
      <trkpt lat="50.37801" lon="4.30186">
        <ele>197.60000610352</ele>
        <time>2014-12-29T14:24:07.000Z</time>
      </trkpt>
      <trkpt lat="50.37805" lon="4.30188">
        <ele>197.39999389648</ele>
        <time>2014-12-29T14:24:11.000Z</time>
      </trkpt>
      <trkpt lat="50.37807" lon="4.3019">
        <ele>197.39999389648</ele>
        <time>2014-12-29T14:24:13.000Z</time>
      </trkpt>
      <trkpt lat="50.37812" lon="4.30194">
        <ele>197.19999694824</ele>
        <time>2014-12-29T14:24:18.000Z</time>
      </trkpt>
      <trkpt lat="50.37818" lon="4.30198">
        <ele>197.19999694824</ele>
        <time>2014-12-29T14:24:23.000Z</time>
      </trkpt>
      <trkpt lat="50.37827" lon="4.30205">
        <ele>197.19999694824</ele>
        <time>2014-12-29T14:24:30.000Z</time>
      </trkpt>
      <trkpt lat="50.37831" lon="4.30208">
        <ele>197.19999694824</ele>
        <time>2014-12-29T14:24:34.000Z</time>
      </trkpt>
      <trkpt lat="50.37835" lon="4.30212">
        <ele>197</ele>
        <time>2014-12-29T14:24:39.000Z</time>
      </trkpt>
      <trkpt lat="50.37838" lon="4.30215">
        <ele>197</ele>
        <time>2014-12-29T14:24:42.000Z</time>
      </trkpt>
      <trkpt lat="50.37848" lon="4.30222">
        <ele>197</ele>
        <time>2014-12-29T14:24:51.000Z</time>
      </trkpt>
      <trkpt lat="50.37854" lon="4.30227">
        <ele>197</ele>
        <time>2014-12-29T14:24:57.000Z</time>
      </trkpt>
      <trkpt lat="50.37855" lon="4.30227">
        <ele>197</ele>
        <time>2014-12-29T14:24:58.000Z</time>
      </trkpt>
      <trkpt lat="50.3786" lon="4.3023">
        <ele>197</ele>
        <time>2014-12-29T14:25:02.000Z</time>
      </trkpt>
      <trkpt lat="50.37868" lon="4.30238">
        <ele>196.80000305176</ele>
        <time>2014-12-29T14:25:10.000Z</time>
      </trkpt>
      <trkpt lat="50.37873" lon="4.30242">
        <ele>196.80000305176</ele>
        <time>2014-12-29T14:25:14.000Z</time>
      </trkpt>
      <trkpt lat="50.37879" lon="4.30248">
        <ele>196.80000305176</ele>
        <time>2014-12-29T14:25:21.000Z</time>
      </trkpt>
      <trkpt lat="50.37884" lon="4.30251">
        <ele>196.60000610352</ele>
        <time>2014-12-29T14:25:26.000Z</time>
      </trkpt>
      <trkpt lat="50.37891" lon="4.30257">
        <ele>196.39999389648</ele>
        <time>2014-12-29T14:25:34.000Z</time>
      </trkpt>
      <trkpt lat="50.37892" lon="4.30257">
        <ele>196.39999389648</ele>
        <time>2014-12-29T14:25:35.000Z</time>
      </trkpt>
      <trkpt lat="50.37896" lon="4.30261">
        <ele>196.19999694824</ele>
        <time>2014-12-29T14:25:38.000Z</time>
      </trkpt>
      <trkpt lat="50.37902" lon="4.30266">
        <ele>196</ele>
        <time>2014-12-29T14:25:45.000Z</time>
      </trkpt>
      <trkpt lat="50.37908" lon="4.3027">
        <ele>196</ele>
        <time>2014-12-29T14:25:50.000Z</time>
      </trkpt>
      <trkpt lat="50.3791" lon="4.3027">
        <ele>196</ele>
        <time>2014-12-29T14:25:51.000Z</time>
      </trkpt>
      <trkpt lat="50.3791" lon="4.3027">
        <ele>195.80000305176</ele>
        <time>2014-12-29T14:25:52.000Z</time>
      </trkpt>
      <trkpt lat="50.37914" lon="4.30275">
        <ele>195.80000305176</ele>
        <time>2014-12-29T14:25:57.000Z</time>
      </trkpt>
      <trkpt lat="50.37919" lon="4.30279">
        <ele>195.60000610352</ele>
        <time>2014-12-29T14:26:01.000Z</time>
      </trkpt>
      <trkpt lat="50.3792" lon="4.3028">
        <ele>195.60000610352</ele>
        <time>2014-12-29T14:26:03.000Z</time>
      </trkpt>
      <trkpt lat="50.3793" lon="4.30288">
        <ele>195.39999389648</ele>
        <time>2014-12-29T14:26:11.000Z</time>
      </trkpt>
      <trkpt lat="50.37931" lon="4.30291">
        <ele>195.19999694824</ele>
        <time>2014-12-29T14:26:13.000Z</time>
      </trkpt>
      <trkpt lat="50.3794" lon="4.30298">
        <ele>195</ele>
        <time>2014-12-29T14:26:21.000Z</time>
      </trkpt>
      <trkpt lat="50.37941" lon="4.30299">
        <ele>195</ele>
        <time>2014-12-29T14:26:22.000Z</time>
      </trkpt>
      <trkpt lat="50.37945" lon="4.30301">
        <ele>195</ele>
        <time>2014-12-29T14:26:25.000Z</time>
      </trkpt>
      <trkpt lat="50.37948" lon="4.30304">
        <ele>195</ele>
        <time>2014-12-29T14:26:28.000Z</time>
      </trkpt>
      <trkpt lat="50.37954" lon="4.30308">
        <ele>194.80000305176</ele>
        <time>2014-12-29T14:26:34.000Z</time>
      </trkpt>
      <trkpt lat="50.37955" lon="4.30309">
        <ele>194.80000305176</ele>
        <time>2014-12-29T14:26:35.000Z</time>
      </trkpt>
      <trkpt lat="50.37957" lon="4.30313">
        <ele>194.80000305176</ele>
        <time>2014-12-29T14:26:38.000Z</time>
      </trkpt>
      <trkpt lat="50.37962" lon="4.30316">
        <ele>194.60000610352</ele>
        <time>2014-12-29T14:26:43.000Z</time>
      </trkpt>
      <trkpt lat="50.37964" lon="4.30317">
        <ele>194.60000610352</ele>
        <time>2014-12-29T14:26:44.000Z</time>
      </trkpt>
      <trkpt lat="50.37967" lon="4.30319">
        <ele>194.60000610352</ele>
        <time>2014-12-29T14:26:47.000Z</time>
      </trkpt>
      <trkpt lat="50.37971" lon="4.30322">
        <ele>194.60000610352</ele>
        <time>2014-12-29T14:26:51.000Z</time>
      </trkpt>
      <trkpt lat="50.37978" lon="4.30328">
        <ele>194.60000610352</ele>
        <time>2014-12-29T14:26:58.000Z</time>
      </trkpt>
      <trkpt lat="50.37981" lon="4.30332">
        <ele>194.60000610352</ele>
        <time>2014-12-29T14:27:03.000Z</time>
      </trkpt>
      <trkpt lat="50.37983" lon="4.30334">
        <ele>194.60000610352</ele>
        <time>2014-12-29T14:27:05.000Z</time>
      </trkpt>
      <trkpt lat="50.37989" lon="4.30339">
        <ele>194.60000610352</ele>
        <time>2014-12-29T14:27:11.000Z</time>
      </trkpt>
      <trkpt lat="50.37992" lon="4.30342">
        <ele>194.60000610352</ele>
        <time>2014-12-29T14:27:14.000Z</time>
      </trkpt>
      <trkpt lat="50.37998" lon="4.30347">
        <ele>194.60000610352</ele>
        <time>2014-12-29T14:27:21.000Z</time>
      </trkpt>
      <trkpt lat="50.37999" lon="4.30348">
        <ele>194.60000610352</ele>
        <time>2014-12-29T14:27:22.000Z</time>
      </trkpt>
      <trkpt lat="50.38006" lon="4.30353">
        <ele>194.60000610352</ele>
        <time>2014-12-29T14:27:29.000Z</time>
      </trkpt>
      <trkpt lat="50.38012" lon="4.30356">
        <ele>194.60000610352</ele>
        <time>2014-12-29T14:27:34.000Z</time>
      </trkpt>
      <trkpt lat="50.38019" lon="4.30361">
        <ele>194.60000610352</ele>
        <time>2014-12-29T14:27:40.000Z</time>
      </trkpt>
      <trkpt lat="50.38027" lon="4.30365">
        <ele>194.80000305176</ele>
        <time>2014-12-29T14:27:47.000Z</time>
      </trkpt>
      <trkpt lat="50.38031" lon="4.3037">
        <ele>194.60000610352</ele>
        <time>2014-12-29T14:27:52.000Z</time>
      </trkpt>
      <trkpt lat="50.38035" lon="4.30372">
        <ele>194.60000610352</ele>
        <time>2014-12-29T14:27:55.000Z</time>
      </trkpt>
      <trkpt lat="50.38044" lon="4.30379">
        <ele>194.60000610352</ele>
        <time>2014-12-29T14:28:03.000Z</time>
      </trkpt>
      <trkpt lat="50.38045" lon="4.3038">
        <ele>194.60000610352</ele>
        <time>2014-12-29T14:28:04.000Z</time>
      </trkpt>
      <trkpt lat="50.38049" lon="4.30383">
        <ele>194.60000610352</ele>
        <time>2014-12-29T14:28:09.000Z</time>
      </trkpt>
      <trkpt lat="50.3805" lon="4.30385">
        <ele>194.60000610352</ele>
        <time>2014-12-29T14:28:11.000Z</time>
      </trkpt>
      <trkpt lat="50.38054" lon="4.30389">
        <ele>194.60000610352</ele>
        <time>2014-12-29T14:28:16.000Z</time>
      </trkpt>
      <trkpt lat="50.38063" lon="4.30395">
        <ele>195</ele>
        <time>2014-12-29T14:28:22.000Z</time>
      </trkpt>
      <trkpt lat="50.38066" lon="4.30397">
        <ele>195</ele>
        <time>2014-12-29T14:28:24.000Z</time>
      </trkpt>
      <trkpt lat="50.38074" lon="4.30402">
        <ele>195.39999389648</ele>
        <time>2014-12-29T14:28:30.000Z</time>
      </trkpt>
      <trkpt lat="50.38079" lon="4.30405">
        <ele>195.39999389648</ele>
        <time>2014-12-29T14:28:33.000Z</time>
      </trkpt>
      <trkpt lat="50.38087" lon="4.30409">
        <ele>195.80000305176</ele>
        <time>2014-12-29T14:28:39.000Z</time>
      </trkpt>
      <trkpt lat="50.38095" lon="4.30416">
        <ele>196</ele>
        <time>2014-12-29T14:28:46.000Z</time>
      </trkpt>
      <trkpt lat="50.38103" lon="4.30422">
        <ele>196.19999694824</ele>
        <time>2014-12-29T14:28:52.000Z</time>
      </trkpt>
      <trkpt lat="50.3811" lon="4.30428">
        <ele>196.39999389648</ele>
        <time>2014-12-29T14:28:58.000Z</time>
      </trkpt>
      <trkpt lat="50.38115" lon="4.30432">
        <ele>196.60000610352</ele>
        <time>2014-12-29T14:29:04.000Z</time>
      </trkpt>
      <trkpt lat="50.38115" lon="4.30433">
        <ele>196.60000610352</ele>
        <time>2014-12-29T14:29:05.000Z</time>
      </trkpt>
      <trkpt lat="50.38123" lon="4.3044">
        <ele>196.80000305176</ele>
        <time>2014-12-29T14:29:12.000Z</time>
      </trkpt>
      <trkpt lat="50.38127" lon="4.30443">
        <ele>196.80000305176</ele>
        <time>2014-12-29T14:29:15.000Z</time>
      </trkpt>
      <trkpt lat="50.38134" lon="4.30447">
        <ele>197</ele>
        <time>2014-12-29T14:29:21.000Z</time>
      </trkpt>
      <trkpt lat="50.38141" lon="4.30453">
        <ele>197</ele>
        <time>2014-12-29T14:29:28.000Z</time>
      </trkpt>
      <trkpt lat="50.38149" lon="4.30458">
        <ele>196.80000305176</ele>
        <time>2014-12-29T14:29:35.000Z</time>
      </trkpt>
      <trkpt lat="50.38156" lon="4.30463">
        <ele>196.80000305176</ele>
        <time>2014-12-29T14:29:41.000Z</time>
      </trkpt>
      <trkpt lat="50.38157" lon="4.30465">
        <ele>196.80000305176</ele>
        <time>2014-12-29T14:29:42.000Z</time>
      </trkpt>
      <trkpt lat="50.38163" lon="4.30469">
        <ele>196.80000305176</ele>
        <time>2014-12-29T14:29:47.000Z</time>
      </trkpt>
      <trkpt lat="50.38172" lon="4.30477">
        <ele>196.60000610352</ele>
        <time>2014-12-29T14:29:54.000Z</time>
      </trkpt>
      <trkpt lat="50.38173" lon="4.30478">
        <ele>196.60000610352</ele>
        <time>2014-12-29T14:29:55.000Z</time>
      </trkpt>
      <trkpt lat="50.38181" lon="4.30484">
        <ele>196.60000610352</ele>
        <time>2014-12-29T14:30:01.000Z</time>
      </trkpt>
      <trkpt lat="50.38188" lon="4.30489">
        <ele>196.39999389648</ele>
        <time>2014-12-29T14:30:07.000Z</time>
      </trkpt>
      <trkpt lat="50.38192" lon="4.30493">
        <ele>196.39999389648</ele>
        <time>2014-12-29T14:30:11.000Z</time>
      </trkpt>
      <trkpt lat="50.38203" lon="4.305">
        <ele>196.39999389648</ele>
        <time>2014-12-29T14:30:19.000Z</time>
      </trkpt>
      <trkpt lat="50.38211" lon="4.30507">
        <ele>196.19999694824</ele>
        <time>2014-12-29T14:30:25.000Z</time>
      </trkpt>
      <trkpt lat="50.38217" lon="4.30512">
        <ele>196.19999694824</ele>
        <time>2014-12-29T14:30:29.000Z</time>
      </trkpt>
      <trkpt lat="50.38221" lon="4.30514">
        <ele>196.19999694824</ele>
        <time>2014-12-29T14:30:33.000Z</time>
      </trkpt>
      <trkpt lat="50.38224" lon="4.30516">
        <ele>196.19999694824</ele>
        <time>2014-12-29T14:30:35.000Z</time>
      </trkpt>
      <trkpt lat="50.38227" lon="4.30517">
        <ele>196.39999389648</ele>
        <time>2014-12-29T14:30:37.000Z</time>
      </trkpt>
      <trkpt lat="50.38232" lon="4.3052">
        <ele>196.39999389648</ele>
        <time>2014-12-29T14:30:42.000Z</time>
      </trkpt>
      <trkpt lat="50.38233" lon="4.30521">
        <ele>196.39999389648</ele>
        <time>2014-12-29T14:30:43.000Z</time>
      </trkpt>
      <trkpt lat="50.38238" lon="4.30525">
        <ele>196.39999389648</ele>
        <time>2014-12-29T14:30:48.000Z</time>
      </trkpt>
      <trkpt lat="50.38246" lon="4.3053">
        <ele>196.39999389648</ele>
        <time>2014-12-29T14:30:53.000Z</time>
      </trkpt>
      <trkpt lat="50.3825" lon="4.30533">
        <ele>196.19999694824</ele>
        <time>2014-12-29T14:30:57.000Z</time>
      </trkpt>
      <trkpt lat="50.38256" lon="4.30537">
        <ele>196</ele>
        <time>2014-12-29T14:31:02.000Z</time>
      </trkpt>
      <trkpt lat="50.38262" lon="4.30543">
        <ele>195.80000305176</ele>
        <time>2014-12-29T14:31:08.000Z</time>
      </trkpt>
      <trkpt lat="50.38266" lon="4.30547">
        <ele>195.60000610352</ele>
        <time>2014-12-29T14:31:12.000Z</time>
      </trkpt>
      <trkpt lat="50.38273" lon="4.30552">
        <ele>195.39999389648</ele>
        <time>2014-12-29T14:31:18.000Z</time>
      </trkpt>
      <trkpt lat="50.38278" lon="4.30558">
        <ele>195.19999694824</ele>
        <time>2014-12-29T14:31:24.000Z</time>
      </trkpt>
      <trkpt lat="50.3828" lon="4.30559">
        <ele>195</ele>
        <time>2014-12-29T14:31:26.000Z</time>
      </trkpt>
      <trkpt lat="50.38284" lon="4.30563">
        <ele>194.80000305176</ele>
        <time>2014-12-29T14:31:31.000Z</time>
      </trkpt>
      <trkpt lat="50.38285" lon="4.30564">
        <ele>194.80000305176</ele>
        <time>2014-12-29T14:31:32.000Z</time>
      </trkpt>
      <trkpt lat="50.38287" lon="4.30566">
        <ele>194.80000305176</ele>
        <time>2014-12-29T14:31:35.000Z</time>
      </trkpt>
      <trkpt lat="50.38298" lon="4.30575">
        <ele>194.19999694824</ele>
        <time>2014-12-29T14:31:45.000Z</time>
      </trkpt>
      <trkpt lat="50.38299" lon="4.30576">
        <ele>194.19999694824</ele>
        <time>2014-12-29T14:31:46.000Z</time>
      </trkpt>
      <trkpt lat="50.38304" lon="4.30579">
        <ele>194.19999694824</ele>
        <time>2014-12-29T14:31:50.000Z</time>
      </trkpt>
      <trkpt lat="50.38311" lon="4.30583">
        <ele>194.19999694824</ele>
        <time>2014-12-29T14:31:55.000Z</time>
      </trkpt>
      <trkpt lat="50.38313" lon="4.30585">
        <ele>194.19999694824</ele>
        <time>2014-12-29T14:31:57.000Z</time>
      </trkpt>
      <trkpt lat="50.38321" lon="4.30588">
        <ele>194.39999389648</ele>
        <time>2014-12-29T14:32:03.000Z</time>
      </trkpt>
      <trkpt lat="50.38323" lon="4.30589">
        <ele>194.39999389648</ele>
        <time>2014-12-29T14:32:05.000Z</time>
      </trkpt>
      <trkpt lat="50.38328" lon="4.30593">
        <ele>194.19999694824</ele>
        <time>2014-12-29T14:32:10.000Z</time>
      </trkpt>
      <trkpt lat="50.38333" lon="4.30598">
        <ele>194.19999694824</ele>
        <time>2014-12-29T14:32:15.000Z</time>
      </trkpt>
      <trkpt lat="50.38339" lon="4.306">
        <ele>194.19999694824</ele>
        <time>2014-12-29T14:32:20.000Z</time>
      </trkpt>
      <trkpt lat="50.38351" lon="4.3061">
        <ele>194</ele>
        <time>2014-12-29T14:32:30.000Z</time>
      </trkpt>
      <trkpt lat="50.3836" lon="4.30617">
        <ele>194</ele>
        <time>2014-12-29T14:32:36.000Z</time>
      </trkpt>
      <trkpt lat="50.38366" lon="4.3062">
        <ele>194.19999694824</ele>
        <time>2014-12-29T14:32:40.000Z</time>
      </trkpt>
      <trkpt lat="50.38371" lon="4.30625">
        <ele>194.19999694824</ele>
        <time>2014-12-29T14:32:44.000Z</time>
      </trkpt>
      <trkpt lat="50.38381" lon="4.30634">
        <ele>194.19999694824</ele>
        <time>2014-12-29T14:32:52.000Z</time>
      </trkpt>
      <trkpt lat="50.38391" lon="4.30641">
        <ele>194.19999694824</ele>
        <time>2014-12-29T14:32:59.000Z</time>
      </trkpt>
      <trkpt lat="50.38402" lon="4.30647">
        <ele>194.19999694824</ele>
        <time>2014-12-29T14:33:08.000Z</time>
      </trkpt>
      <trkpt lat="50.38406" lon="4.30648">
        <ele>194.39999389648</ele>
        <time>2014-12-29T14:33:11.000Z</time>
      </trkpt>
      <trkpt lat="50.38415" lon="4.30656">
        <ele>194.19999694824</ele>
        <time>2014-12-29T14:33:19.000Z</time>
      </trkpt>
      <trkpt lat="50.38426" lon="4.30664">
        <ele>194.19999694824</ele>
        <time>2014-12-29T14:33:28.000Z</time>
      </trkpt>
      <trkpt lat="50.38428" lon="4.30666">
        <ele>194.19999694824</ele>
        <time>2014-12-29T14:33:30.000Z</time>
      </trkpt>
      <trkpt lat="50.38441" lon="4.30675">
        <ele>194.19999694824</ele>
        <time>2014-12-29T14:33:40.000Z</time>
      </trkpt>
      <trkpt lat="50.38448" lon="4.30679">
        <ele>194.19999694824</ele>
        <time>2014-12-29T14:33:46.000Z</time>
      </trkpt>
      <trkpt lat="50.38454" lon="4.30685">
        <ele>194.19999694824</ele>
        <time>2014-12-29T14:33:52.000Z</time>
      </trkpt>
      <trkpt lat="50.38462" lon="4.30691">
        <ele>194.19999694824</ele>
        <time>2014-12-29T14:33:59.000Z</time>
      </trkpt>
      <trkpt lat="50.3847" lon="4.30692">
        <ele>193.80000305176</ele>
        <time>2014-12-29T14:34:06.000Z</time>
      </trkpt>
      <trkpt lat="50.38472" lon="4.30692">
        <ele>193.39999389648</ele>
        <time>2014-12-29T14:34:09.000Z</time>
      </trkpt>
      <trkpt lat="50.38474" lon="4.30694">
        <ele>193.19999694824</ele>
        <time>2014-12-29T14:34:11.000Z</time>
      </trkpt>
      <trkpt lat="50.38475" lon="4.30695">
        <ele>193.19999694824</ele>
        <time>2014-12-29T14:34:12.000Z</time>
      </trkpt>
      <trkpt lat="50.38483" lon="4.30708">
        <ele>192.39999389648</ele>
        <time>2014-12-29T14:34:21.000Z</time>
      </trkpt>
      <trkpt lat="50.38488" lon="4.30716">
        <ele>191.80000305176</ele>
        <time>2014-12-29T14:34:27.000Z</time>
      </trkpt>
      <trkpt lat="50.38498" lon="4.30731">
        <ele>190.80000305176</ele>
        <time>2014-12-29T14:34:37.000Z</time>
      </trkpt>
      <trkpt lat="50.38508" lon="4.30743">
        <ele>189.80000305176</ele>
        <time>2014-12-29T14:34:46.000Z</time>
      </trkpt>
      <trkpt lat="50.38518" lon="4.30756">
        <ele>188.60000610352</ele>
        <time>2014-12-29T14:34:56.000Z</time>
      </trkpt>
      <trkpt lat="50.38527" lon="4.30768">
        <ele>187.60000610352</ele>
        <time>2014-12-29T14:35:05.000Z</time>
      </trkpt>
      <trkpt lat="50.38536" lon="4.30782">
        <ele>186.39999389648</ele>
        <time>2014-12-29T14:35:16.000Z</time>
      </trkpt>
      <trkpt lat="50.38544" lon="4.3079">
        <ele>186</ele>
        <time>2014-12-29T14:35:23.000Z</time>
      </trkpt>
      <trkpt lat="50.38552" lon="4.30801">
        <ele>185.39999389648</ele>
        <time>2014-12-29T14:35:32.000Z</time>
      </trkpt>
      <trkpt lat="50.38563" lon="4.30813">
        <ele>185</ele>
        <time>2014-12-29T14:35:41.000Z</time>
      </trkpt>
      <trkpt lat="50.38571" lon="4.30821">
        <ele>184.80000305176</ele>
        <time>2014-12-29T14:35:48.000Z</time>
      </trkpt>
      <trkpt lat="50.3858" lon="4.30832">
        <ele>184.39999389648</ele>
        <time>2014-12-29T14:35:57.000Z</time>
      </trkpt>
      <trkpt lat="50.38588" lon="4.30841">
        <ele>184</ele>
        <time>2014-12-29T14:36:04.000Z</time>
      </trkpt>
      <trkpt lat="50.38594" lon="4.30848">
        <ele>183.80000305176</ele>
        <time>2014-12-29T14:36:10.000Z</time>
      </trkpt>
      <trkpt lat="50.38605" lon="4.30861">
        <ele>183.39999389648</ele>
        <time>2014-12-29T14:36:20.000Z</time>
      </trkpt>
      <trkpt lat="50.38613" lon="4.30871">
        <ele>183.19999694824</ele>
        <time>2014-12-29T14:36:28.000Z</time>
      </trkpt>
      <trkpt lat="50.38622" lon="4.30883">
        <ele>183.19999694824</ele>
        <time>2014-12-29T14:36:37.000Z</time>
      </trkpt>
      <trkpt lat="50.38631" lon="4.30895">
        <ele>183</ele>
        <time>2014-12-29T14:36:46.000Z</time>
      </trkpt>
      <trkpt lat="50.3864" lon="4.30906">
        <ele>182.80000305176</ele>
        <time>2014-12-29T14:36:55.000Z</time>
      </trkpt>
      <trkpt lat="50.38646" lon="4.30914">
        <ele>182.80000305176</ele>
        <time>2014-12-29T14:37:01.000Z</time>
      </trkpt>
      <trkpt lat="50.38656" lon="4.30928">
        <ele>182.80000305176</ele>
        <time>2014-12-29T14:37:11.000Z</time>
      </trkpt>
      <trkpt lat="50.38664" lon="4.30939">
        <ele>182.60000610352</ele>
        <time>2014-12-29T14:37:20.000Z</time>
      </trkpt>
      <trkpt lat="50.38673" lon="4.30952">
        <ele>182.39999389648</ele>
        <time>2014-12-29T14:37:30.000Z</time>
      </trkpt>
      <trkpt lat="50.38682" lon="4.30964">
        <ele>182.19999694824</ele>
        <time>2014-12-29T14:37:39.000Z</time>
      </trkpt>
      <trkpt lat="50.38691" lon="4.30976">
        <ele>182</ele>
        <time>2014-12-29T14:37:49.000Z</time>
      </trkpt>
      <trkpt lat="50.38698" lon="4.30986">
        <ele>181.80000305176</ele>
        <time>2014-12-29T14:37:57.000Z</time>
      </trkpt>
      <trkpt lat="50.38707" lon="4.30998">
        <ele>181.39999389648</ele>
        <time>2014-12-29T14:38:06.000Z</time>
      </trkpt>
      <trkpt lat="50.38714" lon="4.31007">
        <ele>181.19999694824</ele>
        <time>2014-12-29T14:38:14.000Z</time>
      </trkpt>
      <trkpt lat="50.38727" lon="4.31022">
        <ele>180.60000610352</ele>
        <time>2014-12-29T14:38:28.000Z</time>
      </trkpt>
      <trkpt lat="50.38736" lon="4.31034">
        <ele>180.19999694824</ele>
        <time>2014-12-29T14:38:37.000Z</time>
      </trkpt>
      <trkpt lat="50.38747" lon="4.31046">
        <ele>179.60000610352</ele>
        <time>2014-12-29T14:38:47.000Z</time>
      </trkpt>
      <trkpt lat="50.38757" lon="4.31058">
        <ele>179.19999694824</ele>
        <time>2014-12-29T14:38:57.000Z</time>
      </trkpt>
      <trkpt lat="50.38767" lon="4.31072">
        <ele>178.60000610352</ele>
        <time>2014-12-29T14:39:07.000Z</time>
      </trkpt>
      <trkpt lat="50.38783" lon="4.311">
        <ele>177.60000610352</ele>
        <time>2014-12-29T14:39:27.000Z</time>
      </trkpt>
      <trkpt lat="50.3878" lon="4.31107">
        <ele>177.60000610352</ele>
        <time>2014-12-29T14:39:33.000Z</time>
      </trkpt>
      <trkpt lat="50.38771" lon="4.3111">
        <ele>177.80000305176</ele>
        <time>2014-12-29T14:39:42.000Z</time>
      </trkpt>
      <trkpt lat="50.38765" lon="4.31112">
        <ele>177.80000305176</ele>
        <time>2014-12-29T14:39:48.000Z</time>
      </trkpt>
      <trkpt lat="50.38754" lon="4.31114">
        <ele>178</ele>
        <time>2014-12-29T14:39:58.000Z</time>
      </trkpt>
      <trkpt lat="50.38742" lon="4.31118">
        <ele>178.19999694824</ele>
        <time>2014-12-29T14:40:09.000Z</time>
      </trkpt>
      <trkpt lat="50.38734" lon="4.31121">
        <ele>178.39999389648</ele>
        <time>2014-12-29T14:40:17.000Z</time>
      </trkpt>
      <trkpt lat="50.38731" lon="4.31123">
        <ele>178.39999389648</ele>
        <time>2014-12-29T14:40:20.000Z</time>
      </trkpt>
      <trkpt lat="50.38723" lon="4.31125">
        <ele>178.60000610352</ele>
        <time>2014-12-29T14:40:28.000Z</time>
      </trkpt>
      <trkpt lat="50.38722" lon="4.31126">
        <ele>178.60000610352</ele>
        <time>2014-12-29T14:40:29.000Z</time>
      </trkpt>
      <trkpt lat="50.38717" lon="4.31128">
        <ele>178.60000610352</ele>
        <time>2014-12-29T14:40:34.000Z</time>
      </trkpt>
      <trkpt lat="50.3871" lon="4.3113">
        <ele>178.80000305176</ele>
        <time>2014-12-29T14:40:40.000Z</time>
      </trkpt>
      <trkpt lat="50.38706" lon="4.31131">
        <ele>178.80000305176</ele>
        <time>2014-12-29T14:40:44.000Z</time>
      </trkpt>
      <trkpt lat="50.38695" lon="4.31135">
        <ele>179</ele>
        <time>2014-12-29T14:40:55.000Z</time>
      </trkpt>
      <trkpt lat="50.38685" lon="4.31138">
        <ele>179.19999694824</ele>
        <time>2014-12-29T14:41:04.000Z</time>
      </trkpt>
      <trkpt lat="50.38676" lon="4.31141">
        <ele>179.19999694824</ele>
        <time>2014-12-29T14:41:12.000Z</time>
      </trkpt>
      <trkpt lat="50.38668" lon="4.31144">
        <ele>179.39999389648</ele>
        <time>2014-12-29T14:41:20.000Z</time>
      </trkpt>
      <trkpt lat="50.38658" lon="4.31148">
        <ele>179.60000610352</ele>
        <time>2014-12-29T14:41:29.000Z</time>
      </trkpt>
      <trkpt lat="50.38648" lon="4.31153">
        <ele>180</ele>
        <time>2014-12-29T14:41:38.000Z</time>
      </trkpt>
      <trkpt lat="50.38637" lon="4.31157">
        <ele>180.19999694824</ele>
        <time>2014-12-29T14:41:47.000Z</time>
      </trkpt>
      <trkpt lat="50.38624" lon="4.3116">
        <ele>180.60000610352</ele>
        <time>2014-12-29T14:41:58.000Z</time>
      </trkpt>
      <trkpt lat="50.38613" lon="4.31163">
        <ele>180.60000610352</ele>
        <time>2014-12-29T14:42:07.000Z</time>
      </trkpt>
      <trkpt lat="50.386" lon="4.31166">
        <ele>180.80000305176</ele>
        <time>2014-12-29T14:42:18.000Z</time>
      </trkpt>
      <trkpt lat="50.38583" lon="4.3117">
        <ele>181</ele>
        <time>2014-12-29T14:42:32.000Z</time>
      </trkpt>
      <trkpt lat="50.38568" lon="4.31173">
        <ele>181</ele>
        <time>2014-12-29T14:42:45.000Z</time>
      </trkpt>
      <trkpt lat="50.38555" lon="4.31175">
        <ele>181.19999694824</ele>
        <time>2014-12-29T14:42:56.000Z</time>
      </trkpt>
      <trkpt lat="50.38544" lon="4.31177">
        <ele>181.19999694824</ele>
        <time>2014-12-29T14:43:05.000Z</time>
      </trkpt>
      <trkpt lat="50.38533" lon="4.31179">
        <ele>181</ele>
        <time>2014-12-29T14:43:14.000Z</time>
      </trkpt>
      <trkpt lat="50.3852" lon="4.31182">
        <ele>180.80000305176</ele>
        <time>2014-12-29T14:43:25.000Z</time>
      </trkpt>
      <trkpt lat="50.38509" lon="4.31183">
        <ele>180.80000305176</ele>
        <time>2014-12-29T14:43:34.000Z</time>
      </trkpt>
      <trkpt lat="50.38497" lon="4.31185">
        <ele>180.60000610352</ele>
        <time>2014-12-29T14:43:45.000Z</time>
      </trkpt>
      <trkpt lat="50.38487" lon="4.31187">
        <ele>180.39999389648</ele>
        <time>2014-12-29T14:43:53.000Z</time>
      </trkpt>
      <trkpt lat="50.38477" lon="4.31187">
        <ele>180.19999694824</ele>
        <time>2014-12-29T14:44:01.000Z</time>
      </trkpt>
      <trkpt lat="50.38468" lon="4.31187">
        <ele>180.19999694824</ele>
        <time>2014-12-29T14:44:09.000Z</time>
      </trkpt>
      <trkpt lat="50.3846" lon="4.3119">
        <ele>180</ele>
        <time>2014-12-29T14:44:16.000Z</time>
      </trkpt>
      <trkpt lat="50.3845" lon="4.31191">
        <ele>179.80000305176</ele>
        <time>2014-12-29T14:44:26.000Z</time>
      </trkpt>
      <trkpt lat="50.38441" lon="4.31193">
        <ele>179.60000610352</ele>
        <time>2014-12-29T14:44:35.000Z</time>
      </trkpt>
      <trkpt lat="50.38434" lon="4.31194">
        <ele>179.39999389648</ele>
        <time>2014-12-29T14:44:42.000Z</time>
      </trkpt>
      <trkpt lat="50.38427" lon="4.31195">
        <ele>179.19999694824</ele>
        <time>2014-12-29T14:44:49.000Z</time>
      </trkpt>
      <trkpt lat="50.38416" lon="4.31195">
        <ele>178.80000305176</ele>
        <time>2014-12-29T14:44:58.000Z</time>
      </trkpt>
      <trkpt lat="50.38409" lon="4.31196">
        <ele>178.60000610352</ele>
        <time>2014-12-29T14:45:05.000Z</time>
      </trkpt>
      <trkpt lat="50.38399" lon="4.31193">
        <ele>178.60000610352</ele>
        <time>2014-12-29T14:45:14.000Z</time>
      </trkpt>
      <trkpt lat="50.38388" lon="4.31192">
        <ele>178.19999694824</ele>
        <time>2014-12-29T14:45:23.000Z</time>
      </trkpt>
      <trkpt lat="50.38379" lon="4.31191">
        <ele>178.19999694824</ele>
        <time>2014-12-29T14:45:31.000Z</time>
      </trkpt>
      <trkpt lat="50.38374" lon="4.31191">
        <ele>178</ele>
        <time>2014-12-29T14:45:35.000Z</time>
      </trkpt>
      <trkpt lat="50.38366" lon="4.31191">
        <ele>178</ele>
        <time>2014-12-29T14:45:43.000Z</time>
      </trkpt>
      <trkpt lat="50.38355" lon="4.31189">
        <ele>178</ele>
        <time>2014-12-29T14:45:52.000Z</time>
      </trkpt>
      <trkpt lat="50.38346" lon="4.31187">
        <ele>178.19999694824</ele>
        <time>2014-12-29T14:46:00.000Z</time>
      </trkpt>
      <trkpt lat="50.38339" lon="4.31183">
        <ele>178.19999694824</ele>
        <time>2014-12-29T14:46:07.000Z</time>
      </trkpt>
      <trkpt lat="50.38329" lon="4.31186">
        <ele>178.19999694824</ele>
        <time>2014-12-29T14:46:16.000Z</time>
      </trkpt>
      <trkpt lat="50.38327" lon="4.31188">
        <ele>178.19999694824</ele>
        <time>2014-12-29T14:46:18.000Z</time>
      </trkpt>
      <trkpt lat="50.38333" lon="4.31203">
        <ele>178</ele>
        <time>2014-12-29T14:46:29.000Z</time>
      </trkpt>
      <trkpt lat="50.38341" lon="4.31213">
        <ele>177.80000305176</ele>
        <time>2014-12-29T14:46:37.000Z</time>
      </trkpt>
      <trkpt lat="50.3835" lon="4.31226">
        <ele>177.60000610352</ele>
        <time>2014-12-29T14:46:47.000Z</time>
      </trkpt>
      <trkpt lat="50.38356" lon="4.31235">
        <ele>177.60000610352</ele>
        <time>2014-12-29T14:46:53.000Z</time>
      </trkpt>
      <trkpt lat="50.38362" lon="4.31247">
        <ele>177.39999389648</ele>
        <time>2014-12-29T14:47:01.000Z</time>
      </trkpt>
      <trkpt lat="50.38367" lon="4.31258">
        <ele>177.19999694824</ele>
        <time>2014-12-29T14:47:09.000Z</time>
      </trkpt>
      <trkpt lat="50.38373" lon="4.3127">
        <ele>177.19999694824</ele>
        <time>2014-12-29T14:47:18.000Z</time>
      </trkpt>
      <trkpt lat="50.38379" lon="4.31286">
        <ele>176.80000305176</ele>
        <time>2014-12-29T14:47:28.000Z</time>
      </trkpt>
      <trkpt lat="50.38385" lon="4.31302">
        <ele>176.39999389648</ele>
        <time>2014-12-29T14:47:38.000Z</time>
      </trkpt>
      <trkpt lat="50.3839" lon="4.31317">
        <ele>176.19999694824</ele>
        <time>2014-12-29T14:47:47.000Z</time>
      </trkpt>
      <trkpt lat="50.38396" lon="4.31331">
        <ele>175.80000305176</ele>
        <time>2014-12-29T14:47:56.000Z</time>
      </trkpt>
      <trkpt lat="50.38402" lon="4.31339">
        <ele>175.60000610352</ele>
        <time>2014-12-29T14:48:03.000Z</time>
      </trkpt>
      <trkpt lat="50.38408" lon="4.31352">
        <ele>175.19999694824</ele>
        <time>2014-12-29T14:48:12.000Z</time>
      </trkpt>
      <trkpt lat="50.38414" lon="4.31364">
        <ele>175</ele>
        <time>2014-12-29T14:48:22.000Z</time>
      </trkpt>
      <trkpt lat="50.38419" lon="4.31372">
        <ele>174.80000305176</ele>
        <time>2014-12-29T14:48:28.000Z</time>
      </trkpt>
      <trkpt lat="50.38422" lon="4.31376">
        <ele>174.80000305176</ele>
        <time>2014-12-29T14:48:32.000Z</time>
      </trkpt>
      <trkpt lat="50.38429" lon="4.31393">
        <ele>174.60000610352</ele>
        <time>2014-12-29T14:48:46.000Z</time>
      </trkpt>
      <trkpt lat="50.38434" lon="4.31403">
        <ele>174.60000610352</ele>
        <time>2014-12-29T14:48:54.000Z</time>
      </trkpt>
      <trkpt lat="50.38443" lon="4.31419">
        <ele>174.39999389648</ele>
        <time>2014-12-29T14:49:06.000Z</time>
      </trkpt>
      <trkpt lat="50.3845" lon="4.31432">
        <ele>174.19999694824</ele>
        <time>2014-12-29T14:49:16.000Z</time>
      </trkpt>
      <trkpt lat="50.38457" lon="4.31448">
        <ele>173.80000305176</ele>
        <time>2014-12-29T14:49:27.000Z</time>
      </trkpt>
      <trkpt lat="50.38462" lon="4.31457">
        <ele>173.80000305176</ele>
        <time>2014-12-29T14:49:34.000Z</time>
      </trkpt>
      <trkpt lat="50.38462" lon="4.31458">
        <ele>173.80000305176</ele>
        <time>2014-12-29T14:49:35.000Z</time>
      </trkpt>
      <trkpt lat="50.38466" lon="4.31467">
        <ele>173.60000610352</ele>
        <time>2014-12-29T14:49:43.000Z</time>
      </trkpt>
      <trkpt lat="50.3847" lon="4.31474">
        <ele>173.39999389648</ele>
        <time>2014-12-29T14:49:49.000Z</time>
      </trkpt>
      <trkpt lat="50.38475" lon="4.31483">
        <ele>173.19999694824</ele>
        <time>2014-12-29T14:49:56.000Z</time>
      </trkpt>
      <trkpt lat="50.38479" lon="4.31492">
        <ele>173</ele>
        <time>2014-12-29T14:50:03.000Z</time>
      </trkpt>
      <trkpt lat="50.38484" lon="4.31502">
        <ele>172.60000610352</ele>
        <time>2014-12-29T14:50:11.000Z</time>
      </trkpt>
      <trkpt lat="50.3849" lon="4.31511">
        <ele>172.39999389648</ele>
        <time>2014-12-29T14:50:18.000Z</time>
      </trkpt>
      <trkpt lat="50.38498" lon="4.31528">
        <ele>172</ele>
        <time>2014-12-29T14:50:30.000Z</time>
      </trkpt>
      <trkpt lat="50.38504" lon="4.3154">
        <ele>171.80000305176</ele>
        <time>2014-12-29T14:50:38.000Z</time>
      </trkpt>
      <trkpt lat="50.38509" lon="4.31551">
        <ele>171.60000610352</ele>
        <time>2014-12-29T14:50:46.000Z</time>
      </trkpt>
      <trkpt lat="50.38516" lon="4.31563">
        <ele>171.19999694824</ele>
        <time>2014-12-29T14:50:55.000Z</time>
      </trkpt>
      <trkpt lat="50.38522" lon="4.31577">
        <ele>170.80000305176</ele>
        <time>2014-12-29T14:51:04.000Z</time>
      </trkpt>
      <trkpt lat="50.3853" lon="4.31591">
        <ele>170.60000610352</ele>
        <time>2014-12-29T14:51:15.000Z</time>
      </trkpt>
      <trkpt lat="50.38546" lon="4.31621">
        <ele>169.80000305176</ele>
        <time>2014-12-29T14:51:38.000Z</time>
      </trkpt>
      <trkpt lat="50.38553" lon="4.31629">
        <ele>169.80000305176</ele>
        <time>2014-12-29T14:51:45.000Z</time>
      </trkpt>
      <trkpt lat="50.38554" lon="4.3163">
        <ele>169.80000305176</ele>
        <time>2014-12-29T14:51:46.000Z</time>
      </trkpt>
      <trkpt lat="50.38559" lon="4.31642">
        <ele>169.80000305176</ele>
        <time>2014-12-29T14:51:54.000Z</time>
      </trkpt>
      <trkpt lat="50.38564" lon="4.31652">
        <ele>169.60000610352</ele>
        <time>2014-12-29T14:52:01.000Z</time>
      </trkpt>
      <trkpt lat="50.38569" lon="4.31661">
        <ele>169.60000610352</ele>
        <time>2014-12-29T14:52:08.000Z</time>
      </trkpt>
      <trkpt lat="50.38571" lon="4.31665">
        <ele>169.60000610352</ele>
        <time>2014-12-29T14:52:11.000Z</time>
      </trkpt>
      <trkpt lat="50.38572" lon="4.31669">
        <ele>169.60000610352</ele>
        <time>2014-12-29T14:52:13.000Z</time>
      </trkpt>
      <trkpt lat="50.38574" lon="4.31673">
        <ele>169.60000610352</ele>
        <time>2014-12-29T14:52:16.000Z</time>
      </trkpt>
      <trkpt lat="50.3858" lon="4.31685">
        <ele>169.39999389648</ele>
        <time>2014-12-29T14:52:26.000Z</time>
      </trkpt>
      <trkpt lat="50.38588" lon="4.31698">
        <ele>169.39999389648</ele>
        <time>2014-12-29T14:52:36.000Z</time>
      </trkpt>
      <trkpt lat="50.38594" lon="4.3171">
        <ele>169.39999389648</ele>
        <time>2014-12-29T14:52:45.000Z</time>
      </trkpt>
      <trkpt lat="50.38601" lon="4.31723">
        <ele>169.19999694824</ele>
        <time>2014-12-29T14:52:55.000Z</time>
      </trkpt>
      <trkpt lat="50.38602" lon="4.31724">
        <ele>169.19999694824</ele>
        <time>2014-12-29T14:52:56.000Z</time>
      </trkpt>
      <trkpt lat="50.38606" lon="4.3173">
        <ele>169.19999694824</ele>
        <time>2014-12-29T14:53:01.000Z</time>
      </trkpt>
      <trkpt lat="50.38614" lon="4.31747">
        <ele>169.19999694824</ele>
        <time>2014-12-29T14:53:13.000Z</time>
      </trkpt>
      <trkpt lat="50.38622" lon="4.3176">
        <ele>169.19999694824</ele>
        <time>2014-12-29T14:53:23.000Z</time>
      </trkpt>
      <trkpt lat="50.38628" lon="4.31771">
        <ele>169</ele>
        <time>2014-12-29T14:53:31.000Z</time>
      </trkpt>
      <trkpt lat="50.38628" lon="4.31772">
        <ele>169</ele>
        <time>2014-12-29T14:53:32.000Z</time>
      </trkpt>
      <trkpt lat="50.38633" lon="4.3178">
        <ele>169</ele>
        <time>2014-12-29T14:53:38.000Z</time>
      </trkpt>
      <trkpt lat="50.38642" lon="4.31795">
        <ele>168.80000305176</ele>
        <time>2014-12-29T14:53:50.000Z</time>
      </trkpt>
      <trkpt lat="50.38649" lon="4.31807">
        <ele>168.60000610352</ele>
        <time>2014-12-29T14:54:00.000Z</time>
      </trkpt>
      <trkpt lat="50.38655" lon="4.31817">
        <ele>168.39999389648</ele>
        <time>2014-12-29T14:54:08.000Z</time>
      </trkpt>
      <trkpt lat="50.38662" lon="4.3183">
        <ele>168.19999694824</ele>
        <time>2014-12-29T14:54:19.000Z</time>
      </trkpt>
      <trkpt lat="50.3867" lon="4.31845">
        <ele>168</ele>
        <time>2014-12-29T14:54:30.000Z</time>
      </trkpt>
      <trkpt lat="50.38678" lon="4.31857">
        <ele>167.80000305176</ele>
        <time>2014-12-29T14:54:39.000Z</time>
      </trkpt>
      <trkpt lat="50.38684" lon="4.3187">
        <ele>167.39999389648</ele>
        <time>2014-12-29T14:54:48.000Z</time>
      </trkpt>
      <trkpt lat="50.38691" lon="4.31882">
        <ele>167</ele>
        <time>2014-12-29T14:54:57.000Z</time>
      </trkpt>
      <trkpt lat="50.38694" lon="4.31893">
        <ele>166.60000610352</ele>
        <time>2014-12-29T14:55:04.000Z</time>
      </trkpt>
      <trkpt lat="50.38698" lon="4.31903">
        <ele>166.39999389648</ele>
        <time>2014-12-29T14:55:11.000Z</time>
      </trkpt>
      <trkpt lat="50.38703" lon="4.31918">
        <ele>166</ele>
        <time>2014-12-29T14:55:20.000Z</time>
      </trkpt>
      <trkpt lat="50.38708" lon="4.31934">
        <ele>165.39999389648</ele>
        <time>2014-12-29T14:55:30.000Z</time>
      </trkpt>
      <trkpt lat="50.38713" lon="4.31949">
        <ele>165</ele>
        <time>2014-12-29T14:55:39.000Z</time>
      </trkpt>
      <trkpt lat="50.38718" lon="4.31965">
        <ele>164.19999694824</ele>
        <time>2014-12-29T14:55:49.000Z</time>
      </trkpt>
      <trkpt lat="50.38723" lon="4.31978">
        <ele>163.60000610352</ele>
        <time>2014-12-29T14:55:58.000Z</time>
      </trkpt>
      <trkpt lat="50.38727" lon="4.31992">
        <ele>163</ele>
        <time>2014-12-29T14:56:07.000Z</time>
      </trkpt>
      <trkpt lat="50.38731" lon="4.32004">
        <ele>162.60000610352</ele>
        <time>2014-12-29T14:56:15.000Z</time>
      </trkpt>
      <trkpt lat="50.38734" lon="4.32015">
        <ele>162</ele>
        <time>2014-12-29T14:56:23.000Z</time>
      </trkpt>
      <trkpt lat="50.38738" lon="4.32026">
        <ele>161.60000610352</ele>
        <time>2014-12-29T14:56:31.000Z</time>
      </trkpt>
      <trkpt lat="50.38742" lon="4.32039">
        <ele>161.19999694824</ele>
        <time>2014-12-29T14:56:40.000Z</time>
      </trkpt>
      <trkpt lat="50.38745" lon="4.3205">
        <ele>161</ele>
        <time>2014-12-29T14:56:47.000Z</time>
      </trkpt>
      <trkpt lat="50.38748" lon="4.32062">
        <ele>160.80000305176</ele>
        <time>2014-12-29T14:56:55.000Z</time>
      </trkpt>
      <trkpt lat="50.38752" lon="4.32073">
        <ele>160.60000610352</ele>
        <time>2014-12-29T14:57:02.000Z</time>
      </trkpt>
      <trkpt lat="50.38756" lon="4.32085">
        <ele>160.39999389648</ele>
        <time>2014-12-29T14:57:10.000Z</time>
      </trkpt>
      <trkpt lat="50.38765" lon="4.32115">
        <ele>159.80000305176</ele>
        <time>2014-12-29T14:57:31.000Z</time>
      </trkpt>
      <trkpt lat="50.38771" lon="4.32132">
        <ele>159.39999389648</ele>
        <time>2014-12-29T14:57:42.000Z</time>
      </trkpt>
      <trkpt lat="50.38771" lon="4.32133">
        <ele>159.39999389648</ele>
        <time>2014-12-29T14:57:43.000Z</time>
      </trkpt>
      <trkpt lat="50.38776" lon="4.32148">
        <ele>159.19999694824</ele>
        <time>2014-12-29T14:57:53.000Z</time>
      </trkpt>
      <trkpt lat="50.38779" lon="4.32157">
        <ele>159</ele>
        <time>2014-12-29T14:58:00.000Z</time>
      </trkpt>
      <trkpt lat="50.38783" lon="4.32169">
        <ele>158.80000305176</ele>
        <time>2014-12-29T14:58:09.000Z</time>
      </trkpt>
      <trkpt lat="50.38787" lon="4.32183">
        <ele>158.39999389648</ele>
        <time>2014-12-29T14:58:19.000Z</time>
      </trkpt>
      <trkpt lat="50.38789" lon="4.32191">
        <ele>158.19999694824</ele>
        <time>2014-12-29T14:58:25.000Z</time>
      </trkpt>
      <trkpt lat="50.38793" lon="4.32209">
        <ele>158.19999694824</ele>
        <time>2014-12-29T14:58:36.000Z</time>
      </trkpt>
      <trkpt lat="50.38797" lon="4.32221">
        <ele>158.39999389648</ele>
        <time>2014-12-29T14:58:44.000Z</time>
      </trkpt>
      <trkpt lat="50.38799" lon="4.32233">
        <ele>158.39999389648</ele>
        <time>2014-12-29T14:58:52.000Z</time>
      </trkpt>
      <trkpt lat="50.38799" lon="4.32234">
        <ele>158.39999389648</ele>
        <time>2014-12-29T14:58:54.000Z</time>
      </trkpt>
      <trkpt lat="50.38801" lon="4.32241">
        <ele>158.39999389648</ele>
        <time>2014-12-29T14:58:59.000Z</time>
      </trkpt>
      <trkpt lat="50.38804" lon="4.32255">
        <ele>158.60000610352</ele>
        <time>2014-12-29T14:59:09.000Z</time>
      </trkpt>
      <trkpt lat="50.38805" lon="4.32256">
        <ele>158.60000610352</ele>
        <time>2014-12-29T14:59:10.000Z</time>
      </trkpt>
      <trkpt lat="50.38806" lon="4.32263">
        <ele>158.60000610352</ele>
        <time>2014-12-29T14:59:16.000Z</time>
      </trkpt>
      <trkpt lat="50.38809" lon="4.32268">
        <ele>158.60000610352</ele>
        <time>2014-12-29T14:59:20.000Z</time>
      </trkpt>
      <trkpt lat="50.3881" lon="4.32277">
        <ele>158.60000610352</ele>
        <time>2014-12-29T14:59:25.000Z</time>
      </trkpt>
      <trkpt lat="50.3881" lon="4.32279">
        <ele>158.80000305176</ele>
        <time>2014-12-29T14:59:27.000Z</time>
      </trkpt>
      <trkpt lat="50.38809" lon="4.32284">
        <ele>158.80000305176</ele>
        <time>2014-12-29T14:59:31.000Z</time>
      </trkpt>
      <trkpt lat="50.38812" lon="4.32295">
        <ele>159.19999694824</ele>
        <time>2014-12-29T14:59:38.000Z</time>
      </trkpt>
      <trkpt lat="50.38813" lon="4.323">
        <ele>159.19999694824</ele>
        <time>2014-12-29T14:59:43.000Z</time>
      </trkpt>
      <trkpt lat="50.38815" lon="4.32306">
        <ele>159.39999389648</ele>
        <time>2014-12-29T14:59:46.000Z</time>
      </trkpt>
      <trkpt lat="50.38815" lon="4.32307">
        <ele>159.39999389648</ele>
        <time>2014-12-29T14:59:48.000Z</time>
      </trkpt>
      <trkpt lat="50.38818" lon="4.32315">
        <ele>159.39999389648</ele>
        <time>2014-12-29T14:59:54.000Z</time>
      </trkpt>
      <trkpt lat="50.3882" lon="4.32327">
        <ele>159.60000610352</ele>
        <time>2014-12-29T15:00:02.000Z</time>
      </trkpt>
      <trkpt lat="50.3882" lon="4.32328">
        <ele>159.60000610352</ele>
        <time>2014-12-29T15:00:03.000Z</time>
      </trkpt>
      <trkpt lat="50.38821" lon="4.3233">
        <ele>159.60000610352</ele>
        <time>2014-12-29T15:00:06.000Z</time>
      </trkpt>
      <trkpt lat="50.38823" lon="4.32337">
        <ele>159.60000610352</ele>
        <time>2014-12-29T15:00:11.000Z</time>
      </trkpt>
      <trkpt lat="50.38827" lon="4.3235">
        <ele>159.80000305176</ele>
        <time>2014-12-29T15:00:20.000Z</time>
      </trkpt>
      <trkpt lat="50.38832" lon="4.32365">
        <ele>160</ele>
        <time>2014-12-29T15:00:34.000Z</time>
      </trkpt>
      <trkpt lat="50.38836" lon="4.32376">
        <ele>160</ele>
        <time>2014-12-29T15:00:41.000Z</time>
      </trkpt>
      <trkpt lat="50.38843" lon="4.3239">
        <ele>160</ele>
        <time>2014-12-29T15:00:51.000Z</time>
      </trkpt>
      <trkpt lat="50.38848" lon="4.324">
        <ele>160</ele>
        <time>2014-12-29T15:00:58.000Z</time>
      </trkpt>
      <trkpt lat="50.38853" lon="4.32407">
        <ele>160</ele>
        <time>2014-12-29T15:01:04.000Z</time>
      </trkpt>
      <trkpt lat="50.38862" lon="4.3242">
        <ele>160</ele>
        <time>2014-12-29T15:01:14.000Z</time>
      </trkpt>
      <trkpt lat="50.38868" lon="4.32428">
        <ele>160</ele>
        <time>2014-12-29T15:01:21.000Z</time>
      </trkpt>
      <trkpt lat="50.38878" lon="4.32442">
        <ele>160</ele>
        <time>2014-12-29T15:01:32.000Z</time>
      </trkpt>
      <trkpt lat="50.38883" lon="4.3245">
        <ele>160</ele>
        <time>2014-12-29T15:01:38.000Z</time>
      </trkpt>
      <trkpt lat="50.38888" lon="4.32459">
        <ele>159.80000305176</ele>
        <time>2014-12-29T15:01:45.000Z</time>
      </trkpt>
      <trkpt lat="50.38893" lon="4.32469">
        <ele>159.80000305176</ele>
        <time>2014-12-29T15:01:52.000Z</time>
      </trkpt>
      <trkpt lat="50.38895" lon="4.32472">
        <ele>159.60000610352</ele>
        <time>2014-12-29T15:01:56.000Z</time>
      </trkpt>
      <trkpt lat="50.389" lon="4.32475">
        <ele>159.60000610352</ele>
        <time>2014-12-29T15:02:01.000Z</time>
      </trkpt>
      <trkpt lat="50.38902" lon="4.32478">
        <ele>159.60000610352</ele>
        <time>2014-12-29T15:02:07.000Z</time>
      </trkpt>
      <trkpt lat="50.38904" lon="4.3248">
        <ele>159.39999389648</ele>
        <time>2014-12-29T15:02:11.000Z</time>
      </trkpt>
      <trkpt lat="50.38924" lon="4.32508">
        <ele>159</ele>
        <time>2014-12-29T15:02:34.000Z</time>
      </trkpt>
      <trkpt lat="50.38931" lon="4.32516">
        <ele>158.80000305176</ele>
        <time>2014-12-29T15:02:41.000Z</time>
      </trkpt>
      <trkpt lat="50.38937" lon="4.32525">
        <ele>158.60000610352</ele>
        <time>2014-12-29T15:02:48.000Z</time>
      </trkpt>
      <trkpt lat="50.38945" lon="4.32535">
        <ele>158.39999389648</ele>
        <time>2014-12-29T15:02:57.000Z</time>
      </trkpt>
      <trkpt lat="50.38952" lon="4.32545">
        <ele>158.39999389648</ele>
        <time>2014-12-29T15:03:05.000Z</time>
      </trkpt>
      <trkpt lat="50.38961" lon="4.32555">
        <ele>158</ele>
        <time>2014-12-29T15:03:14.000Z</time>
      </trkpt>
      <trkpt lat="50.38973" lon="4.32567">
        <ele>157.80000305176</ele>
        <time>2014-12-29T15:03:25.000Z</time>
      </trkpt>
      <trkpt lat="50.38983" lon="4.32576">
        <ele>157.60000610352</ele>
        <time>2014-12-29T15:03:35.000Z</time>
      </trkpt>
      <trkpt lat="50.38992" lon="4.32587">
        <ele>157.39999389648</ele>
        <time>2014-12-29T15:03:45.000Z</time>
      </trkpt>
      <trkpt lat="50.38999" lon="4.32595">
        <ele>157.19999694824</ele>
        <time>2014-12-29T15:03:52.000Z</time>
      </trkpt>
      <trkpt lat="50.39005" lon="4.32608">
        <ele>157</ele>
        <time>2014-12-29T15:04:01.000Z</time>
      </trkpt>
      <trkpt lat="50.39005" lon="4.3261">
        <ele>157</ele>
        <time>2014-12-29T15:04:02.000Z</time>
      </trkpt>
      <trkpt lat="50.38997" lon="4.32623">
        <ele>157.39999389648</ele>
        <time>2014-12-29T15:04:11.000Z</time>
      </trkpt>
      <trkpt lat="50.38975" lon="4.32631">
        <ele>157.80000305176</ele>
        <time>2014-12-29T15:04:30.000Z</time>
      </trkpt>
      <trkpt lat="50.38953" lon="4.32636">
        <ele>157.80000305176</ele>
        <time>2014-12-29T15:04:48.000Z</time>
      </trkpt>
      <trkpt lat="50.38941" lon="4.32643">
        <ele>158</ele>
        <time>2014-12-29T15:04:59.000Z</time>
      </trkpt>
      <trkpt lat="50.38927" lon="4.3265">
        <ele>158</ele>
        <time>2014-12-29T15:05:11.000Z</time>
      </trkpt>
      <trkpt lat="50.38917" lon="4.32654">
        <ele>158</ele>
        <time>2014-12-29T15:05:20.000Z</time>
      </trkpt>
      <trkpt lat="50.38904" lon="4.32661">
        <ele>157.80000305176</ele>
        <time>2014-12-29T15:05:31.000Z</time>
      </trkpt>
      <trkpt lat="50.38898" lon="4.32665">
        <ele>157.80000305176</ele>
        <time>2014-12-29T15:05:36.000Z</time>
      </trkpt>
      <trkpt lat="50.3889" lon="4.3267">
        <ele>157.60000610352</ele>
        <time>2014-12-29T15:05:43.000Z</time>
      </trkpt>
      <trkpt lat="50.38888" lon="4.32671">
        <ele>157.60000610352</ele>
        <time>2014-12-29T15:05:44.000Z</time>
      </trkpt>
      <trkpt lat="50.38876" lon="4.32678">
        <ele>157.19999694824</ele>
        <time>2014-12-29T15:05:55.000Z</time>
      </trkpt>
      <trkpt lat="50.38866" lon="4.32683">
        <ele>156.80000305176</ele>
        <time>2014-12-29T15:06:03.000Z</time>
      </trkpt>
      <trkpt lat="50.38857" lon="4.32688">
        <ele>156.39999389648</ele>
        <time>2014-12-29T15:06:11.000Z</time>
      </trkpt>
      <trkpt lat="50.38849" lon="4.32694">
        <ele>156</ele>
        <time>2014-12-29T15:06:18.000Z</time>
      </trkpt>
      <trkpt lat="50.38839" lon="4.32703">
        <ele>155.39999389648</ele>
        <time>2014-12-29T15:06:27.000Z</time>
      </trkpt>
      <trkpt lat="50.38836" lon="4.32703">
        <ele>155.19999694824</ele>
        <time>2014-12-29T15:06:30.000Z</time>
      </trkpt>
      <trkpt lat="50.3883" lon="4.32706">
        <ele>155</ele>
        <time>2014-12-29T15:06:36.000Z</time>
      </trkpt>
      <trkpt lat="50.38825" lon="4.32711">
        <ele>154.80000305176</ele>
        <time>2014-12-29T15:06:41.000Z</time>
      </trkpt>
      <trkpt lat="50.38816" lon="4.32716">
        <ele>154.39999389648</ele>
        <time>2014-12-29T15:06:48.000Z</time>
      </trkpt>
      <trkpt lat="50.38809" lon="4.3272">
        <ele>154.19999694824</ele>
        <time>2014-12-29T15:06:54.000Z</time>
      </trkpt>
      <trkpt lat="50.38804" lon="4.32723">
        <ele>154</ele>
        <time>2014-12-29T15:06:58.000Z</time>
      </trkpt>
      <trkpt lat="50.38807" lon="4.32725">
        <ele>154</ele>
        <time>2014-12-29T15:07:02.000Z</time>
      </trkpt>
      <trkpt lat="50.3881" lon="4.32723">
        <ele>154.19999694824</ele>
        <time>2014-12-29T15:07:05.000Z</time>
      </trkpt>
      <trkpt lat="50.38815" lon="4.32722">
        <ele>154.39999389648</ele>
        <time>2014-12-29T15:07:09.000Z</time>
      </trkpt>
    </trkseg>
  </trk>
</gpx>